<?xml version="1.0" encoding="UTF-8" standalone="no" ?><gpx xmlns="http://www.topografix.com/GPX/1/1" xmlns:gpxx="http://www.garmin.com/xmlschemas/GpxExtensions/v3" xmlns:wptx1="http://www.garmin.com/xmlschemas/WaypointExtension/v1" xmlns:gpxtpx="http://www.garmin.com/xmlschemas/TrackPointExtension/v1" creator="GuideVTT.com" version="1.1" xmlns:xsi="http://www.w3.org/2001/XMLSchema-instance" xsi:schemaLocation="http://www.topografix.com/GPX/1/1 http://www.topografix.com/GPX/1/1/gpx.xsd http://www.garmin.com/xmlschemas/GpxExtensions/v3 http://www8.garmin.com/xmlschemas/GpxExtensionsv3.xsd http://www.garmin.com/xmlschemas/WaypointExtension/v1 http://www8.garmin.com/xmlschemas/WaypointExtensionv1.xsd http://www.garmin.com/xmlschemas/TrackPointExtension/v1 http://www.garmin.com/xmlschemas/TrackPointExtensionv1.xsd">
<metadata><link href="http://www.garmin.com"><text>Garmin International</text></link><time>2013-06-22T15:13:50Z</time></metadata>
<trk><name>vtt_2016-11-13_5828250a72b0cac01e3fcfbf.gpx</name><extensions><gpxx:TrackExtension><gpxx:DisplayColor>Cyan</gpxx:DisplayColor></gpxx:TrackExtension></extensions><trkseg>
<trkpt lat="49.12865447998" lon="2.6902523040771"><ele></ele><time>2022-6-23T9:46:26Z</time></trkpt>
<trkpt lat="49.12865447998" lon="2.6902523040771"><ele></ele><time>2022-6-23T9:46:29Z</time></trkpt>
<trkpt lat="49.12865447998" lon="2.6902523040771"><ele></ele><time>2022-6-23T9:46:32Z</time></trkpt>
<trkpt lat="49.12865447998" lon="2.6902523040771"><ele></ele><time>2022-6-23T9:46:35Z</time></trkpt>
<trkpt lat="49.12865447998" lon="2.6902523040771"><ele></ele><time>2022-6-23T9:46:38Z</time></trkpt>
<trkpt lat="49.12865447998" lon="2.6902523040771"><ele></ele><time>2022-6-23T9:46:41Z</time></trkpt>
<trkpt lat="49.12865447998" lon="2.6902523040771"><ele></ele><time>2022-6-23T9:46:44Z</time></trkpt>
<trkpt lat="49.128723144531" lon="2.6900262832642"><ele></ele><time>2022-6-23T9:46:47Z</time></trkpt>
<trkpt lat="49.12865447998" lon="2.6900081634521"><ele></ele><time>2022-6-23T9:46:50Z</time></trkpt>
<trkpt lat="49.12865447998" lon="2.6900081634521"><ele></ele><time>2022-6-23T9:46:53Z</time></trkpt>
<trkpt lat="49.12865447998" lon="2.6900081634521"><ele></ele><time>2022-6-23T9:46:56Z</time></trkpt>
<trkpt lat="49.128597259521" lon="2.6900880336761"><ele></ele><time>2022-6-23T9:46:59Z</time></trkpt>
<trkpt lat="49.128597259521" lon="2.6900880336761"><ele></ele><time>2022-6-23T9:47:2Z</time></trkpt>
<trkpt lat="49.128597259521" lon="2.6900880336761"><ele></ele><time>2022-6-23T9:47:5Z</time></trkpt>
<trkpt lat="49.128597259521" lon="2.6900880336761"><ele></ele><time>2022-6-23T9:47:8Z</time></trkpt>
<trkpt lat="49.128494262695" lon="2.6899814605713"><ele></ele><time>2022-6-23T9:47:11Z</time></trkpt>
<trkpt lat="49.128372192383" lon="2.6899411678314"><ele></ele><time>2022-6-23T9:47:14Z</time></trkpt>
<trkpt lat="49.128284454346" lon="2.689923286438"><ele></ele><time>2022-6-23T9:47:17Z</time></trkpt>
<trkpt lat="49.128284454346" lon="2.689923286438"><ele></ele><time>2022-6-23T9:47:20Z</time></trkpt>
<trkpt lat="49.128196716309" lon="2.6898884773254"><ele></ele><time>2022-6-23T9:47:23Z</time></trkpt>
<trkpt lat="49.128108978271" lon="2.6898539066315"><ele></ele><time>2022-6-23T9:47:26Z</time></trkpt>
<trkpt lat="49.128044128418" lon="2.6898341178894"><ele></ele><time>2022-6-23T9:47:29Z</time></trkpt>
<trkpt lat="49.128044128418" lon="2.6898341178894"><ele></ele><time>2022-6-23T9:47:32Z</time></trkpt>
<trkpt lat="49.127983093262" lon="2.6898295879364"><ele></ele><time>2022-6-23T9:47:35Z</time></trkpt>
<trkpt lat="49.127922058105" lon="2.6898469924927"><ele></ele><time>2022-6-23T9:47:38Z</time></trkpt>
<trkpt lat="49.12784576416" lon="2.689868927002"><ele></ele><time>2022-6-23T9:47:41Z</time></trkpt>
<trkpt lat="49.12784576416" lon="2.689868927002"><ele></ele><time>2022-6-23T9:47:44Z</time></trkpt>
<trkpt lat="49.127777099609" lon="2.6899032592773"><ele></ele><time>2022-6-23T9:47:47Z</time></trkpt>
<trkpt lat="49.12769317627" lon="2.6899523735046"><ele></ele><time>2022-6-23T9:47:50Z</time></trkpt>
<trkpt lat="49.127601623535" lon="2.6900022029877"><ele></ele><time>2022-6-23T9:47:53Z</time></trkpt>
<trkpt lat="49.127601623535" lon="2.6900022029877"><ele></ele><time>2022-6-23T9:47:56Z</time></trkpt>
<trkpt lat="49.127506256104" lon="2.6900496482849"><ele></ele><time>2022-6-23T9:47:59Z</time></trkpt>
<trkpt lat="49.127410888672" lon="2.6900980472565"><ele></ele><time>2022-6-23T9:48:2Z</time></trkpt>
<trkpt lat="49.127323150635" lon="2.6901450157166"><ele></ele><time>2022-6-23T9:48:5Z</time></trkpt>
<trkpt lat="49.127323150635" lon="2.6901450157166"><ele></ele><time>2022-6-23T9:48:8Z</time></trkpt>
<trkpt lat="49.127243041992" lon="2.690197467804"><ele></ele><time>2022-6-23T9:48:11Z</time></trkpt>
<trkpt lat="49.127166748047" lon="2.6902532577515"><ele></ele><time>2022-6-23T9:48:14Z</time></trkpt>
<trkpt lat="49.127086639404" lon="2.6903111934662"><ele></ele><time>2022-6-23T9:48:17Z</time></trkpt>
<trkpt lat="49.127086639404" lon="2.6903111934662"><ele></ele><time>2022-6-23T9:48:20Z</time></trkpt>
<trkpt lat="49.127006530762" lon="2.690372467041"><ele></ele><time>2022-6-23T9:48:23Z</time></trkpt>
<trkpt lat="49.126907348633" lon="2.6904358863831"><ele></ele><time>2022-6-23T9:48:26Z</time></trkpt>
<trkpt lat="49.126815795898" lon="2.690509557724"><ele></ele><time>2022-6-23T9:48:29Z</time></trkpt>
<trkpt lat="49.126815795898" lon="2.690509557724"><ele></ele><time>2022-6-23T9:48:32Z</time></trkpt>
<trkpt lat="49.126724243164" lon="2.6905910968781"><ele></ele><time>2022-6-23T9:48:35Z</time></trkpt>
<trkpt lat="49.126640319824" lon="2.6906943321228"><ele></ele><time>2022-6-23T9:48:38Z</time></trkpt>
<trkpt lat="49.126560211182" lon="2.690845489502"><ele></ele><time>2022-6-23T9:48:41Z</time></trkpt>
<trkpt lat="49.126560211182" lon="2.690845489502"><ele></ele><time>2022-6-23T9:48:44Z</time></trkpt>
<trkpt lat="49.126491546631" lon="2.6910281181335"><ele></ele><time>2022-6-23T9:48:47Z</time></trkpt>
<trkpt lat="49.126426696777" lon="2.6911878585815"><ele></ele><time>2022-6-23T9:48:50Z</time></trkpt>
<trkpt lat="49.126365661621" lon="2.6912794113159"><ele></ele><time>2022-6-23T9:48:53Z</time></trkpt>
<trkpt lat="49.126365661621" lon="2.6912794113159"><ele></ele><time>2022-6-23T9:48:56Z</time></trkpt>
<trkpt lat="49.126304626465" lon="2.6913714408875"><ele></ele><time>2022-6-23T9:48:59Z</time></trkpt>
<trkpt lat="49.126232147217" lon="2.691456079483"><ele></ele><time>2022-6-23T9:49:2Z</time></trkpt>
<trkpt lat="49.126159667969" lon="2.6915647983551"><ele></ele><time>2022-6-23T9:49:5Z</time></trkpt>
<trkpt lat="49.126159667969" lon="2.6915647983551"><ele></ele><time>2022-6-23T9:49:8Z</time></trkpt>
<trkpt lat="49.126068115234" lon="2.6916825771332"><ele></ele><time>2022-6-23T9:49:11Z</time></trkpt>
<trkpt lat="49.1259765625" lon="2.691798210144"><ele></ele><time>2022-6-23T9:49:14Z</time></trkpt>
<trkpt lat="49.125885009766" lon="2.6919188499451"><ele></ele><time>2022-6-23T9:49:17Z</time></trkpt>
<trkpt lat="49.125885009766" lon="2.6919188499451"><ele></ele><time>2022-6-23T9:49:20Z</time></trkpt>
<trkpt lat="49.125789642334" lon="2.6920483112335"><ele></ele><time>2022-6-23T9:49:23Z</time></trkpt>
<trkpt lat="49.125701904297" lon="2.6921753883362"><ele></ele><time>2022-6-23T9:49:26Z</time></trkpt>
<trkpt lat="49.125629425049" lon="2.6922981739044"><ele></ele><time>2022-6-23T9:49:29Z</time></trkpt>
<trkpt lat="49.125629425049" lon="2.6922981739044"><ele></ele><time>2022-6-23T9:49:32Z</time></trkpt>
<trkpt lat="49.125579833984" lon="2.6924257278442"><ele></ele><time>2022-6-23T9:49:35Z</time></trkpt>
<trkpt lat="49.125556945801" lon="2.6925477981567"><ele></ele><time>2022-6-23T9:49:38Z</time></trkpt>
<trkpt lat="49.125556945801" lon="2.6926617622375"><ele></ele><time>2022-6-23T9:49:41Z</time></trkpt>
<trkpt lat="49.125556945801" lon="2.6926617622375"><ele></ele><time>2022-6-23T9:49:44Z</time></trkpt>
<trkpt lat="49.125564575195" lon="2.6927645206451"><ele></ele><time>2022-6-23T9:49:47Z</time></trkpt>
<trkpt lat="49.12557220459" lon="2.6928629875183"><ele></ele><time>2022-6-23T9:49:50Z</time></trkpt>
<trkpt lat="49.125587463379" lon="2.6929495334625"><ele></ele><time>2022-6-23T9:49:53Z</time></trkpt>
<trkpt lat="49.125587463379" lon="2.6929495334625"><ele></ele><time>2022-6-23T9:49:56Z</time></trkpt>
<trkpt lat="49.125610351562" lon="2.6930675506592"><ele></ele><time>2022-6-23T9:49:59Z</time></trkpt>
<trkpt lat="49.125625610352" lon="2.69318318367"><ele></ele><time>2022-6-23T9:50:2Z</time></trkpt>
<trkpt lat="49.125644683838" lon="2.6932897567749"><ele></ele><time>2022-6-23T9:50:5Z</time></trkpt>
<trkpt lat="49.125644683838" lon="2.6932897567749"><ele></ele><time>2022-6-23T9:50:8Z</time></trkpt>
<trkpt lat="49.12565612793" lon="2.6934003829956"><ele></ele><time>2022-6-23T9:50:11Z</time></trkpt>
<trkpt lat="49.125671386719" lon="2.693507194519"><ele></ele><time>2022-6-23T9:50:14Z</time></trkpt>
<trkpt lat="49.125717163086" lon="2.6935746669769"><ele></ele><time>2022-6-23T9:50:17Z</time></trkpt>
<trkpt lat="49.125717163086" lon="2.6935746669769"><ele></ele><time>2022-6-23T9:50:20Z</time></trkpt>
<trkpt lat="49.125717163086" lon="2.6935746669769"><ele></ele><time>2022-6-23T9:50:23Z</time></trkpt>
<trkpt lat="49.125804901123" lon="2.6936528682709"><ele></ele><time>2022-6-23T9:50:26Z</time></trkpt>
<trkpt lat="49.125881195068" lon="2.6937010288239"><ele></ele><time>2022-6-23T9:50:29Z</time></trkpt>
<trkpt lat="49.125881195068" lon="2.6937010288239"><ele></ele><time>2022-6-23T9:50:32Z</time></trkpt>
<trkpt lat="49.125972747803" lon="2.6937627792358"><ele></ele><time>2022-6-23T9:50:35Z</time></trkpt>
<trkpt lat="49.12606048584" lon="2.693813085556"><ele></ele><time>2022-6-23T9:50:38Z</time></trkpt>
<trkpt lat="49.126140594482" lon="2.6938636302948"><ele></ele><time>2022-6-23T9:50:41Z</time></trkpt>
<trkpt lat="49.126140594482" lon="2.6938636302948"><ele></ele><time>2022-6-23T9:50:44Z</time></trkpt>
<trkpt lat="49.126220703125" lon="2.6939253807068"><ele></ele><time>2022-6-23T9:50:47Z</time></trkpt>
<trkpt lat="49.126293182373" lon="2.6939923763275"><ele></ele><time>2022-6-23T9:50:50Z</time></trkpt>
<trkpt lat="49.126358032227" lon="2.6940619945526"><ele></ele><time>2022-6-23T9:50:53Z</time></trkpt>
<trkpt lat="49.126358032227" lon="2.6940619945526"><ele></ele><time>2022-6-23T9:50:56Z</time></trkpt>
<trkpt lat="49.126434326172" lon="2.6941313743591"><ele></ele><time>2022-6-23T9:50:59Z</time></trkpt>
<trkpt lat="49.126499176025" lon="2.6941850185394"><ele></ele><time>2022-6-23T9:51:2Z</time></trkpt>
<trkpt lat="49.126575469971" lon="2.6942481994629"><ele></ele><time>2022-6-23T9:51:5Z</time></trkpt>
<trkpt lat="49.126575469971" lon="2.6942481994629"><ele></ele><time>2022-6-23T9:51:8Z</time></trkpt>
<trkpt lat="49.126651763916" lon="2.6943221092224"><ele></ele><time>2022-6-23T9:51:11Z</time></trkpt>
<trkpt lat="49.126728057861" lon="2.6943795681"><ele></ele><time>2022-6-23T9:51:14Z</time></trkpt>
<trkpt lat="49.126728057861" lon="2.6943795681"><ele></ele><time>2022-6-23T9:51:17Z</time></trkpt>
<trkpt lat="49.126728057861" lon="2.6943795681"><ele></ele><time>2022-6-23T9:51:20Z</time></trkpt>
<trkpt lat="49.126815795898" lon="2.694545507431"><ele></ele><time>2022-6-23T9:51:23Z</time></trkpt>
<trkpt lat="49.126865386963" lon="2.6946842670441"><ele></ele><time>2022-6-23T9:51:26Z</time></trkpt>
<trkpt lat="49.126907348633" lon="2.694807767868"><ele></ele><time>2022-6-23T9:51:29Z</time></trkpt>
<trkpt lat="49.126949310303" lon="2.6949157714844"><ele></ele><time>2022-6-23T9:51:32Z</time></trkpt>
<trkpt lat="49.127006530762" lon="2.6950235366821"><ele></ele><time>2022-6-23T9:51:35Z</time></trkpt>
<trkpt lat="49.127071380615" lon="2.6951258182526"><ele></ele><time>2022-6-23T9:51:38Z</time></trkpt>
<trkpt lat="49.127143859863" lon="2.6952323913574"><ele></ele><time>2022-6-23T9:51:41Z</time></trkpt>
<trkpt lat="49.127212524414" lon="2.6953341960907"><ele></ele><time>2022-6-23T9:51:44Z</time></trkpt>
<trkpt lat="49.127281188965" lon="2.695431470871"><ele></ele><time>2022-6-23T9:51:47Z</time></trkpt>
<trkpt lat="49.127334594727" lon="2.6955127716064"><ele></ele><time>2022-6-23T9:51:50Z</time></trkpt>
<trkpt lat="49.127384185791" lon="2.6955900192261"><ele></ele><time>2022-6-23T9:51:53Z</time></trkpt>
<trkpt lat="49.127426147461" lon="2.6956608295441"><ele></ele><time>2022-6-23T9:51:56Z</time></trkpt>
<trkpt lat="49.127471923828" lon="2.6957514286041"><ele></ele><time>2022-6-23T9:51:59Z</time></trkpt>
<trkpt lat="49.127510070801" lon="2.6958403587341"><ele></ele><time>2022-6-23T9:52:2Z</time></trkpt>
<trkpt lat="49.127552032471" lon="2.6959314346313"><ele></ele><time>2022-6-23T9:52:5Z</time></trkpt>
<trkpt lat="49.127593994141" lon="2.6960289478302"><ele></ele><time>2022-6-23T9:52:8Z</time></trkpt>
<trkpt lat="49.127632141113" lon="2.696132183075"><ele></ele><time>2022-6-23T9:52:11Z</time></trkpt>
<trkpt lat="49.127632141113" lon="2.696132183075"><ele></ele><time>2022-6-23T9:52:14Z</time></trkpt>
<trkpt lat="49.12767791748" lon="2.6962358951569"><ele></ele><time>2022-6-23T9:52:17Z</time></trkpt>
<trkpt lat="49.127727508545" lon="2.6963555812836"><ele></ele><time>2022-6-23T9:52:20Z</time></trkpt>
<trkpt lat="49.12776184082" lon="2.6964769363403"><ele></ele><time>2022-6-23T9:52:23Z</time></trkpt>
<trkpt lat="49.12776184082" lon="2.6964769363403"><ele></ele><time>2022-6-23T9:52:26Z</time></trkpt>
<trkpt lat="49.127788543701" lon="2.6966042518616"><ele></ele><time>2022-6-23T9:52:29Z</time></trkpt>
<trkpt lat="49.12780380249" lon="2.6967506408691"><ele></ele><time>2022-6-23T9:52:32Z</time></trkpt>
<trkpt lat="49.12780380249" lon="2.6968748569489"><ele></ele><time>2022-6-23T9:52:35Z</time></trkpt>
<trkpt lat="49.12780380249" lon="2.6968748569489"><ele></ele><time>2022-6-23T9:52:38Z</time></trkpt>
<trkpt lat="49.12780380249" lon="2.696986913681"><ele></ele><time>2022-6-23T9:52:41Z</time></trkpt>
<trkpt lat="49.127799987793" lon="2.6970944404602"><ele></ele><time>2022-6-23T9:52:44Z</time></trkpt>
<trkpt lat="49.127792358398" lon="2.6971943378448"><ele></ele><time>2022-6-23T9:52:47Z</time></trkpt>
<trkpt lat="49.127792358398" lon="2.6971943378448"><ele></ele><time>2022-6-23T9:52:50Z</time></trkpt>
<trkpt lat="49.127780914307" lon="2.6973378658295"><ele></ele><time>2022-6-23T9:52:53Z</time></trkpt>
<trkpt lat="49.127773284912" lon="2.6974680423737"><ele></ele><time>2022-6-23T9:52:56Z</time></trkpt>
<trkpt lat="49.12776184082" lon="2.6975605487823"><ele></ele><time>2022-6-23T9:52:59Z</time></trkpt>
<trkpt lat="49.12776184082" lon="2.6975605487823"><ele></ele><time>2022-6-23T9:53:2Z</time></trkpt>
<trkpt lat="49.12776184082" lon="2.6975605487823"><ele></ele><time>2022-6-23T9:53:5Z</time></trkpt>
<trkpt lat="49.127765655518" lon="2.6977617740631"><ele></ele><time>2022-6-23T9:53:8Z</time></trkpt>
<trkpt lat="49.127777099609" lon="2.69788813591"><ele></ele><time>2022-6-23T9:53:11Z</time></trkpt>
<trkpt lat="49.127777099609" lon="2.69788813591"><ele></ele><time>2022-6-23T9:53:14Z</time></trkpt>
<trkpt lat="49.127792358398" lon="2.6980173587799"><ele></ele><time>2022-6-23T9:53:17Z</time></trkpt>
<trkpt lat="49.127799987793" lon="2.6981472969055"><ele></ele><time>2022-6-23T9:53:20Z</time></trkpt>
<trkpt lat="49.127807617188" lon="2.6982653141022"><ele></ele><time>2022-6-23T9:53:23Z</time></trkpt>
<trkpt lat="49.127807617188" lon="2.6982653141022"><ele></ele><time>2022-6-23T9:53:26Z</time></trkpt>
<trkpt lat="49.127815246582" lon="2.6983819007874"><ele></ele><time>2022-6-23T9:53:29Z</time></trkpt>
<trkpt lat="49.127826690674" lon="2.6985192298889"><ele></ele><time>2022-6-23T9:53:32Z</time></trkpt>
<trkpt lat="49.127838134766" lon="2.6986315250397"><ele></ele><time>2022-6-23T9:53:35Z</time></trkpt>
<trkpt lat="49.127838134766" lon="2.6986315250397"><ele></ele><time>2022-6-23T9:53:38Z</time></trkpt>
<trkpt lat="49.127853393555" lon="2.6987433433533"><ele></ele><time>2022-6-23T9:53:41Z</time></trkpt>
<trkpt lat="49.127864837646" lon="2.6988463401794"><ele></ele><time>2022-6-23T9:53:44Z</time></trkpt>
<trkpt lat="49.127876281738" lon="2.6989526748657"><ele></ele><time>2022-6-23T9:53:47Z</time></trkpt>
<trkpt lat="49.127876281738" lon="2.6989526748657"><ele></ele><time>2022-6-23T9:53:50Z</time></trkpt>
<trkpt lat="49.127883911133" lon="2.6990873813629"><ele></ele><time>2022-6-23T9:53:53Z</time></trkpt>
<trkpt lat="49.12788772583" lon="2.6992211341858"><ele></ele><time>2022-6-23T9:53:56Z</time></trkpt>
<trkpt lat="49.127895355225" lon="2.6993501186371"><ele></ele><time>2022-6-23T9:53:59Z</time></trkpt>
<trkpt lat="49.127895355225" lon="2.6993501186371"><ele></ele><time>2022-6-23T9:54:2Z</time></trkpt>
<trkpt lat="49.127914428711" lon="2.6994807720184"><ele></ele><time>2022-6-23T9:54:5Z</time></trkpt>
<trkpt lat="49.1279296875" lon="2.6995716094971"><ele></ele><time>2022-6-23T9:54:8Z</time></trkpt>
<trkpt lat="49.1279296875" lon="2.6995716094971"><ele></ele><time>2022-6-23T9:54:11Z</time></trkpt>
<trkpt lat="49.1279296875" lon="2.6995716094971"><ele></ele><time>2022-6-23T9:54:14Z</time></trkpt>
<trkpt lat="49.127944946289" lon="2.6997745037079"><ele></ele><time>2022-6-23T9:54:17Z</time></trkpt>
<trkpt lat="49.127933502197" lon="2.6998655796051"><ele></ele><time>2022-6-23T9:54:20Z</time></trkpt>
<trkpt lat="49.127914428711" lon="2.699976682663"><ele></ele><time>2022-6-23T9:54:23Z</time></trkpt>
<trkpt lat="49.127914428711" lon="2.699976682663"><ele></ele><time>2022-6-23T9:54:26Z</time></trkpt>
<trkpt lat="49.127899169922" lon="2.7000765800476"><ele></ele><time>2022-6-23T9:54:29Z</time></trkpt>
<trkpt lat="49.127861022949" lon="2.7001769542694"><ele></ele><time>2022-6-23T9:54:32Z</time></trkpt>
<trkpt lat="49.127861022949" lon="2.7001769542694"><ele></ele><time>2022-6-23T9:54:35Z</time></trkpt>
<trkpt lat="49.127861022949" lon="2.7001769542694"><ele></ele><time>2022-6-23T9:54:38Z</time></trkpt>
<trkpt lat="49.127742767334" lon="2.7002129554749"><ele></ele><time>2022-6-23T9:54:41Z</time></trkpt>
<trkpt lat="49.12767791748" lon="2.7002213001251"><ele></ele><time>2022-6-23T9:54:44Z</time></trkpt>
<trkpt lat="49.127616882324" lon="2.7002234458923"><ele></ele><time>2022-6-23T9:54:47Z</time></trkpt>
<trkpt lat="49.127616882324" lon="2.7002234458923"><ele></ele><time>2022-6-23T9:54:50Z</time></trkpt>
<trkpt lat="49.127616882324" lon="2.7002234458923"><ele></ele><time>2022-6-23T9:54:53Z</time></trkpt>
<trkpt lat="49.127521514893" lon="2.700254201889"><ele></ele><time>2022-6-23T9:54:56Z</time></trkpt>
<trkpt lat="49.127521514893" lon="2.700254201889"><ele></ele><time>2022-6-23T9:54:59Z</time></trkpt>
<trkpt lat="49.127521514893" lon="2.700254201889"><ele></ele><time>2022-6-23T9:55:2Z</time></trkpt>
<trkpt lat="49.127498626709" lon="2.70037317276"><ele></ele><time>2022-6-23T9:55:5Z</time></trkpt>
<trkpt lat="49.127498626709" lon="2.7004613876343"><ele></ele><time>2022-6-23T9:55:8Z</time></trkpt>
<trkpt lat="49.127498626709" lon="2.7004613876343"><ele></ele><time>2022-6-23T9:55:11Z</time></trkpt>
<trkpt lat="49.127498626709" lon="2.7004613876343"><ele></ele><time>2022-6-23T9:55:14Z</time></trkpt>
<trkpt lat="49.127487182617" lon="2.7005879878998"><ele></ele><time>2022-6-23T9:55:17Z</time></trkpt>
<trkpt lat="49.127487182617" lon="2.7005879878998"><ele></ele><time>2022-6-23T9:55:20Z</time></trkpt>
<trkpt lat="49.127487182617" lon="2.7005879878998"><ele></ele><time>2022-6-23T9:55:23Z</time></trkpt>
<trkpt lat="49.127487182617" lon="2.7005879878998"><ele></ele><time>2022-6-23T9:55:26Z</time></trkpt>
<trkpt lat="49.127494812012" lon="2.7006783485413"><ele></ele><time>2022-6-23T9:55:29Z</time></trkpt>
<trkpt lat="49.127494812012" lon="2.7006783485413"><ele></ele><time>2022-6-23T9:55:32Z</time></trkpt>
<trkpt lat="49.127460479736" lon="2.7008244991302"><ele></ele><time>2022-6-23T9:55:35Z</time></trkpt>
<trkpt lat="49.127460479736" lon="2.7008244991302"><ele></ele><time>2022-6-23T9:55:38Z</time></trkpt>
<trkpt lat="49.12744140625" lon="2.7009189128876"><ele></ele><time>2022-6-23T9:55:41Z</time></trkpt>
<trkpt lat="49.127429962158" lon="2.7010114192963"><ele></ele><time>2022-6-23T9:55:44Z</time></trkpt>
<trkpt lat="49.127418518066" lon="2.701119184494"><ele></ele><time>2022-6-23T9:55:47Z</time></trkpt>
<trkpt lat="49.127418518066" lon="2.701119184494"><ele></ele><time>2022-6-23T9:55:50Z</time></trkpt>
<trkpt lat="49.127403259277" lon="2.7012348175049"><ele></ele><time>2022-6-23T9:55:53Z</time></trkpt>
<trkpt lat="49.127391815186" lon="2.7013313770294"><ele></ele><time>2022-6-23T9:55:56Z</time></trkpt>
<trkpt lat="49.127384185791" lon="2.7014367580414"><ele></ele><time>2022-6-23T9:55:59Z</time></trkpt>
<trkpt lat="49.127384185791" lon="2.7014367580414"><ele></ele><time>2022-6-23T9:56:2Z</time></trkpt>
<trkpt lat="49.127395629883" lon="2.7015671730042"><ele></ele><time>2022-6-23T9:56:5Z</time></trkpt>
<trkpt lat="49.127437591553" lon="2.701691865921"><ele></ele><time>2022-6-23T9:56:8Z</time></trkpt>
<trkpt lat="49.127498626709" lon="2.7017867565155"><ele></ele><time>2022-6-23T9:56:11Z</time></trkpt>
<trkpt lat="49.127498626709" lon="2.7017867565155"><ele></ele><time>2022-6-23T9:56:14Z</time></trkpt>
<trkpt lat="49.127555847168" lon="2.7018682956696"><ele></ele><time>2022-6-23T9:56:17Z</time></trkpt>
<trkpt lat="49.127624511719" lon="2.7019462585449"><ele></ele><time>2022-6-23T9:56:20Z</time></trkpt>
<trkpt lat="49.127689361572" lon="2.7020225524902"><ele></ele><time>2022-6-23T9:56:23Z</time></trkpt>
<trkpt lat="49.127689361572" lon="2.7020225524902"><ele></ele><time>2022-6-23T9:56:26Z</time></trkpt>
<trkpt lat="49.127765655518" lon="2.7021014690399"><ele></ele><time>2022-6-23T9:56:29Z</time></trkpt>
<trkpt lat="49.12784576416" lon="2.7021894454956"><ele></ele><time>2022-6-23T9:56:32Z</time></trkpt>
<trkpt lat="49.127910614014" lon="2.7022614479065"><ele></ele><time>2022-6-23T9:56:35Z</time></trkpt>
<trkpt lat="49.127910614014" lon="2.7022614479065"><ele></ele><time>2022-6-23T9:56:38Z</time></trkpt>
<trkpt lat="49.127990722656" lon="2.7023532390594"><ele></ele><time>2022-6-23T9:56:41Z</time></trkpt>
<trkpt lat="49.128067016602" lon="2.702437877655"><ele></ele><time>2022-6-23T9:56:44Z</time></trkpt>
<trkpt lat="49.128120422363" lon="2.7025039196014"><ele></ele><time>2022-6-23T9:56:47Z</time></trkpt>
<trkpt lat="49.128120422363" lon="2.7025039196014"><ele></ele><time>2022-6-23T9:56:50Z</time></trkpt>
<trkpt lat="49.128189086914" lon="2.702565908432"><ele></ele><time>2022-6-23T9:56:53Z</time></trkpt>
<trkpt lat="49.128265380859" lon="2.7026071548462"><ele></ele><time>2022-6-23T9:56:56Z</time></trkpt>
<trkpt lat="49.128341674805" lon="2.7026350498199"><ele></ele><time>2022-6-23T9:56:59Z</time></trkpt>
<trkpt lat="49.128341674805" lon="2.7026350498199"><ele></ele><time>2022-6-23T9:57:2Z</time></trkpt>
<trkpt lat="49.12841796875" lon="2.7025988101959"><ele></ele><time>2022-6-23T9:57:5Z</time></trkpt>
<trkpt lat="49.12841796875" lon="2.7025988101959"><ele></ele><time>2022-6-23T9:57:8Z</time></trkpt>
<trkpt lat="49.128528594971" lon="2.7026054859161"><ele></ele><time>2022-6-23T9:57:11Z</time></trkpt>
<trkpt lat="49.128528594971" lon="2.7026054859161"><ele></ele><time>2022-6-23T9:57:14Z</time></trkpt>
<trkpt lat="49.128528594971" lon="2.7026054859161"><ele></ele><time>2022-6-23T9:57:17Z</time></trkpt>
<trkpt lat="49.12858581543" lon="2.7027175426483"><ele></ele><time>2022-6-23T9:57:20Z</time></trkpt>
<trkpt lat="49.12858581543" lon="2.7028074264526"><ele></ele><time>2022-6-23T9:57:23Z</time></trkpt>
<trkpt lat="49.12858581543" lon="2.7028074264526"><ele></ele><time>2022-6-23T9:57:26Z</time></trkpt>
<trkpt lat="49.128604888916" lon="2.7029454708099"><ele></ele><time>2022-6-23T9:57:29Z</time></trkpt>
<trkpt lat="49.128620147705" lon="2.7030522823334"><ele></ele><time>2022-6-23T9:57:32Z</time></trkpt>
<trkpt lat="49.128635406494" lon="2.703177690506"><ele></ele><time>2022-6-23T9:57:35Z</time></trkpt>
<trkpt lat="49.128635406494" lon="2.703177690506"><ele></ele><time>2022-6-23T9:57:38Z</time></trkpt>
<trkpt lat="49.128665924072" lon="2.7033076286316"><ele></ele><time>2022-6-23T9:57:41Z</time></trkpt>
<trkpt lat="49.128684997559" lon="2.7034165859222"><ele></ele><time>2022-6-23T9:57:44Z</time></trkpt>
<trkpt lat="49.128700256348" lon="2.7035248279572"><ele></ele><time>2022-6-23T9:57:47Z</time></trkpt>
<trkpt lat="49.128700256348" lon="2.7035248279572"><ele></ele><time>2022-6-23T9:57:50Z</time></trkpt>
<trkpt lat="49.128715515137" lon="2.7036397457123"><ele></ele><time>2022-6-23T9:57:53Z</time></trkpt>
<trkpt lat="49.128730773926" lon="2.70374751091"><ele></ele><time>2022-6-23T9:57:56Z</time></trkpt>
<trkpt lat="49.128746032715" lon="2.7038724422455"><ele></ele><time>2022-6-23T9:57:59Z</time></trkpt>
<trkpt lat="49.128746032715" lon="2.7038724422455"><ele></ele><time>2022-6-23T9:58:2Z</time></trkpt>
<trkpt lat="49.128757476807" lon="2.7039933204651"><ele></ele><time>2022-6-23T9:58:5Z</time></trkpt>
<trkpt lat="49.128772735596" lon="2.7040803432465"><ele></ele><time>2022-6-23T9:58:8Z</time></trkpt>
<trkpt lat="49.128772735596" lon="2.7040803432465"><ele></ele><time>2022-6-23T9:58:11Z</time></trkpt>
<trkpt lat="49.128772735596" lon="2.7040803432465"><ele></ele><time>2022-6-23T9:58:14Z</time></trkpt>
<trkpt lat="49.128849029541" lon="2.7041907310486"><ele></ele><time>2022-6-23T9:58:17Z</time></trkpt>
<trkpt lat="49.128860473633" lon="2.704286813736"><ele></ele><time>2022-6-23T9:58:20Z</time></trkpt>
<trkpt lat="49.128871917725" lon="2.7043838500977"><ele></ele><time>2022-6-23T9:58:23Z</time></trkpt>
<trkpt lat="49.128887176514" lon="2.7044830322266"><ele></ele><time>2022-6-23T9:58:26Z</time></trkpt>
<trkpt lat="49.128902435303" lon="2.7045984268188"><ele></ele><time>2022-6-23T9:58:29Z</time></trkpt>
<trkpt lat="49.128913879395" lon="2.7047121524811"><ele></ele><time>2022-6-23T9:58:32Z</time></trkpt>
<trkpt lat="49.128913879395" lon="2.7047121524811"><ele></ele><time>2022-6-23T9:58:35Z</time></trkpt>
<trkpt lat="49.128917694092" lon="2.7048056125641"><ele></ele><time>2022-6-23T9:58:38Z</time></trkpt>
<trkpt lat="49.128917694092" lon="2.7048056125641"><ele></ele><time>2022-6-23T9:58:41Z</time></trkpt>
<trkpt lat="49.128967285156" lon="2.7049555778503"><ele></ele><time>2022-6-23T9:58:44Z</time></trkpt>
<trkpt lat="49.128967285156" lon="2.7049555778503"><ele></ele><time>2022-6-23T9:58:47Z</time></trkpt>
<trkpt lat="49.129009246826" lon="2.7050499916077"><ele></ele><time>2022-6-23T9:58:50Z</time></trkpt>
<trkpt lat="49.129051208496" lon="2.7051374912262"><ele></ele><time>2022-6-23T9:58:53Z</time></trkpt>
<trkpt lat="49.129096984863" lon="2.7052273750305"><ele></ele><time>2022-6-23T9:58:56Z</time></trkpt>
<trkpt lat="49.129096984863" lon="2.7052273750305"><ele></ele><time>2022-6-23T9:58:59Z</time></trkpt>
<trkpt lat="49.129131317139" lon="2.7052991390228"><ele></ele><time>2022-6-23T9:59:2Z</time></trkpt>
<trkpt lat="49.129165649414" lon="2.7053785324097"><ele></ele><time>2022-6-23T9:59:5Z</time></trkpt>
<trkpt lat="49.129192352295" lon="2.7054882049561"><ele></ele><time>2022-6-23T9:59:8Z</time></trkpt>
<trkpt lat="49.129192352295" lon="2.7054882049561"><ele></ele><time>2022-6-23T9:59:11Z</time></trkpt>
<trkpt lat="49.129211425781" lon="2.7055940628052"><ele></ele><time>2022-6-23T9:59:14Z</time></trkpt>
<trkpt lat="49.12922668457" lon="2.7056906223297"><ele></ele><time>2022-6-23T9:59:17Z</time></trkpt>
<trkpt lat="49.129234313965" lon="2.7057874202728"><ele></ele><time>2022-6-23T9:59:20Z</time></trkpt>
<trkpt lat="49.129234313965" lon="2.7057874202728"><ele></ele><time>2022-6-23T9:59:23Z</time></trkpt>
<trkpt lat="49.129249572754" lon="2.7058761119843"><ele></ele><time>2022-6-23T9:59:26Z</time></trkpt>
<trkpt lat="49.12926864624" lon="2.7059745788574"><ele></ele><time>2022-6-23T9:59:29Z</time></trkpt>
<trkpt lat="49.129280090332" lon="2.7060832977295"><ele></ele><time>2022-6-23T9:59:32Z</time></trkpt>
<trkpt lat="49.129280090332" lon="2.7060832977295"><ele></ele><time>2022-6-23T9:59:35Z</time></trkpt>
<trkpt lat="49.129291534424" lon="2.7061865329742"><ele></ele><time>2022-6-23T9:59:38Z</time></trkpt>
<trkpt lat="49.129287719727" lon="2.7062845230103"><ele></ele><time>2022-6-23T9:59:41Z</time></trkpt>
<trkpt lat="49.129283905029" lon="2.7063841819763"><ele></ele><time>2022-6-23T9:59:44Z</time></trkpt>
<trkpt lat="49.129283905029" lon="2.7063841819763"><ele></ele><time>2022-6-23T9:59:47Z</time></trkpt>
<trkpt lat="49.129276275635" lon="2.7064747810364"><ele></ele><time>2022-6-23T9:59:50Z</time></trkpt>
<trkpt lat="49.12926864624" lon="2.7065625190735"><ele></ele><time>2022-6-23T9:59:53Z</time></trkpt>
<trkpt lat="49.129257202148" lon="2.7066750526428"><ele></ele><time>2022-6-23T9:59:56Z</time></trkpt>
<trkpt lat="49.129257202148" lon="2.7066750526428"><ele></ele><time>2022-6-23T9:59:59Z</time></trkpt>
<trkpt lat="49.129241943359" lon="2.7067625522614"><ele></ele><time>2022-6-23T10:0:2Z</time></trkpt>
<trkpt lat="49.129222869873" lon="2.706848859787"><ele></ele><time>2022-6-23T10:0:5Z</time></trkpt>
<trkpt lat="49.129207611084" lon="2.7069420814514"><ele></ele><time>2022-6-23T10:0:8Z</time></trkpt>
<trkpt lat="49.129196166992" lon="2.7070295810699"><ele></ele><time>2022-6-23T10:0:11Z</time></trkpt>
<trkpt lat="49.1291847229" lon="2.7071185112"><ele></ele><time>2022-6-23T10:0:14Z</time></trkpt>
<trkpt lat="49.1291847229" lon="2.7071185112"><ele></ele><time>2022-6-23T10:0:17Z</time></trkpt>
<trkpt lat="49.129177093506" lon="2.7072212696075"><ele></ele><time>2022-6-23T10:0:20Z</time></trkpt>
<trkpt lat="49.129165649414" lon="2.7073180675507"><ele></ele><time>2022-6-23T10:0:23Z</time></trkpt>
<trkpt lat="49.12914276123" lon="2.7074043750763"><ele></ele><time>2022-6-23T10:0:26Z</time></trkpt>
<trkpt lat="49.12914276123" lon="2.7074043750763"><ele></ele><time>2022-6-23T10:0:29Z</time></trkpt>
<trkpt lat="49.12911605835" lon="2.7075192928314"><ele></ele><time>2022-6-23T10:0:32Z</time></trkpt>
<trkpt lat="49.129096984863" lon="2.7076284885406"><ele></ele><time>2022-6-23T10:0:35Z</time></trkpt>
<trkpt lat="49.129077911377" lon="2.7077128887177"><ele></ele><time>2022-6-23T10:0:38Z</time></trkpt>
<trkpt lat="49.129077911377" lon="2.7077128887177"><ele></ele><time>2022-6-23T10:0:41Z</time></trkpt>
<trkpt lat="49.129055023193" lon="2.7078106403351"><ele></ele><time>2022-6-23T10:0:44Z</time></trkpt>
<trkpt lat="49.129039764404" lon="2.7079019546509"><ele></ele><time>2022-6-23T10:0:47Z</time></trkpt>
<trkpt lat="49.129028320312" lon="2.7079889774323"><ele></ele><time>2022-6-23T10:0:50Z</time></trkpt>
<trkpt lat="49.129028320312" lon="2.7079889774323"><ele></ele><time>2022-6-23T10:0:53Z</time></trkpt>
<trkpt lat="49.129009246826" lon="2.7080950737"><ele></ele><time>2022-6-23T10:0:56Z</time></trkpt>
<trkpt lat="49.12899017334" lon="2.7082061767578"><ele></ele><time>2022-6-23T10:0:59Z</time></trkpt>
<trkpt lat="49.128971099854" lon="2.7083039283752"><ele></ele><time>2022-6-23T10:1:2Z</time></trkpt>
<trkpt lat="49.128971099854" lon="2.7083039283752"><ele></ele><time>2022-6-23T10:1:5Z</time></trkpt>
<trkpt lat="49.128955841064" lon="2.7084119319916"><ele></ele><time>2022-6-23T10:1:8Z</time></trkpt>
<trkpt lat="49.12894821167" lon="2.7085192203522"><ele></ele><time>2022-6-23T10:1:11Z</time></trkpt>
<trkpt lat="49.12894821167" lon="2.7085192203522"><ele></ele><time>2022-6-23T10:1:14Z</time></trkpt>
<trkpt lat="49.12894821167" lon="2.7085192203522"><ele></ele><time>2022-6-23T10:1:17Z</time></trkpt>
<trkpt lat="49.128932952881" lon="2.7086977958679"><ele></ele><time>2022-6-23T10:1:20Z</time></trkpt>
<trkpt lat="49.128925323486" lon="2.7088062763214"><ele></ele><time>2022-6-23T10:1:23Z</time></trkpt>
<trkpt lat="49.128932952881" lon="2.7089171409607"><ele></ele><time>2022-6-23T10:1:26Z</time></trkpt>
<trkpt lat="49.128932952881" lon="2.7089171409607"><ele></ele><time>2022-6-23T10:1:29Z</time></trkpt>
<trkpt lat="49.128952026367" lon="2.7090268135071"><ele></ele><time>2022-6-23T10:1:32Z</time></trkpt>
<trkpt lat="49.128963470459" lon="2.7091279029846"><ele></ele><time>2022-6-23T10:1:35Z</time></trkpt>
<trkpt lat="49.128974914551" lon="2.7092168331146"><ele></ele><time>2022-6-23T10:1:38Z</time></trkpt>
<trkpt lat="49.128974914551" lon="2.7092168331146"><ele></ele><time>2022-6-23T10:1:41Z</time></trkpt>
<trkpt lat="49.12899017334" lon="2.7093110084534"><ele></ele><time>2022-6-23T10:1:44Z</time></trkpt>
<trkpt lat="49.129009246826" lon="2.7094211578369"><ele></ele><time>2022-6-23T10:1:47Z</time></trkpt>
<trkpt lat="49.129020690918" lon="2.7095332145691"><ele></ele><time>2022-6-23T10:1:50Z</time></trkpt>
<trkpt lat="49.129020690918" lon="2.7095332145691"><ele></ele><time>2022-6-23T10:1:53Z</time></trkpt>
<trkpt lat="49.12903213501" lon="2.7096273899078"><ele></ele><time>2022-6-23T10:1:56Z</time></trkpt>
<trkpt lat="49.129062652588" lon="2.7098276615143"><ele></ele><time>2022-6-23T10:1:59Z</time></trkpt>
<trkpt lat="49.129062652588" lon="2.7098276615143"><ele></ele><time>2022-6-23T10:2:2Z</time></trkpt>
<trkpt lat="49.12907409668" lon="2.7099299430847"><ele></ele><time>2022-6-23T10:2:5Z</time></trkpt>
<trkpt lat="49.12907409668" lon="2.7099299430847"><ele></ele><time>2022-6-23T10:2:8Z</time></trkpt>
<trkpt lat="49.129100799561" lon="2.7101032733917"><ele></ele><time>2022-6-23T10:2:11Z</time></trkpt>
<trkpt lat="49.129119873047" lon="2.7102007865906"><ele></ele><time>2022-6-23T10:2:14Z</time></trkpt>
<trkpt lat="49.129138946533" lon="2.7103140354156"><ele></ele><time>2022-6-23T10:2:17Z</time></trkpt>
<trkpt lat="49.129138946533" lon="2.7103140354156"><ele></ele><time>2022-6-23T10:2:20Z</time></trkpt>
<trkpt lat="49.129154205322" lon="2.7104065418243"><ele></ele><time>2022-6-23T10:2:23Z</time></trkpt>
<trkpt lat="49.129173278809" lon="2.7104985713959"><ele></ele><time>2022-6-23T10:2:26Z</time></trkpt>
<trkpt lat="49.129192352295" lon="2.7106170654297"><ele></ele><time>2022-6-23T10:2:29Z</time></trkpt>
<trkpt lat="49.129192352295" lon="2.7106170654297"><ele></ele><time>2022-6-23T10:2:32Z</time></trkpt>
<trkpt lat="49.129215240479" lon="2.7107396125793"><ele></ele><time>2022-6-23T10:2:35Z</time></trkpt>
<trkpt lat="49.129238128662" lon="2.7108647823334"><ele></ele><time>2022-6-23T10:2:38Z</time></trkpt>
<trkpt lat="49.129249572754" lon="2.7109820842743"><ele></ele><time>2022-6-23T10:2:41Z</time></trkpt>
<trkpt lat="49.129249572754" lon="2.7109820842743"><ele></ele><time>2022-6-23T10:2:44Z</time></trkpt>
<trkpt lat="49.129272460938" lon="2.7110893726349"><ele></ele><time>2022-6-23T10:2:47Z</time></trkpt>
<trkpt lat="49.129295349121" lon="2.7111895084381"><ele></ele><time>2022-6-23T10:2:50Z</time></trkpt>
<trkpt lat="49.129314422607" lon="2.7112767696381"><ele></ele><time>2022-6-23T10:2:53Z</time></trkpt>
<trkpt lat="49.129314422607" lon="2.7112767696381"><ele></ele><time>2022-6-23T10:2:56Z</time></trkpt>
<trkpt lat="49.129344940186" lon="2.7114670276642"><ele></ele><time>2022-6-23T10:2:59Z</time></trkpt>
<trkpt lat="49.129371643066" lon="2.7115802764893"><ele></ele><time>2022-6-23T10:3:2Z</time></trkpt>
<trkpt lat="49.129371643066" lon="2.7115802764893"><ele></ele><time>2022-6-23T10:3:5Z</time></trkpt>
<trkpt lat="49.129371643066" lon="2.7115802764893"><ele></ele><time>2022-6-23T10:3:8Z</time></trkpt>
<trkpt lat="49.129402160645" lon="2.7117319107056"><ele></ele><time>2022-6-23T10:3:11Z</time></trkpt>
<trkpt lat="49.129421234131" lon="2.7118463516235"><ele></ele><time>2022-6-23T10:3:14Z</time></trkpt>
<trkpt lat="49.129421234131" lon="2.7118463516235"><ele></ele><time>2022-6-23T10:3:17Z</time></trkpt>
<trkpt lat="49.129440307617" lon="2.7119703292847"><ele></ele><time>2022-6-23T10:3:20Z</time></trkpt>
<trkpt lat="49.129455566406" lon="2.7120821475983"><ele></ele><time>2022-6-23T10:3:23Z</time></trkpt>
<trkpt lat="49.129470825195" lon="2.7121884822845"><ele></ele><time>2022-6-23T10:3:26Z</time></trkpt>
<trkpt lat="49.129470825195" lon="2.7121884822845"><ele></ele><time>2022-6-23T10:3:29Z</time></trkpt>
<trkpt lat="49.129486083984" lon="2.7122871875763"><ele></ele><time>2022-6-23T10:3:32Z</time></trkpt>
<trkpt lat="49.129501342773" lon="2.7123782634735"><ele></ele><time>2022-6-23T10:3:35Z</time></trkpt>
<trkpt lat="49.129501342773" lon="2.7123782634735"><ele></ele><time>2022-6-23T10:3:38Z</time></trkpt>
<trkpt lat="49.129501342773" lon="2.7123782634735"><ele></ele><time>2022-6-23T10:3:41Z</time></trkpt>
<trkpt lat="49.129524230957" lon="2.7124807834625"><ele></ele><time>2022-6-23T10:3:44Z</time></trkpt>
<trkpt lat="49.129524230957" lon="2.7124807834625"><ele></ele><time>2022-6-23T10:3:47Z</time></trkpt>
<trkpt lat="49.129577636719" lon="2.7125163078308"><ele></ele><time>2022-6-23T10:3:50Z</time></trkpt>
<trkpt lat="49.129577636719" lon="2.7125163078308"><ele></ele><time>2022-6-23T10:3:53Z</time></trkpt>
<trkpt lat="49.129623413086" lon="2.7124683856964"><ele></ele><time>2022-6-23T10:3:56Z</time></trkpt>
<trkpt lat="49.129623413086" lon="2.7124683856964"><ele></ele><time>2022-6-23T10:3:59Z</time></trkpt>
<trkpt lat="49.129623413086" lon="2.7124683856964"><ele></ele><time>2022-6-23T10:4:2Z</time></trkpt>
<trkpt lat="49.129661560059" lon="2.7123930454254"><ele></ele><time>2022-6-23T10:4:5Z</time></trkpt>
<trkpt lat="49.129661560059" lon="2.7123930454254"><ele></ele><time>2022-6-23T10:4:8Z</time></trkpt>
<trkpt lat="49.12971496582" lon="2.7123205661774"><ele></ele><time>2022-6-23T10:4:11Z</time></trkpt>
<trkpt lat="49.12971496582" lon="2.7123205661774"><ele></ele><time>2022-6-23T10:4:14Z</time></trkpt>
<trkpt lat="49.12971496582" lon="2.7123205661774"><ele></ele><time>2022-6-23T10:4:17Z</time></trkpt>
<trkpt lat="49.129730224609" lon="2.7121953964233"><ele></ele><time>2022-6-23T10:4:20Z</time></trkpt>
<trkpt lat="49.129730224609" lon="2.7121953964233"><ele></ele><time>2022-6-23T10:4:23Z</time></trkpt>
<trkpt lat="49.129734039307" lon="2.7120950222015"><ele></ele><time>2022-6-23T10:4:26Z</time></trkpt>
<trkpt lat="49.129734039307" lon="2.7120950222015"><ele></ele><time>2022-6-23T10:4:29Z</time></trkpt>
<trkpt lat="49.129734039307" lon="2.7120950222015"><ele></ele><time>2022-6-23T10:4:32Z</time></trkpt>
<trkpt lat="49.129749298096" lon="2.7119929790497"><ele></ele><time>2022-6-23T10:4:35Z</time></trkpt>
<trkpt lat="49.129749298096" lon="2.7119929790497"><ele></ele><time>2022-6-23T10:4:38Z</time></trkpt>
<trkpt lat="49.129749298096" lon="2.7119929790497"><ele></ele><time>2022-6-23T10:4:41Z</time></trkpt>
<trkpt lat="49.129749298096" lon="2.7119929790497"><ele></ele><time>2022-6-23T10:4:44Z</time></trkpt>
<trkpt lat="49.129776000977" lon="2.7119274139404"><ele></ele><time>2022-6-23T10:4:47Z</time></trkpt>
<trkpt lat="49.129795074463" lon="2.7118809223175"><ele></ele><time>2022-6-23T10:4:50Z</time></trkpt>
<trkpt lat="49.129806518555" lon="2.711838722229"><ele></ele><time>2022-6-23T10:4:53Z</time></trkpt>
<trkpt lat="49.129814147949" lon="2.7117922306061"><ele></ele><time>2022-6-23T10:4:56Z</time></trkpt>
<trkpt lat="49.129829406738" lon="2.7117476463318"><ele></ele><time>2022-6-23T10:4:59Z</time></trkpt>
<trkpt lat="49.129856109619" lon="2.7116711139679"><ele></ele><time>2022-6-23T10:5:2Z</time></trkpt>
<trkpt lat="49.129856109619" lon="2.7116711139679"><ele></ele><time>2022-6-23T10:5:5Z</time></trkpt>
<trkpt lat="49.129856109619" lon="2.7116711139679"><ele></ele><time>2022-6-23T10:5:8Z</time></trkpt>
<trkpt lat="49.129856109619" lon="2.7116711139679"><ele></ele><time>2022-6-23T10:5:11Z</time></trkpt>
<trkpt lat="49.129878997803" lon="2.7115483283997"><ele></ele><time>2022-6-23T10:5:14Z</time></trkpt>
<trkpt lat="49.129878997803" lon="2.7115483283997"><ele></ele><time>2022-6-23T10:5:17Z</time></trkpt>
<trkpt lat="49.129878997803" lon="2.7115483283997"><ele></ele><time>2022-6-23T10:5:20Z</time></trkpt>
<trkpt lat="49.129890441895" lon="2.7114436626434"><ele></ele><time>2022-6-23T10:5:23Z</time></trkpt>
<trkpt lat="49.129890441895" lon="2.7114436626434"><ele></ele><time>2022-6-23T10:5:26Z</time></trkpt>
<trkpt lat="49.129890441895" lon="2.7114436626434"><ele></ele><time>2022-6-23T10:5:29Z</time></trkpt>
<trkpt lat="49.129890441895" lon="2.7114436626434"><ele></ele><time>2022-6-23T10:5:32Z</time></trkpt>
<trkpt lat="49.129890441895" lon="2.7114436626434"><ele></ele><time>2022-6-23T10:5:35Z</time></trkpt>
<trkpt lat="49.129905700684" lon="2.7113318443298"><ele></ele><time>2022-6-23T10:5:38Z</time></trkpt>
<trkpt lat="49.129905700684" lon="2.7113318443298"><ele></ele><time>2022-6-23T10:5:41Z</time></trkpt>
<trkpt lat="49.12992477417" lon="2.711207151413"><ele></ele><time>2022-6-23T10:5:44Z</time></trkpt>
<trkpt lat="49.129959106445" lon="2.7110857963562"><ele></ele><time>2022-6-23T10:5:47Z</time></trkpt>
<trkpt lat="49.129959106445" lon="2.7110857963562"><ele></ele><time>2022-6-23T10:5:50Z</time></trkpt>
<trkpt lat="49.129974365234" lon="2.7109789848328"><ele></ele><time>2022-6-23T10:5:53Z</time></trkpt>
<trkpt lat="49.129974365234" lon="2.7109789848328"><ele></ele><time>2022-6-23T10:5:56Z</time></trkpt>
<trkpt lat="49.129974365234" lon="2.7109789848328"><ele></ele><time>2022-6-23T10:5:59Z</time></trkpt>
<trkpt lat="49.129974365234" lon="2.7109789848328"><ele></ele><time>2022-6-23T10:6:2Z</time></trkpt>
<trkpt lat="49.12996673584" lon="2.710883140564"><ele></ele><time>2022-6-23T10:6:5Z</time></trkpt>
<trkpt lat="49.12996673584" lon="2.710883140564"><ele></ele><time>2022-6-23T10:6:8Z</time></trkpt>
<trkpt lat="49.12996673584" lon="2.710883140564"><ele></ele><time>2022-6-23T10:6:11Z</time></trkpt>
<trkpt lat="49.12996673584" lon="2.710883140564"><ele></ele><time>2022-6-23T10:6:14Z</time></trkpt>
<trkpt lat="49.12996673584" lon="2.710883140564"><ele></ele><time>2022-6-23T10:6:17Z</time></trkpt>
<trkpt lat="49.12996673584" lon="2.710883140564"><ele></ele><time>2022-6-23T10:6:20Z</time></trkpt>
<trkpt lat="49.12996673584" lon="2.710883140564"><ele></ele><time>2022-6-23T10:6:23Z</time></trkpt>
<trkpt lat="49.130126953125" lon="2.7105989456177"><ele></ele><time>2022-6-23T10:6:26Z</time></trkpt>
<trkpt lat="49.130126953125" lon="2.7105989456177"><ele></ele><time>2022-6-23T10:6:29Z</time></trkpt>
<trkpt lat="49.130172729492" lon="2.7105252742767"><ele></ele><time>2022-6-23T10:6:32Z</time></trkpt>
<trkpt lat="49.130172729492" lon="2.7105252742767"><ele></ele><time>2022-6-23T10:6:35Z</time></trkpt>
<trkpt lat="49.130172729492" lon="2.7105252742767"><ele></ele><time>2022-6-23T10:6:38Z</time></trkpt>
<trkpt lat="49.130172729492" lon="2.7105252742767"><ele></ele><time>2022-6-23T10:6:41Z</time></trkpt>
<trkpt lat="49.130233764648" lon="2.7104754447937"><ele></ele><time>2022-6-23T10:6:44Z</time></trkpt>
<trkpt lat="49.130233764648" lon="2.7104754447937"><ele></ele><time>2022-6-23T10:6:47Z</time></trkpt>
<trkpt lat="49.130290985107" lon="2.710372209549"><ele></ele><time>2022-6-23T10:6:50Z</time></trkpt>
<trkpt lat="49.130290985107" lon="2.710372209549"><ele></ele><time>2022-6-23T10:6:53Z</time></trkpt>
<trkpt lat="49.130344390869" lon="2.7102708816528"><ele></ele><time>2022-6-23T10:6:56Z</time></trkpt>
<trkpt lat="49.130386352539" lon="2.71013712883"><ele></ele><time>2022-6-23T10:6:59Z</time></trkpt>
<trkpt lat="49.130386352539" lon="2.71013712883"><ele></ele><time>2022-6-23T10:7:2Z</time></trkpt>
<trkpt lat="49.130386352539" lon="2.71013712883"><ele></ele><time>2022-6-23T10:7:5Z</time></trkpt>
<trkpt lat="49.130405426025" lon="2.7100820541382"><ele></ele><time>2022-6-23T10:7:8Z</time></trkpt>
<trkpt lat="49.130424499512" lon="2.7100327014923"><ele></ele><time>2022-6-23T10:7:11Z</time></trkpt>
<trkpt lat="49.130424499512" lon="2.7100327014923"><ele></ele><time>2022-6-23T10:7:14Z</time></trkpt>
<trkpt lat="49.130447387695" lon="2.709986448288"><ele></ele><time>2022-6-23T10:7:17Z</time></trkpt>
<trkpt lat="49.130466461182" lon="2.7099361419678"><ele></ele><time>2022-6-23T10:7:20Z</time></trkpt>
<trkpt lat="49.130489349365" lon="2.7098898887634"><ele></ele><time>2022-6-23T10:7:23Z</time></trkpt>
<trkpt lat="49.130489349365" lon="2.7098898887634"><ele></ele><time>2022-6-23T10:7:26Z</time></trkpt>
<trkpt lat="49.130531311035" lon="2.7098023891449"><ele></ele><time>2022-6-23T10:7:29Z</time></trkpt>
<trkpt lat="49.130599975586" lon="2.7096915245056"><ele></ele><time>2022-6-23T10:7:32Z</time></trkpt>
<trkpt lat="49.130599975586" lon="2.7096915245056"><ele></ele><time>2022-6-23T10:7:35Z</time></trkpt>
<trkpt lat="49.130653381348" lon="2.7095894813538"><ele></ele><time>2022-6-23T10:7:38Z</time></trkpt>
<trkpt lat="49.130653381348" lon="2.7095894813538"><ele></ele><time>2022-6-23T10:7:41Z</time></trkpt>
<trkpt lat="49.130714416504" lon="2.7094967365265"><ele></ele><time>2022-6-23T10:7:44Z</time></trkpt>
<trkpt lat="49.130764007568" lon="2.7093918323517"><ele></ele><time>2022-6-23T10:7:47Z</time></trkpt>
<trkpt lat="49.130764007568" lon="2.7093918323517"><ele></ele><time>2022-6-23T10:7:50Z</time></trkpt>
<trkpt lat="49.130813598633" lon="2.7092795372009"><ele></ele><time>2022-6-23T10:7:53Z</time></trkpt>
<trkpt lat="49.130813598633" lon="2.7092795372009"><ele></ele><time>2022-6-23T10:7:56Z</time></trkpt>
<trkpt lat="49.130813598633" lon="2.7092795372009"><ele></ele><time>2022-6-23T10:7:59Z</time></trkpt>
<trkpt lat="49.130855560303" lon="2.7091879844666"><ele></ele><time>2022-6-23T10:8:2Z</time></trkpt>
<trkpt lat="49.130855560303" lon="2.7091879844666"><ele></ele><time>2022-6-23T10:8:5Z</time></trkpt>
<trkpt lat="49.130905151367" lon="2.7090747356415"><ele></ele><time>2022-6-23T10:8:8Z</time></trkpt>
<trkpt lat="49.130905151367" lon="2.7090747356415"><ele></ele><time>2022-6-23T10:8:11Z</time></trkpt>
<trkpt lat="49.130905151367" lon="2.7090747356415"><ele></ele><time>2022-6-23T10:8:14Z</time></trkpt>
<trkpt lat="49.130966186523" lon="2.7089815139771"><ele></ele><time>2022-6-23T10:8:17Z</time></trkpt>
<trkpt lat="49.130966186523" lon="2.7089815139771"><ele></ele><time>2022-6-23T10:8:20Z</time></trkpt>
<trkpt lat="49.130966186523" lon="2.7089815139771"><ele></ele><time>2022-6-23T10:8:23Z</time></trkpt>
<trkpt lat="49.130966186523" lon="2.7089815139771"><ele></ele><time>2022-6-23T10:8:26Z</time></trkpt>
<trkpt lat="49.131019592285" lon="2.7088871002197"><ele></ele><time>2022-6-23T10:8:29Z</time></trkpt>
<trkpt lat="49.131019592285" lon="2.7088871002197"><ele></ele><time>2022-6-23T10:8:32Z</time></trkpt>
<trkpt lat="49.131019592285" lon="2.7088871002197"><ele></ele><time>2022-6-23T10:8:35Z</time></trkpt>
<trkpt lat="49.131019592285" lon="2.7088871002197"><ele></ele><time>2022-6-23T10:8:38Z</time></trkpt>
<trkpt lat="49.131084442139" lon="2.7087769508362"><ele></ele><time>2022-6-23T10:8:41Z</time></trkpt>
<trkpt lat="49.131084442139" lon="2.7087769508362"><ele></ele><time>2022-6-23T10:8:44Z</time></trkpt>
<trkpt lat="49.131084442139" lon="2.7087769508362"><ele></ele><time>2022-6-23T10:8:47Z</time></trkpt>
<trkpt lat="49.131134033203" lon="2.7086911201477"><ele></ele><time>2022-6-23T10:8:50Z</time></trkpt>
<trkpt lat="49.131134033203" lon="2.7086911201477"><ele></ele><time>2022-6-23T10:8:53Z</time></trkpt>
<trkpt lat="49.131172180176" lon="2.7085802555084"><ele></ele><time>2022-6-23T10:8:56Z</time></trkpt>
<trkpt lat="49.131172180176" lon="2.7085802555084"><ele></ele><time>2022-6-23T10:8:59Z</time></trkpt>
<trkpt lat="49.131172180176" lon="2.7085802555084"><ele></ele><time>2022-6-23T10:9:2Z</time></trkpt>
<trkpt lat="49.131202697754" lon="2.7084767818451"><ele></ele><time>2022-6-23T10:9:5Z</time></trkpt>
<trkpt lat="49.131202697754" lon="2.7084767818451"><ele></ele><time>2022-6-23T10:9:8Z</time></trkpt>
<trkpt lat="49.131271362305" lon="2.7084057331085"><ele></ele><time>2022-6-23T10:9:11Z</time></trkpt>
<trkpt lat="49.131271362305" lon="2.7084057331085"><ele></ele><time>2022-6-23T10:9:14Z</time></trkpt>
<trkpt lat="49.131359100342" lon="2.7082624435425"><ele></ele><time>2022-6-23T10:9:17Z</time></trkpt>
<trkpt lat="49.131435394287" lon="2.7081348896027"><ele></ele><time>2022-6-23T10:9:20Z</time></trkpt>
<trkpt lat="49.131435394287" lon="2.7081348896027"><ele></ele><time>2022-6-23T10:9:23Z</time></trkpt>
<trkpt lat="49.131488800049" lon="2.7080514431"><ele></ele><time>2022-6-23T10:9:26Z</time></trkpt>
<trkpt lat="49.131534576416" lon="2.7079751491547"><ele></ele><time>2022-6-23T10:9:29Z</time></trkpt>
<trkpt lat="49.131587982178" lon="2.707902431488"><ele></ele><time>2022-6-23T10:9:32Z</time></trkpt>
<trkpt lat="49.13162612915" lon="2.7078351974487"><ele></ele><time>2022-6-23T10:9:35Z</time></trkpt>
<trkpt lat="49.13162612915" lon="2.7078351974487"><ele></ele><time>2022-6-23T10:9:38Z</time></trkpt>
<trkpt lat="49.131683349609" lon="2.707701921463"><ele></ele><time>2022-6-23T10:9:41Z</time></trkpt>
<trkpt lat="49.131732940674" lon="2.7075953483582"><ele></ele><time>2022-6-23T10:9:44Z</time></trkpt>
<trkpt lat="49.131732940674" lon="2.7075953483582"><ele></ele><time>2022-6-23T10:9:47Z</time></trkpt>
<trkpt lat="49.131755828857" lon="2.707507610321"><ele></ele><time>2022-6-23T10:9:50Z</time></trkpt>
<trkpt lat="49.131755828857" lon="2.707507610321"><ele></ele><time>2022-6-23T10:9:53Z</time></trkpt>
<trkpt lat="49.131801605225" lon="2.7073929309845"><ele></ele><time>2022-6-23T10:9:56Z</time></trkpt>
<trkpt lat="49.131843566895" lon="2.7072556018829"><ele></ele><time>2022-6-23T10:9:59Z</time></trkpt>
<trkpt lat="49.131870269775" lon="2.7071788311005"><ele></ele><time>2022-6-23T10:10:2Z</time></trkpt>
<trkpt lat="49.131908416748" lon="2.7071008682251"><ele></ele><time>2022-6-23T10:10:5Z</time></trkpt>
<trkpt lat="49.131950378418" lon="2.7070248126984"><ele></ele><time>2022-6-23T10:10:8Z</time></trkpt>
<trkpt lat="49.131984710693" lon="2.7069606781006"><ele></ele><time>2022-6-23T10:10:11Z</time></trkpt>
<trkpt lat="49.132041931152" lon="2.7068681716919"><ele></ele><time>2022-6-23T10:10:14Z</time></trkpt>
<trkpt lat="49.132041931152" lon="2.7068681716919"><ele></ele><time>2022-6-23T10:10:17Z</time></trkpt>
<trkpt lat="49.132122039795" lon="2.7067410945892"><ele></ele><time>2022-6-23T10:10:20Z</time></trkpt>
<trkpt lat="49.132179260254" lon="2.7066290378571"><ele></ele><time>2022-6-23T10:10:23Z</time></trkpt>
<trkpt lat="49.132236480713" lon="2.7065637111664"><ele></ele><time>2022-6-23T10:10:26Z</time></trkpt>
<trkpt lat="49.132236480713" lon="2.7065637111664"><ele></ele><time>2022-6-23T10:10:29Z</time></trkpt>
<trkpt lat="49.132286071777" lon="2.7064878940582"><ele></ele><time>2022-6-23T10:10:32Z</time></trkpt>
<trkpt lat="49.132286071777" lon="2.7064878940582"><ele></ele><time>2022-6-23T10:10:35Z</time></trkpt>
<trkpt lat="49.132339477539" lon="2.7064394950867"><ele></ele><time>2022-6-23T10:10:38Z</time></trkpt>
<trkpt lat="49.132404327393" lon="2.7063946723938"><ele></ele><time>2022-6-23T10:10:41Z</time></trkpt>
<trkpt lat="49.132465362549" lon="2.7063488960266"><ele></ele><time>2022-6-23T10:10:44Z</time></trkpt>
<trkpt lat="49.132522583008" lon="2.7063045501709"><ele></ele><time>2022-6-23T10:10:47Z</time></trkpt>
<trkpt lat="49.132572174072" lon="2.7062542438507"><ele></ele><time>2022-6-23T10:10:50Z</time></trkpt>
<trkpt lat="49.132659912109" lon="2.7061562538147"><ele></ele><time>2022-6-23T10:10:53Z</time></trkpt>
<trkpt lat="49.132659912109" lon="2.7061562538147"><ele></ele><time>2022-6-23T10:10:56Z</time></trkpt>
<trkpt lat="49.132740020752" lon="2.7060551643372"><ele></ele><time>2022-6-23T10:10:59Z</time></trkpt>
<trkpt lat="49.132789611816" lon="2.7060034275055"><ele></ele><time>2022-6-23T10:11:2Z</time></trkpt>
<trkpt lat="49.132839202881" lon="2.705958366394"><ele></ele><time>2022-6-23T10:11:5Z</time></trkpt>
<trkpt lat="49.132888793945" lon="2.7059147357941"><ele></ele><time>2022-6-23T10:11:8Z</time></trkpt>
<trkpt lat="49.132934570312" lon="2.7058675289154"><ele></ele><time>2022-6-23T10:11:11Z</time></trkpt>
<trkpt lat="49.132934570312" lon="2.7058675289154"><ele></ele><time>2022-6-23T10:11:14Z</time></trkpt>
<trkpt lat="49.132991790771" lon="2.7057535648346"><ele></ele><time>2022-6-23T10:11:17Z</time></trkpt>
<trkpt lat="49.13304901123" lon="2.7056705951691"><ele></ele><time>2022-6-23T10:11:20Z</time></trkpt>
<trkpt lat="49.13304901123" lon="2.7056705951691"><ele></ele><time>2022-6-23T10:11:23Z</time></trkpt>
<trkpt lat="49.133098602295" lon="2.7055974006653"><ele></ele><time>2022-6-23T10:11:26Z</time></trkpt>
<trkpt lat="49.133098602295" lon="2.7055974006653"><ele></ele><time>2022-6-23T10:11:29Z</time></trkpt>
<trkpt lat="49.133098602295" lon="2.7055974006653"><ele></ele><time>2022-6-23T10:11:32Z</time></trkpt>
<trkpt lat="49.133098602295" lon="2.7055974006653"><ele></ele><time>2022-6-23T10:11:35Z</time></trkpt>
<trkpt lat="49.133083343506" lon="2.7054884433746"><ele></ele><time>2022-6-23T10:11:38Z</time></trkpt>
<trkpt lat="49.133083343506" lon="2.7054884433746"><ele></ele><time>2022-6-23T10:11:41Z</time></trkpt>
<trkpt lat="49.133083343506" lon="2.7054884433746"><ele></ele><time>2022-6-23T10:11:44Z</time></trkpt>
<trkpt lat="49.13302230835" lon="2.7054734230042"><ele></ele><time>2022-6-23T10:11:47Z</time></trkpt>
<trkpt lat="49.13302230835" lon="2.7054734230042"><ele></ele><time>2022-6-23T10:11:50Z</time></trkpt>
<trkpt lat="49.13302230835" lon="2.7054734230042"><ele></ele><time>2022-6-23T10:11:53Z</time></trkpt>
<trkpt lat="49.13302230835" lon="2.7054734230042"><ele></ele><time>2022-6-23T10:11:56Z</time></trkpt>
<trkpt lat="49.13302230835" lon="2.7054734230042"><ele></ele><time>2022-6-23T10:11:59Z</time></trkpt>
<trkpt lat="49.133125305176" lon="2.7055878639221"><ele></ele><time>2022-6-23T10:12:2Z</time></trkpt>
<trkpt lat="49.133178710938" lon="2.7057070732117"><ele></ele><time>2022-6-23T10:12:5Z</time></trkpt>
<trkpt lat="49.133190155029" lon="2.7057950496674"><ele></ele><time>2022-6-23T10:12:8Z</time></trkpt>
<trkpt lat="49.133190155029" lon="2.7057950496674"><ele></ele><time>2022-6-23T10:12:11Z</time></trkpt>
<trkpt lat="49.133193969727" lon="2.7058832645416"><ele></ele><time>2022-6-23T10:12:14Z</time></trkpt>
<trkpt lat="49.133193969727" lon="2.7058832645416"><ele></ele><time>2022-6-23T10:12:17Z</time></trkpt>
<trkpt lat="49.133193969727" lon="2.7058832645416"><ele></ele><time>2022-6-23T10:12:20Z</time></trkpt>
<trkpt lat="49.133193969727" lon="2.7058832645416"><ele></ele><time>2022-6-23T10:12:23Z</time></trkpt>
<trkpt lat="49.133213043213" lon="2.7060215473175"><ele></ele><time>2022-6-23T10:12:26Z</time></trkpt>
<trkpt lat="49.133239746094" lon="2.7061336040497"><ele></ele><time>2022-6-23T10:12:29Z</time></trkpt>
<trkpt lat="49.133239746094" lon="2.7061336040497"><ele></ele><time>2022-6-23T10:12:32Z</time></trkpt>
<trkpt lat="49.133232116699" lon="2.7062633037567"><ele></ele><time>2022-6-23T10:12:35Z</time></trkpt>
<trkpt lat="49.133255004883" lon="2.7063682079315"><ele></ele><time>2022-6-23T10:12:38Z</time></trkpt>
<trkpt lat="49.133270263672" lon="2.7064876556396"><ele></ele><time>2022-6-23T10:12:41Z</time></trkpt>
<trkpt lat="49.133270263672" lon="2.7064876556396"><ele></ele><time>2022-6-23T10:12:44Z</time></trkpt>
<trkpt lat="49.133327484131" lon="2.7066075801849"><ele></ele><time>2022-6-23T10:12:47Z</time></trkpt>
<trkpt lat="49.133331298828" lon="2.7067167758942"><ele></ele><time>2022-6-23T10:12:50Z</time></trkpt>
<trkpt lat="49.133331298828" lon="2.7067167758942"><ele></ele><time>2022-6-23T10:12:53Z</time></trkpt>
<trkpt lat="49.133358001709" lon="2.7068631649017"><ele></ele><time>2022-6-23T10:12:56Z</time></trkpt>
<trkpt lat="49.133358001709" lon="2.7068631649017"><ele></ele><time>2022-6-23T10:12:59Z</time></trkpt>
<trkpt lat="49.133377075195" lon="2.7069816589355"><ele></ele><time>2022-6-23T10:13:2Z</time></trkpt>
<trkpt lat="49.133377075195" lon="2.7069816589355"><ele></ele><time>2022-6-23T10:13:5Z</time></trkpt>
<trkpt lat="49.133422851562" lon="2.7070865631104"><ele></ele><time>2022-6-23T10:13:8Z</time></trkpt>
<trkpt lat="49.133453369141" lon="2.7071740627289"><ele></ele><time>2022-6-23T10:13:11Z</time></trkpt>
<trkpt lat="49.133487701416" lon="2.7073345184326"><ele></ele><time>2022-6-23T10:13:14Z</time></trkpt>
<trkpt lat="49.133495330811" lon="2.7074925899506"><ele></ele><time>2022-6-23T10:13:17Z</time></trkpt>
<trkpt lat="49.133495330811" lon="2.7074925899506"><ele></ele><time>2022-6-23T10:13:20Z</time></trkpt>
<trkpt lat="49.133514404297" lon="2.7076358795166"><ele></ele><time>2022-6-23T10:13:23Z</time></trkpt>
<trkpt lat="49.133567810059" lon="2.7077856063843"><ele></ele><time>2022-6-23T10:13:26Z</time></trkpt>
<trkpt lat="49.133602142334" lon="2.7079470157623"><ele></ele><time>2022-6-23T10:13:29Z</time></trkpt>
<trkpt lat="49.133617401123" lon="2.7080364227295"><ele></ele><time>2022-6-23T10:13:32Z</time></trkpt>
<trkpt lat="49.133636474609" lon="2.7081344127655"><ele></ele><time>2022-6-23T10:13:35Z</time></trkpt>
<trkpt lat="49.133636474609" lon="2.7082269191742"><ele></ele><time>2022-6-23T10:13:38Z</time></trkpt>
<trkpt lat="49.133640289307" lon="2.7083208560944"><ele></ele><time>2022-6-23T10:13:41Z</time></trkpt>
<trkpt lat="49.133640289307" lon="2.7083208560944"><ele></ele><time>2022-6-23T10:13:44Z</time></trkpt>
<trkpt lat="49.133666992188" lon="2.7084963321686"><ele></ele><time>2022-6-23T10:13:47Z</time></trkpt>
<trkpt lat="49.133666992188" lon="2.7086083889008"><ele></ele><time>2022-6-23T10:13:50Z</time></trkpt>
<trkpt lat="49.13366317749" lon="2.7087233066559"><ele></ele><time>2022-6-23T10:13:53Z</time></trkpt>
<trkpt lat="49.133655548096" lon="2.7088272571564"><ele></ele><time>2022-6-23T10:13:56Z</time></trkpt>
<trkpt lat="49.133697509766" lon="2.7089307308197"><ele></ele><time>2022-6-23T10:13:59Z</time></trkpt>
<trkpt lat="49.133724212646" lon="2.7090196609497"><ele></ele><time>2022-6-23T10:14:2Z</time></trkpt>
<trkpt lat="49.133735656738" lon="2.7091104984283"><ele></ele><time>2022-6-23T10:14:5Z</time></trkpt>
<trkpt lat="49.13374710083" lon="2.7092087268829"><ele></ele><time>2022-6-23T10:14:8Z</time></trkpt>
<trkpt lat="49.133773803711" lon="2.7092983722687"><ele></ele><time>2022-6-23T10:14:11Z</time></trkpt>
<trkpt lat="49.133811950684" lon="2.7093930244446"><ele></ele><time>2022-6-23T10:14:14Z</time></trkpt>
<trkpt lat="49.133838653564" lon="2.7095003128052"><ele></ele><time>2022-6-23T10:14:17Z</time></trkpt>
<trkpt lat="49.133850097656" lon="2.709591627121"><ele></ele><time>2022-6-23T10:14:20Z</time></trkpt>
<trkpt lat="49.133853912354" lon="2.7097408771515"><ele></ele><time>2022-6-23T10:14:23Z</time></trkpt>
<trkpt lat="49.133865356445" lon="2.7099006175995"><ele></ele><time>2022-6-23T10:14:26Z</time></trkpt>
<trkpt lat="49.133865356445" lon="2.7099006175995"><ele></ele><time>2022-6-23T10:14:29Z</time></trkpt>
<trkpt lat="49.133903503418" lon="2.7100360393524"><ele></ele><time>2022-6-23T10:14:32Z</time></trkpt>
<trkpt lat="49.133903503418" lon="2.7100360393524"><ele></ele><time>2022-6-23T10:14:35Z</time></trkpt>
<trkpt lat="49.133934020996" lon="2.7102048397064"><ele></ele><time>2022-6-23T10:14:38Z</time></trkpt>
<trkpt lat="49.13395690918" lon="2.710303068161"><ele></ele><time>2022-6-23T10:14:41Z</time></trkpt>
<trkpt lat="49.13395690918" lon="2.710303068161"><ele></ele><time>2022-6-23T10:14:44Z</time></trkpt>
<trkpt lat="49.133975982666" lon="2.7104675769806"><ele></ele><time>2022-6-23T10:14:47Z</time></trkpt>
<trkpt lat="49.133972167969" lon="2.7105605602264"><ele></ele><time>2022-6-23T10:14:50Z</time></trkpt>
<trkpt lat="49.133964538574" lon="2.7106764316559"><ele></ele><time>2022-6-23T10:14:53Z</time></trkpt>
<trkpt lat="49.133979797363" lon="2.7107741832733"><ele></ele><time>2022-6-23T10:14:56Z</time></trkpt>
<trkpt lat="49.134010314941" lon="2.7109451293945"><ele></ele><time>2022-6-23T10:14:59Z</time></trkpt>
<trkpt lat="49.13404083252" lon="2.7110614776611"><ele></ele><time>2022-6-23T10:15:2Z</time></trkpt>
<trkpt lat="49.134078979492" lon="2.7111883163452"><ele></ele><time>2022-6-23T10:15:5Z</time></trkpt>
<trkpt lat="49.134105682373" lon="2.7113280296326"><ele></ele><time>2022-6-23T10:15:8Z</time></trkpt>
<trkpt lat="49.134143829346" lon="2.7114970684052"><ele></ele><time>2022-6-23T10:15:11Z</time></trkpt>
<trkpt lat="49.134204864502" lon="2.7116432189941"><ele></ele><time>2022-6-23T10:15:14Z</time></trkpt>
<trkpt lat="49.134216308594" lon="2.7117695808411"><ele></ele><time>2022-6-23T10:15:17Z</time></trkpt>
<trkpt lat="49.134216308594" lon="2.7117695808411"><ele></ele><time>2022-6-23T10:15:20Z</time></trkpt>
<trkpt lat="49.134223937988" lon="2.711877822876"><ele></ele><time>2022-6-23T10:15:23Z</time></trkpt>
<trkpt lat="49.134223937988" lon="2.711877822876"><ele></ele><time>2022-6-23T10:15:26Z</time></trkpt>
<trkpt lat="49.134246826172" lon="2.7120122909546"><ele></ele><time>2022-6-23T10:15:29Z</time></trkpt>
<trkpt lat="49.134246826172" lon="2.7120122909546"><ele></ele><time>2022-6-23T10:15:32Z</time></trkpt>
<trkpt lat="49.134254455566" lon="2.7121138572693"><ele></ele><time>2022-6-23T10:15:35Z</time></trkpt>
<trkpt lat="49.134254455566" lon="2.7121138572693"><ele></ele><time>2022-6-23T10:15:38Z</time></trkpt>
<trkpt lat="49.134265899658" lon="2.7122566699982"><ele></ele><time>2022-6-23T10:15:41Z</time></trkpt>
<trkpt lat="49.134265899658" lon="2.7122566699982"><ele></ele><time>2022-6-23T10:15:44Z</time></trkpt>
<trkpt lat="49.13427734375" lon="2.7123341560364"><ele></ele><time>2022-6-23T10:15:47Z</time></trkpt>
<trkpt lat="49.134284973145" lon="2.7124094963074"><ele></ele><time>2022-6-23T10:15:50Z</time></trkpt>
<trkpt lat="49.134296417236" lon="2.7124810218811"><ele></ele><time>2022-6-23T10:15:53Z</time></trkpt>
<trkpt lat="49.134304046631" lon="2.7125418186188"><ele></ele><time>2022-6-23T10:15:56Z</time></trkpt>
<trkpt lat="49.134311676025" lon="2.712598323822"><ele></ele><time>2022-6-23T10:15:59Z</time></trkpt>
<trkpt lat="49.134326934814" lon="2.7127017974854"><ele></ele><time>2022-6-23T10:16:2Z</time></trkpt>
<trkpt lat="49.134326934814" lon="2.7127017974854"><ele></ele><time>2022-6-23T10:16:5Z</time></trkpt>
<trkpt lat="49.134346008301" lon="2.7128307819366"><ele></ele><time>2022-6-23T10:16:8Z</time></trkpt>
<trkpt lat="49.134346008301" lon="2.7128307819366"><ele></ele><time>2022-6-23T10:16:11Z</time></trkpt>
<trkpt lat="49.134365081787" lon="2.7129592895508"><ele></ele><time>2022-6-23T10:16:14Z</time></trkpt>
<trkpt lat="49.134395599365" lon="2.7130746841431"><ele></ele><time>2022-6-23T10:16:17Z</time></trkpt>
<trkpt lat="49.134433746338" lon="2.7132031917572"><ele></ele><time>2022-6-23T10:16:20Z</time></trkpt>
<trkpt lat="49.134433746338" lon="2.7132031917572"><ele></ele><time>2022-6-23T10:16:23Z</time></trkpt>
<trkpt lat="49.134460449219" lon="2.7133519649506"><ele></ele><time>2022-6-23T10:16:26Z</time></trkpt>
<trkpt lat="49.134479522705" lon="2.7134659290314"><ele></ele><time>2022-6-23T10:16:29Z</time></trkpt>
<trkpt lat="49.134498596191" lon="2.71360206604"><ele></ele><time>2022-6-23T10:16:32Z</time></trkpt>
<trkpt lat="49.134498596191" lon="2.71360206604"><ele></ele><time>2022-6-23T10:16:35Z</time></trkpt>
<trkpt lat="49.134517669678" lon="2.7137441635132"><ele></ele><time>2022-6-23T10:16:38Z</time></trkpt>
<trkpt lat="49.134540557861" lon="2.7139132022858"><ele></ele><time>2022-6-23T10:16:41Z</time></trkpt>
<trkpt lat="49.134559631348" lon="2.7139983177185"><ele></ele><time>2022-6-23T10:16:44Z</time></trkpt>
<trkpt lat="49.134571075439" lon="2.7141726016998"><ele></ele><time>2022-6-23T10:16:47Z</time></trkpt>
<trkpt lat="49.134571075439" lon="2.7141726016998"><ele></ele><time>2022-6-23T10:16:50Z</time></trkpt>
<trkpt lat="49.134590148926" lon="2.7143049240112"><ele></ele><time>2022-6-23T10:16:53Z</time></trkpt>
<trkpt lat="49.134590148926" lon="2.7143049240112"><ele></ele><time>2022-6-23T10:16:56Z</time></trkpt>
<trkpt lat="49.134635925293" lon="2.7144863605499"><ele></ele><time>2022-6-23T10:16:59Z</time></trkpt>
<trkpt lat="49.134654998779" lon="2.7145910263062"><ele></ele><time>2022-6-23T10:17:2Z</time></trkpt>
<trkpt lat="49.134677886963" lon="2.7146828174591"><ele></ele><time>2022-6-23T10:17:5Z</time></trkpt>
<trkpt lat="49.134731292725" lon="2.7148408889771"><ele></ele><time>2022-6-23T10:17:8Z</time></trkpt>
<trkpt lat="49.134731292725" lon="2.7148408889771"><ele></ele><time>2022-6-23T10:17:11Z</time></trkpt>
<trkpt lat="49.134757995605" lon="2.7150280475616"><ele></ele><time>2022-6-23T10:17:14Z</time></trkpt>
<trkpt lat="49.134773254395" lon="2.7151207923889"><ele></ele><time>2022-6-23T10:17:17Z</time></trkpt>
<trkpt lat="49.134792327881" lon="2.7152109146118"><ele></ele><time>2022-6-23T10:17:20Z</time></trkpt>
<trkpt lat="49.134815216064" lon="2.7152945995331"><ele></ele><time>2022-6-23T10:17:23Z</time></trkpt>
<trkpt lat="49.134830474854" lon="2.7153887748718"><ele></ele><time>2022-6-23T10:17:26Z</time></trkpt>
<trkpt lat="49.134830474854" lon="2.7153887748718"><ele></ele><time>2022-6-23T10:17:29Z</time></trkpt>
<trkpt lat="49.13484954834" lon="2.7155287265778"><ele></ele><time>2022-6-23T10:17:32Z</time></trkpt>
<trkpt lat="49.13484954834" lon="2.7155287265778"><ele></ele><time>2022-6-23T10:17:35Z</time></trkpt>
<trkpt lat="49.134868621826" lon="2.7157130241394"><ele></ele><time>2022-6-23T10:17:38Z</time></trkpt>
<trkpt lat="49.134876251221" lon="2.7158055305481"><ele></ele><time>2022-6-23T10:17:41Z</time></trkpt>
<trkpt lat="49.134876251221" lon="2.7158055305481"><ele></ele><time>2022-6-23T10:17:44Z</time></trkpt>
<trkpt lat="49.134906768799" lon="2.7159695625305"><ele></ele><time>2022-6-23T10:17:47Z</time></trkpt>
<trkpt lat="49.134925842285" lon="2.716078042984"><ele></ele><time>2022-6-23T10:17:50Z</time></trkpt>
<trkpt lat="49.134937286377" lon="2.7161767482758"><ele></ele><time>2022-6-23T10:17:53Z</time></trkpt>
<trkpt lat="49.134941101074" lon="2.7162883281708"><ele></ele><time>2022-6-23T10:17:56Z</time></trkpt>
<trkpt lat="49.134948730469" lon="2.7163836956024"><ele></ele><time>2022-6-23T10:17:59Z</time></trkpt>
<trkpt lat="49.13497543335" lon="2.7164933681488"><ele></ele><time>2022-6-23T10:18:2Z</time></trkpt>
<trkpt lat="49.135005950928" lon="2.7166173458099"><ele></ele><time>2022-6-23T10:18:5Z</time></trkpt>
<trkpt lat="49.135040283203" lon="2.7167301177979"><ele></ele><time>2022-6-23T10:18:8Z</time></trkpt>
<trkpt lat="49.135074615479" lon="2.7168493270874"><ele></ele><time>2022-6-23T10:18:11Z</time></trkpt>
<trkpt lat="49.135116577148" lon="2.7169828414917"><ele></ele><time>2022-6-23T10:18:14Z</time></trkpt>
<trkpt lat="49.135139465332" lon="2.7170922756195"><ele></ele><time>2022-6-23T10:18:17Z</time></trkpt>
<trkpt lat="49.135162353516" lon="2.7172176837921"><ele></ele><time>2022-6-23T10:18:20Z</time></trkpt>
<trkpt lat="49.135185241699" lon="2.7173483371735"><ele></ele><time>2022-6-23T10:18:23Z</time></trkpt>
<trkpt lat="49.135200500488" lon="2.7174468040466"><ele></ele><time>2022-6-23T10:18:26Z</time></trkpt>
<trkpt lat="49.135223388672" lon="2.7175316810608"><ele></ele><time>2022-6-23T10:18:29Z</time></trkpt>
<trkpt lat="49.135223388672" lon="2.7175316810608"><ele></ele><time>2022-6-23T10:18:32Z</time></trkpt>
<trkpt lat="49.13525390625" lon="2.7177183628082"><ele></ele><time>2022-6-23T10:18:35Z</time></trkpt>
<trkpt lat="49.135272979736" lon="2.7178335189819"><ele></ele><time>2022-6-23T10:18:38Z</time></trkpt>
<trkpt lat="49.135311126709" lon="2.7179605960846"><ele></ele><time>2022-6-23T10:18:41Z</time></trkpt>
<trkpt lat="49.135356903076" lon="2.7180633544922"><ele></ele><time>2022-6-23T10:18:44Z</time></trkpt>
<trkpt lat="49.135414123535" lon="2.7181413173676"><ele></ele><time>2022-6-23T10:18:47Z</time></trkpt>
<trkpt lat="49.135478973389" lon="2.7182130813599"><ele></ele><time>2022-6-23T10:18:50Z</time></trkpt>
<trkpt lat="49.135536193848" lon="2.7182769775391"><ele></ele><time>2022-6-23T10:18:53Z</time></trkpt>
<trkpt lat="49.135597229004" lon="2.7183291912079"><ele></ele><time>2022-6-23T10:18:56Z</time></trkpt>
<trkpt lat="49.135650634766" lon="2.7183945178986"><ele></ele><time>2022-6-23T10:18:59Z</time></trkpt>
<trkpt lat="49.135707855225" lon="2.718471288681"><ele></ele><time>2022-6-23T10:19:2Z</time></trkpt>
<trkpt lat="49.135772705078" lon="2.7185370922089"><ele></ele><time>2022-6-23T10:19:5Z</time></trkpt>
<trkpt lat="49.13582611084" lon="2.7186026573181"><ele></ele><time>2022-6-23T10:19:8Z</time></trkpt>
<trkpt lat="49.13582611084" lon="2.7186026573181"><ele></ele><time>2022-6-23T10:19:11Z</time></trkpt>
<trkpt lat="49.135902404785" lon="2.7187314033508"><ele></ele><time>2022-6-23T10:19:14Z</time></trkpt>
<trkpt lat="49.135902404785" lon="2.7187314033508"><ele></ele><time>2022-6-23T10:19:17Z</time></trkpt>
<trkpt lat="49.135902404785" lon="2.7187314033508"><ele></ele><time>2022-6-23T10:19:20Z</time></trkpt>
<trkpt lat="49.135902404785" lon="2.7187314033508"><ele></ele><time>2022-6-23T10:19:23Z</time></trkpt>
<trkpt lat="49.135902404785" lon="2.7187314033508"><ele></ele><time>2022-6-23T10:19:26Z</time></trkpt>
<trkpt lat="49.136180877686" lon="2.7189915180206"><ele></ele><time>2022-6-23T10:19:29Z</time></trkpt>
<trkpt lat="49.136180877686" lon="2.7189915180206"><ele></ele><time>2022-6-23T10:19:32Z</time></trkpt>
<trkpt lat="49.136180877686" lon="2.7189915180206"><ele></ele><time>2022-6-23T10:19:35Z</time></trkpt>
<trkpt lat="49.136180877686" lon="2.7189915180206"><ele></ele><time>2022-6-23T10:19:38Z</time></trkpt>
<trkpt lat="49.136180877686" lon="2.7189915180206"><ele></ele><time>2022-6-23T10:19:41Z</time></trkpt>
<trkpt lat="49.136180877686" lon="2.7189915180206"><ele></ele><time>2022-6-23T10:19:44Z</time></trkpt>
<trkpt lat="49.136180877686" lon="2.7189915180206"><ele></ele><time>2022-6-23T10:19:47Z</time></trkpt>
<trkpt lat="49.136180877686" lon="2.7189915180206"><ele></ele><time>2022-6-23T10:19:50Z</time></trkpt>
<trkpt lat="49.136310577393" lon="2.7191379070282"><ele></ele><time>2022-6-23T10:19:53Z</time></trkpt>
<trkpt lat="49.136394500732" lon="2.7192211151123"><ele></ele><time>2022-6-23T10:19:56Z</time></trkpt>
<trkpt lat="49.136394500732" lon="2.7192211151123"><ele></ele><time>2022-6-23T10:19:59Z</time></trkpt>
<trkpt lat="49.136444091797" lon="2.7192702293396"><ele></ele><time>2022-6-23T10:20:2Z</time></trkpt>
<trkpt lat="49.136478424072" lon="2.7193052768707"><ele></ele><time>2022-6-23T10:20:5Z</time></trkpt>
<trkpt lat="49.136512756348" lon="2.7193462848663"><ele></ele><time>2022-6-23T10:20:8Z</time></trkpt>
<trkpt lat="49.136589050293" lon="2.719447851181"><ele></ele><time>2022-6-23T10:20:11Z</time></trkpt>
<trkpt lat="49.136642456055" lon="2.7195105552673"><ele></ele><time>2022-6-23T10:20:14Z</time></trkpt>
<trkpt lat="49.136642456055" lon="2.7195105552673"><ele></ele><time>2022-6-23T10:20:17Z</time></trkpt>
<trkpt lat="49.136711120605" lon="2.7195792198181"><ele></ele><time>2022-6-23T10:20:20Z</time></trkpt>
<trkpt lat="49.136772155762" lon="2.7196450233459"><ele></ele><time>2022-6-23T10:20:23Z</time></trkpt>
<trkpt lat="49.136856079102" lon="2.7197282314301"><ele></ele><time>2022-6-23T10:20:26Z</time></trkpt>
<trkpt lat="49.136856079102" lon="2.7197282314301"><ele></ele><time>2022-6-23T10:20:29Z</time></trkpt>
<trkpt lat="49.136940002441" lon="2.7198147773743"><ele></ele><time>2022-6-23T10:20:32Z</time></trkpt>
<trkpt lat="49.137001037598" lon="2.7198755741119"><ele></ele><time>2022-6-23T10:20:35Z</time></trkpt>
<trkpt lat="49.137001037598" lon="2.7198755741119"><ele></ele><time>2022-6-23T10:20:38Z</time></trkpt>
<trkpt lat="49.137084960938" lon="2.7199702262878"><ele></ele><time>2022-6-23T10:20:41Z</time></trkpt>
<trkpt lat="49.137084960938" lon="2.7199702262878"><ele></ele><time>2022-6-23T10:20:44Z</time></trkpt>
<trkpt lat="49.137168884277" lon="2.7200744152069"><ele></ele><time>2022-6-23T10:20:47Z</time></trkpt>
<trkpt lat="49.137264251709" lon="2.7201654911041"><ele></ele><time>2022-6-23T10:20:50Z</time></trkpt>
<trkpt lat="49.137264251709" lon="2.7201654911041"><ele></ele><time>2022-6-23T10:20:53Z</time></trkpt>
<trkpt lat="49.137313842773" lon="2.7202174663544"><ele></ele><time>2022-6-23T10:20:56Z</time></trkpt>
<trkpt lat="49.137371063232" lon="2.7202768325806"><ele></ele><time>2022-6-23T10:20:59Z</time></trkpt>
<trkpt lat="49.137435913086" lon="2.72034740448"><ele></ele><time>2022-6-23T10:21:2Z</time></trkpt>
<trkpt lat="49.137504577637" lon="2.7204160690308"><ele></ele><time>2022-6-23T10:21:5Z</time></trkpt>
<trkpt lat="49.137554168701" lon="2.7204718589783"><ele></ele><time>2022-6-23T10:21:8Z</time></trkpt>
<trkpt lat="49.137554168701" lon="2.7204718589783"><ele></ele><time>2022-6-23T10:21:11Z</time></trkpt>
<trkpt lat="49.137638092041" lon="2.7205791473389"><ele></ele><time>2022-6-23T10:21:14Z</time></trkpt>
<trkpt lat="49.137687683105" lon="2.7206382751465"><ele></ele><time>2022-6-23T10:21:17Z</time></trkpt>
<trkpt lat="49.137748718262" lon="2.7207045555115"><ele></ele><time>2022-6-23T10:21:20Z</time></trkpt>
<trkpt lat="49.137813568115" lon="2.7207646369934"><ele></ele><time>2022-6-23T10:21:23Z</time></trkpt>
<trkpt lat="49.137882232666" lon="2.7208313941956"><ele></ele><time>2022-6-23T10:21:26Z</time></trkpt>
<trkpt lat="49.137882232666" lon="2.7208313941956"><ele></ele><time>2022-6-23T10:21:29Z</time></trkpt>
<trkpt lat="49.137992858887" lon="2.7209372520447"><ele></ele><time>2022-6-23T10:21:32Z</time></trkpt>
<trkpt lat="49.138061523438" lon="2.7210094928741"><ele></ele><time>2022-6-23T10:21:35Z</time></trkpt>
<trkpt lat="49.138130187988" lon="2.7210793495178"><ele></ele><time>2022-6-23T10:21:38Z</time></trkpt>
<trkpt lat="49.138206481934" lon="2.7211561203003"><ele></ele><time>2022-6-23T10:21:41Z</time></trkpt>
<trkpt lat="49.138282775879" lon="2.7212374210358"><ele></ele><time>2022-6-23T10:21:44Z</time></trkpt>
<trkpt lat="49.13835144043" lon="2.7213125228882"><ele></ele><time>2022-6-23T10:21:47Z</time></trkpt>
<trkpt lat="49.138412475586" lon="2.7213733196259"><ele></ele><time>2022-6-23T10:21:50Z</time></trkpt>
<trkpt lat="49.138484954834" lon="2.7214353084564"><ele></ele><time>2022-6-23T10:21:53Z</time></trkpt>
<trkpt lat="49.138576507568" lon="2.7215259075165"><ele></ele><time>2022-6-23T10:21:56Z</time></trkpt>
<trkpt lat="49.138648986816" lon="2.7215979099274"><ele></ele><time>2022-6-23T10:21:59Z</time></trkpt>
<trkpt lat="49.138717651367" lon="2.7216608524323"><ele></ele><time>2022-6-23T10:22:2Z</time></trkpt>
<trkpt lat="49.138790130615" lon="2.7217381000519"><ele></ele><time>2022-6-23T10:22:5Z</time></trkpt>
<trkpt lat="49.138866424561" lon="2.7218174934387"><ele></ele><time>2022-6-23T10:22:8Z</time></trkpt>
<trkpt lat="49.1389503479" lon="2.7218854427338"><ele></ele><time>2022-6-23T10:22:11Z</time></trkpt>
<trkpt lat="49.139007568359" lon="2.7219252586365"><ele></ele><time>2022-6-23T10:22:14Z</time></trkpt>
<trkpt lat="49.139007568359" lon="2.7219252586365"><ele></ele><time>2022-6-23T10:22:17Z</time></trkpt>
<trkpt lat="49.139007568359" lon="2.7219252586365"><ele></ele><time>2022-6-23T10:22:20Z</time></trkpt>
<trkpt lat="49.139068603516" lon="2.7219121456146"><ele></ele><time>2022-6-23T10:22:23Z</time></trkpt>
<trkpt lat="49.139087677002" lon="2.7217962741852"><ele></ele><time>2022-6-23T10:22:26Z</time></trkpt>
<trkpt lat="49.139087677002" lon="2.7217962741852"><ele></ele><time>2022-6-23T10:22:29Z</time></trkpt>
<trkpt lat="49.13911819458" lon="2.7216403484344"><ele></ele><time>2022-6-23T10:22:32Z</time></trkpt>
<trkpt lat="49.139125823975" lon="2.7215390205383"><ele></ele><time>2022-6-23T10:22:35Z</time></trkpt>
<trkpt lat="49.139133453369" lon="2.7214493751526"><ele></ele><time>2022-6-23T10:22:38Z</time></trkpt>
<trkpt lat="49.139152526855" lon="2.721296787262"><ele></ele><time>2022-6-23T10:22:41Z</time></trkpt>
<trkpt lat="49.139152526855" lon="2.721296787262"><ele></ele><time>2022-6-23T10:22:44Z</time></trkpt>
<trkpt lat="49.139198303223" lon="2.7211256027222"><ele></ele><time>2022-6-23T10:22:47Z</time></trkpt>
<trkpt lat="49.139221191406" lon="2.7210295200348"><ele></ele><time>2022-6-23T10:22:50Z</time></trkpt>
<trkpt lat="49.13924407959" lon="2.7209451198578"><ele></ele><time>2022-6-23T10:22:53Z</time></trkpt>
<trkpt lat="49.139236450195" lon="2.7208151817322"><ele></ele><time>2022-6-23T10:22:56Z</time></trkpt>
<trkpt lat="49.139232635498" lon="2.7206845283508"><ele></ele><time>2022-6-23T10:22:59Z</time></trkpt>
<trkpt lat="49.139236450195" lon="2.720559835434"><ele></ele><time>2022-6-23T10:23:2Z</time></trkpt>
<trkpt lat="49.139236450195" lon="2.720559835434"><ele></ele><time>2022-6-23T10:23:5Z</time></trkpt>
<trkpt lat="49.13924407959" lon="2.7204530239105"><ele></ele><time>2022-6-23T10:23:8Z</time></trkpt>
<trkpt lat="49.13924407959" lon="2.7203533649445"><ele></ele><time>2022-6-23T10:23:11Z</time></trkpt>
<trkpt lat="49.139247894287" lon="2.7202270030975"><ele></ele><time>2022-6-23T10:23:14Z</time></trkpt>
<trkpt lat="49.139259338379" lon="2.7201404571533"><ele></ele><time>2022-6-23T10:23:17Z</time></trkpt>
<trkpt lat="49.139259338379" lon="2.7201404571533"><ele></ele><time>2022-6-23T10:23:20Z</time></trkpt>
<trkpt lat="49.139251708984" lon="2.7199833393097"><ele></ele><time>2022-6-23T10:23:23Z</time></trkpt>
<trkpt lat="49.139266967773" lon="2.719872713089"><ele></ele><time>2022-6-23T10:23:26Z</time></trkpt>
<trkpt lat="49.139289855957" lon="2.7197713851929"><ele></ele><time>2022-6-23T10:23:29Z</time></trkpt>
<trkpt lat="49.139289855957" lon="2.7197713851929"><ele></ele><time>2022-6-23T10:23:32Z</time></trkpt>
<trkpt lat="49.139335632324" lon="2.7196385860443"><ele></ele><time>2022-6-23T10:23:35Z</time></trkpt>
<trkpt lat="49.139366149902" lon="2.7195539474487"><ele></ele><time>2022-6-23T10:23:38Z</time></trkpt>
<trkpt lat="49.13941192627" lon="2.7194731235504"><ele></ele><time>2022-6-23T10:23:41Z</time></trkpt>
<trkpt lat="49.139450073242" lon="2.7193908691406"><ele></ele><time>2022-6-23T10:23:44Z</time></trkpt>
<trkpt lat="49.139492034912" lon="2.7192842960358"><ele></ele><time>2022-6-23T10:23:47Z</time></trkpt>
<trkpt lat="49.139533996582" lon="2.719170331955"><ele></ele><time>2022-6-23T10:23:50Z</time></trkpt>
<trkpt lat="49.139579772949" lon="2.7190499305725"><ele></ele><time>2022-6-23T10:23:53Z</time></trkpt>
<trkpt lat="49.139636993408" lon="2.718852519989"><ele></ele><time>2022-6-23T10:23:56Z</time></trkpt>
<trkpt lat="49.139675140381" lon="2.718763589859"><ele></ele><time>2022-6-23T10:23:59Z</time></trkpt>
<trkpt lat="49.139709472656" lon="2.7186558246613"><ele></ele><time>2022-6-23T10:24:2Z</time></trkpt>
<trkpt lat="49.139743804932" lon="2.7185468673706"><ele></ele><time>2022-6-23T10:24:5Z</time></trkpt>
<trkpt lat="49.139820098877" lon="2.7183749675751"><ele></ele><time>2022-6-23T10:24:8Z</time></trkpt>
<trkpt lat="49.139820098877" lon="2.7183749675751"><ele></ele><time>2022-6-23T10:24:11Z</time></trkpt>
<trkpt lat="49.139961242676" lon="2.7181768417358"><ele></ele><time>2022-6-23T10:24:14Z</time></trkpt>
<trkpt lat="49.140113830566" lon="2.7180509567261"><ele></ele><time>2022-6-23T10:24:17Z</time></trkpt>
<trkpt lat="49.140228271484" lon="2.7179334163666"><ele></ele><time>2022-6-23T10:24:20Z</time></trkpt>
<trkpt lat="49.140300750732" lon="2.7178521156311"><ele></ele><time>2022-6-23T10:24:23Z</time></trkpt>
<trkpt lat="49.140300750732" lon="2.7178521156311"><ele></ele><time>2022-6-23T10:24:26Z</time></trkpt>
<trkpt lat="49.140300750732" lon="2.7178521156311"><ele></ele><time>2022-6-23T10:24:29Z</time></trkpt>
<trkpt lat="49.140300750732" lon="2.7178521156311"><ele></ele><time>2022-6-23T10:24:32Z</time></trkpt>
<trkpt lat="49.140300750732" lon="2.7178521156311"><ele></ele><time>2022-6-23T10:24:35Z</time></trkpt>
<trkpt lat="49.140300750732" lon="2.7178521156311"><ele></ele><time>2022-6-23T10:24:38Z</time></trkpt>
<trkpt lat="49.140300750732" lon="2.7178521156311"><ele></ele><time>2022-6-23T10:24:41Z</time></trkpt>
<trkpt lat="49.140300750732" lon="2.7178521156311"><ele></ele><time>2022-6-23T10:24:44Z</time></trkpt>
<trkpt lat="49.140300750732" lon="2.7178521156311"><ele></ele><time>2022-6-23T10:24:47Z</time></trkpt>
<trkpt lat="49.140331268311" lon="2.7179942131042"><ele></ele><time>2022-6-23T10:24:50Z</time></trkpt>
<trkpt lat="49.140331268311" lon="2.7179942131042"><ele></ele><time>2022-6-23T10:24:53Z</time></trkpt>
<trkpt lat="49.140354156494" lon="2.7180821895599"><ele></ele><time>2022-6-23T10:24:56Z</time></trkpt>
<trkpt lat="49.140369415283" lon="2.7181394100189"><ele></ele><time>2022-6-23T10:24:59Z</time></trkpt>
<trkpt lat="49.14038848877" lon="2.7181951999664"><ele></ele><time>2022-6-23T10:25:2Z</time></trkpt>
<trkpt lat="49.14038848877" lon="2.7181951999664"><ele></ele><time>2022-6-23T10:25:5Z</time></trkpt>
<trkpt lat="49.14041519165" lon="2.7182693481445"><ele></ele><time>2022-6-23T10:25:8Z</time></trkpt>
<trkpt lat="49.140480041504" lon="2.718430519104"><ele></ele><time>2022-6-23T10:25:11Z</time></trkpt>
<trkpt lat="49.140480041504" lon="2.718430519104"><ele></ele><time>2022-6-23T10:25:14Z</time></trkpt>
<trkpt lat="49.140522003174" lon="2.7185251712799"><ele></ele><time>2022-6-23T10:25:17Z</time></trkpt>
<trkpt lat="49.140602111816" lon="2.7185983657837"><ele></ele><time>2022-6-23T10:25:20Z</time></trkpt>
<trkpt lat="49.140602111816" lon="2.7185983657837"><ele></ele><time>2022-6-23T10:25:23Z</time></trkpt>
<trkpt lat="49.140705108643" lon="2.7186686992645"><ele></ele><time>2022-6-23T10:25:26Z</time></trkpt>
<trkpt lat="49.140758514404" lon="2.7187023162842"><ele></ele><time>2022-6-23T10:25:29Z</time></trkpt>
<trkpt lat="49.140758514404" lon="2.7187023162842"><ele></ele><time>2022-6-23T10:25:32Z</time></trkpt>
<trkpt lat="49.140815734863" lon="2.7187402248383"><ele></ele><time>2022-6-23T10:25:35Z</time></trkpt>
<trkpt lat="49.140869140625" lon="2.718777179718"><ele></ele><time>2022-6-23T10:25:38Z</time></trkpt>
<trkpt lat="49.140869140625" lon="2.718777179718"><ele></ele><time>2022-6-23T10:25:41Z</time></trkpt>
<trkpt lat="49.140949249268" lon="2.7188215255737"><ele></ele><time>2022-6-23T10:25:44Z</time></trkpt>
<trkpt lat="49.140949249268" lon="2.7188215255737"><ele></ele><time>2022-6-23T10:25:47Z</time></trkpt>
<trkpt lat="49.141021728516" lon="2.7188653945923"><ele></ele><time>2022-6-23T10:25:50Z</time></trkpt>
<trkpt lat="49.141021728516" lon="2.7188653945923"><ele></ele><time>2022-6-23T10:25:53Z</time></trkpt>
<trkpt lat="49.141021728516" lon="2.7188653945923"><ele></ele><time>2022-6-23T10:25:56Z</time></trkpt>
<trkpt lat="49.141101837158" lon="2.7189333438873"><ele></ele><time>2022-6-23T10:25:59Z</time></trkpt>
<trkpt lat="49.141101837158" lon="2.7189333438873"><ele></ele><time>2022-6-23T10:26:2Z</time></trkpt>
<trkpt lat="49.141101837158" lon="2.7189333438873"><ele></ele><time>2022-6-23T10:26:5Z</time></trkpt>
<trkpt lat="49.141170501709" lon="2.7190420627594"><ele></ele><time>2022-6-23T10:26:8Z</time></trkpt>
<trkpt lat="49.141170501709" lon="2.7190420627594"><ele></ele><time>2022-6-23T10:26:11Z</time></trkpt>
<trkpt lat="49.141242980957" lon="2.7191519737244"><ele></ele><time>2022-6-23T10:26:14Z</time></trkpt>
<trkpt lat="49.141242980957" lon="2.7191519737244"><ele></ele><time>2022-6-23T10:26:17Z</time></trkpt>
<trkpt lat="49.141242980957" lon="2.7191519737244"><ele></ele><time>2022-6-23T10:26:20Z</time></trkpt>
<trkpt lat="49.141345977783" lon="2.7192595005035"><ele></ele><time>2022-6-23T10:26:23Z</time></trkpt>
<trkpt lat="49.141395568848" lon="2.719304561615"><ele></ele><time>2022-6-23T10:26:26Z</time></trkpt>
<trkpt lat="49.141452789307" lon="2.7193586826324"><ele></ele><time>2022-6-23T10:26:29Z</time></trkpt>
<trkpt lat="49.141452789307" lon="2.7193586826324"><ele></ele><time>2022-6-23T10:26:32Z</time></trkpt>
<trkpt lat="49.141536712646" lon="2.7194392681122"><ele></ele><time>2022-6-23T10:26:35Z</time></trkpt>
<trkpt lat="49.141586303711" lon="2.7195107936859"><ele></ele><time>2022-6-23T10:26:38Z</time></trkpt>
<trkpt lat="49.141628265381" lon="2.7195770740509"><ele></ele><time>2022-6-23T10:26:41Z</time></trkpt>
<trkpt lat="49.141628265381" lon="2.7195770740509"><ele></ele><time>2022-6-23T10:26:44Z</time></trkpt>
<trkpt lat="49.141716003418" lon="2.7197530269623"><ele></ele><time>2022-6-23T10:26:47Z</time></trkpt>
<trkpt lat="49.141757965088" lon="2.719851732254"><ele></ele><time>2022-6-23T10:26:50Z</time></trkpt>
<trkpt lat="49.141757965088" lon="2.719851732254"><ele></ele><time>2022-6-23T10:26:53Z</time></trkpt>
<trkpt lat="49.141757965088" lon="2.719851732254"><ele></ele><time>2022-6-23T10:26:56Z</time></trkpt>
<trkpt lat="49.14181137085" lon="2.7199974060059"><ele></ele><time>2022-6-23T10:26:59Z</time></trkpt>
<trkpt lat="49.141845703125" lon="2.7200794219971"><ele></ele><time>2022-6-23T10:27:2Z</time></trkpt>
<trkpt lat="49.141845703125" lon="2.7200794219971"><ele></ele><time>2022-6-23T10:27:5Z</time></trkpt>
<trkpt lat="49.141845703125" lon="2.7200794219971"><ele></ele><time>2022-6-23T10:27:8Z</time></trkpt>
<trkpt lat="49.141918182373" lon="2.7202060222626"><ele></ele><time>2022-6-23T10:27:11Z</time></trkpt>
<trkpt lat="49.141986846924" lon="2.7202606201172"><ele></ele><time>2022-6-23T10:27:14Z</time></trkpt>
<trkpt lat="49.141986846924" lon="2.7202606201172"><ele></ele><time>2022-6-23T10:27:17Z</time></trkpt>
<trkpt lat="49.14204788208" lon="2.7202923297882"><ele></ele><time>2022-6-23T10:27:20Z</time></trkpt>
<trkpt lat="49.142112731934" lon="2.7203800678253"><ele></ele><time>2022-6-23T10:27:23Z</time></trkpt>
<trkpt lat="49.142112731934" lon="2.7203800678253"><ele></ele><time>2022-6-23T10:27:26Z</time></trkpt>
<trkpt lat="49.142204284668" lon="2.7204570770264"><ele></ele><time>2022-6-23T10:27:29Z</time></trkpt>
<trkpt lat="49.142204284668" lon="2.7204570770264"><ele></ele><time>2022-6-23T10:27:32Z</time></trkpt>
<trkpt lat="49.142204284668" lon="2.7204570770264"><ele></ele><time>2022-6-23T10:27:35Z</time></trkpt>
<trkpt lat="49.142295837402" lon="2.7205188274384"><ele></ele><time>2022-6-23T10:27:38Z</time></trkpt>
<trkpt lat="49.142295837402" lon="2.7205188274384"><ele></ele><time>2022-6-23T10:27:41Z</time></trkpt>
<trkpt lat="49.142372131348" lon="2.7205934524536"><ele></ele><time>2022-6-23T10:27:44Z</time></trkpt>
<trkpt lat="49.142372131348" lon="2.7205934524536"><ele></ele><time>2022-6-23T10:27:47Z</time></trkpt>
<trkpt lat="49.142429351807" lon="2.7206499576569"><ele></ele><time>2022-6-23T10:27:50Z</time></trkpt>
<trkpt lat="49.142429351807" lon="2.7206499576569"><ele></ele><time>2022-6-23T10:27:53Z</time></trkpt>
<trkpt lat="49.14249420166" lon="2.7207186222076"><ele></ele><time>2022-6-23T10:27:56Z</time></trkpt>
<trkpt lat="49.14249420166" lon="2.7207186222076"><ele></ele><time>2022-6-23T10:27:59Z</time></trkpt>
<trkpt lat="49.14249420166" lon="2.7207186222076"><ele></ele><time>2022-6-23T10:28:2Z</time></trkpt>
<trkpt lat="49.142551422119" lon="2.7207486629486"><ele></ele><time>2022-6-23T10:28:5Z</time></trkpt>
<trkpt lat="49.142551422119" lon="2.7207486629486"><ele></ele><time>2022-6-23T10:28:8Z</time></trkpt>
<trkpt lat="49.142623901367" lon="2.7207887172699"><ele></ele><time>2022-6-23T10:28:11Z</time></trkpt>
<trkpt lat="49.142623901367" lon="2.7207887172699"><ele></ele><time>2022-6-23T10:28:14Z</time></trkpt>
<trkpt lat="49.142623901367" lon="2.7207887172699"><ele></ele><time>2022-6-23T10:28:17Z</time></trkpt>
<trkpt lat="49.142688751221" lon="2.7208201885223"><ele></ele><time>2022-6-23T10:28:20Z</time></trkpt>
<trkpt lat="49.142688751221" lon="2.7208201885223"><ele></ele><time>2022-6-23T10:28:23Z</time></trkpt>
<trkpt lat="49.142753601074" lon="2.7208294868469"><ele></ele><time>2022-6-23T10:28:26Z</time></trkpt>
<trkpt lat="49.142753601074" lon="2.7208294868469"><ele></ele><time>2022-6-23T10:28:29Z</time></trkpt>
<trkpt lat="49.142803192139" lon="2.7207505702972"><ele></ele><time>2022-6-23T10:28:32Z</time></trkpt>
<trkpt lat="49.142837524414" lon="2.720664024353"><ele></ele><time>2022-6-23T10:28:35Z</time></trkpt>
<trkpt lat="49.142837524414" lon="2.720664024353"><ele></ele><time>2022-6-23T10:28:38Z</time></trkpt>
<trkpt lat="49.142871856689" lon="2.7205774784088"><ele></ele><time>2022-6-23T10:28:41Z</time></trkpt>
<trkpt lat="49.142871856689" lon="2.7205774784088"><ele></ele><time>2022-6-23T10:28:44Z</time></trkpt>
<trkpt lat="49.142871856689" lon="2.7205774784088"><ele></ele><time>2022-6-23T10:28:47Z</time></trkpt>
<trkpt lat="49.142871856689" lon="2.7205774784088"><ele></ele><time>2022-6-23T10:28:50Z</time></trkpt>
<trkpt lat="49.142871856689" lon="2.7205774784088"><ele></ele><time>2022-6-23T10:28:53Z</time></trkpt>
<trkpt lat="49.143001556396" lon="2.7203965187073"><ele></ele><time>2022-6-23T10:28:56Z</time></trkpt>
<trkpt lat="49.143047332764" lon="2.7202739715576"><ele></ele><time>2022-6-23T10:28:59Z</time></trkpt>
<trkpt lat="49.143047332764" lon="2.7202739715576"><ele></ele><time>2022-6-23T10:29:2Z</time></trkpt>
<trkpt lat="49.143089294434" lon="2.7201843261719"><ele></ele><time>2022-6-23T10:29:5Z</time></trkpt>
<trkpt lat="49.143135070801" lon="2.7200820446014"><ele></ele><time>2022-6-23T10:29:8Z</time></trkpt>
<trkpt lat="49.143161773682" lon="2.7199859619141"><ele></ele><time>2022-6-23T10:29:11Z</time></trkpt>
<trkpt lat="49.143161773682" lon="2.7199859619141"><ele></ele><time>2022-6-23T10:29:14Z</time></trkpt>
<trkpt lat="49.143211364746" lon="2.7198779582977"><ele></ele><time>2022-6-23T10:29:17Z</time></trkpt>
<trkpt lat="49.143241882324" lon="2.7197773456573"><ele></ele><time>2022-6-23T10:29:20Z</time></trkpt>
<trkpt lat="49.143241882324" lon="2.7197773456573"><ele></ele><time>2022-6-23T10:29:23Z</time></trkpt>
<trkpt lat="49.143260955811" lon="2.7196359634399"><ele></ele><time>2022-6-23T10:29:26Z</time></trkpt>
<trkpt lat="49.143260955811" lon="2.7196359634399"><ele></ele><time>2022-6-23T10:29:29Z</time></trkpt>
<trkpt lat="49.143299102783" lon="2.7194917201996"><ele></ele><time>2022-6-23T10:29:32Z</time></trkpt>
<trkpt lat="49.143299102783" lon="2.7194917201996"><ele></ele><time>2022-6-23T10:29:35Z</time></trkpt>
<trkpt lat="49.143337249756" lon="2.7193667888641"><ele></ele><time>2022-6-23T10:29:38Z</time></trkpt>
<trkpt lat="49.143337249756" lon="2.7193667888641"><ele></ele><time>2022-6-23T10:29:41Z</time></trkpt>
<trkpt lat="49.143379211426" lon="2.7192134857178"><ele></ele><time>2022-6-23T10:29:44Z</time></trkpt>
<trkpt lat="49.143379211426" lon="2.7192134857178"><ele></ele><time>2022-6-23T10:29:47Z</time></trkpt>
<trkpt lat="49.143421173096" lon="2.7191009521484"><ele></ele><time>2022-6-23T10:29:50Z</time></trkpt>
<trkpt lat="49.143421173096" lon="2.7191009521484"><ele></ele><time>2022-6-23T10:29:53Z</time></trkpt>
<trkpt lat="49.143459320068" lon="2.7189860343933"><ele></ele><time>2022-6-23T10:29:56Z</time></trkpt>
<trkpt lat="49.143486022949" lon="2.7188625335693"><ele></ele><time>2022-6-23T10:29:59Z</time></trkpt>
<trkpt lat="49.143486022949" lon="2.7188625335693"><ele></ele><time>2022-6-23T10:30:2Z</time></trkpt>
<trkpt lat="49.143550872803" lon="2.7187106609344"><ele></ele><time>2022-6-23T10:30:5Z</time></trkpt>
<trkpt lat="49.143608093262" lon="2.7186133861542"><ele></ele><time>2022-6-23T10:30:8Z</time></trkpt>
<trkpt lat="49.143608093262" lon="2.7186133861542"><ele></ele><time>2022-6-23T10:30:11Z</time></trkpt>
<trkpt lat="49.143661499023" lon="2.7185397148132"><ele></ele><time>2022-6-23T10:30:14Z</time></trkpt>
<trkpt lat="49.14372253418" lon="2.7184505462646"><ele></ele><time>2022-6-23T10:30:17Z</time></trkpt>
<trkpt lat="49.143779754639" lon="2.718367099762"><ele></ele><time>2022-6-23T10:30:20Z</time></trkpt>
<trkpt lat="49.143779754639" lon="2.718367099762"><ele></ele><time>2022-6-23T10:30:23Z</time></trkpt>
<trkpt lat="49.143829345703" lon="2.7182941436768"><ele></ele><time>2022-6-23T10:30:26Z</time></trkpt>
<trkpt lat="49.143928527832" lon="2.7181267738342"><ele></ele><time>2022-6-23T10:30:29Z</time></trkpt>
<trkpt lat="49.143993377686" lon="2.7180473804474"><ele></ele><time>2022-6-23T10:30:32Z</time></trkpt>
<trkpt lat="49.143993377686" lon="2.7180473804474"><ele></ele><time>2022-6-23T10:30:35Z</time></trkpt>
<trkpt lat="49.144077301025" lon="2.7179453372955"><ele></ele><time>2022-6-23T10:30:38Z</time></trkpt>
<trkpt lat="49.144134521484" lon="2.7178840637207"><ele></ele><time>2022-6-23T10:30:41Z</time></trkpt>
<trkpt lat="49.144187927246" lon="2.7178084850311"><ele></ele><time>2022-6-23T10:30:44Z</time></trkpt>
<trkpt lat="49.1442527771" lon="2.7176971435547"><ele></ele><time>2022-6-23T10:30:47Z</time></trkpt>
<trkpt lat="49.144340515137" lon="2.7175385951996"><ele></ele><time>2022-6-23T10:30:50Z</time></trkpt>
<trkpt lat="49.144412994385" lon="2.7174129486084"><ele></ele><time>2022-6-23T10:30:53Z</time></trkpt>
<trkpt lat="49.144458770752" lon="2.7173354625702"><ele></ele><time>2022-6-23T10:30:56Z</time></trkpt>
<trkpt lat="49.144458770752" lon="2.7173354625702"><ele></ele><time>2022-6-23T10:30:59Z</time></trkpt>
<trkpt lat="49.144504547119" lon="2.7172350883484"><ele></ele><time>2022-6-23T10:31:2Z</time></trkpt>
<trkpt lat="49.144554138184" lon="2.7171127796173"><ele></ele><time>2022-6-23T10:31:5Z</time></trkpt>
<trkpt lat="49.144592285156" lon="2.7170271873474"><ele></ele><time>2022-6-23T10:31:8Z</time></trkpt>
<trkpt lat="49.144592285156" lon="2.7170271873474"><ele></ele><time>2022-6-23T10:31:11Z</time></trkpt>
<trkpt lat="49.144672393799" lon="2.7169749736786"><ele></ele><time>2022-6-23T10:31:14Z</time></trkpt>
<trkpt lat="49.144748687744" lon="2.7169733047485"><ele></ele><time>2022-6-23T10:31:17Z</time></trkpt>
<trkpt lat="49.144748687744" lon="2.7169733047485"><ele></ele><time>2022-6-23T10:31:20Z</time></trkpt>
<trkpt lat="49.144813537598" lon="2.7169888019562"><ele></ele><time>2022-6-23T10:31:23Z</time></trkpt>
<trkpt lat="49.144878387451" lon="2.7170250415802"><ele></ele><time>2022-6-23T10:31:26Z</time></trkpt>
<trkpt lat="49.144969940186" lon="2.7170763015747"><ele></ele><time>2022-6-23T10:31:29Z</time></trkpt>
<trkpt lat="49.144969940186" lon="2.7170763015747"><ele></ele><time>2022-6-23T10:31:32Z</time></trkpt>
<trkpt lat="49.145046234131" lon="2.7171323299408"><ele></ele><time>2022-6-23T10:31:35Z</time></trkpt>
<trkpt lat="49.145126342773" lon="2.7171838283539"><ele></ele><time>2022-6-23T10:31:38Z</time></trkpt>
<trkpt lat="49.145236968994" lon="2.7172451019287"><ele></ele><time>2022-6-23T10:31:41Z</time></trkpt>
<trkpt lat="49.145236968994" lon="2.7172451019287"><ele></ele><time>2022-6-23T10:31:44Z</time></trkpt>
<trkpt lat="49.145347595215" lon="2.717294216156"><ele></ele><time>2022-6-23T10:31:47Z</time></trkpt>
<trkpt lat="49.145412445068" lon="2.7173335552216"><ele></ele><time>2022-6-23T10:31:50Z</time></trkpt>
<trkpt lat="49.145492553711" lon="2.7173812389374"><ele></ele><time>2022-6-23T10:31:53Z</time></trkpt>
<trkpt lat="49.145492553711" lon="2.7173812389374"><ele></ele><time>2022-6-23T10:31:56Z</time></trkpt>
<trkpt lat="49.145565032959" lon="2.7174100875854"><ele></ele><time>2022-6-23T10:31:59Z</time></trkpt>
<trkpt lat="49.145637512207" lon="2.7174336910248"><ele></ele><time>2022-6-23T10:32:2Z</time></trkpt>
<trkpt lat="49.145709991455" lon="2.7174565792084"><ele></ele><time>2022-6-23T10:32:5Z</time></trkpt>
<trkpt lat="49.145709991455" lon="2.7174565792084"><ele></ele><time>2022-6-23T10:32:8Z</time></trkpt>
<trkpt lat="49.145709991455" lon="2.7174565792084"><ele></ele><time>2022-6-23T10:32:11Z</time></trkpt>
<trkpt lat="49.145797729492" lon="2.7174973487854"><ele></ele><time>2022-6-23T10:32:14Z</time></trkpt>
<trkpt lat="49.145797729492" lon="2.7174973487854"><ele></ele><time>2022-6-23T10:32:17Z</time></trkpt>
<trkpt lat="49.145797729492" lon="2.7174973487854"><ele></ele><time>2022-6-23T10:32:20Z</time></trkpt>
<trkpt lat="49.145896911621" lon="2.7175126075745"><ele></ele><time>2022-6-23T10:32:23Z</time></trkpt>
<trkpt lat="49.145896911621" lon="2.7175126075745"><ele></ele><time>2022-6-23T10:32:26Z</time></trkpt>
<trkpt lat="49.14599609375" lon="2.7175040245056"><ele></ele><time>2022-6-23T10:32:29Z</time></trkpt>
<trkpt lat="49.14599609375" lon="2.7175040245056"><ele></ele><time>2022-6-23T10:32:32Z</time></trkpt>
<trkpt lat="49.14599609375" lon="2.7175040245056"><ele></ele><time>2022-6-23T10:32:35Z</time></trkpt>
<trkpt lat="49.146095275879" lon="2.7174746990204"><ele></ele><time>2022-6-23T10:32:38Z</time></trkpt>
<trkpt lat="49.146095275879" lon="2.7174746990204"><ele></ele><time>2022-6-23T10:32:41Z</time></trkpt>
<trkpt lat="49.146095275879" lon="2.7174746990204"><ele></ele><time>2022-6-23T10:32:44Z</time></trkpt>
<trkpt lat="49.146209716797" lon="2.7175641059875"><ele></ele><time>2022-6-23T10:32:47Z</time></trkpt>
<trkpt lat="49.146282196045" lon="2.7175846099854"><ele></ele><time>2022-6-23T10:32:50Z</time></trkpt>
<trkpt lat="49.146282196045" lon="2.7175846099854"><ele></ele><time>2022-6-23T10:32:53Z</time></trkpt>
<trkpt lat="49.146282196045" lon="2.7175846099854"><ele></ele><time>2022-6-23T10:32:56Z</time></trkpt>
<trkpt lat="49.146354675293" lon="2.717577457428"><ele></ele><time>2022-6-23T10:32:59Z</time></trkpt>
<trkpt lat="49.146354675293" lon="2.717577457428"><ele></ele><time>2022-6-23T10:33:2Z</time></trkpt>
<trkpt lat="49.146434783936" lon="2.7175333499908"><ele></ele><time>2022-6-23T10:33:5Z</time></trkpt>
<trkpt lat="49.146434783936" lon="2.7175333499908"><ele></ele><time>2022-6-23T10:33:8Z</time></trkpt>
<trkpt lat="49.146434783936" lon="2.7175333499908"><ele></ele><time>2022-6-23T10:33:11Z</time></trkpt>
<trkpt lat="49.146533966064" lon="2.7175478935242"><ele></ele><time>2022-6-23T10:33:14Z</time></trkpt>
<trkpt lat="49.146533966064" lon="2.7175478935242"><ele></ele><time>2022-6-23T10:33:17Z</time></trkpt>
<trkpt lat="49.146629333496" lon="2.7175641059875"><ele></ele><time>2022-6-23T10:33:20Z</time></trkpt>
<trkpt lat="49.14672088623" lon="2.717572927475"><ele></ele><time>2022-6-23T10:33:23Z</time></trkpt>
<trkpt lat="49.14672088623" lon="2.717572927475"><ele></ele><time>2022-6-23T10:33:26Z</time></trkpt>
<trkpt lat="49.146778106689" lon="2.7175762653351"><ele></ele><time>2022-6-23T10:33:29Z</time></trkpt>
<trkpt lat="49.146842956543" lon="2.7175893783569"><ele></ele><time>2022-6-23T10:33:32Z</time></trkpt>
<trkpt lat="49.146903991699" lon="2.7175979614258"><ele></ele><time>2022-6-23T10:33:35Z</time></trkpt>
<trkpt lat="49.146903991699" lon="2.7175979614258"><ele></ele><time>2022-6-23T10:33:38Z</time></trkpt>
<trkpt lat="49.147010803223" lon="2.7176036834717"><ele></ele><time>2022-6-23T10:33:41Z</time></trkpt>
<trkpt lat="49.147010803223" lon="2.7176036834717"><ele></ele><time>2022-6-23T10:33:44Z</time></trkpt>
<trkpt lat="49.147094726562" lon="2.7176485061646"><ele></ele><time>2022-6-23T10:33:47Z</time></trkpt>
<trkpt lat="49.147094726562" lon="2.7176485061646"><ele></ele><time>2022-6-23T10:33:50Z</time></trkpt>
<trkpt lat="49.147125244141" lon="2.7176866531372"><ele></ele><time>2022-6-23T10:33:53Z</time></trkpt>
<trkpt lat="49.147151947021" lon="2.7177128791809"><ele></ele><time>2022-6-23T10:33:56Z</time></trkpt>
<trkpt lat="49.147186279297" lon="2.7177107334137"><ele></ele><time>2022-6-23T10:33:59Z</time></trkpt>
<trkpt lat="49.147186279297" lon="2.7177107334137"><ele></ele><time>2022-6-23T10:34:2Z</time></trkpt>
<trkpt lat="49.147232055664" lon="2.7176930904388"><ele></ele><time>2022-6-23T10:34:5Z</time></trkpt>
<trkpt lat="49.147289276123" lon="2.717681646347"><ele></ele><time>2022-6-23T10:34:8Z</time></trkpt>
<trkpt lat="49.147411346436" lon="2.7176609039307"><ele></ele><time>2022-6-23T10:34:11Z</time></trkpt>
<trkpt lat="49.147411346436" lon="2.7176609039307"><ele></ele><time>2022-6-23T10:34:14Z</time></trkpt>
<trkpt lat="49.147491455078" lon="2.7176547050476"><ele></ele><time>2022-6-23T10:34:17Z</time></trkpt>
<trkpt lat="49.147567749023" lon="2.7176566123962"><ele></ele><time>2022-6-23T10:34:20Z</time></trkpt>
<trkpt lat="49.14762878418" lon="2.7176578044891"><ele></ele><time>2022-6-23T10:34:23Z</time></trkpt>
<trkpt lat="49.14762878418" lon="2.7176578044891"><ele></ele><time>2022-6-23T10:34:26Z</time></trkpt>
<trkpt lat="49.14762878418" lon="2.7176578044891"><ele></ele><time>2022-6-23T10:34:29Z</time></trkpt>
<trkpt lat="49.14771270752" lon="2.7176427841187"><ele></ele><time>2022-6-23T10:34:32Z</time></trkpt>
<trkpt lat="49.14771270752" lon="2.7176427841187"><ele></ele><time>2022-6-23T10:34:35Z</time></trkpt>
<trkpt lat="49.14771270752" lon="2.7176427841187"><ele></ele><time>2022-6-23T10:34:38Z</time></trkpt>
<trkpt lat="49.14771270752" lon="2.7176427841187"><ele></ele><time>2022-6-23T10:34:41Z</time></trkpt>
<trkpt lat="49.147769927979" lon="2.7175805568695"><ele></ele><time>2022-6-23T10:34:44Z</time></trkpt>
<trkpt lat="49.147769927979" lon="2.7175805568695"><ele></ele><time>2022-6-23T10:34:47Z</time></trkpt>
<trkpt lat="49.147769927979" lon="2.7175805568695"><ele></ele><time>2022-6-23T10:34:50Z</time></trkpt>
<trkpt lat="49.147743225098" lon="2.7174551486969"><ele></ele><time>2022-6-23T10:34:53Z</time></trkpt>
<trkpt lat="49.147743225098" lon="2.7174551486969"><ele></ele><time>2022-6-23T10:34:56Z</time></trkpt>
<trkpt lat="49.147727966309" lon="2.7172846794128"><ele></ele><time>2022-6-23T10:34:59Z</time></trkpt>
<trkpt lat="49.147727966309" lon="2.7171638011932"><ele></ele><time>2022-6-23T10:35:2Z</time></trkpt>
<trkpt lat="49.147735595703" lon="2.7170279026031"><ele></ele><time>2022-6-23T10:35:5Z</time></trkpt>
<trkpt lat="49.147735595703" lon="2.7170279026031"><ele></ele><time>2022-6-23T10:35:8Z</time></trkpt>
<trkpt lat="49.147754669189" lon="2.7169110774994"><ele></ele><time>2022-6-23T10:35:11Z</time></trkpt>
<trkpt lat="49.147792816162" lon="2.7167632579803"><ele></ele><time>2022-6-23T10:35:14Z</time></trkpt>
<trkpt lat="49.147792816162" lon="2.7167632579803"><ele></ele><time>2022-6-23T10:35:17Z</time></trkpt>
<trkpt lat="49.147792816162" lon="2.7167632579803"><ele></ele><time>2022-6-23T10:35:20Z</time></trkpt>
<trkpt lat="49.147792816162" lon="2.7167632579803"><ele></ele><time>2022-6-23T10:35:23Z</time></trkpt>
<trkpt lat="49.147789001465" lon="2.7166702747345"><ele></ele><time>2022-6-23T10:35:26Z</time></trkpt>
<trkpt lat="49.147789001465" lon="2.7166702747345"><ele></ele><time>2022-6-23T10:35:29Z</time></trkpt>
<trkpt lat="49.147789001465" lon="2.7166702747345"><ele></ele><time>2022-6-23T10:35:32Z</time></trkpt>
<trkpt lat="49.147789001465" lon="2.7166702747345"><ele></ele><time>2022-6-23T10:35:35Z</time></trkpt>
<trkpt lat="49.147846221924" lon="2.71648645401"><ele></ele><time>2022-6-23T10:35:38Z</time></trkpt>
<trkpt lat="49.147888183594" lon="2.7163217067719"><ele></ele><time>2022-6-23T10:35:41Z</time></trkpt>
<trkpt lat="49.147891998291" lon="2.7162311077118"><ele></ele><time>2022-6-23T10:35:44Z</time></trkpt>
<trkpt lat="49.147891998291" lon="2.7161331176758"><ele></ele><time>2022-6-23T10:35:47Z</time></trkpt>
<trkpt lat="49.147903442383" lon="2.7160158157349"><ele></ele><time>2022-6-23T10:35:50Z</time></trkpt>
<trkpt lat="49.147903442383" lon="2.7160158157349"><ele></ele><time>2022-6-23T10:35:53Z</time></trkpt>
<trkpt lat="49.147941589355" lon="2.7157123088837"><ele></ele><time>2022-6-23T10:35:56Z</time></trkpt>
<trkpt lat="49.147960662842" lon="2.7154893875122"><ele></ele><time>2022-6-23T10:35:59Z</time></trkpt>
<trkpt lat="49.147994995117" lon="2.7153072357178"><ele></ele><time>2022-6-23T10:36:2Z</time></trkpt>
<trkpt lat="49.147994995117" lon="2.7153072357178"><ele></ele><time>2022-6-23T10:36:5Z</time></trkpt>
<trkpt lat="49.14803314209" lon="2.7151231765747"><ele></ele><time>2022-6-23T10:36:8Z</time></trkpt>
<trkpt lat="49.148071289062" lon="2.7149312496185"><ele></ele><time>2022-6-23T10:36:11Z</time></trkpt>
<trkpt lat="49.148109436035" lon="2.714768409729"><ele></ele><time>2022-6-23T10:36:14Z</time></trkpt>
<trkpt lat="49.148109436035" lon="2.714768409729"><ele></ele><time>2022-6-23T10:36:17Z</time></trkpt>
<trkpt lat="49.148151397705" lon="2.714604139328"><ele></ele><time>2022-6-23T10:36:20Z</time></trkpt>
<trkpt lat="49.148208618164" lon="2.7144131660461"><ele></ele><time>2022-6-23T10:36:23Z</time></trkpt>
<trkpt lat="49.148246765137" lon="2.7142016887665"><ele></ele><time>2022-6-23T10:36:26Z</time></trkpt>
<trkpt lat="49.148246765137" lon="2.7142016887665"><ele></ele><time>2022-6-23T10:36:29Z</time></trkpt>
<trkpt lat="49.148281097412" lon="2.7139823436737"><ele></ele><time>2022-6-23T10:36:32Z</time></trkpt>
<trkpt lat="49.148303985596" lon="2.7137920856476"><ele></ele><time>2022-6-23T10:36:35Z</time></trkpt>
<trkpt lat="49.148338317871" lon="2.713653087616"><ele></ele><time>2022-6-23T10:36:38Z</time></trkpt>
<trkpt lat="49.148338317871" lon="2.713653087616"><ele></ele><time>2022-6-23T10:36:41Z</time></trkpt>
<trkpt lat="49.148338317871" lon="2.713653087616"><ele></ele><time>2022-6-23T10:36:44Z</time></trkpt>
<trkpt lat="49.148338317871" lon="2.713653087616"><ele></ele><time>2022-6-23T10:36:47Z</time></trkpt>
<trkpt lat="49.14839553833" lon="2.7136881351471"><ele></ele><time>2022-6-23T10:36:50Z</time></trkpt>
<trkpt lat="49.148448944092" lon="2.7137579917908"><ele></ele><time>2022-6-23T10:36:53Z</time></trkpt>
<trkpt lat="49.148506164551" lon="2.7138369083405"><ele></ele><time>2022-6-23T10:36:56Z</time></trkpt>
<trkpt lat="49.148578643799" lon="2.7139284610748"><ele></ele><time>2022-6-23T10:36:59Z</time></trkpt>
<trkpt lat="49.148643493652" lon="2.7140231132507"><ele></ele><time>2022-6-23T10:37:2Z</time></trkpt>
<trkpt lat="49.148700714111" lon="2.7140929698944"><ele></ele><time>2022-6-23T10:37:5Z</time></trkpt>
<trkpt lat="49.148700714111" lon="2.7140929698944"><ele></ele><time>2022-6-23T10:37:8Z</time></trkpt>
<trkpt lat="49.14875793457" lon="2.7141749858856"><ele></ele><time>2022-6-23T10:37:11Z</time></trkpt>
<trkpt lat="49.148834228516" lon="2.7142622470856"><ele></ele><time>2022-6-23T10:37:14Z</time></trkpt>
<trkpt lat="49.148899078369" lon="2.7143392562866"><ele></ele><time>2022-6-23T10:37:17Z</time></trkpt>
<trkpt lat="49.148971557617" lon="2.7144346237183"><ele></ele><time>2022-6-23T10:37:20Z</time></trkpt>
<trkpt lat="49.14905166626" lon="2.7145342826843"><ele></ele><time>2022-6-23T10:37:23Z</time></trkpt>
<trkpt lat="49.149127960205" lon="2.7146565914154"><ele></ele><time>2022-6-23T10:37:26Z</time></trkpt>
<trkpt lat="49.149230957031" lon="2.7147679328918"><ele></ele><time>2022-6-23T10:37:29Z</time></trkpt>
<trkpt lat="49.149326324463" lon="2.7148642539978"><ele></ele><time>2022-6-23T10:37:32Z</time></trkpt>
<trkpt lat="49.149429321289" lon="2.7149558067322"><ele></ele><time>2022-6-23T10:37:35Z</time></trkpt>
<trkpt lat="49.149543762207" lon="2.7150416374207"><ele></ele><time>2022-6-23T10:37:38Z</time></trkpt>
<trkpt lat="49.149635314941" lon="2.7151334285736"><ele></ele><time>2022-6-23T10:37:41Z</time></trkpt>
<trkpt lat="49.149707794189" lon="2.7152059078217"><ele></ele><time>2022-6-23T10:37:44Z</time></trkpt>
<trkpt lat="49.149761199951" lon="2.7152662277222"><ele></ele><time>2022-6-23T10:37:47Z</time></trkpt>
<trkpt lat="49.14981842041" lon="2.715341091156"><ele></ele><time>2022-6-23T10:37:50Z</time></trkpt>
<trkpt lat="49.14990234375" lon="2.7154273986816"><ele></ele><time>2022-6-23T10:37:53Z</time></trkpt>
<trkpt lat="49.149963378906" lon="2.7154846191406"><ele></ele><time>2022-6-23T10:37:56Z</time></trkpt>
<trkpt lat="49.149963378906" lon="2.7154846191406"><ele></ele><time>2022-6-23T10:37:59Z</time></trkpt>
<trkpt lat="49.149963378906" lon="2.7154846191406"><ele></ele><time>2022-6-23T10:38:2Z</time></trkpt>
<trkpt lat="49.150009155273" lon="2.7155432701111"><ele></ele><time>2022-6-23T10:38:5Z</time></trkpt>
<trkpt lat="49.150009155273" lon="2.7155432701111"><ele></ele><time>2022-6-23T10:38:8Z</time></trkpt>
<trkpt lat="49.150081634521" lon="2.7156414985657"><ele></ele><time>2022-6-23T10:38:11Z</time></trkpt>
<trkpt lat="49.150081634521" lon="2.7156414985657"><ele></ele><time>2022-6-23T10:38:14Z</time></trkpt>
<trkpt lat="49.150081634521" lon="2.7156414985657"><ele></ele><time>2022-6-23T10:38:17Z</time></trkpt>
<trkpt lat="49.150142669678" lon="2.715754032135"><ele></ele><time>2022-6-23T10:38:20Z</time></trkpt>
<trkpt lat="49.150142669678" lon="2.715754032135"><ele></ele><time>2022-6-23T10:38:23Z</time></trkpt>
<trkpt lat="49.150142669678" lon="2.715754032135"><ele></ele><time>2022-6-23T10:38:26Z</time></trkpt>
<trkpt lat="49.15018081665" lon="2.7158839702606"><ele></ele><time>2022-6-23T10:38:29Z</time></trkpt>
<trkpt lat="49.15018081665" lon="2.7158839702606"><ele></ele><time>2022-6-23T10:38:32Z</time></trkpt>
<trkpt lat="49.150241851807" lon="2.7160141468048"><ele></ele><time>2022-6-23T10:38:35Z</time></trkpt>
<trkpt lat="49.150241851807" lon="2.7160141468048"><ele></ele><time>2022-6-23T10:38:38Z</time></trkpt>
<trkpt lat="49.150241851807" lon="2.7160141468048"><ele></ele><time>2022-6-23T10:38:41Z</time></trkpt>
<trkpt lat="49.150291442871" lon="2.7161872386932"><ele></ele><time>2022-6-23T10:38:44Z</time></trkpt>
<trkpt lat="49.150325775146" lon="2.7162969112396"><ele></ele><time>2022-6-23T10:38:47Z</time></trkpt>
<trkpt lat="49.150325775146" lon="2.7162969112396"><ele></ele><time>2022-6-23T10:38:50Z</time></trkpt>
<trkpt lat="49.150367736816" lon="2.7164087295532"><ele></ele><time>2022-6-23T10:38:53Z</time></trkpt>
<trkpt lat="49.150413513184" lon="2.7164916992188"><ele></ele><time>2022-6-23T10:38:56Z</time></trkpt>
<trkpt lat="49.150463104248" lon="2.7165849208832"><ele></ele><time>2022-6-23T10:38:59Z</time></trkpt>
<trkpt lat="49.150463104248" lon="2.7165849208832"><ele></ele><time>2022-6-23T10:39:2Z</time></trkpt>
<trkpt lat="49.150535583496" lon="2.7167108058929"><ele></ele><time>2022-6-23T10:39:5Z</time></trkpt>
<trkpt lat="49.150577545166" lon="2.716805934906"><ele></ele><time>2022-6-23T10:39:8Z</time></trkpt>
<trkpt lat="49.150619506836" lon="2.7168972492218"><ele></ele><time>2022-6-23T10:39:11Z</time></trkpt>
<trkpt lat="49.150619506836" lon="2.7168972492218"><ele></ele><time>2022-6-23T10:39:14Z</time></trkpt>
<trkpt lat="49.150657653809" lon="2.7169733047485"><ele></ele><time>2022-6-23T10:39:17Z</time></trkpt>
<trkpt lat="49.150726318359" lon="2.7171361446381"><ele></ele><time>2022-6-23T10:39:20Z</time></trkpt>
<trkpt lat="49.150726318359" lon="2.7171361446381"><ele></ele><time>2022-6-23T10:39:23Z</time></trkpt>
<trkpt lat="49.150768280029" lon="2.7172315120697"><ele></ele><time>2022-6-23T10:39:26Z</time></trkpt>
<trkpt lat="49.150798797607" lon="2.717319726944"><ele></ele><time>2022-6-23T10:39:29Z</time></trkpt>
<trkpt lat="49.150833129883" lon="2.7174305915833"><ele></ele><time>2022-6-23T10:39:32Z</time></trkpt>
<trkpt lat="49.150833129883" lon="2.7174305915833"><ele></ele><time>2022-6-23T10:39:35Z</time></trkpt>
<trkpt lat="49.150875091553" lon="2.7175376415253"><ele></ele><time>2022-6-23T10:39:38Z</time></trkpt>
<trkpt lat="49.15092086792" lon="2.7176496982574"><ele></ele><time>2022-6-23T10:39:41Z</time></trkpt>
<trkpt lat="49.150959014893" lon="2.7177238464355"><ele></ele><time>2022-6-23T10:39:44Z</time></trkpt>
<trkpt lat="49.150959014893" lon="2.7177238464355"><ele></ele><time>2022-6-23T10:39:47Z</time></trkpt>
<trkpt lat="49.150959014893" lon="2.7177238464355"><ele></ele><time>2022-6-23T10:39:50Z</time></trkpt>
<trkpt lat="49.151008605957" lon="2.7178552150726"><ele></ele><time>2022-6-23T10:39:53Z</time></trkpt>
<trkpt lat="49.151008605957" lon="2.7178552150726"><ele></ele><time>2022-6-23T10:39:56Z</time></trkpt>
<trkpt lat="49.151008605957" lon="2.7178552150726"><ele></ele><time>2022-6-23T10:39:59Z</time></trkpt>
<trkpt lat="49.151000976562" lon="2.7179498672485"><ele></ele><time>2022-6-23T10:40:2Z</time></trkpt>
<trkpt lat="49.151000976562" lon="2.7179498672485"><ele></ele><time>2022-6-23T10:40:5Z</time></trkpt>
<trkpt lat="49.151000976562" lon="2.7179498672485"><ele></ele><time>2022-6-23T10:40:8Z</time></trkpt>
<trkpt lat="49.151000976562" lon="2.7179498672485"><ele></ele><time>2022-6-23T10:40:11Z</time></trkpt>
<trkpt lat="49.150974273682" lon="2.7180745601654"><ele></ele><time>2022-6-23T10:40:14Z</time></trkpt>
<trkpt lat="49.150974273682" lon="2.7180745601654"><ele></ele><time>2022-6-23T10:40:17Z</time></trkpt>
<trkpt lat="49.150947570801" lon="2.7181644439697"><ele></ele><time>2022-6-23T10:40:20Z</time></trkpt>
<trkpt lat="49.150947570801" lon="2.7181644439697"><ele></ele><time>2022-6-23T10:40:23Z</time></trkpt>
<trkpt lat="49.150947570801" lon="2.7181644439697"><ele></ele><time>2022-6-23T10:40:26Z</time></trkpt>
<trkpt lat="49.15096282959" lon="2.7182965278625"><ele></ele><time>2022-6-23T10:40:29Z</time></trkpt>
<trkpt lat="49.15096282959" lon="2.7182965278625"><ele></ele><time>2022-6-23T10:40:32Z</time></trkpt>
<trkpt lat="49.150955200195" lon="2.7184386253357"><ele></ele><time>2022-6-23T10:40:35Z</time></trkpt>
<trkpt lat="49.150951385498" lon="2.7185297012329"><ele></ele><time>2022-6-23T10:40:38Z</time></trkpt>
<trkpt lat="49.150932312012" lon="2.7186651229858"><ele></ele><time>2022-6-23T10:40:41Z</time></trkpt>
<trkpt lat="49.150917053223" lon="2.7187914848328"><ele></ele><time>2022-6-23T10:40:44Z</time></trkpt>
<trkpt lat="49.150917053223" lon="2.7188868522644"><ele></ele><time>2022-6-23T10:40:47Z</time></trkpt>
<trkpt lat="49.150939941406" lon="2.7190101146698"><ele></ele><time>2022-6-23T10:40:50Z</time></trkpt>
<trkpt lat="49.150951385498" lon="2.7191209793091"><ele></ele><time>2022-6-23T10:40:53Z</time></trkpt>
<trkpt lat="49.150959014893" lon="2.7192089557648"><ele></ele><time>2022-6-23T10:40:56Z</time></trkpt>
<trkpt lat="49.150959014893" lon="2.7192089557648"><ele></ele><time>2022-6-23T10:40:59Z</time></trkpt>
<trkpt lat="49.150981903076" lon="2.7193789482117"><ele></ele><time>2022-6-23T10:41:2Z</time></trkpt>
<trkpt lat="49.150989532471" lon="2.7194724082947"><ele></ele><time>2022-6-23T10:41:5Z</time></trkpt>
<trkpt lat="49.151000976562" lon="2.7195670604706"><ele></ele><time>2022-6-23T10:41:8Z</time></trkpt>
<trkpt lat="49.151008605957" lon="2.719669342041"><ele></ele><time>2022-6-23T10:41:11Z</time></trkpt>
<trkpt lat="49.151008605957" lon="2.7197573184967"><ele></ele><time>2022-6-23T10:41:14Z</time></trkpt>
<trkpt lat="49.151016235352" lon="2.7198643684387"><ele></ele><time>2022-6-23T10:41:17Z</time></trkpt>
<trkpt lat="49.151027679443" lon="2.719978094101"><ele></ele><time>2022-6-23T10:41:20Z</time></trkpt>
<trkpt lat="49.151042938232" lon="2.7200839519501"><ele></ele><time>2022-6-23T10:41:23Z</time></trkpt>
<trkpt lat="49.151035308838" lon="2.7202010154724"><ele></ele><time>2022-6-23T10:41:26Z</time></trkpt>
<trkpt lat="49.151016235352" lon="2.7203130722046"><ele></ele><time>2022-6-23T10:41:29Z</time></trkpt>
<trkpt lat="49.151012420654" lon="2.7204325199127"><ele></ele><time>2022-6-23T10:41:32Z</time></trkpt>
<trkpt lat="49.151012420654" lon="2.7204325199127"><ele></ele><time>2022-6-23T10:41:35Z</time></trkpt>
<trkpt lat="49.151027679443" lon="2.7206537723541"><ele></ele><time>2022-6-23T10:41:38Z</time></trkpt>
<trkpt lat="49.151027679443" lon="2.7206537723541"><ele></ele><time>2022-6-23T10:41:41Z</time></trkpt>
<trkpt lat="49.151027679443" lon="2.7206537723541"><ele></ele><time>2022-6-23T10:41:44Z</time></trkpt>
<trkpt lat="49.151035308838" lon="2.7208127975464"><ele></ele><time>2022-6-23T10:41:47Z</time></trkpt>
<trkpt lat="49.151035308838" lon="2.7208127975464"><ele></ele><time>2022-6-23T10:41:50Z</time></trkpt>
<trkpt lat="49.151039123535" lon="2.721001625061"><ele></ele><time>2022-6-23T10:41:53Z</time></trkpt>
<trkpt lat="49.151054382324" lon="2.7210965156555"><ele></ele><time>2022-6-23T10:41:56Z</time></trkpt>
<trkpt lat="49.151081085205" lon="2.7211897373199"><ele></ele><time>2022-6-23T10:41:59Z</time></trkpt>
<trkpt lat="49.151081085205" lon="2.7211897373199"><ele></ele><time>2022-6-23T10:42:2Z</time></trkpt>
<trkpt lat="49.151096343994" lon="2.7212750911713"><ele></ele><time>2022-6-23T10:42:5Z</time></trkpt>
<trkpt lat="49.1510887146" lon="2.721417427063"><ele></ele><time>2022-6-23T10:42:8Z</time></trkpt>
<trkpt lat="49.1510887146" lon="2.721417427063"><ele></ele><time>2022-6-23T10:42:11Z</time></trkpt>
<trkpt lat="49.1510887146" lon="2.721417427063"><ele></ele><time>2022-6-23T10:42:14Z</time></trkpt>
<trkpt lat="49.1510887146" lon="2.721417427063"><ele></ele><time>2022-6-23T10:42:17Z</time></trkpt>
<trkpt lat="49.1510887146" lon="2.721417427063"><ele></ele><time>2022-6-23T10:42:20Z</time></trkpt>
<trkpt lat="49.1510887146" lon="2.721417427063"><ele></ele><time>2022-6-23T10:42:23Z</time></trkpt>
<trkpt lat="49.1510887146" lon="2.721417427063"><ele></ele><time>2022-6-23T10:42:26Z</time></trkpt>
<trkpt lat="49.151016235352" lon="2.7215104103088"><ele></ele><time>2022-6-23T10:42:29Z</time></trkpt>
<trkpt lat="49.151016235352" lon="2.7215104103088"><ele></ele><time>2022-6-23T10:42:32Z</time></trkpt>
<trkpt lat="49.151016235352" lon="2.7215104103088"><ele></ele><time>2022-6-23T10:42:35Z</time></trkpt>
<trkpt lat="49.151016235352" lon="2.7215104103088"><ele></ele><time>2022-6-23T10:42:38Z</time></trkpt>
<trkpt lat="49.151020050049" lon="2.7216784954071"><ele></ele><time>2022-6-23T10:42:41Z</time></trkpt>
<trkpt lat="49.151020050049" lon="2.7216784954071"><ele></ele><time>2022-6-23T10:42:44Z</time></trkpt>
<trkpt lat="49.151020050049" lon="2.7216784954071"><ele></ele><time>2022-6-23T10:42:47Z</time></trkpt>
<trkpt lat="49.151020050049" lon="2.7216784954071"><ele></ele><time>2022-6-23T10:42:50Z</time></trkpt>
<trkpt lat="49.151020050049" lon="2.7216784954071"><ele></ele><time>2022-6-23T10:42:53Z</time></trkpt>
<trkpt lat="49.151081085205" lon="2.7217154502869"><ele></ele><time>2022-6-23T10:42:56Z</time></trkpt>
<trkpt lat="49.151081085205" lon="2.7217154502869"><ele></ele><time>2022-6-23T10:42:59Z</time></trkpt>
<trkpt lat="49.150886535645" lon="2.7217819690704"><ele></ele><time>2022-6-23T10:43:2Z</time></trkpt>
<trkpt lat="49.150886535645" lon="2.7217819690704"><ele></ele><time>2022-6-23T10:43:5Z</time></trkpt>
<trkpt lat="49.150886535645" lon="2.7217819690704"><ele></ele><time>2022-6-23T10:43:8Z</time></trkpt>
<trkpt lat="49.150886535645" lon="2.7217819690704"><ele></ele><time>2022-6-23T10:43:11Z</time></trkpt>
<trkpt lat="49.150871276855" lon="2.7220525741577"><ele></ele><time>2022-6-23T10:43:14Z</time></trkpt>
<trkpt lat="49.150871276855" lon="2.7220525741577"><ele></ele><time>2022-6-23T10:43:17Z</time></trkpt>
<trkpt lat="49.150867462158" lon="2.7221763134003"><ele></ele><time>2022-6-23T10:43:20Z</time></trkpt>
<trkpt lat="49.150844573975" lon="2.722323179245"><ele></ele><time>2022-6-23T10:43:23Z</time></trkpt>
<trkpt lat="49.150810241699" lon="2.7224857807159"><ele></ele><time>2022-6-23T10:43:26Z</time></trkpt>
<trkpt lat="49.150779724121" lon="2.7225677967072"><ele></ele><time>2022-6-23T10:43:29Z</time></trkpt>
<trkpt lat="49.150749206543" lon="2.722644329071"><ele></ele><time>2022-6-23T10:43:32Z</time></trkpt>
<trkpt lat="49.150718688965" lon="2.7227559089661"><ele></ele><time>2022-6-23T10:43:35Z</time></trkpt>
<trkpt lat="49.150703430176" lon="2.7228667736053"><ele></ele><time>2022-6-23T10:43:38Z</time></trkpt>
<trkpt lat="49.150695800781" lon="2.7229533195496"><ele></ele><time>2022-6-23T10:43:41Z</time></trkpt>
<trkpt lat="49.150688171387" lon="2.7230632305145"><ele></ele><time>2022-6-23T10:43:44Z</time></trkpt>
<trkpt lat="49.150680541992" lon="2.7231738567352"><ele></ele><time>2022-6-23T10:43:47Z</time></trkpt>
<trkpt lat="49.150680541992" lon="2.7233092784882"><ele></ele><time>2022-6-23T10:43:50Z</time></trkpt>
<trkpt lat="49.150676727295" lon="2.7234332561493"><ele></ele><time>2022-6-23T10:43:53Z</time></trkpt>
<trkpt lat="49.150680541992" lon="2.7235467433929"><ele></ele><time>2022-6-23T10:43:56Z</time></trkpt>
<trkpt lat="49.150688171387" lon="2.7236580848694"><ele></ele><time>2022-6-23T10:43:59Z</time></trkpt>
<trkpt lat="49.150695800781" lon="2.7237565517426"><ele></ele><time>2022-6-23T10:44:2Z</time></trkpt>
<trkpt lat="49.150695800781" lon="2.7237565517426"><ele></ele><time>2022-6-23T10:44:5Z</time></trkpt>
<trkpt lat="49.150726318359" lon="2.7239263057709"><ele></ele><time>2022-6-23T10:44:8Z</time></trkpt>
<trkpt lat="49.150749206543" lon="2.7240397930145"><ele></ele><time>2022-6-23T10:44:11Z</time></trkpt>
<trkpt lat="49.150749206543" lon="2.7240397930145"><ele></ele><time>2022-6-23T10:44:14Z</time></trkpt>
<trkpt lat="49.150768280029" lon="2.7241344451904"><ele></ele><time>2022-6-23T10:44:17Z</time></trkpt>
<trkpt lat="49.150768280029" lon="2.7241344451904"><ele></ele><time>2022-6-23T10:44:20Z</time></trkpt>
<trkpt lat="49.150779724121" lon="2.7243013381958"><ele></ele><time>2022-6-23T10:44:23Z</time></trkpt>
<trkpt lat="49.150779724121" lon="2.7243013381958"><ele></ele><time>2022-6-23T10:44:26Z</time></trkpt>
<trkpt lat="49.150779724121" lon="2.7243013381958"><ele></ele><time>2022-6-23T10:44:29Z</time></trkpt>
<trkpt lat="49.150787353516" lon="2.724466085434"><ele></ele><time>2022-6-23T10:44:32Z</time></trkpt>
<trkpt lat="49.150791168213" lon="2.7245693206787"><ele></ele><time>2022-6-23T10:44:35Z</time></trkpt>
<trkpt lat="49.150798797607" lon="2.7246716022491"><ele></ele><time>2022-6-23T10:44:38Z</time></trkpt>
<trkpt lat="49.150814056396" lon="2.7247748374939"><ele></ele><time>2022-6-23T10:44:41Z</time></trkpt>
<trkpt lat="49.150814056396" lon="2.7247748374939"><ele></ele><time>2022-6-23T10:44:44Z</time></trkpt>
<trkpt lat="49.150844573975" lon="2.7249474525452"><ele></ele><time>2022-6-23T10:44:47Z</time></trkpt>
<trkpt lat="49.150856018066" lon="2.7250461578369"><ele></ele><time>2022-6-23T10:44:50Z</time></trkpt>
<trkpt lat="49.150867462158" lon="2.7251710891724"><ele></ele><time>2022-6-23T10:44:53Z</time></trkpt>
<trkpt lat="49.150882720947" lon="2.7253053188324"><ele></ele><time>2022-6-23T10:44:56Z</time></trkpt>
<trkpt lat="49.150890350342" lon="2.7254011631012"><ele></ele><time>2022-6-23T10:44:59Z</time></trkpt>
<trkpt lat="49.150894165039" lon="2.7254936695099"><ele></ele><time>2022-6-23T10:45:2Z</time></trkpt>
<trkpt lat="49.150890350342" lon="2.7256011962891"><ele></ele><time>2022-6-23T10:45:5Z</time></trkpt>
<trkpt lat="49.150886535645" lon="2.7257044315338"><ele></ele><time>2022-6-23T10:45:8Z</time></trkpt>
<trkpt lat="49.150886535645" lon="2.7258195877075"><ele></ele><time>2022-6-23T10:45:11Z</time></trkpt>
<trkpt lat="49.150882720947" lon="2.7259519100189"><ele></ele><time>2022-6-23T10:45:14Z</time></trkpt>
<trkpt lat="49.150886535645" lon="2.7260992527008"><ele></ele><time>2022-6-23T10:45:17Z</time></trkpt>
<trkpt lat="49.150913238525" lon="2.7262420654297"><ele></ele><time>2022-6-23T10:45:20Z</time></trkpt>
<trkpt lat="49.150932312012" lon="2.7263689041138"><ele></ele><time>2022-6-23T10:45:23Z</time></trkpt>
<trkpt lat="49.150943756104" lon="2.7265214920044"><ele></ele><time>2022-6-23T10:45:26Z</time></trkpt>
<trkpt lat="49.150955200195" lon="2.7266569137573"><ele></ele><time>2022-6-23T10:45:29Z</time></trkpt>
<trkpt lat="49.150959014893" lon="2.7268042564392"><ele></ele><time>2022-6-23T10:45:32Z</time></trkpt>
<trkpt lat="49.150966644287" lon="2.7269425392151"><ele></ele><time>2022-6-23T10:45:35Z</time></trkpt>
<trkpt lat="49.150966644287" lon="2.7269425392151"><ele></ele><time>2022-6-23T10:45:38Z</time></trkpt>
<trkpt lat="49.150974273682" lon="2.7270560264587"><ele></ele><time>2022-6-23T10:45:41Z</time></trkpt>
<trkpt lat="49.150981903076" lon="2.7271463871002"><ele></ele><time>2022-6-23T10:45:44Z</time></trkpt>
<trkpt lat="49.150974273682" lon="2.7272374629974"><ele></ele><time>2022-6-23T10:45:47Z</time></trkpt>
<trkpt lat="49.150974273682" lon="2.7272374629974"><ele></ele><time>2022-6-23T10:45:50Z</time></trkpt>
<trkpt lat="49.150974273682" lon="2.7273533344269"><ele></ele><time>2022-6-23T10:45:53Z</time></trkpt>
<trkpt lat="49.150974273682" lon="2.7274813652039"><ele></ele><time>2022-6-23T10:45:56Z</time></trkpt>
<trkpt lat="49.150974273682" lon="2.7274813652039"><ele></ele><time>2022-6-23T10:45:59Z</time></trkpt>
<trkpt lat="49.150974273682" lon="2.7274813652039"><ele></ele><time>2022-6-23T10:46:2Z</time></trkpt>
<trkpt lat="49.150989532471" lon="2.7276277542114"><ele></ele><time>2022-6-23T10:46:5Z</time></trkpt>
<trkpt lat="49.150989532471" lon="2.7276277542114"><ele></ele><time>2022-6-23T10:46:8Z</time></trkpt>
<trkpt lat="49.151012420654" lon="2.7277779579163"><ele></ele><time>2022-6-23T10:46:11Z</time></trkpt>
<trkpt lat="49.151012420654" lon="2.7277779579163"><ele></ele><time>2022-6-23T10:46:14Z</time></trkpt>
<trkpt lat="49.151012420654" lon="2.7277779579163"><ele></ele><time>2022-6-23T10:46:17Z</time></trkpt>
<trkpt lat="49.151042938232" lon="2.7279453277588"><ele></ele><time>2022-6-23T10:46:20Z</time></trkpt>
<trkpt lat="49.151042938232" lon="2.7279453277588"><ele></ele><time>2022-6-23T10:46:23Z</time></trkpt>
<trkpt lat="49.151042938232" lon="2.7279453277588"><ele></ele><time>2022-6-23T10:46:26Z</time></trkpt>
<trkpt lat="49.151077270508" lon="2.7281179428101"><ele></ele><time>2022-6-23T10:46:29Z</time></trkpt>
<trkpt lat="49.151077270508" lon="2.7281179428101"><ele></ele><time>2022-6-23T10:46:32Z</time></trkpt>
<trkpt lat="49.151100158691" lon="2.7282214164734"><ele></ele><time>2022-6-23T10:46:35Z</time></trkpt>
<trkpt lat="49.151100158691" lon="2.7282214164734"><ele></ele><time>2022-6-23T10:46:38Z</time></trkpt>
<trkpt lat="49.15113067627" lon="2.728348493576"><ele></ele><time>2022-6-23T10:46:41Z</time></trkpt>
<trkpt lat="49.15113067627" lon="2.728348493576"><ele></ele><time>2022-6-23T10:46:44Z</time></trkpt>
<trkpt lat="49.151134490967" lon="2.7284896373749"><ele></ele><time>2022-6-23T10:46:47Z</time></trkpt>
<trkpt lat="49.15115737915" lon="2.728607416153"><ele></ele><time>2022-6-23T10:46:50Z</time></trkpt>
<trkpt lat="49.151172637939" lon="2.7287392616272"><ele></ele><time>2022-6-23T10:46:53Z</time></trkpt>
<trkpt lat="49.151172637939" lon="2.7287392616272"><ele></ele><time>2022-6-23T10:46:56Z</time></trkpt>
<trkpt lat="49.151180267334" lon="2.728851556778"><ele></ele><time>2022-6-23T10:46:59Z</time></trkpt>
<trkpt lat="49.151187896729" lon="2.7289822101593"><ele></ele><time>2022-6-23T10:47:2Z</time></trkpt>
<trkpt lat="49.151187896729" lon="2.7289822101593"><ele></ele><time>2022-6-23T10:47:5Z</time></trkpt>
<trkpt lat="49.151180267334" lon="2.7290754318237"><ele></ele><time>2022-6-23T10:47:8Z</time></trkpt>
<trkpt lat="49.151176452637" lon="2.7291684150696"><ele></ele><time>2022-6-23T10:47:11Z</time></trkpt>
<trkpt lat="49.151176452637" lon="2.7291684150696"><ele></ele><time>2022-6-23T10:47:14Z</time></trkpt>
<trkpt lat="49.151145935059" lon="2.7293496131897"><ele></ele><time>2022-6-23T10:47:17Z</time></trkpt>
<trkpt lat="49.151145935059" lon="2.7294459342957"><ele></ele><time>2022-6-23T10:47:20Z</time></trkpt>
<trkpt lat="49.151145935059" lon="2.7295341491699"><ele></ele><time>2022-6-23T10:47:23Z</time></trkpt>
<trkpt lat="49.151145935059" lon="2.7295341491699"><ele></ele><time>2022-6-23T10:47:26Z</time></trkpt>
<trkpt lat="49.151126861572" lon="2.7296168804169"><ele></ele><time>2022-6-23T10:47:29Z</time></trkpt>
<trkpt lat="49.151096343994" lon="2.7297031879425"><ele></ele><time>2022-6-23T10:47:32Z</time></trkpt>
<trkpt lat="49.151103973389" lon="2.7298781871796"><ele></ele><time>2022-6-23T10:47:35Z</time></trkpt>
<trkpt lat="49.15111541748" lon="2.7300074100494"><ele></ele><time>2022-6-23T10:47:38Z</time></trkpt>
<trkpt lat="49.15113067627" lon="2.7300989627838"><ele></ele><time>2022-6-23T10:47:41Z</time></trkpt>
<trkpt lat="49.151145935059" lon="2.7302017211914"><ele></ele><time>2022-6-23T10:47:44Z</time></trkpt>
<trkpt lat="49.151145935059" lon="2.7302017211914"><ele></ele><time>2022-6-23T10:47:47Z</time></trkpt>
<trkpt lat="49.151165008545" lon="2.7303423881531"><ele></ele><time>2022-6-23T10:47:50Z</time></trkpt>
<trkpt lat="49.151165008545" lon="2.7303423881531"><ele></ele><time>2022-6-23T10:47:53Z</time></trkpt>
<trkpt lat="49.151191711426" lon="2.7304856777191"><ele></ele><time>2022-6-23T10:47:56Z</time></trkpt>
<trkpt lat="49.151191711426" lon="2.7304856777191"><ele></ele><time>2022-6-23T10:47:59Z</time></trkpt>
<trkpt lat="49.151218414307" lon="2.7306141853333"><ele></ele><time>2022-6-23T10:48:2Z</time></trkpt>
<trkpt lat="49.151226043701" lon="2.7307217121124"><ele></ele><time>2022-6-23T10:48:5Z</time></trkpt>
<trkpt lat="49.151229858398" lon="2.7308673858643"><ele></ele><time>2022-6-23T10:48:8Z</time></trkpt>
<trkpt lat="49.151237487793" lon="2.730997800827"><ele></ele><time>2022-6-23T10:48:11Z</time></trkpt>
<trkpt lat="49.15124130249" lon="2.7311050891876"><ele></ele><time>2022-6-23T10:48:14Z</time></trkpt>
<trkpt lat="49.151233673096" lon="2.7311928272247"><ele></ele><time>2022-6-23T10:48:17Z</time></trkpt>
<trkpt lat="49.151233673096" lon="2.7311928272247"><ele></ele><time>2022-6-23T10:48:20Z</time></trkpt>
<trkpt lat="49.151229858398" lon="2.731338262558"><ele></ele><time>2022-6-23T10:48:23Z</time></trkpt>
<trkpt lat="49.151229858398" lon="2.731338262558"><ele></ele><time>2022-6-23T10:48:26Z</time></trkpt>
<trkpt lat="49.151233673096" lon="2.7315127849579"><ele></ele><time>2022-6-23T10:48:29Z</time></trkpt>
<trkpt lat="49.151229858398" lon="2.7316064834595"><ele></ele><time>2022-6-23T10:48:32Z</time></trkpt>
<trkpt lat="49.151229858398" lon="2.7316064834595"><ele></ele><time>2022-6-23T10:48:35Z</time></trkpt>
<trkpt lat="49.15124130249" lon="2.7317535877228"><ele></ele><time>2022-6-23T10:48:38Z</time></trkpt>
<trkpt lat="49.151264190674" lon="2.731929063797"><ele></ele><time>2022-6-23T10:48:41Z</time></trkpt>
<trkpt lat="49.151264190674" lon="2.731929063797"><ele></ele><time>2022-6-23T10:48:44Z</time></trkpt>
<trkpt lat="49.151264190674" lon="2.731929063797"><ele></ele><time>2022-6-23T10:48:47Z</time></trkpt>
<trkpt lat="49.151294708252" lon="2.7320194244385"><ele></ele><time>2022-6-23T10:48:50Z</time></trkpt>
<trkpt lat="49.151294708252" lon="2.7320194244385"><ele></ele><time>2022-6-23T10:48:53Z</time></trkpt>
<trkpt lat="49.151294708252" lon="2.7320194244385"><ele></ele><time>2022-6-23T10:48:56Z</time></trkpt>
<trkpt lat="49.151268005371" lon="2.7321634292603"><ele></ele><time>2022-6-23T10:48:59Z</time></trkpt>
<trkpt lat="49.151161193848" lon="2.7321887016296"><ele></ele><time>2022-6-23T10:49:2Z</time></trkpt>
<trkpt lat="49.151161193848" lon="2.7321887016296"><ele></ele><time>2022-6-23T10:49:5Z</time></trkpt>
<trkpt lat="49.151058197021" lon="2.7321915626526"><ele></ele><time>2022-6-23T10:49:8Z</time></trkpt>
<trkpt lat="49.15096282959" lon="2.7322149276733"><ele></ele><time>2022-6-23T10:49:11Z</time></trkpt>
<trkpt lat="49.15096282959" lon="2.7322149276733"><ele></ele><time>2022-6-23T10:49:14Z</time></trkpt>
<trkpt lat="49.150867462158" lon="2.7322452068329"><ele></ele><time>2022-6-23T10:49:17Z</time></trkpt>
<trkpt lat="49.150867462158" lon="2.7322452068329"><ele></ele><time>2022-6-23T10:49:20Z</time></trkpt>
<trkpt lat="49.150867462158" lon="2.7322452068329"><ele></ele><time>2022-6-23T10:49:23Z</time></trkpt>
<trkpt lat="49.150775909424" lon="2.7322759628296"><ele></ele><time>2022-6-23T10:49:26Z</time></trkpt>
<trkpt lat="49.150718688965" lon="2.7322878837585"><ele></ele><time>2022-6-23T10:49:29Z</time></trkpt>
<trkpt lat="49.150718688965" lon="2.7322878837585"><ele></ele><time>2022-6-23T10:49:32Z</time></trkpt>
<trkpt lat="49.150665283203" lon="2.732314825058"><ele></ele><time>2022-6-23T10:49:35Z</time></trkpt>
<trkpt lat="49.150569915771" lon="2.7323536872864"><ele></ele><time>2022-6-23T10:49:38Z</time></trkpt>
<trkpt lat="49.150569915771" lon="2.7323536872864"><ele></ele><time>2022-6-23T10:49:41Z</time></trkpt>
<trkpt lat="49.150478363037" lon="2.7323741912842"><ele></ele><time>2022-6-23T10:49:44Z</time></trkpt>
<trkpt lat="49.150478363037" lon="2.7323741912842"><ele></ele><time>2022-6-23T10:49:47Z</time></trkpt>
<trkpt lat="49.150478363037" lon="2.7323741912842"><ele></ele><time>2022-6-23T10:49:50Z</time></trkpt>
<trkpt lat="49.150390625" lon="2.73237657547"><ele></ele><time>2022-6-23T10:49:53Z</time></trkpt>
<trkpt lat="49.150390625" lon="2.73237657547"><ele></ele><time>2022-6-23T10:49:56Z</time></trkpt>
<trkpt lat="49.150299072266" lon="2.7323803901672"><ele></ele><time>2022-6-23T10:49:59Z</time></trkpt>
<trkpt lat="49.150299072266" lon="2.7323803901672"><ele></ele><time>2022-6-23T10:50:2Z</time></trkpt>
<trkpt lat="49.150299072266" lon="2.7323803901672"><ele></ele><time>2022-6-23T10:50:5Z</time></trkpt>
<trkpt lat="49.150299072266" lon="2.7323803901672"><ele></ele><time>2022-6-23T10:50:8Z</time></trkpt>
<trkpt lat="49.150226593018" lon="2.7323842048645"><ele></ele><time>2022-6-23T10:50:11Z</time></trkpt>
<trkpt lat="49.150226593018" lon="2.7323842048645"><ele></ele><time>2022-6-23T10:50:14Z</time></trkpt>
<trkpt lat="49.150226593018" lon="2.7323842048645"><ele></ele><time>2022-6-23T10:50:17Z</time></trkpt>
<trkpt lat="49.150226593018" lon="2.7323842048645"><ele></ele><time>2022-6-23T10:50:20Z</time></trkpt>
<trkpt lat="49.150150299072" lon="2.7323377132416"><ele></ele><time>2022-6-23T10:50:23Z</time></trkpt>
<trkpt lat="49.150150299072" lon="2.7323377132416"><ele></ele><time>2022-6-23T10:50:26Z</time></trkpt>
<trkpt lat="49.150150299072" lon="2.7323377132416"><ele></ele><time>2022-6-23T10:50:29Z</time></trkpt>
<trkpt lat="49.150085449219" lon="2.7322976589203"><ele></ele><time>2022-6-23T10:50:32Z</time></trkpt>
<trkpt lat="49.150085449219" lon="2.7322976589203"><ele></ele><time>2022-6-23T10:50:35Z</time></trkpt>
<trkpt lat="49.150016784668" lon="2.7322523593903"><ele></ele><time>2022-6-23T10:50:38Z</time></trkpt>
<trkpt lat="49.149951934814" lon="2.7322058677673"><ele></ele><time>2022-6-23T10:50:41Z</time></trkpt>
<trkpt lat="49.149951934814" lon="2.7322058677673"><ele></ele><time>2022-6-23T10:50:44Z</time></trkpt>
<trkpt lat="49.149898529053" lon="2.7321748733521"><ele></ele><time>2022-6-23T10:50:47Z</time></trkpt>
<trkpt lat="49.149898529053" lon="2.7321748733521"><ele></ele><time>2022-6-23T10:50:50Z</time></trkpt>
<trkpt lat="49.149898529053" lon="2.7321748733521"><ele></ele><time>2022-6-23T10:50:53Z</time></trkpt>
<trkpt lat="49.149837493896" lon="2.732152223587"><ele></ele><time>2022-6-23T10:50:56Z</time></trkpt>
<trkpt lat="49.149837493896" lon="2.732152223587"><ele></ele><time>2022-6-23T10:50:59Z</time></trkpt>
<trkpt lat="49.149837493896" lon="2.732152223587"><ele></ele><time>2022-6-23T10:51:2Z</time></trkpt>
<trkpt lat="49.149837493896" lon="2.732152223587"><ele></ele><time>2022-6-23T10:51:5Z</time></trkpt>
<trkpt lat="49.149761199951" lon="2.7321259975433"><ele></ele><time>2022-6-23T10:51:8Z</time></trkpt>
<trkpt lat="49.149761199951" lon="2.7321259975433"><ele></ele><time>2022-6-23T10:51:11Z</time></trkpt>
<trkpt lat="49.149761199951" lon="2.7321259975433"><ele></ele><time>2022-6-23T10:51:14Z</time></trkpt>
<trkpt lat="49.149761199951" lon="2.7321259975433"><ele></ele><time>2022-6-23T10:51:17Z</time></trkpt>
<trkpt lat="49.1496925354" lon="2.7320902347565"><ele></ele><time>2022-6-23T10:51:20Z</time></trkpt>
<trkpt lat="49.1496925354" lon="2.7320902347565"><ele></ele><time>2022-6-23T10:51:23Z</time></trkpt>
<trkpt lat="49.1496925354" lon="2.7320902347565"><ele></ele><time>2022-6-23T10:51:26Z</time></trkpt>
<trkpt lat="49.1496925354" lon="2.7320902347565"><ele></ele><time>2022-6-23T10:51:29Z</time></trkpt>
<trkpt lat="49.149631500244" lon="2.7320220470428"><ele></ele><time>2022-6-23T10:51:32Z</time></trkpt>
<trkpt lat="49.149631500244" lon="2.7320220470428"><ele></ele><time>2022-6-23T10:51:35Z</time></trkpt>
<trkpt lat="49.149585723877" lon="2.7319574356079"><ele></ele><time>2022-6-23T10:51:38Z</time></trkpt>
<trkpt lat="49.149585723877" lon="2.7319574356079"><ele></ele><time>2022-6-23T10:51:41Z</time></trkpt>
<trkpt lat="49.14953994751" lon="2.7319023609161"><ele></ele><time>2022-6-23T10:51:44Z</time></trkpt>
<trkpt lat="49.14953994751" lon="2.7319023609161"><ele></ele><time>2022-6-23T10:51:47Z</time></trkpt>
<trkpt lat="49.149494171143" lon="2.7318332195282"><ele></ele><time>2022-6-23T10:51:50Z</time></trkpt>
<trkpt lat="49.149494171143" lon="2.7318332195282"><ele></ele><time>2022-6-23T10:51:53Z</time></trkpt>
<trkpt lat="49.149494171143" lon="2.7318332195282"><ele></ele><time>2022-6-23T10:51:56Z</time></trkpt>
<trkpt lat="49.149444580078" lon="2.7317860126495"><ele></ele><time>2022-6-23T10:51:59Z</time></trkpt>
<trkpt lat="49.149444580078" lon="2.7317860126495"><ele></ele><time>2022-6-23T10:52:2Z</time></trkpt>
<trkpt lat="49.149444580078" lon="2.7317860126495"><ele></ele><time>2022-6-23T10:52:5Z</time></trkpt>
<trkpt lat="49.149444580078" lon="2.7317860126495"><ele></ele><time>2022-6-23T10:52:8Z</time></trkpt>
<trkpt lat="49.1494140625" lon="2.7317695617676"><ele></ele><time>2022-6-23T10:52:11Z</time></trkpt>
<trkpt lat="49.1494140625" lon="2.7317695617676"><ele></ele><time>2022-6-23T10:52:14Z</time></trkpt>
<trkpt lat="49.149383544922" lon="2.7317523956299"><ele></ele><time>2022-6-23T10:52:17Z</time></trkpt>
<trkpt lat="49.149383544922" lon="2.7317523956299"><ele></ele><time>2022-6-23T10:52:20Z</time></trkpt>
<trkpt lat="49.149383544922" lon="2.7317523956299"><ele></ele><time>2022-6-23T10:52:23Z</time></trkpt>
<trkpt lat="49.149356842041" lon="2.7317383289337"><ele></ele><time>2022-6-23T10:52:26Z</time></trkpt>
<trkpt lat="49.149356842041" lon="2.7317383289337"><ele></ele><time>2022-6-23T10:52:29Z</time></trkpt>
<trkpt lat="49.149322509766" lon="2.7317306995392"><ele></ele><time>2022-6-23T10:52:32Z</time></trkpt>
<trkpt lat="49.149322509766" lon="2.7317306995392"><ele></ele><time>2022-6-23T10:52:35Z</time></trkpt>
<trkpt lat="49.149284362793" lon="2.7317216396332"><ele></ele><time>2022-6-23T10:52:38Z</time></trkpt>
<trkpt lat="49.14924621582" lon="2.731714963913"><ele></ele><time>2022-6-23T10:52:41Z</time></trkpt>
<trkpt lat="49.149215698242" lon="2.7317116260529"><ele></ele><time>2022-6-23T10:52:44Z</time></trkpt>
<trkpt lat="49.149215698242" lon="2.7317116260529"><ele></ele><time>2022-6-23T10:52:47Z</time></trkpt>
<trkpt lat="49.149173736572" lon="2.7317109107971"><ele></ele><time>2022-6-23T10:52:50Z</time></trkpt>
<trkpt lat="49.1491355896" lon="2.7317130565643"><ele></ele><time>2022-6-23T10:52:53Z</time></trkpt>
<trkpt lat="49.1491355896" lon="2.7317130565643"><ele></ele><time>2022-6-23T10:52:56Z</time></trkpt>
<trkpt lat="49.149101257324" lon="2.7317128181458"><ele></ele><time>2022-6-23T10:52:59Z</time></trkpt>
<trkpt lat="49.149070739746" lon="2.7317142486572"><ele></ele><time>2022-6-23T10:53:2Z</time></trkpt>
<trkpt lat="49.149070739746" lon="2.7317142486572"><ele></ele><time>2022-6-23T10:53:5Z</time></trkpt>
<trkpt lat="49.149070739746" lon="2.7317142486572"><ele></ele><time>2022-6-23T10:53:8Z</time></trkpt>
<trkpt lat="49.149040222168" lon="2.731714963913"><ele></ele><time>2022-6-23T10:53:11Z</time></trkpt>
<trkpt lat="49.149040222168" lon="2.731714963913"><ele></ele><time>2022-6-23T10:53:14Z</time></trkpt>
<trkpt lat="49.149040222168" lon="2.731714963913"><ele></ele><time>2022-6-23T10:53:17Z</time></trkpt>
<trkpt lat="49.148998260498" lon="2.7317268848419"><ele></ele><time>2022-6-23T10:53:20Z</time></trkpt>
<trkpt lat="49.148960113525" lon="2.7317388057709"><ele></ele><time>2022-6-23T10:53:23Z</time></trkpt>
<trkpt lat="49.14892578125" lon="2.7317471504211"><ele></ele><time>2022-6-23T10:53:26Z</time></trkpt>
<trkpt lat="49.14892578125" lon="2.7317471504211"><ele></ele><time>2022-6-23T10:53:29Z</time></trkpt>
<trkpt lat="49.148895263672" lon="2.7317514419556"><ele></ele><time>2022-6-23T10:53:32Z</time></trkpt>
<trkpt lat="49.148895263672" lon="2.7317514419556"><ele></ele><time>2022-6-23T10:53:35Z</time></trkpt>
<trkpt lat="49.148895263672" lon="2.7317514419556"><ele></ele><time>2022-6-23T10:53:38Z</time></trkpt>
<trkpt lat="49.148895263672" lon="2.7317514419556"><ele></ele><time>2022-6-23T10:53:41Z</time></trkpt>
<trkpt lat="49.148895263672" lon="2.7317514419556"><ele></ele><time>2022-6-23T10:53:44Z</time></trkpt>
<trkpt lat="49.148834228516" lon="2.7317759990692"><ele></ele><time>2022-6-23T10:53:47Z</time></trkpt>
<trkpt lat="49.148834228516" lon="2.7317759990692"><ele></ele><time>2022-6-23T10:53:50Z</time></trkpt>
<trkpt lat="49.148796081543" lon="2.7317910194397"><ele></ele><time>2022-6-23T10:53:53Z</time></trkpt>
<trkpt lat="49.148796081543" lon="2.7317910194397"><ele></ele><time>2022-6-23T10:53:56Z</time></trkpt>
<trkpt lat="49.148796081543" lon="2.7317910194397"><ele></ele><time>2022-6-23T10:53:59Z</time></trkpt>
<trkpt lat="49.148796081543" lon="2.7317910194397"><ele></ele><time>2022-6-23T10:54:2Z</time></trkpt>
<trkpt lat="49.148777008057" lon="2.7317597866058"><ele></ele><time>2022-6-23T10:54:5Z</time></trkpt>
<trkpt lat="49.148777008057" lon="2.7317597866058"><ele></ele><time>2022-6-23T10:54:8Z</time></trkpt>
<trkpt lat="49.148742675781" lon="2.7316827774048"><ele></ele><time>2022-6-23T10:54:11Z</time></trkpt>
<trkpt lat="49.148742675781" lon="2.7316827774048"><ele></ele><time>2022-6-23T10:54:14Z</time></trkpt>
<trkpt lat="49.148708343506" lon="2.731561422348"><ele></ele><time>2022-6-23T10:54:17Z</time></trkpt>
<trkpt lat="49.14868927002" lon="2.7314176559448"><ele></ele><time>2022-6-23T10:54:20Z</time></trkpt>
<trkpt lat="49.14868927002" lon="2.7314176559448"><ele></ele><time>2022-6-23T10:54:23Z</time></trkpt>
<trkpt lat="49.148677825928" lon="2.731285572052"><ele></ele><time>2022-6-23T10:54:26Z</time></trkpt>
<trkpt lat="49.148677825928" lon="2.731285572052"><ele></ele><time>2022-6-23T10:54:29Z</time></trkpt>
<trkpt lat="49.148670196533" lon="2.7311491966248"><ele></ele><time>2022-6-23T10:54:32Z</time></trkpt>
<trkpt lat="49.148601531982" lon="2.7310016155243"><ele></ele><time>2022-6-23T10:54:35Z</time></trkpt>
<trkpt lat="49.148544311523" lon="2.730926990509"><ele></ele><time>2022-6-23T10:54:38Z</time></trkpt>
<trkpt lat="49.148487091064" lon="2.7307996749878"><ele></ele><time>2022-6-23T10:54:41Z</time></trkpt>
<trkpt lat="49.148403167725" lon="2.7307097911835"><ele></ele><time>2022-6-23T10:54:44Z</time></trkpt>
<trkpt lat="49.148403167725" lon="2.7307097911835"><ele></ele><time>2022-6-23T10:54:47Z</time></trkpt>
<trkpt lat="49.148330688477" lon="2.7306745052338"><ele></ele><time>2022-6-23T10:54:50Z</time></trkpt>
<trkpt lat="49.14822769165" lon="2.7306079864502"><ele></ele><time>2022-6-23T10:54:53Z</time></trkpt>
<trkpt lat="49.148143768311" lon="2.7305479049683"><ele></ele><time>2022-6-23T10:54:56Z</time></trkpt>
<trkpt lat="49.148086547852" lon="2.7305226325989"><ele></ele><time>2022-6-23T10:54:59Z</time></trkpt>
<trkpt lat="49.14799118042" lon="2.730485200882"><ele></ele><time>2022-6-23T10:55:2Z</time></trkpt>
<trkpt lat="49.14799118042" lon="2.730485200882"><ele></ele><time>2022-6-23T10:55:5Z</time></trkpt>
<trkpt lat="49.147903442383" lon="2.7304887771606"><ele></ele><time>2022-6-23T10:55:8Z</time></trkpt>
<trkpt lat="49.147903442383" lon="2.7304887771606"><ele></ele><time>2022-6-23T10:55:11Z</time></trkpt>
<trkpt lat="49.147830963135" lon="2.7305102348328"><ele></ele><time>2022-6-23T10:55:14Z</time></trkpt>
<trkpt lat="49.147830963135" lon="2.7305102348328"><ele></ele><time>2022-6-23T10:55:17Z</time></trkpt>
<trkpt lat="49.147758483887" lon="2.7305316925049"><ele></ele><time>2022-6-23T10:55:20Z</time></trkpt>
<trkpt lat="49.147758483887" lon="2.7305316925049"><ele></ele><time>2022-6-23T10:55:23Z</time></trkpt>
<trkpt lat="49.147686004639" lon="2.7305390834808"><ele></ele><time>2022-6-23T10:55:26Z</time></trkpt>
<trkpt lat="49.147686004639" lon="2.7305390834808"><ele></ele><time>2022-6-23T10:55:29Z</time></trkpt>
<trkpt lat="49.147686004639" lon="2.7305390834808"><ele></ele><time>2022-6-23T10:55:32Z</time></trkpt>
<trkpt lat="49.147609710693" lon="2.7305676937103"><ele></ele><time>2022-6-23T10:55:35Z</time></trkpt>
<trkpt lat="49.147609710693" lon="2.7305676937103"><ele></ele><time>2022-6-23T10:55:38Z</time></trkpt>
<trkpt lat="49.147514343262" lon="2.7305819988251"><ele></ele><time>2022-6-23T10:55:41Z</time></trkpt>
<trkpt lat="49.147415161133" lon="2.7306008338928"><ele></ele><time>2022-6-23T10:55:44Z</time></trkpt>
<trkpt lat="49.147415161133" lon="2.7306008338928"><ele></ele><time>2022-6-23T10:55:47Z</time></trkpt>
<trkpt lat="49.147415161133" lon="2.7306008338928"><ele></ele><time>2022-6-23T10:55:50Z</time></trkpt>
<trkpt lat="49.147346496582" lon="2.7306361198425"><ele></ele><time>2022-6-23T10:55:53Z</time></trkpt>
<trkpt lat="49.147346496582" lon="2.7306361198425"><ele></ele><time>2022-6-23T10:55:56Z</time></trkpt>
<trkpt lat="49.147289276123" lon="2.7306549549103"><ele></ele><time>2022-6-23T10:55:59Z</time></trkpt>
<trkpt lat="49.147289276123" lon="2.7306549549103"><ele></ele><time>2022-6-23T10:56:2Z</time></trkpt>
<trkpt lat="49.147228240967" lon="2.7306809425354"><ele></ele><time>2022-6-23T10:56:5Z</time></trkpt>
<trkpt lat="49.147228240967" lon="2.7306809425354"><ele></ele><time>2022-6-23T10:56:8Z</time></trkpt>
<trkpt lat="49.14714050293" lon="2.7306892871857"><ele></ele><time>2022-6-23T10:56:11Z</time></trkpt>
<trkpt lat="49.14714050293" lon="2.7306892871857"><ele></ele><time>2022-6-23T10:56:14Z</time></trkpt>
<trkpt lat="49.147068023682" lon="2.7306821346283"><ele></ele><time>2022-6-23T10:56:17Z</time></trkpt>
<trkpt lat="49.147068023682" lon="2.7306821346283"><ele></ele><time>2022-6-23T10:56:20Z</time></trkpt>
<trkpt lat="49.147006988525" lon="2.7306995391846"><ele></ele><time>2022-6-23T10:56:23Z</time></trkpt>
<trkpt lat="49.146911621094" lon="2.7307245731354"><ele></ele><time>2022-6-23T10:56:26Z</time></trkpt>
<trkpt lat="49.146808624268" lon="2.7307281494141"><ele></ele><time>2022-6-23T10:56:29Z</time></trkpt>
<trkpt lat="49.146743774414" lon="2.7307305335999"><ele></ele><time>2022-6-23T10:56:32Z</time></trkpt>
<trkpt lat="49.146678924561" lon="2.7307462692261"><ele></ele><time>2022-6-23T10:56:35Z</time></trkpt>
<trkpt lat="49.146614074707" lon="2.7307589054108"><ele></ele><time>2022-6-23T10:56:38Z</time></trkpt>
<trkpt lat="49.146541595459" lon="2.7307758331299"><ele></ele><time>2022-6-23T10:56:41Z</time></trkpt>
<trkpt lat="49.146469116211" lon="2.730788230896"><ele></ele><time>2022-6-23T10:56:44Z</time></trkpt>
<trkpt lat="49.146404266357" lon="2.7307925224304"><ele></ele><time>2022-6-23T10:56:47Z</time></trkpt>
<trkpt lat="49.146339416504" lon="2.7307994365692"><ele></ele><time>2022-6-23T10:56:50Z</time></trkpt>
<trkpt lat="49.146270751953" lon="2.7308099269867"><ele></ele><time>2022-6-23T10:56:53Z</time></trkpt>
<trkpt lat="49.146202087402" lon="2.7308163642883"><ele></ele><time>2022-6-23T10:56:56Z</time></trkpt>
<trkpt lat="49.146141052246" lon="2.730818271637"><ele></ele><time>2022-6-23T10:56:59Z</time></trkpt>
<trkpt lat="49.146026611328" lon="2.7308416366577"><ele></ele><time>2022-6-23T10:57:2Z</time></trkpt>
<trkpt lat="49.145961761475" lon="2.7308583259583"><ele></ele><time>2022-6-23T10:57:5Z</time></trkpt>
<trkpt lat="49.145885467529" lon="2.730880022049"><ele></ele><time>2022-6-23T10:57:8Z</time></trkpt>
<trkpt lat="49.145824432373" lon="2.7308850288391"><ele></ele><time>2022-6-23T10:57:11Z</time></trkpt>
<trkpt lat="49.14575958252" lon="2.7308948040009"><ele></ele><time>2022-6-23T10:57:14Z</time></trkpt>
<trkpt lat="49.145694732666" lon="2.7309195995331"><ele></ele><time>2022-6-23T10:57:17Z</time></trkpt>
<trkpt lat="49.145637512207" lon="2.7309265136719"><ele></ele><time>2022-6-23T10:57:20Z</time></trkpt>
<trkpt lat="49.145637512207" lon="2.7309265136719"><ele></ele><time>2022-6-23T10:57:23Z</time></trkpt>
<trkpt lat="49.14559173584" lon="2.7309248447418"><ele></ele><time>2022-6-23T10:57:26Z</time></trkpt>
<trkpt lat="49.14554977417" lon="2.7309236526489"><ele></ele><time>2022-6-23T10:57:29Z</time></trkpt>
<trkpt lat="49.14554977417" lon="2.7309236526489"><ele></ele><time>2022-6-23T10:57:32Z</time></trkpt>
<trkpt lat="49.145496368408" lon="2.7309267520905"><ele></ele><time>2022-6-23T10:57:35Z</time></trkpt>
<trkpt lat="49.145446777344" lon="2.7309284210205"><ele></ele><time>2022-6-23T10:57:38Z</time></trkpt>
<trkpt lat="49.145393371582" lon="2.7309286594391"><ele></ele><time>2022-6-23T10:57:41Z</time></trkpt>
<trkpt lat="49.145267486572" lon="2.7309310436249"><ele></ele><time>2022-6-23T10:57:44Z</time></trkpt>
<trkpt lat="49.145267486572" lon="2.7309310436249"><ele></ele><time>2022-6-23T10:57:47Z</time></trkpt>
<trkpt lat="49.145191192627" lon="2.7309427261353"><ele></ele><time>2022-6-23T10:57:50Z</time></trkpt>
<trkpt lat="49.145191192627" lon="2.7309427261353"><ele></ele><time>2022-6-23T10:57:53Z</time></trkpt>
<trkpt lat="49.145095825195" lon="2.7309336662292"><ele></ele><time>2022-6-23T10:57:56Z</time></trkpt>
<trkpt lat="49.145030975342" lon="2.7309300899506"><ele></ele><time>2022-6-23T10:57:59Z</time></trkpt>
<trkpt lat="49.144969940186" lon="2.730926990509"><ele></ele><time>2022-6-23T10:58:2Z</time></trkpt>
<trkpt lat="49.144908905029" lon="2.7309172153473"><ele></ele><time>2022-6-23T10:58:5Z</time></trkpt>
<trkpt lat="49.144847869873" lon="2.7309007644653"><ele></ele><time>2022-6-23T10:58:8Z</time></trkpt>
<trkpt lat="49.144748687744" lon="2.7308914661407"><ele></ele><time>2022-6-23T10:58:11Z</time></trkpt>
<trkpt lat="49.144748687744" lon="2.7308914661407"><ele></ele><time>2022-6-23T10:58:14Z</time></trkpt>
<trkpt lat="49.144634246826" lon="2.7309060096741"><ele></ele><time>2022-6-23T10:58:17Z</time></trkpt>
<trkpt lat="49.14457321167" lon="2.7309150695801"><ele></ele><time>2022-6-23T10:58:20Z</time></trkpt>
<trkpt lat="49.14457321167" lon="2.7309150695801"><ele></ele><time>2022-6-23T10:58:23Z</time></trkpt>
<trkpt lat="49.14444732666" lon="2.730916261673"><ele></ele><time>2022-6-23T10:58:26Z</time></trkpt>
<trkpt lat="49.144344329834" lon="2.7309353351593"><ele></ele><time>2022-6-23T10:58:29Z</time></trkpt>
<trkpt lat="49.144287109375" lon="2.7309391498566"><ele></ele><time>2022-6-23T10:58:32Z</time></trkpt>
<trkpt lat="49.144172668457" lon="2.7309367656708"><ele></ele><time>2022-6-23T10:58:35Z</time></trkpt>
<trkpt lat="49.144104003906" lon="2.7309324741364"><ele></ele><time>2022-6-23T10:58:38Z</time></trkpt>
<trkpt lat="49.143989562988" lon="2.7309300899506"><ele></ele><time>2022-6-23T10:58:41Z</time></trkpt>
<trkpt lat="49.143924713135" lon="2.7309217453003"><ele></ele><time>2022-6-23T10:58:44Z</time></trkpt>
<trkpt lat="49.143856048584" lon="2.7309126853943"><ele></ele><time>2022-6-23T10:58:47Z</time></trkpt>
<trkpt lat="49.143856048584" lon="2.7309126853943"><ele></ele><time>2022-6-23T10:58:50Z</time></trkpt>
<trkpt lat="49.143787384033" lon="2.730908870697"><ele></ele><time>2022-6-23T10:58:53Z</time></trkpt>
<trkpt lat="49.143684387207" lon="2.7309033870697"><ele></ele><time>2022-6-23T10:58:56Z</time></trkpt>
<trkpt lat="49.14359664917" lon="2.730898141861"><ele></ele><time>2022-6-23T10:58:59Z</time></trkpt>
<trkpt lat="49.143531799316" lon="2.7308955192566"><ele></ele><time>2022-6-23T10:59:2Z</time></trkpt>
<trkpt lat="49.143459320068" lon="2.7308948040009"><ele></ele><time>2022-6-23T10:59:5Z</time></trkpt>
<trkpt lat="49.143383026123" lon="2.730902671814"><ele></ele><time>2022-6-23T10:59:8Z</time></trkpt>
<trkpt lat="49.143291473389" lon="2.730895280838"><ele></ele><time>2022-6-23T10:59:11Z</time></trkpt>
<trkpt lat="49.143222808838" lon="2.7308986186981"><ele></ele><time>2022-6-23T10:59:14Z</time></trkpt>
<trkpt lat="49.143157958984" lon="2.7309038639069"><ele></ele><time>2022-6-23T10:59:17Z</time></trkpt>
<trkpt lat="49.143157958984" lon="2.7309038639069"><ele></ele><time>2022-6-23T10:59:20Z</time></trkpt>
<trkpt lat="49.143047332764" lon="2.7309136390686"><ele></ele><time>2022-6-23T10:59:23Z</time></trkpt>
<trkpt lat="49.142971038818" lon="2.7309091091156"><ele></ele><time>2022-6-23T10:59:26Z</time></trkpt>
<trkpt lat="49.14289855957" lon="2.7309019565582"><ele></ele><time>2022-6-23T10:59:29Z</time></trkpt>
<trkpt lat="49.142822265625" lon="2.730890750885"><ele></ele><time>2022-6-23T10:59:32Z</time></trkpt>
<trkpt lat="49.14274597168" lon="2.7308855056763"><ele></ele><time>2022-6-23T10:59:35Z</time></trkpt>
<trkpt lat="49.142677307129" lon="2.7309093475342"><ele></ele><time>2022-6-23T10:59:38Z</time></trkpt>
<trkpt lat="49.142677307129" lon="2.7309093475342"><ele></ele><time>2022-6-23T10:59:41Z</time></trkpt>
<trkpt lat="49.142608642578" lon="2.7308979034424"><ele></ele><time>2022-6-23T10:59:44Z</time></trkpt>
<trkpt lat="49.142608642578" lon="2.7308979034424"><ele></ele><time>2022-6-23T10:59:47Z</time></trkpt>
<trkpt lat="49.142593383789" lon="2.7307589054108"><ele></ele><time>2022-6-23T10:59:50Z</time></trkpt>
<trkpt lat="49.142597198486" lon="2.7306644916534"><ele></ele><time>2022-6-23T10:59:53Z</time></trkpt>
<trkpt lat="49.142578125" lon="2.7305483818054"><ele></ele><time>2022-6-23T10:59:56Z</time></trkpt>
<trkpt lat="49.142562866211" lon="2.7304496765137"><ele></ele><time>2022-6-23T10:59:59Z</time></trkpt>
<trkpt lat="49.142551422119" lon="2.7303569316864"><ele></ele><time>2022-6-23T11:0:2Z</time></trkpt>
<trkpt lat="49.142520904541" lon="2.7301924228668"><ele></ele><time>2022-6-23T11:0:5Z</time></trkpt>
<trkpt lat="49.14249420166" lon="2.7300958633423"><ele></ele><time>2022-6-23T11:0:8Z</time></trkpt>
<trkpt lat="49.142475128174" lon="2.7299454212189"><ele></ele><time>2022-6-23T11:0:11Z</time></trkpt>
<trkpt lat="49.142475128174" lon="2.7299454212189"><ele></ele><time>2022-6-23T11:0:14Z</time></trkpt>
<trkpt lat="49.142467498779" lon="2.7297794818878"><ele></ele><time>2022-6-23T11:0:17Z</time></trkpt>
<trkpt lat="49.142467498779" lon="2.7297794818878"><ele></ele><time>2022-6-23T11:0:20Z</time></trkpt>
<trkpt lat="49.142482757568" lon="2.7295854091644"><ele></ele><time>2022-6-23T11:0:23Z</time></trkpt>
<trkpt lat="49.142478942871" lon="2.7294526100159"><ele></ele><time>2022-6-23T11:0:26Z</time></trkpt>
<trkpt lat="49.142459869385" lon="2.7293493747711"><ele></ele><time>2022-6-23T11:0:29Z</time></trkpt>
<trkpt lat="49.142429351807" lon="2.729252576828"><ele></ele><time>2022-6-23T11:0:32Z</time></trkpt>
<trkpt lat="49.142383575439" lon="2.7290534973145"><ele></ele><time>2022-6-23T11:0:35Z</time></trkpt>
<trkpt lat="49.142356872559" lon="2.7289562225342"><ele></ele><time>2022-6-23T11:0:38Z</time></trkpt>
<trkpt lat="49.14232635498" lon="2.7288677692413"><ele></ele><time>2022-6-23T11:0:41Z</time></trkpt>
<trkpt lat="49.14232635498" lon="2.7288677692413"><ele></ele><time>2022-6-23T11:0:44Z</time></trkpt>
<trkpt lat="49.142272949219" lon="2.7287421226501"><ele></ele><time>2022-6-23T11:0:47Z</time></trkpt>
<trkpt lat="49.142272949219" lon="2.7287421226501"><ele></ele><time>2022-6-23T11:0:50Z</time></trkpt>
<trkpt lat="49.142196655273" lon="2.7286202907562"><ele></ele><time>2022-6-23T11:0:53Z</time></trkpt>
<trkpt lat="49.14213180542" lon="2.7285952568054"><ele></ele><time>2022-6-23T11:0:56Z</time></trkpt>
<trkpt lat="49.14213180542" lon="2.7285952568054"><ele></ele><time>2022-6-23T11:0:59Z</time></trkpt>
<trkpt lat="49.142051696777" lon="2.7286014556885"><ele></ele><time>2022-6-23T11:1:2Z</time></trkpt>
<trkpt lat="49.142051696777" lon="2.7286014556885"><ele></ele><time>2022-6-23T11:1:5Z</time></trkpt>
<trkpt lat="49.141967773438" lon="2.728621006012"><ele></ele><time>2022-6-23T11:1:8Z</time></trkpt>
<trkpt lat="49.141891479492" lon="2.728643655777"><ele></ele><time>2022-6-23T11:1:11Z</time></trkpt>
<trkpt lat="49.141830444336" lon="2.7286672592163"><ele></ele><time>2022-6-23T11:1:14Z</time></trkpt>
<trkpt lat="49.141731262207" lon="2.7286837100983"><ele></ele><time>2022-6-23T11:1:17Z</time></trkpt>
<trkpt lat="49.141731262207" lon="2.7286837100983"><ele></ele><time>2022-6-23T11:1:20Z</time></trkpt>
<trkpt lat="49.141731262207" lon="2.7286837100983"><ele></ele><time>2022-6-23T11:1:23Z</time></trkpt>
<trkpt lat="49.141628265381" lon="2.728720664978"><ele></ele><time>2022-6-23T11:1:26Z</time></trkpt>
<trkpt lat="49.141628265381" lon="2.728720664978"><ele></ele><time>2022-6-23T11:1:29Z</time></trkpt>
<trkpt lat="49.141536712646" lon="2.7287313938141"><ele></ele><time>2022-6-23T11:1:32Z</time></trkpt>
<trkpt lat="49.14147567749" lon="2.7287261486053"><ele></ele><time>2022-6-23T11:1:35Z</time></trkpt>
<trkpt lat="49.14139175415" lon="2.7287213802338"><ele></ele><time>2022-6-23T11:1:38Z</time></trkpt>
<trkpt lat="49.14139175415" lon="2.7287213802338"><ele></ele><time>2022-6-23T11:1:41Z</time></trkpt>
<trkpt lat="49.141296386719" lon="2.7287442684174"><ele></ele><time>2022-6-23T11:1:44Z</time></trkpt>
<trkpt lat="49.141208648682" lon="2.72878241539"><ele></ele><time>2022-6-23T11:1:47Z</time></trkpt>
<trkpt lat="49.141105651855" lon="2.7288181781769"><ele></ele><time>2022-6-23T11:1:50Z</time></trkpt>
<trkpt lat="49.141105651855" lon="2.7288181781769"><ele></ele><time>2022-6-23T11:1:53Z</time></trkpt>
<trkpt lat="49.141056060791" lon="2.7288248538971"><ele></ele><time>2022-6-23T11:1:56Z</time></trkpt>
<trkpt lat="49.141006469727" lon="2.7288265228271"><ele></ele><time>2022-6-23T11:1:59Z</time></trkpt>
<trkpt lat="49.140949249268" lon="2.7288324832916"><ele></ele><time>2022-6-23T11:2:2Z</time></trkpt>
<trkpt lat="49.140884399414" lon="2.7288405895233"><ele></ele><time>2022-6-23T11:2:5Z</time></trkpt>
<trkpt lat="49.140819549561" lon="2.7288496494293"><ele></ele><time>2022-6-23T11:2:8Z</time></trkpt>
<trkpt lat="49.140819549561" lon="2.7288496494293"><ele></ele><time>2022-6-23T11:2:11Z</time></trkpt>
<trkpt lat="49.14070892334" lon="2.728866815567"><ele></ele><time>2022-6-23T11:2:14Z</time></trkpt>
<trkpt lat="49.140651702881" lon="2.7288813591003"><ele></ele><time>2022-6-23T11:2:17Z</time></trkpt>
<trkpt lat="49.140651702881" lon="2.7288813591003"><ele></ele><time>2022-6-23T11:2:20Z</time></trkpt>
<trkpt lat="49.140556335449" lon="2.7289063930511"><ele></ele><time>2022-6-23T11:2:23Z</time></trkpt>
<trkpt lat="49.140453338623" lon="2.7289185523987"><ele></ele><time>2022-6-23T11:2:26Z</time></trkpt>
<trkpt lat="49.140453338623" lon="2.7289185523987"><ele></ele><time>2022-6-23T11:2:29Z</time></trkpt>
<trkpt lat="49.140357971191" lon="2.7289288043976"><ele></ele><time>2022-6-23T11:2:32Z</time></trkpt>
<trkpt lat="49.140357971191" lon="2.7289288043976"><ele></ele><time>2022-6-23T11:2:35Z</time></trkpt>
<trkpt lat="49.140357971191" lon="2.7289288043976"><ele></ele><time>2022-6-23T11:2:38Z</time></trkpt>
<trkpt lat="49.140357971191" lon="2.7289288043976"><ele></ele><time>2022-6-23T11:2:41Z</time></trkpt>
<trkpt lat="49.140357971191" lon="2.7289288043976"><ele></ele><time>2022-6-23T11:2:44Z</time></trkpt>
<trkpt lat="49.140357971191" lon="2.7289288043976"><ele></ele><time>2022-6-23T11:2:47Z</time></trkpt>
<trkpt lat="49.140357971191" lon="2.7289288043976"><ele></ele><time>2022-6-23T11:2:50Z</time></trkpt>
<trkpt lat="49.140357971191" lon="2.7289288043976"><ele></ele><time>2022-6-23T11:2:53Z</time></trkpt>
<trkpt lat="49.140357971191" lon="2.7289288043976"><ele></ele><time>2022-6-23T11:2:56Z</time></trkpt>
<trkpt lat="49.140357971191" lon="2.7289288043976"><ele></ele><time>2022-6-23T11:2:59Z</time></trkpt>
<trkpt lat="49.140235900879" lon="2.7289724349976"><ele></ele><time>2022-6-23T11:3:2Z</time></trkpt>
<trkpt lat="49.140235900879" lon="2.7289724349976"><ele></ele><time>2022-6-23T11:3:5Z</time></trkpt>
<trkpt lat="49.140235900879" lon="2.7289724349976"><ele></ele><time>2022-6-23T11:3:8Z</time></trkpt>
<trkpt lat="49.140235900879" lon="2.7289724349976"><ele></ele><time>2022-6-23T11:3:11Z</time></trkpt>
<trkpt lat="49.140155792236" lon="2.7286856174469"><ele></ele><time>2022-6-23T11:3:14Z</time></trkpt>
<trkpt lat="49.14013671875" lon="2.7285528182983"><ele></ele><time>2022-6-23T11:3:17Z</time></trkpt>
<trkpt lat="49.140121459961" lon="2.7284617424011"><ele></ele><time>2022-6-23T11:3:20Z</time></trkpt>
<trkpt lat="49.140113830566" lon="2.7283601760864"><ele></ele><time>2022-6-23T11:3:23Z</time></trkpt>
<trkpt lat="49.140098571777" lon="2.7282450199127"><ele></ele><time>2022-6-23T11:3:26Z</time></trkpt>
<trkpt lat="49.140079498291" lon="2.7281260490417"><ele></ele><time>2022-6-23T11:3:29Z</time></trkpt>
<trkpt lat="49.140056610107" lon="2.7279562950134"><ele></ele><time>2022-6-23T11:3:32Z</time></trkpt>
<trkpt lat="49.140045166016" lon="2.7278549671173"><ele></ele><time>2022-6-23T11:3:35Z</time></trkpt>
<trkpt lat="49.140029907227" lon="2.72776055336"><ele></ele><time>2022-6-23T11:3:38Z</time></trkpt>
<trkpt lat="49.140007019043" lon="2.727646112442"><ele></ele><time>2022-6-23T11:3:41Z</time></trkpt>
<trkpt lat="49.139987945557" lon="2.7275233268738"><ele></ele><time>2022-6-23T11:3:44Z</time></trkpt>
<trkpt lat="49.139965057373" lon="2.7273595333099"><ele></ele><time>2022-6-23T11:3:47Z</time></trkpt>
<trkpt lat="49.139965057373" lon="2.7273595333099"><ele></ele><time>2022-6-23T11:3:50Z</time></trkpt>
<trkpt lat="49.139980316162" lon="2.727196931839"><ele></ele><time>2022-6-23T11:3:53Z</time></trkpt>
<trkpt lat="49.140003204346" lon="2.7271134853363"><ele></ele><time>2022-6-23T11:3:56Z</time></trkpt>
<trkpt lat="49.140003204346" lon="2.7271134853363"><ele></ele><time>2022-6-23T11:3:59Z</time></trkpt>
<trkpt lat="49.140060424805" lon="2.7269768714905"><ele></ele><time>2022-6-23T11:4:2Z</time></trkpt>
<trkpt lat="49.140060424805" lon="2.7269768714905"><ele></ele><time>2022-6-23T11:4:5Z</time></trkpt>
<trkpt lat="49.140110015869" lon="2.7268958091736"><ele></ele><time>2022-6-23T11:4:8Z</time></trkpt>
<trkpt lat="49.140110015869" lon="2.7268958091736"><ele></ele><time>2022-6-23T11:4:11Z</time></trkpt>
<trkpt lat="49.140155792236" lon="2.7267816066742"><ele></ele><time>2022-6-23T11:4:14Z</time></trkpt>
<trkpt lat="49.140155792236" lon="2.7267816066742"><ele></ele><time>2022-6-23T11:4:17Z</time></trkpt>
<trkpt lat="49.140190124512" lon="2.726669549942"><ele></ele><time>2022-6-23T11:4:20Z</time></trkpt>
<trkpt lat="49.140190124512" lon="2.726669549942"><ele></ele><time>2022-6-23T11:4:23Z</time></trkpt>
<trkpt lat="49.140216827393" lon="2.7265586853027"><ele></ele><time>2022-6-23T11:4:26Z</time></trkpt>
<trkpt lat="49.140216827393" lon="2.7265586853027"><ele></ele><time>2022-6-23T11:4:29Z</time></trkpt>
<trkpt lat="49.140239715576" lon="2.7264492511749"><ele></ele><time>2022-6-23T11:4:32Z</time></trkpt>
<trkpt lat="49.140239715576" lon="2.7264492511749"><ele></ele><time>2022-6-23T11:4:35Z</time></trkpt>
<trkpt lat="49.140270233154" lon="2.7262978553772"><ele></ele><time>2022-6-23T11:4:38Z</time></trkpt>
<trkpt lat="49.140270233154" lon="2.7262978553772"><ele></ele><time>2022-6-23T11:4:41Z</time></trkpt>
<trkpt lat="49.140270233154" lon="2.7262978553772"><ele></ele><time>2022-6-23T11:4:44Z</time></trkpt>
<trkpt lat="49.140270233154" lon="2.7262978553772"><ele></ele><time>2022-6-23T11:4:47Z</time></trkpt>
<trkpt lat="49.140247344971" lon="2.7261519432068"><ele></ele><time>2022-6-23T11:4:50Z</time></trkpt>
<trkpt lat="49.140247344971" lon="2.7261519432068"><ele></ele><time>2022-6-23T11:4:53Z</time></trkpt>
<trkpt lat="49.140247344971" lon="2.7261519432068"><ele></ele><time>2022-6-23T11:4:56Z</time></trkpt>
<trkpt lat="49.140323638916" lon="2.7259783744812"><ele></ele><time>2022-6-23T11:4:59Z</time></trkpt>
<trkpt lat="49.140323638916" lon="2.7259783744812"><ele></ele><time>2022-6-23T11:5:2Z</time></trkpt>
<trkpt lat="49.140361785889" lon="2.7258567810059"><ele></ele><time>2022-6-23T11:5:5Z</time></trkpt>
<trkpt lat="49.140396118164" lon="2.7257840633392"><ele></ele><time>2022-6-23T11:5:8Z</time></trkpt>
<trkpt lat="49.140445709229" lon="2.7257187366486"><ele></ele><time>2022-6-23T11:5:11Z</time></trkpt>
<trkpt lat="49.140445709229" lon="2.7257187366486"><ele></ele><time>2022-6-23T11:5:14Z</time></trkpt>
<trkpt lat="49.140491485596" lon="2.7256000041962"><ele></ele><time>2022-6-23T11:5:17Z</time></trkpt>
<trkpt lat="49.140491485596" lon="2.7256000041962"><ele></ele><time>2022-6-23T11:5:20Z</time></trkpt>
<trkpt lat="49.140510559082" lon="2.7254571914673"><ele></ele><time>2022-6-23T11:5:23Z</time></trkpt>
<trkpt lat="49.140548706055" lon="2.7253556251526"><ele></ele><time>2022-6-23T11:5:26Z</time></trkpt>
<trkpt lat="49.14058303833" lon="2.725284576416"><ele></ele><time>2022-6-23T11:5:29Z</time></trkpt>
<trkpt lat="49.14058303833" lon="2.725284576416"><ele></ele><time>2022-6-23T11:5:32Z</time></trkpt>
<trkpt lat="49.140609741211" lon="2.725209236145"><ele></ele><time>2022-6-23T11:5:35Z</time></trkpt>
<trkpt lat="49.140644073486" lon="2.7251386642456"><ele></ele><time>2022-6-23T11:5:38Z</time></trkpt>
<trkpt lat="49.140689849854" lon="2.725065946579"><ele></ele><time>2022-6-23T11:5:41Z</time></trkpt>
<trkpt lat="49.140689849854" lon="2.725065946579"><ele></ele><time>2022-6-23T11:5:44Z</time></trkpt>
<trkpt lat="49.140727996826" lon="2.7250010967255"><ele></ele><time>2022-6-23T11:5:47Z</time></trkpt>
<trkpt lat="49.140766143799" lon="2.7249126434326"><ele></ele><time>2022-6-23T11:5:50Z</time></trkpt>
<trkpt lat="49.140804290771" lon="2.7248306274414"><ele></ele><time>2022-6-23T11:5:53Z</time></trkpt>
<trkpt lat="49.140804290771" lon="2.7248306274414"><ele></ele><time>2022-6-23T11:5:56Z</time></trkpt>
<trkpt lat="49.14083480835" lon="2.7247552871704"><ele></ele><time>2022-6-23T11:5:59Z</time></trkpt>
<trkpt lat="49.14087677002" lon="2.7246763706207"><ele></ele><time>2022-6-23T11:6:2Z</time></trkpt>
<trkpt lat="49.140918731689" lon="2.7246024608612"><ele></ele><time>2022-6-23T11:6:5Z</time></trkpt>
<trkpt lat="49.140918731689" lon="2.7246024608612"><ele></ele><time>2022-6-23T11:6:8Z</time></trkpt>
<trkpt lat="49.140956878662" lon="2.7245149612427"><ele></ele><time>2022-6-23T11:6:11Z</time></trkpt>
<trkpt lat="49.140983581543" lon="2.7244369983673"><ele></ele><time>2022-6-23T11:6:14Z</time></trkpt>
<trkpt lat="49.140983581543" lon="2.7244369983673"><ele></ele><time>2022-6-23T11:6:17Z</time></trkpt>
<trkpt lat="49.141044616699" lon="2.7243239879608"><ele></ele><time>2022-6-23T11:6:20Z</time></trkpt>
<trkpt lat="49.141044616699" lon="2.7243239879608"><ele></ele><time>2022-6-23T11:6:23Z</time></trkpt>
<trkpt lat="49.141101837158" lon="2.7242178916931"><ele></ele><time>2022-6-23T11:6:26Z</time></trkpt>
<trkpt lat="49.141101837158" lon="2.7242178916931"><ele></ele><time>2022-6-23T11:6:29Z</time></trkpt>
<trkpt lat="49.141139984131" lon="2.7241408824921"><ele></ele><time>2022-6-23T11:6:32Z</time></trkpt>
<trkpt lat="49.141178131104" lon="2.7240760326385"><ele></ele><time>2022-6-23T11:6:35Z</time></trkpt>
<trkpt lat="49.141220092773" lon="2.7239763736725"><ele></ele><time>2022-6-23T11:6:38Z</time></trkpt>
<trkpt lat="49.141220092773" lon="2.7239763736725"><ele></ele><time>2022-6-23T11:6:41Z</time></trkpt>
<trkpt lat="49.141254425049" lon="2.7238893508911"><ele></ele><time>2022-6-23T11:6:44Z</time></trkpt>
<trkpt lat="49.141284942627" lon="2.7238109111786"><ele></ele><time>2022-6-23T11:6:47Z</time></trkpt>
<trkpt lat="49.141315460205" lon="2.7237298488617"><ele></ele><time>2022-6-23T11:6:50Z</time></trkpt>
<trkpt lat="49.141357421875" lon="2.7236361503601"><ele></ele><time>2022-6-23T11:6:53Z</time></trkpt>
<trkpt lat="49.141403198242" lon="2.7235460281372"><ele></ele><time>2022-6-23T11:6:56Z</time></trkpt>
<trkpt lat="49.141464233398" lon="2.7234218120575"><ele></ele><time>2022-6-23T11:6:59Z</time></trkpt>
<trkpt lat="49.141521453857" lon="2.7233121395111"><ele></ele><time>2022-6-23T11:7:2Z</time></trkpt>
<trkpt lat="49.141567230225" lon="2.7232227325439"><ele></ele><time>2022-6-23T11:7:5Z</time></trkpt>
<trkpt lat="49.141628265381" lon="2.7231302261353"><ele></ele><time>2022-6-23T11:7:8Z</time></trkpt>
<trkpt lat="49.141670227051" lon="2.7230610847473"><ele></ele><time>2022-6-23T11:7:11Z</time></trkpt>
<trkpt lat="49.141704559326" lon="2.7229890823364"><ele></ele><time>2022-6-23T11:7:14Z</time></trkpt>
<trkpt lat="49.141738891602" lon="2.7229089736938"><ele></ele><time>2022-6-23T11:7:17Z</time></trkpt>
<trkpt lat="49.141773223877" lon="2.7228207588196"><ele></ele><time>2022-6-23T11:7:20Z</time></trkpt>
<trkpt lat="49.141819000244" lon="2.7227432727814"><ele></ele><time>2022-6-23T11:7:23Z</time></trkpt>
<trkpt lat="49.141849517822" lon="2.722665309906"><ele></ele><time>2022-6-23T11:7:26Z</time></trkpt>
<trkpt lat="49.141849517822" lon="2.722665309906"><ele></ele><time>2022-6-23T11:7:29Z</time></trkpt>
<trkpt lat="49.141914367676" lon="2.722537279129"><ele></ele><time>2022-6-23T11:7:32Z</time></trkpt>
<trkpt lat="49.141948699951" lon="2.7224690914154"><ele></ele><time>2022-6-23T11:7:35Z</time></trkpt>
<trkpt lat="49.14200592041" lon="2.7223608493805"><ele></ele><time>2022-6-23T11:7:38Z</time></trkpt>
<trkpt lat="49.142059326172" lon="2.7222456932068"><ele></ele><time>2022-6-23T11:7:41Z</time></trkpt>
<trkpt lat="49.142101287842" lon="2.7221331596375"><ele></ele><time>2022-6-23T11:7:44Z</time></trkpt>
<trkpt lat="49.142154693604" lon="2.7220199108124"><ele></ele><time>2022-6-23T11:7:47Z</time></trkpt>
<trkpt lat="49.142208099365" lon="2.7218909263611"><ele></ele><time>2022-6-23T11:7:50Z</time></trkpt>
<trkpt lat="49.142208099365" lon="2.7218909263611"><ele></ele><time>2022-6-23T11:7:53Z</time></trkpt>
<trkpt lat="49.142261505127" lon="2.7217934131622"><ele></ele><time>2022-6-23T11:7:56Z</time></trkpt>
<trkpt lat="49.142307281494" lon="2.7217066287994"><ele></ele><time>2022-6-23T11:7:59Z</time></trkpt>
<trkpt lat="49.142356872559" lon="2.7216145992279"><ele></ele><time>2022-6-23T11:8:2Z</time></trkpt>
<trkpt lat="49.142395019531" lon="2.7215394973755"><ele></ele><time>2022-6-23T11:8:5Z</time></trkpt>
<trkpt lat="49.142448425293" lon="2.7214539051056"><ele></ele><time>2022-6-23T11:8:8Z</time></trkpt>
<trkpt lat="49.142498016357" lon="2.7213716506958"><ele></ele><time>2022-6-23T11:8:11Z</time></trkpt>
<trkpt lat="49.142551422119" lon="2.7212700843811"><ele></ele><time>2022-6-23T11:8:14Z</time></trkpt>
<trkpt lat="49.142601013184" lon="2.7211759090424"><ele></ele><time>2022-6-23T11:8:17Z</time></trkpt>
<trkpt lat="49.142601013184" lon="2.7211759090424"><ele></ele><time>2022-6-23T11:8:20Z</time></trkpt>
<trkpt lat="49.142654418945" lon="2.721070766449"><ele></ele><time>2022-6-23T11:8:23Z</time></trkpt>
<trkpt lat="49.142707824707" lon="2.7209706306458"><ele></ele><time>2022-6-23T11:8:26Z</time></trkpt>
<trkpt lat="49.142753601074" lon="2.7208857536316"><ele></ele><time>2022-6-23T11:8:29Z</time></trkpt>
<trkpt lat="49.142753601074" lon="2.7208857536316"><ele></ele><time>2022-6-23T11:8:32Z</time></trkpt>
<trkpt lat="49.142803192139" lon="2.7208003997803"><ele></ele><time>2022-6-23T11:8:35Z</time></trkpt>
<trkpt lat="49.142803192139" lon="2.7208003997803"><ele></ele><time>2022-6-23T11:8:38Z</time></trkpt>
<trkpt lat="49.142871856689" lon="2.7206490039825"><ele></ele><time>2022-6-23T11:8:41Z</time></trkpt>
<trkpt lat="49.142913818359" lon="2.7205588817596"><ele></ele><time>2022-6-23T11:8:44Z</time></trkpt>
<trkpt lat="49.142959594727" lon="2.7204847335815"><ele></ele><time>2022-6-23T11:8:47Z</time></trkpt>
<trkpt lat="49.142959594727" lon="2.7204847335815"><ele></ele><time>2022-6-23T11:8:50Z</time></trkpt>
<trkpt lat="49.143001556396" lon="2.7204020023346"><ele></ele><time>2022-6-23T11:8:53Z</time></trkpt>
<trkpt lat="49.143039703369" lon="2.720324754715"><ele></ele><time>2022-6-23T11:8:56Z</time></trkpt>
<trkpt lat="49.143081665039" lon="2.7202351093292"><ele></ele><time>2022-6-23T11:8:59Z</time></trkpt>
<trkpt lat="49.143081665039" lon="2.7202351093292"><ele></ele><time>2022-6-23T11:9:2Z</time></trkpt>
<trkpt lat="49.143127441406" lon="2.7201383113861"><ele></ele><time>2022-6-23T11:9:5Z</time></trkpt>
<trkpt lat="49.143184661865" lon="2.7200508117676"><ele></ele><time>2022-6-23T11:9:8Z</time></trkpt>
<trkpt lat="49.143245697021" lon="2.7199461460114"><ele></ele><time>2022-6-23T11:9:11Z</time></trkpt>
<trkpt lat="49.143245697021" lon="2.7199461460114"><ele></ele><time>2022-6-23T11:9:14Z</time></trkpt>
<trkpt lat="49.143291473389" lon="2.7198493480682"><ele></ele><time>2022-6-23T11:9:17Z</time></trkpt>
<trkpt lat="49.143337249756" lon="2.7197530269623"><ele></ele><time>2022-6-23T11:9:20Z</time></trkpt>
<trkpt lat="49.143371582031" lon="2.7196547985077"><ele></ele><time>2022-6-23T11:9:23Z</time></trkpt>
<trkpt lat="49.143371582031" lon="2.7196547985077"><ele></ele><time>2022-6-23T11:9:26Z</time></trkpt>
<trkpt lat="49.143398284912" lon="2.7195506095886"><ele></ele><time>2022-6-23T11:9:29Z</time></trkpt>
<trkpt lat="49.143432617188" lon="2.7194495201111"><ele></ele><time>2022-6-23T11:9:32Z</time></trkpt>
<trkpt lat="49.143466949463" lon="2.7193493843079"><ele></ele><time>2022-6-23T11:9:35Z</time></trkpt>
<trkpt lat="49.143466949463" lon="2.7193493843079"><ele></ele><time>2022-6-23T11:9:38Z</time></trkpt>
<trkpt lat="49.143497467041" lon="2.7192611694336"><ele></ele><time>2022-6-23T11:9:41Z</time></trkpt>
<trkpt lat="49.143539428711" lon="2.7191779613495"><ele></ele><time>2022-6-23T11:9:44Z</time></trkpt>
<trkpt lat="49.143589019775" lon="2.7190928459167"><ele></ele><time>2022-6-23T11:9:47Z</time></trkpt>
<trkpt lat="49.143589019775" lon="2.7190928459167"><ele></ele><time>2022-6-23T11:9:50Z</time></trkpt>
<trkpt lat="49.143630981445" lon="2.71901679039"><ele></ele><time>2022-6-23T11:9:53Z</time></trkpt>
<trkpt lat="49.143669128418" lon="2.7189457416534"><ele></ele><time>2022-6-23T11:9:56Z</time></trkpt>
<trkpt lat="49.143714904785" lon="2.7188556194305"><ele></ele><time>2022-6-23T11:9:59Z</time></trkpt>
<trkpt lat="49.143714904785" lon="2.7188556194305"><ele></ele><time>2022-6-23T11:10:2Z</time></trkpt>
<trkpt lat="49.143756866455" lon="2.7187602519989"><ele></ele><time>2022-6-23T11:10:5Z</time></trkpt>
<trkpt lat="49.143817901611" lon="2.7186315059662"><ele></ele><time>2022-6-23T11:10:8Z</time></trkpt>
<trkpt lat="49.143863677979" lon="2.7185354232788"><ele></ele><time>2022-6-23T11:10:11Z</time></trkpt>
<trkpt lat="49.143863677979" lon="2.7185354232788"><ele></ele><time>2022-6-23T11:10:14Z</time></trkpt>
<trkpt lat="49.143905639648" lon="2.7184565067291"><ele></ele><time>2022-6-23T11:10:17Z</time></trkpt>
<trkpt lat="49.143962860107" lon="2.71834897995"><ele></ele><time>2022-6-23T11:10:20Z</time></trkpt>
<trkpt lat="49.144027709961" lon="2.7182359695435"><ele></ele><time>2022-6-23T11:10:23Z</time></trkpt>
<trkpt lat="49.144027709961" lon="2.7182359695435"><ele></ele><time>2022-6-23T11:10:26Z</time></trkpt>
<trkpt lat="49.14408493042" lon="2.7181499004364"><ele></ele><time>2022-6-23T11:10:29Z</time></trkpt>
<trkpt lat="49.144157409668" lon="2.7180490493774"><ele></ele><time>2022-6-23T11:10:32Z</time></trkpt>
<trkpt lat="49.14421081543" lon="2.7179627418518"><ele></ele><time>2022-6-23T11:10:35Z</time></trkpt>
<trkpt lat="49.14421081543" lon="2.7179627418518"><ele></ele><time>2022-6-23T11:10:38Z</time></trkpt>
<trkpt lat="49.144268035889" lon="2.7178645133972"><ele></ele><time>2022-6-23T11:10:41Z</time></trkpt>
<trkpt lat="49.144313812256" lon="2.7177801132202"><ele></ele><time>2022-6-23T11:10:44Z</time></trkpt>
<trkpt lat="49.144367218018" lon="2.7176826000214"><ele></ele><time>2022-6-23T11:10:47Z</time></trkpt>
<trkpt lat="49.144367218018" lon="2.7176826000214"><ele></ele><time>2022-6-23T11:10:50Z</time></trkpt>
<trkpt lat="49.144420623779" lon="2.717568397522"><ele></ele><time>2022-6-23T11:10:53Z</time></trkpt>
<trkpt lat="49.144466400146" lon="2.7174773216248"><ele></ele><time>2022-6-23T11:10:56Z</time></trkpt>
<trkpt lat="49.144515991211" lon="2.7173566818237"><ele></ele><time>2022-6-23T11:10:59Z</time></trkpt>
<trkpt lat="49.144515991211" lon="2.7173566818237"><ele></ele><time>2022-6-23T11:11:2Z</time></trkpt>
<trkpt lat="49.14457321167" lon="2.7172393798828"><ele></ele><time>2022-6-23T11:11:5Z</time></trkpt>
<trkpt lat="49.144622802734" lon="2.7171497344971"><ele></ele><time>2022-6-23T11:11:8Z</time></trkpt>
<trkpt lat="49.144664764404" lon="2.7170674800873"><ele></ele><time>2022-6-23T11:11:11Z</time></trkpt>
<trkpt lat="49.144664764404" lon="2.7170674800873"><ele></ele><time>2022-6-23T11:11:14Z</time></trkpt>
<trkpt lat="49.144664764404" lon="2.7170674800873"><ele></ele><time>2022-6-23T11:11:17Z</time></trkpt>
<trkpt lat="49.144618988037" lon="2.7169425487518"><ele></ele><time>2022-6-23T11:11:20Z</time></trkpt>
<trkpt lat="49.144618988037" lon="2.7169425487518"><ele></ele><time>2022-6-23T11:11:23Z</time></trkpt>
<trkpt lat="49.144577026367" lon="2.7168679237366"><ele></ele><time>2022-6-23T11:11:26Z</time></trkpt>
<trkpt lat="49.14453125" lon="2.7167971134186"><ele></ele><time>2022-6-23T11:11:29Z</time></trkpt>
<trkpt lat="49.144477844238" lon="2.7167503833771"><ele></ele><time>2022-6-23T11:11:32Z</time></trkpt>
<trkpt lat="49.144477844238" lon="2.7167503833771"><ele></ele><time>2022-6-23T11:11:35Z</time></trkpt>
<trkpt lat="49.144477844238" lon="2.7167503833771"><ele></ele><time>2022-6-23T11:11:38Z</time></trkpt>
<trkpt lat="49.14440536499" lon="2.7166886329651"><ele></ele><time>2022-6-23T11:11:41Z</time></trkpt>
<trkpt lat="49.14440536499" lon="2.7166886329651"><ele></ele><time>2022-6-23T11:11:44Z</time></trkpt>
<trkpt lat="49.14440536499" lon="2.7166886329651"><ele></ele><time>2022-6-23T11:11:47Z</time></trkpt>
<trkpt lat="49.14432144165" lon="2.716625213623"><ele></ele><time>2022-6-23T11:11:50Z</time></trkpt>
<trkpt lat="49.144260406494" lon="2.7165894508362"><ele></ele><time>2022-6-23T11:11:53Z</time></trkpt>
<trkpt lat="49.144207000732" lon="2.7165479660034"><ele></ele><time>2022-6-23T11:11:56Z</time></trkpt>
<trkpt lat="49.144207000732" lon="2.7165479660034"><ele></ele><time>2022-6-23T11:11:59Z</time></trkpt>
<trkpt lat="49.144149780273" lon="2.7164807319641"><ele></ele><time>2022-6-23T11:12:2Z</time></trkpt>
<trkpt lat="49.14408493042" lon="2.7164227962494"><ele></ele><time>2022-6-23T11:12:5Z</time></trkpt>
<trkpt lat="49.144031524658" lon="2.7163698673248"><ele></ele><time>2022-6-23T11:12:8Z</time></trkpt>
<trkpt lat="49.144031524658" lon="2.7163698673248"><ele></ele><time>2022-6-23T11:12:11Z</time></trkpt>
<trkpt lat="49.143978118896" lon="2.7163212299347"><ele></ele><time>2022-6-23T11:12:14Z</time></trkpt>
<trkpt lat="49.143913269043" lon="2.7162618637085"><ele></ele><time>2022-6-23T11:12:17Z</time></trkpt>
<trkpt lat="49.143863677979" lon="2.7161991596222"><ele></ele><time>2022-6-23T11:12:20Z</time></trkpt>
<trkpt lat="49.143810272217" lon="2.7161462306976"><ele></ele><time>2022-6-23T11:12:23Z</time></trkpt>
<trkpt lat="49.143749237061" lon="2.7161061763763"><ele></ele><time>2022-6-23T11:12:26Z</time></trkpt>
<trkpt lat="49.143749237061" lon="2.7161061763763"><ele></ele><time>2022-6-23T11:12:29Z</time></trkpt>
<trkpt lat="49.143676757812" lon="2.7160611152649"><ele></ele><time>2022-6-23T11:12:32Z</time></trkpt>
<trkpt lat="49.143608093262" lon="2.7159888744354"><ele></ele><time>2022-6-23T11:12:35Z</time></trkpt>
<trkpt lat="49.143539428711" lon="2.7159144878387"><ele></ele><time>2022-6-23T11:12:38Z</time></trkpt>
<trkpt lat="49.143539428711" lon="2.7159144878387"><ele></ele><time>2022-6-23T11:12:41Z</time></trkpt>
<trkpt lat="49.143486022949" lon="2.7158737182617"><ele></ele><time>2022-6-23T11:12:44Z</time></trkpt>
<trkpt lat="49.14342880249" lon="2.7158224582672"><ele></ele><time>2022-6-23T11:12:47Z</time></trkpt>
<trkpt lat="49.143363952637" lon="2.7157456874847"><ele></ele><time>2022-6-23T11:12:50Z</time></trkpt>
<trkpt lat="49.143363952637" lon="2.7157456874847"><ele></ele><time>2022-6-23T11:12:53Z</time></trkpt>
<trkpt lat="49.143291473389" lon="2.7156796455383"><ele></ele><time>2022-6-23T11:12:56Z</time></trkpt>
<trkpt lat="49.143215179443" lon="2.715594291687"><ele></ele><time>2022-6-23T11:12:59Z</time></trkpt>
<trkpt lat="49.143142700195" lon="2.7155141830444"><ele></ele><time>2022-6-23T11:13:2Z</time></trkpt>
<trkpt lat="49.143142700195" lon="2.7155141830444"><ele></ele><time>2022-6-23T11:13:5Z</time></trkpt>
<trkpt lat="49.143074035645" lon="2.7154500484467"><ele></ele><time>2022-6-23T11:13:8Z</time></trkpt>
<trkpt lat="49.143016815186" lon="2.7154026031494"><ele></ele><time>2022-6-23T11:13:11Z</time></trkpt>
<trkpt lat="49.142936706543" lon="2.7153210639954"><ele></ele><time>2022-6-23T11:13:14Z</time></trkpt>
<trkpt lat="49.142860412598" lon="2.7152533531189"><ele></ele><time>2022-6-23T11:13:17Z</time></trkpt>
<trkpt lat="49.142776489258" lon="2.7151834964752"><ele></ele><time>2022-6-23T11:13:20Z</time></trkpt>
<trkpt lat="49.142776489258" lon="2.7151834964752"><ele></ele><time>2022-6-23T11:13:23Z</time></trkpt>
<trkpt lat="49.14270401001" lon="2.7151219844818"><ele></ele><time>2022-6-23T11:13:26Z</time></trkpt>
<trkpt lat="49.142623901367" lon="2.7150495052338"><ele></ele><time>2022-6-23T11:13:29Z</time></trkpt>
<trkpt lat="49.142532348633" lon="2.7149674892426"><ele></ele><time>2022-6-23T11:13:32Z</time></trkpt>
<trkpt lat="49.142532348633" lon="2.7149674892426"><ele></ele><time>2022-6-23T11:13:35Z</time></trkpt>
<trkpt lat="49.142459869385" lon="2.7148976325989"><ele></ele><time>2022-6-23T11:13:38Z</time></trkpt>
<trkpt lat="49.142398834229" lon="2.7148423194885"><ele></ele><time>2022-6-23T11:13:41Z</time></trkpt>
<trkpt lat="49.142333984375" lon="2.7147800922394"><ele></ele><time>2022-6-23T11:13:44Z</time></trkpt>
<trkpt lat="49.142333984375" lon="2.7147800922394"><ele></ele><time>2022-6-23T11:13:47Z</time></trkpt>
<trkpt lat="49.142280578613" lon="2.7147130966187"><ele></ele><time>2022-6-23T11:13:50Z</time></trkpt>
<trkpt lat="49.14221572876" lon="2.7146391868591"><ele></ele><time>2022-6-23T11:13:53Z</time></trkpt>
<trkpt lat="49.142139434814" lon="2.7145745754242"><ele></ele><time>2022-6-23T11:13:56Z</time></trkpt>
<trkpt lat="49.142139434814" lon="2.7145745754242"><ele></ele><time>2022-6-23T11:13:59Z</time></trkpt>
<trkpt lat="49.14204788208" lon="2.7145001888275"><ele></ele><time>2022-6-23T11:14:2Z</time></trkpt>
<trkpt lat="49.141944885254" lon="2.7144277095795"><ele></ele><time>2022-6-23T11:14:5Z</time></trkpt>
<trkpt lat="49.141864776611" lon="2.7143721580505"><ele></ele><time>2022-6-23T11:14:8Z</time></trkpt>
<trkpt lat="49.141864776611" lon="2.7143721580505"><ele></ele><time>2022-6-23T11:14:11Z</time></trkpt>
<trkpt lat="49.141799926758" lon="2.7143514156342"><ele></ele><time>2022-6-23T11:14:14Z</time></trkpt>
<trkpt lat="49.141799926758" lon="2.7143514156342"><ele></ele><time>2022-6-23T11:14:17Z</time></trkpt>
<trkpt lat="49.141799926758" lon="2.7143514156342"><ele></ele><time>2022-6-23T11:14:20Z</time></trkpt>
<trkpt lat="49.141799926758" lon="2.7143514156342"><ele></ele><time>2022-6-23T11:14:23Z</time></trkpt>
<trkpt lat="49.141788482666" lon="2.7142357826233"><ele></ele><time>2022-6-23T11:14:26Z</time></trkpt>
<trkpt lat="49.14176940918" lon="2.7140870094299"><ele></ele><time>2022-6-23T11:14:29Z</time></trkpt>
<trkpt lat="49.14176940918" lon="2.7140870094299"><ele></ele><time>2022-6-23T11:14:32Z</time></trkpt>
<trkpt lat="49.141723632812" lon="2.7139141559601"><ele></ele><time>2022-6-23T11:14:35Z</time></trkpt>
<trkpt lat="49.14172744751" lon="2.713794708252"><ele></ele><time>2022-6-23T11:14:38Z</time></trkpt>
<trkpt lat="49.14172744751" lon="2.713794708252"><ele></ele><time>2022-6-23T11:14:41Z</time></trkpt>
<trkpt lat="49.141738891602" lon="2.7136726379395"><ele></ele><time>2022-6-23T11:14:44Z</time></trkpt>
<trkpt lat="49.141750335693" lon="2.7135186195374"><ele></ele><time>2022-6-23T11:14:47Z</time></trkpt>
<trkpt lat="49.141750335693" lon="2.713387966156"><ele></ele><time>2022-6-23T11:14:50Z</time></trkpt>
<trkpt lat="49.141750335693" lon="2.713387966156"><ele></ele><time>2022-6-23T11:14:53Z</time></trkpt>
<trkpt lat="49.141750335693" lon="2.7132883071899"><ele></ele><time>2022-6-23T11:14:56Z</time></trkpt>
<trkpt lat="49.141750335693" lon="2.7131993770599"><ele></ele><time>2022-6-23T11:14:59Z</time></trkpt>
<trkpt lat="49.141738891602" lon="2.7130591869354"><ele></ele><time>2022-6-23T11:15:2Z</time></trkpt>
<trkpt lat="49.141712188721" lon="2.7129030227661"><ele></ele><time>2022-6-23T11:15:5Z</time></trkpt>
<trkpt lat="49.141681671143" lon="2.7127933502197"><ele></ele><time>2022-6-23T11:15:8Z</time></trkpt>
<trkpt lat="49.141681671143" lon="2.7127933502197"><ele></ele><time>2022-6-23T11:15:11Z</time></trkpt>
<trkpt lat="49.141681671143" lon="2.7127933502197"><ele></ele><time>2022-6-23T11:15:14Z</time></trkpt>
<trkpt lat="49.141674041748" lon="2.7126631736755"><ele></ele><time>2022-6-23T11:15:17Z</time></trkpt>
<trkpt lat="49.14164352417" lon="2.7125554084778"><ele></ele><time>2022-6-23T11:15:20Z</time></trkpt>
<trkpt lat="49.14164352417" lon="2.7125554084778"><ele></ele><time>2022-6-23T11:15:23Z</time></trkpt>
<trkpt lat="49.141628265381" lon="2.7124300003052"><ele></ele><time>2022-6-23T11:15:26Z</time></trkpt>
<trkpt lat="49.141593933105" lon="2.7122957706451"><ele></ele><time>2022-6-23T11:15:29Z</time></trkpt>
<trkpt lat="49.141548156738" lon="2.7121760845184"><ele></ele><time>2022-6-23T11:15:32Z</time></trkpt>
<trkpt lat="49.141548156738" lon="2.7121760845184"><ele></ele><time>2022-6-23T11:15:35Z</time></trkpt>
<trkpt lat="49.141468048096" lon="2.7120170593262"><ele></ele><time>2022-6-23T11:15:38Z</time></trkpt>
<trkpt lat="49.141395568848" lon="2.711900472641"><ele></ele><time>2022-6-23T11:15:41Z</time></trkpt>
<trkpt lat="49.141330718994" lon="2.7118215560913"><ele></ele><time>2022-6-23T11:15:44Z</time></trkpt>
<trkpt lat="49.141330718994" lon="2.7118215560913"><ele></ele><time>2022-6-23T11:15:47Z</time></trkpt>
<trkpt lat="49.141273498535" lon="2.7117326259613"><ele></ele><time>2022-6-23T11:15:50Z</time></trkpt>
<trkpt lat="49.141216278076" lon="2.7116420269012"><ele></ele><time>2022-6-23T11:15:53Z</time></trkpt>
<trkpt lat="49.141162872314" lon="2.7115542888641"><ele></ele><time>2022-6-23T11:15:56Z</time></trkpt>
<trkpt lat="49.141162872314" lon="2.7115542888641"><ele></ele><time>2022-6-23T11:15:59Z</time></trkpt>
<trkpt lat="49.141109466553" lon="2.7114541530609"><ele></ele><time>2022-6-23T11:16:2Z</time></trkpt>
<trkpt lat="49.141052246094" lon="2.7113556861877"><ele></ele><time>2022-6-23T11:16:5Z</time></trkpt>
<trkpt lat="49.140983581543" lon="2.7112681865692"><ele></ele><time>2022-6-23T11:16:8Z</time></trkpt>
<trkpt lat="49.140983581543" lon="2.7112681865692"><ele></ele><time>2022-6-23T11:16:11Z</time></trkpt>
<trkpt lat="49.140926361084" lon="2.7111823558807"><ele></ele><time>2022-6-23T11:16:14Z</time></trkpt>
<trkpt lat="49.140895843506" lon="2.7110936641693"><ele></ele><time>2022-6-23T11:16:17Z</time></trkpt>
<trkpt lat="49.140880584717" lon="2.7110068798065"><ele></ele><time>2022-6-23T11:16:20Z</time></trkpt>
<trkpt lat="49.140880584717" lon="2.7110068798065"><ele></ele><time>2022-6-23T11:16:23Z</time></trkpt>
<trkpt lat="49.14079284668" lon="2.7107882499695"><ele></ele><time>2022-6-23T11:16:26Z</time></trkpt>
<trkpt lat="49.140727996826" lon="2.7106642723083"><ele></ele><time>2022-6-23T11:16:29Z</time></trkpt>
<trkpt lat="49.140727996826" lon="2.7106642723083"><ele></ele><time>2022-6-23T11:16:32Z</time></trkpt>
<trkpt lat="49.140651702881" lon="2.7104749679565"><ele></ele><time>2022-6-23T11:16:35Z</time></trkpt>
<trkpt lat="49.140590667725" lon="2.7103157043457"><ele></ele><time>2022-6-23T11:16:38Z</time></trkpt>
<trkpt lat="49.140556335449" lon="2.7101907730103"><ele></ele><time>2022-6-23T11:16:41Z</time></trkpt>
<trkpt lat="49.140556335449" lon="2.7101907730103"><ele></ele><time>2022-6-23T11:16:44Z</time></trkpt>
<trkpt lat="49.140522003174" lon="2.7100670337677"><ele></ele><time>2022-6-23T11:16:47Z</time></trkpt>
<trkpt lat="49.140502929688" lon="2.7099306583405"><ele></ele><time>2022-6-23T11:16:50Z</time></trkpt>
<trkpt lat="49.140510559082" lon="2.7097733020782"><ele></ele><time>2022-6-23T11:16:53Z</time></trkpt>
<trkpt lat="49.140525817871" lon="2.7095859050751"><ele></ele><time>2022-6-23T11:16:56Z</time></trkpt>
<trkpt lat="49.140529632568" lon="2.7094383239746"><ele></ele><time>2022-6-23T11:16:59Z</time></trkpt>
<trkpt lat="49.140529632568" lon="2.7094383239746"><ele></ele><time>2022-6-23T11:17:2Z</time></trkpt>
<trkpt lat="49.140525817871" lon="2.7093377113342"><ele></ele><time>2022-6-23T11:17:5Z</time></trkpt>
<trkpt lat="49.140453338623" lon="2.7091071605682"><ele></ele><time>2022-6-23T11:17:8Z</time></trkpt>
<trkpt lat="49.140407562256" lon="2.7090291976929"><ele></ele><time>2022-6-23T11:17:11Z</time></trkpt>
<trkpt lat="49.140407562256" lon="2.7090291976929"><ele></ele><time>2022-6-23T11:17:14Z</time></trkpt>
<trkpt lat="49.140369415283" lon="2.7089061737061"><ele></ele><time>2022-6-23T11:17:17Z</time></trkpt>
<trkpt lat="49.140369415283" lon="2.7089061737061"><ele></ele><time>2022-6-23T11:17:20Z</time></trkpt>
<trkpt lat="49.140369415283" lon="2.7089061737061"><ele></ele><time>2022-6-23T11:17:23Z</time></trkpt>
<trkpt lat="49.140369415283" lon="2.7089061737061"><ele></ele><time>2022-6-23T11:17:26Z</time></trkpt>
<trkpt lat="49.14026260376" lon="2.7087514400482"><ele></ele><time>2022-6-23T11:17:29Z</time></trkpt>
<trkpt lat="49.14026260376" lon="2.7087514400482"><ele></ele><time>2022-6-23T11:17:32Z</time></trkpt>
<trkpt lat="49.14026260376" lon="2.7087514400482"><ele></ele><time>2022-6-23T11:17:35Z</time></trkpt>
<trkpt lat="49.14026260376" lon="2.7087514400482"><ele></ele><time>2022-6-23T11:17:38Z</time></trkpt>
<trkpt lat="49.14026260376" lon="2.7087514400482"><ele></ele><time>2022-6-23T11:17:41Z</time></trkpt>
<trkpt lat="49.14026260376" lon="2.7087514400482"><ele></ele><time>2022-6-23T11:17:44Z</time></trkpt>
<trkpt lat="49.14026260376" lon="2.7087514400482"><ele></ele><time>2022-6-23T11:17:47Z</time></trkpt>
<trkpt lat="49.140071868896" lon="2.7085771560669"><ele></ele><time>2022-6-23T11:17:50Z</time></trkpt>
<trkpt lat="49.140071868896" lon="2.7085771560669"><ele></ele><time>2022-6-23T11:17:53Z</time></trkpt>
<trkpt lat="49.140071868896" lon="2.7085771560669"><ele></ele><time>2022-6-23T11:17:56Z</time></trkpt>
<trkpt lat="49.140071868896" lon="2.7085771560669"><ele></ele><time>2022-6-23T11:17:59Z</time></trkpt>
<trkpt lat="49.140071868896" lon="2.7085771560669"><ele></ele><time>2022-6-23T11:18:2Z</time></trkpt>
<trkpt lat="49.139976501465" lon="2.7085320949554"><ele></ele><time>2022-6-23T11:18:5Z</time></trkpt>
<trkpt lat="49.139976501465" lon="2.7085320949554"><ele></ele><time>2022-6-23T11:18:8Z</time></trkpt>
<trkpt lat="49.139911651611" lon="2.708518743515"><ele></ele><time>2022-6-23T11:18:11Z</time></trkpt>
<trkpt lat="49.139911651611" lon="2.708518743515"><ele></ele><time>2022-6-23T11:18:14Z</time></trkpt>
<trkpt lat="49.139854431152" lon="2.7085044384003"><ele></ele><time>2022-6-23T11:18:17Z</time></trkpt>
<trkpt lat="49.139854431152" lon="2.7085044384003"><ele></ele><time>2022-6-23T11:18:20Z</time></trkpt>
<trkpt lat="49.139854431152" lon="2.7085044384003"><ele></ele><time>2022-6-23T11:18:23Z</time></trkpt>
<trkpt lat="49.139854431152" lon="2.7085044384003"><ele></ele><time>2022-6-23T11:18:26Z</time></trkpt>
<trkpt lat="49.139854431152" lon="2.7085044384003"><ele></ele><time>2022-6-23T11:18:29Z</time></trkpt>
<trkpt lat="49.139854431152" lon="2.7085044384003"><ele></ele><time>2022-6-23T11:18:32Z</time></trkpt>
<trkpt lat="49.139854431152" lon="2.7085044384003"><ele></ele><time>2022-6-23T11:18:35Z</time></trkpt>
<trkpt lat="49.139854431152" lon="2.7085044384003"><ele></ele><time>2022-6-23T11:18:38Z</time></trkpt>
<trkpt lat="49.139743804932" lon="2.7084391117096"><ele></ele><time>2022-6-23T11:18:41Z</time></trkpt>
<trkpt lat="49.139682769775" lon="2.7083835601807"><ele></ele><time>2022-6-23T11:18:44Z</time></trkpt>
<trkpt lat="49.139682769775" lon="2.7083835601807"><ele></ele><time>2022-6-23T11:18:47Z</time></trkpt>
<trkpt lat="49.1396484375" lon="2.708288192749"><ele></ele><time>2022-6-23T11:18:50Z</time></trkpt>
<trkpt lat="49.1396484375" lon="2.708288192749"><ele></ele><time>2022-6-23T11:18:53Z</time></trkpt>
<trkpt lat="49.139617919922" lon="2.7082061767578"><ele></ele><time>2022-6-23T11:18:56Z</time></trkpt>
<trkpt lat="49.139610290527" lon="2.7080862522125"><ele></ele><time>2022-6-23T11:18:59Z</time></trkpt>
<trkpt lat="49.139610290527" lon="2.7080862522125"><ele></ele><time>2022-6-23T11:19:2Z</time></trkpt>
<trkpt lat="49.1396484375" lon="2.7079327106476"><ele></ele><time>2022-6-23T11:19:5Z</time></trkpt>
<trkpt lat="49.139675140381" lon="2.7078132629395"><ele></ele><time>2022-6-23T11:19:8Z</time></trkpt>
<trkpt lat="49.139675140381" lon="2.7078132629395"><ele></ele><time>2022-6-23T11:19:11Z</time></trkpt>
<trkpt lat="49.139713287354" lon="2.7077062129974"><ele></ele><time>2022-6-23T11:19:14Z</time></trkpt>
<trkpt lat="49.139766693115" lon="2.7075653076172"><ele></ele><time>2022-6-23T11:19:17Z</time></trkpt>
<trkpt lat="49.139823913574" lon="2.7073955535889"><ele></ele><time>2022-6-23T11:19:20Z</time></trkpt>
<trkpt lat="49.139823913574" lon="2.7073955535889"><ele></ele><time>2022-6-23T11:19:23Z</time></trkpt>
<trkpt lat="49.139862060547" lon="2.707236289978"><ele></ele><time>2022-6-23T11:19:26Z</time></trkpt>
<trkpt lat="49.13988494873" lon="2.7071108818054"><ele></ele><time>2022-6-23T11:19:29Z</time></trkpt>
<trkpt lat="49.139896392822" lon="2.7070016860962"><ele></ele><time>2022-6-23T11:19:32Z</time></trkpt>
<trkpt lat="49.139896392822" lon="2.7070016860962"><ele></ele><time>2022-6-23T11:19:35Z</time></trkpt>
<trkpt lat="49.13990020752" lon="2.7069091796875"><ele></ele><time>2022-6-23T11:19:38Z</time></trkpt>
<trkpt lat="49.139904022217" lon="2.7068030834198"><ele></ele><time>2022-6-23T11:19:41Z</time></trkpt>
<trkpt lat="49.139907836914" lon="2.7067055702209"><ele></ele><time>2022-6-23T11:19:44Z</time></trkpt>
<trkpt lat="49.139907836914" lon="2.7067055702209"><ele></ele><time>2022-6-23T11:19:47Z</time></trkpt>
<trkpt lat="49.139896392822" lon="2.7065682411194"><ele></ele><time>2022-6-23T11:19:50Z</time></trkpt>
<trkpt lat="49.139881134033" lon="2.7064654827118"><ele></ele><time>2022-6-23T11:19:53Z</time></trkpt>
<trkpt lat="49.139881134033" lon="2.7064654827118"><ele></ele><time>2022-6-23T11:19:56Z</time></trkpt>
<trkpt lat="49.139881134033" lon="2.7064654827118"><ele></ele><time>2022-6-23T11:19:59Z</time></trkpt>
<trkpt lat="49.139877319336" lon="2.7063195705414"><ele></ele><time>2022-6-23T11:20:2Z</time></trkpt>
<trkpt lat="49.139877319336" lon="2.7063195705414"><ele></ele><time>2022-6-23T11:20:5Z</time></trkpt>
<trkpt lat="49.139888763428" lon="2.706139087677"><ele></ele><time>2022-6-23T11:20:8Z</time></trkpt>
<trkpt lat="49.139911651611" lon="2.7060360908508"><ele></ele><time>2022-6-23T11:20:11Z</time></trkpt>
<trkpt lat="49.139945983887" lon="2.7059261798859"><ele></ele><time>2022-6-23T11:20:14Z</time></trkpt>
<trkpt lat="49.139945983887" lon="2.7059261798859"><ele></ele><time>2022-6-23T11:20:17Z</time></trkpt>
<trkpt lat="49.139953613281" lon="2.7058055400848"><ele></ele><time>2022-6-23T11:20:20Z</time></trkpt>
<trkpt lat="49.139949798584" lon="2.7056562900543"><ele></ele><time>2022-6-23T11:20:23Z</time></trkpt>
<trkpt lat="49.139930725098" lon="2.7055389881134"><ele></ele><time>2022-6-23T11:20:26Z</time></trkpt>
<trkpt lat="49.139930725098" lon="2.7055389881134"><ele></ele><time>2022-6-23T11:20:29Z</time></trkpt>
<trkpt lat="49.139881134033" lon="2.705468416214"><ele></ele><time>2022-6-23T11:20:32Z</time></trkpt>
<trkpt lat="49.139808654785" lon="2.7054283618927"><ele></ele><time>2022-6-23T11:20:35Z</time></trkpt>
<trkpt lat="49.139808654785" lon="2.7054283618927"><ele></ele><time>2022-6-23T11:20:38Z</time></trkpt>
<trkpt lat="49.13969039917" lon="2.7053790092468"><ele></ele><time>2022-6-23T11:20:41Z</time></trkpt>
<trkpt lat="49.13969039917" lon="2.7053790092468"><ele></ele><time>2022-6-23T11:20:44Z</time></trkpt>
<trkpt lat="49.139602661133" lon="2.7052690982819"><ele></ele><time>2022-6-23T11:20:47Z</time></trkpt>
<trkpt lat="49.139602661133" lon="2.7052690982819"><ele></ele><time>2022-6-23T11:20:50Z</time></trkpt>
<trkpt lat="49.139602661133" lon="2.7052690982819"><ele></ele><time>2022-6-23T11:20:53Z</time></trkpt>
<trkpt lat="49.139610290527" lon="2.7050738334656"><ele></ele><time>2022-6-23T11:20:56Z</time></trkpt>
<trkpt lat="49.139617919922" lon="2.7049548625946"><ele></ele><time>2022-6-23T11:20:59Z</time></trkpt>
<trkpt lat="49.139617919922" lon="2.7049548625946"><ele></ele><time>2022-6-23T11:21:2Z</time></trkpt>
<trkpt lat="49.139610290527" lon="2.7048592567444"><ele></ele><time>2022-6-23T11:21:5Z</time></trkpt>
<trkpt lat="49.139602661133" lon="2.704761505127"><ele></ele><time>2022-6-23T11:21:8Z</time></trkpt>
<trkpt lat="49.139602661133" lon="2.704761505127"><ele></ele><time>2022-6-23T11:21:11Z</time></trkpt>
<trkpt lat="49.139602661133" lon="2.704761505127"><ele></ele><time>2022-6-23T11:21:14Z</time></trkpt>
<trkpt lat="49.13956451416" lon="2.7046175003052"><ele></ele><time>2022-6-23T11:21:17Z</time></trkpt>
<trkpt lat="49.139537811279" lon="2.7045357227325"><ele></ele><time>2022-6-23T11:21:20Z</time></trkpt>
<trkpt lat="49.139537811279" lon="2.7045357227325"><ele></ele><time>2022-6-23T11:21:23Z</time></trkpt>
<trkpt lat="49.139537811279" lon="2.7045357227325"><ele></ele><time>2022-6-23T11:21:26Z</time></trkpt>
<trkpt lat="49.139514923096" lon="2.7044525146484"><ele></ele><time>2022-6-23T11:21:29Z</time></trkpt>
<trkpt lat="49.139514923096" lon="2.7044525146484"><ele></ele><time>2022-6-23T11:21:32Z</time></trkpt>
<trkpt lat="49.139514923096" lon="2.7043519020081"><ele></ele><time>2022-6-23T11:21:35Z</time></trkpt>
<trkpt lat="49.139514923096" lon="2.7043519020081"><ele></ele><time>2022-6-23T11:21:38Z</time></trkpt>
<trkpt lat="49.139514923096" lon="2.7043519020081"><ele></ele><time>2022-6-23T11:21:41Z</time></trkpt>
<trkpt lat="49.139518737793" lon="2.7042338848114"><ele></ele><time>2022-6-23T11:21:44Z</time></trkpt>
<trkpt lat="49.139518737793" lon="2.7042338848114"><ele></ele><time>2022-6-23T11:21:47Z</time></trkpt>
<trkpt lat="49.139518737793" lon="2.7042338848114"><ele></ele><time>2022-6-23T11:21:50Z</time></trkpt>
<trkpt lat="49.139541625977" lon="2.7041456699371"><ele></ele><time>2022-6-23T11:21:53Z</time></trkpt>
<trkpt lat="49.139541625977" lon="2.7041456699371"><ele></ele><time>2022-6-23T11:21:56Z</time></trkpt>
<trkpt lat="49.139541625977" lon="2.7041456699371"><ele></ele><time>2022-6-23T11:21:59Z</time></trkpt>
<trkpt lat="49.139610290527" lon="2.7041556835175"><ele></ele><time>2022-6-23T11:22:2Z</time></trkpt>
<trkpt lat="49.139610290527" lon="2.7041556835175"><ele></ele><time>2022-6-23T11:22:5Z</time></trkpt>
<trkpt lat="49.139610290527" lon="2.7041556835175"><ele></ele><time>2022-6-23T11:22:8Z</time></trkpt>
<trkpt lat="49.139644622803" lon="2.7040929794312"><ele></ele><time>2022-6-23T11:22:11Z</time></trkpt>
<trkpt lat="49.139644622803" lon="2.7040929794312"><ele></ele><time>2022-6-23T11:22:14Z</time></trkpt>
<trkpt lat="49.139644622803" lon="2.7040929794312"><ele></ele><time>2022-6-23T11:22:17Z</time></trkpt>
<trkpt lat="49.139526367188" lon="2.7041149139404"><ele></ele><time>2022-6-23T11:22:20Z</time></trkpt>
<trkpt lat="49.139507293701" lon="2.7040569782257"><ele></ele><time>2022-6-23T11:22:23Z</time></trkpt>
<trkpt lat="49.139507293701" lon="2.7040569782257"><ele></ele><time>2022-6-23T11:22:26Z</time></trkpt>
<trkpt lat="49.139507293701" lon="2.7040569782257"><ele></ele><time>2022-6-23T11:22:29Z</time></trkpt>
<trkpt lat="49.139560699463" lon="2.7041664123535"><ele></ele><time>2022-6-23T11:22:32Z</time></trkpt>
<trkpt lat="49.139560699463" lon="2.7041664123535"><ele></ele><time>2022-6-23T11:22:35Z</time></trkpt>
<trkpt lat="49.139560699463" lon="2.7041664123535"><ele></ele><time>2022-6-23T11:22:38Z</time></trkpt>
<trkpt lat="49.139560699463" lon="2.7041664123535"><ele></ele><time>2022-6-23T11:22:41Z</time></trkpt>
<trkpt lat="49.139560699463" lon="2.7041664123535"><ele></ele><time>2022-6-23T11:22:44Z</time></trkpt>
<trkpt lat="49.139560699463" lon="2.7044010162354"><ele></ele><time>2022-6-23T11:22:47Z</time></trkpt>
<trkpt lat="49.139621734619" lon="2.7043280601501"><ele></ele><time>2022-6-23T11:22:50Z</time></trkpt>
<trkpt lat="49.139667510986" lon="2.7042052745819"><ele></ele><time>2022-6-23T11:22:53Z</time></trkpt>
<trkpt lat="49.139667510986" lon="2.7042052745819"><ele></ele><time>2022-6-23T11:22:56Z</time></trkpt>
<trkpt lat="49.139667510986" lon="2.7042052745819"><ele></ele><time>2022-6-23T11:22:59Z</time></trkpt>
<trkpt lat="49.139667510986" lon="2.7042052745819"><ele></ele><time>2022-6-23T11:23:2Z</time></trkpt>
<trkpt lat="49.139667510986" lon="2.7042052745819"><ele></ele><time>2022-6-23T11:23:5Z</time></trkpt>
<trkpt lat="49.139602661133" lon="2.7042253017426"><ele></ele><time>2022-6-23T11:23:8Z</time></trkpt>
<trkpt lat="49.139602661133" lon="2.7042253017426"><ele></ele><time>2022-6-23T11:23:11Z</time></trkpt>
<trkpt lat="49.139602661133" lon="2.7042253017426"><ele></ele><time>2022-6-23T11:23:14Z</time></trkpt>
<trkpt lat="49.139572143555" lon="2.7041842937469"><ele></ele><time>2022-6-23T11:23:17Z</time></trkpt>
<trkpt lat="49.139572143555" lon="2.7041842937469"><ele></ele><time>2022-6-23T11:23:20Z</time></trkpt>
<trkpt lat="49.139572143555" lon="2.7041842937469"><ele></ele><time>2022-6-23T11:23:23Z</time></trkpt>
<trkpt lat="49.139507293701" lon="2.7042214870453"><ele></ele><time>2022-6-23T11:23:26Z</time></trkpt>
<trkpt lat="49.139507293701" lon="2.7042214870453"><ele></ele><time>2022-6-23T11:23:29Z</time></trkpt>
<trkpt lat="49.139507293701" lon="2.7042214870453"><ele></ele><time>2022-6-23T11:23:32Z</time></trkpt>
<trkpt lat="49.139553070068" lon="2.7042441368103"><ele></ele><time>2022-6-23T11:23:35Z</time></trkpt>
<trkpt lat="49.139621734619" lon="2.7042453289032"><ele></ele><time>2022-6-23T11:23:38Z</time></trkpt>
<trkpt lat="49.139621734619" lon="2.7042453289032"><ele></ele><time>2022-6-23T11:23:41Z</time></trkpt>
<trkpt lat="49.139621734619" lon="2.7042453289032"><ele></ele><time>2022-6-23T11:23:44Z</time></trkpt>
<trkpt lat="49.139621734619" lon="2.7042453289032"><ele></ele><time>2022-6-23T11:23:47Z</time></trkpt>
<trkpt lat="49.139621734619" lon="2.7042453289032"><ele></ele><time>2022-6-23T11:23:50Z</time></trkpt>
<trkpt lat="49.139549255371" lon="2.7041611671448"><ele></ele><time>2022-6-23T11:23:53Z</time></trkpt>
<trkpt lat="49.139549255371" lon="2.7041611671448"><ele></ele><time>2022-6-23T11:23:56Z</time></trkpt>
<trkpt lat="49.139656066895" lon="2.7041907310486"><ele></ele><time>2022-6-23T11:23:59Z</time></trkpt>
<trkpt lat="49.139656066895" lon="2.7041907310486"><ele></ele><time>2022-6-23T11:24:2Z</time></trkpt>
<trkpt lat="49.139656066895" lon="2.7041907310486"><ele></ele><time>2022-6-23T11:24:5Z</time></trkpt>
<trkpt lat="49.139656066895" lon="2.7041907310486"><ele></ele><time>2022-6-23T11:24:8Z</time></trkpt>
<trkpt lat="49.139656066895" lon="2.7041907310486"><ele></ele><time>2022-6-23T11:24:11Z</time></trkpt>
<trkpt lat="49.139617919922" lon="2.7042126655579"><ele></ele><time>2022-6-23T11:24:14Z</time></trkpt>
<trkpt lat="49.139617919922" lon="2.7042126655579"><ele></ele><time>2022-6-23T11:24:17Z</time></trkpt>
<trkpt lat="49.139617919922" lon="2.7042126655579"><ele></ele><time>2022-6-23T11:24:20Z</time></trkpt>
<trkpt lat="49.139503479004" lon="2.704222202301"><ele></ele><time>2022-6-23T11:24:23Z</time></trkpt>
<trkpt lat="49.139503479004" lon="2.704222202301"><ele></ele><time>2022-6-23T11:24:26Z</time></trkpt>
<trkpt lat="49.139427185059" lon="2.7042691707611"><ele></ele><time>2022-6-23T11:24:29Z</time></trkpt>
<trkpt lat="49.139427185059" lon="2.7042691707611"><ele></ele><time>2022-6-23T11:24:32Z</time></trkpt>
<trkpt lat="49.139354705811" lon="2.7043402194977"><ele></ele><time>2022-6-23T11:24:35Z</time></trkpt>
<trkpt lat="49.139354705811" lon="2.7043402194977"><ele></ele><time>2022-6-23T11:24:38Z</time></trkpt>
<trkpt lat="49.139278411865" lon="2.7043116092682"><ele></ele><time>2022-6-23T11:24:41Z</time></trkpt>
<trkpt lat="49.139278411865" lon="2.7043116092682"><ele></ele><time>2022-6-23T11:24:44Z</time></trkpt>
<trkpt lat="49.139167785645" lon="2.7042467594147"><ele></ele><time>2022-6-23T11:24:47Z</time></trkpt>
<trkpt lat="49.139110565186" lon="2.7042310237885"><ele></ele><time>2022-6-23T11:24:50Z</time></trkpt>
<trkpt lat="49.139110565186" lon="2.7042310237885"><ele></ele><time>2022-6-23T11:24:53Z</time></trkpt>
<trkpt lat="49.139007568359" lon="2.7041764259338"><ele></ele><time>2022-6-23T11:24:56Z</time></trkpt>
<trkpt lat="49.138946533203" lon="2.7041389942169"><ele></ele><time>2022-6-23T11:24:59Z</time></trkpt>
<trkpt lat="49.138946533203" lon="2.7041389942169"><ele></ele><time>2022-6-23T11:25:2Z</time></trkpt>
<trkpt lat="49.138874053955" lon="2.7041051387787"><ele></ele><time>2022-6-23T11:25:5Z</time></trkpt>
<trkpt lat="49.138816833496" lon="2.7040753364563"><ele></ele><time>2022-6-23T11:25:8Z</time></trkpt>
<trkpt lat="49.138763427734" lon="2.7040359973907"><ele></ele><time>2022-6-23T11:25:11Z</time></trkpt>
<trkpt lat="49.138710021973" lon="2.7039954662323"><ele></ele><time>2022-6-23T11:25:14Z</time></trkpt>
<trkpt lat="49.138622283936" lon="2.7039332389832"><ele></ele><time>2022-6-23T11:25:17Z</time></trkpt>
<trkpt lat="49.138622283936" lon="2.7039332389832"><ele></ele><time>2022-6-23T11:25:20Z</time></trkpt>
<trkpt lat="49.138622283936" lon="2.7039332389832"><ele></ele><time>2022-6-23T11:25:23Z</time></trkpt>
<trkpt lat="49.138622283936" lon="2.7039332389832"><ele></ele><time>2022-6-23T11:25:26Z</time></trkpt>
<trkpt lat="49.138622283936" lon="2.7039332389832"><ele></ele><time>2022-6-23T11:25:29Z</time></trkpt>
<trkpt lat="49.138561248779" lon="2.7038176059723"><ele></ele><time>2022-6-23T11:25:32Z</time></trkpt>
<trkpt lat="49.138614654541" lon="2.7037522792816"><ele></ele><time>2022-6-23T11:25:35Z</time></trkpt>
<trkpt lat="49.138614654541" lon="2.7037522792816"><ele></ele><time>2022-6-23T11:25:38Z</time></trkpt>
<trkpt lat="49.138721466064" lon="2.7036852836609"><ele></ele><time>2022-6-23T11:25:41Z</time></trkpt>
<trkpt lat="49.138721466064" lon="2.7036852836609"><ele></ele><time>2022-6-23T11:25:44Z</time></trkpt>
<trkpt lat="49.138778686523" lon="2.7036688327789"><ele></ele><time>2022-6-23T11:25:47Z</time></trkpt>
<trkpt lat="49.138866424561" lon="2.7036256790161"><ele></ele><time>2022-6-23T11:25:50Z</time></trkpt>
<trkpt lat="49.138866424561" lon="2.7036256790161"><ele></ele><time>2022-6-23T11:25:53Z</time></trkpt>
<trkpt lat="49.138927459717" lon="2.7036023139954"><ele></ele><time>2022-6-23T11:25:56Z</time></trkpt>
<trkpt lat="49.139015197754" lon="2.7035610675812"><ele></ele><time>2022-6-23T11:25:59Z</time></trkpt>
<trkpt lat="49.13907623291" lon="2.703533411026"><ele></ele><time>2022-6-23T11:26:2Z</time></trkpt>
<trkpt lat="49.13907623291" lon="2.703533411026"><ele></ele><time>2022-6-23T11:26:5Z</time></trkpt>
<trkpt lat="49.139137268066" lon="2.703512430191"><ele></ele><time>2022-6-23T11:26:8Z</time></trkpt>
<trkpt lat="49.139217376709" lon="2.7034833431244"><ele></ele><time>2022-6-23T11:26:11Z</time></trkpt>
<trkpt lat="49.139217376709" lon="2.7034833431244"><ele></ele><time>2022-6-23T11:26:14Z</time></trkpt>
<trkpt lat="49.139274597168" lon="2.7034695148468"><ele></ele><time>2022-6-23T11:26:17Z</time></trkpt>
<trkpt lat="49.139331817627" lon="2.7034230232239"><ele></ele><time>2022-6-23T11:26:20Z</time></trkpt>
<trkpt lat="49.139331817627" lon="2.7034230232239"><ele></ele><time>2022-6-23T11:26:23Z</time></trkpt>
<trkpt lat="49.139408111572" lon="2.7033643722534"><ele></ele><time>2022-6-23T11:26:26Z</time></trkpt>
<trkpt lat="49.139408111572" lon="2.7033643722534"><ele></ele><time>2022-6-23T11:26:29Z</time></trkpt>
<trkpt lat="49.139503479004" lon="2.7033247947693"><ele></ele><time>2022-6-23T11:26:32Z</time></trkpt>
<trkpt lat="49.139503479004" lon="2.7033247947693"><ele></ele><time>2022-6-23T11:26:35Z</time></trkpt>
<trkpt lat="49.13956451416" lon="2.7033064365387"><ele></ele><time>2022-6-23T11:26:38Z</time></trkpt>
<trkpt lat="49.139625549316" lon="2.7032656669617"><ele></ele><time>2022-6-23T11:26:41Z</time></trkpt>
<trkpt lat="49.139709472656" lon="2.7032215595245"><ele></ele><time>2022-6-23T11:26:44Z</time></trkpt>
<trkpt lat="49.139709472656" lon="2.7032215595245"><ele></ele><time>2022-6-23T11:26:47Z</time></trkpt>
<trkpt lat="49.139766693115" lon="2.7032070159912"><ele></ele><time>2022-6-23T11:26:50Z</time></trkpt>
<trkpt lat="49.13985824585" lon="2.7032725811005"><ele></ele><time>2022-6-23T11:26:53Z</time></trkpt>
<trkpt lat="49.13985824585" lon="2.7032725811005"><ele></ele><time>2022-6-23T11:26:56Z</time></trkpt>
<trkpt lat="49.139911651611" lon="2.703314781189"><ele></ele><time>2022-6-23T11:26:59Z</time></trkpt>
<trkpt lat="49.139911651611" lon="2.703314781189"><ele></ele><time>2022-6-23T11:27:2Z</time></trkpt>
<trkpt lat="49.140007019043" lon="2.7033143043518"><ele></ele><time>2022-6-23T11:27:5Z</time></trkpt>
<trkpt lat="49.140007019043" lon="2.7033143043518"><ele></ele><time>2022-6-23T11:27:8Z</time></trkpt>
<trkpt lat="49.140068054199" lon="2.7032790184021"><ele></ele><time>2022-6-23T11:27:11Z</time></trkpt>
<trkpt lat="49.140132904053" lon="2.7032396793365"><ele></ele><time>2022-6-23T11:27:14Z</time></trkpt>
<trkpt lat="49.140213012695" lon="2.7031953334808"><ele></ele><time>2022-6-23T11:27:17Z</time></trkpt>
<trkpt lat="49.140213012695" lon="2.7031953334808"><ele></ele><time>2022-6-23T11:27:20Z</time></trkpt>
<trkpt lat="49.140300750732" lon="2.7031421661377"><ele></ele><time>2022-6-23T11:27:23Z</time></trkpt>
<trkpt lat="49.140361785889" lon="2.7030975818634"><ele></ele><time>2022-6-23T11:27:26Z</time></trkpt>
<trkpt lat="49.140361785889" lon="2.7030975818634"><ele></ele><time>2022-6-23T11:27:29Z</time></trkpt>
<trkpt lat="49.140464782715" lon="2.7030847072601"><ele></ele><time>2022-6-23T11:27:32Z</time></trkpt>
<trkpt lat="49.140518188477" lon="2.7031292915344"><ele></ele><time>2022-6-23T11:27:35Z</time></trkpt>
<trkpt lat="49.140571594238" lon="2.7031762599945"><ele></ele><time>2022-6-23T11:27:38Z</time></trkpt>
<trkpt lat="49.140571594238" lon="2.7031762599945"><ele></ele><time>2022-6-23T11:27:41Z</time></trkpt>
<trkpt lat="49.140640258789" lon="2.7032372951508"><ele></ele><time>2022-6-23T11:27:44Z</time></trkpt>
<trkpt lat="49.140712738037" lon="2.7032880783081"><ele></ele><time>2022-6-23T11:27:47Z</time></trkpt>
<trkpt lat="49.140796661377" lon="2.7033448219299"><ele></ele><time>2022-6-23T11:27:50Z</time></trkpt>
<trkpt lat="49.140796661377" lon="2.7033448219299"><ele></ele><time>2022-6-23T11:27:53Z</time></trkpt>
<trkpt lat="49.140892028809" lon="2.7033879756927"><ele></ele><time>2022-6-23T11:27:56Z</time></trkpt>
<trkpt lat="49.14111328125" lon="2.7034738063812"><ele></ele><time>2022-6-23T11:27:59Z</time></trkpt>
<trkpt lat="49.141265869141" lon="2.7035167217255"><ele></ele><time>2022-6-23T11:28:2Z</time></trkpt>
<trkpt lat="49.141395568848" lon="2.7035527229309"><ele></ele><time>2022-6-23T11:28:5Z</time></trkpt>
<trkpt lat="49.141532897949" lon="2.7035970687866"><ele></ele><time>2022-6-23T11:28:8Z</time></trkpt>
<trkpt lat="49.141658782959" lon="2.7036459445953"><ele></ele><time>2022-6-23T11:28:11Z</time></trkpt>
<trkpt lat="49.141780853271" lon="2.7037026882172"><ele></ele><time>2022-6-23T11:28:14Z</time></trkpt>
<trkpt lat="49.141914367676" lon="2.7037749290466"><ele></ele><time>2022-6-23T11:28:17Z</time></trkpt>
<trkpt lat="49.142055511475" lon="2.7038612365723"><ele></ele><time>2022-6-23T11:28:20Z</time></trkpt>
<trkpt lat="49.142166137695" lon="2.7039661407471"><ele></ele><time>2022-6-23T11:28:23Z</time></trkpt>
<trkpt lat="49.142292022705" lon="2.7040903568268"><ele></ele><time>2022-6-23T11:28:26Z</time></trkpt>
<trkpt lat="49.142395019531" lon="2.7042074203491"><ele></ele><time>2022-6-23T11:28:29Z</time></trkpt>
<trkpt lat="49.142498016357" lon="2.7043287754059"><ele></ele><time>2022-6-23T11:28:32Z</time></trkpt>
<trkpt lat="49.14262008667" lon="2.7044606208801"><ele></ele><time>2022-6-23T11:28:35Z</time></trkpt>
<trkpt lat="49.142726898193" lon="2.7045798301697"><ele></ele><time>2022-6-23T11:28:38Z</time></trkpt>
<trkpt lat="49.142826080322" lon="2.7046794891357"><ele></ele><time>2022-6-23T11:28:41Z</time></trkpt>
<trkpt lat="49.142917633057" lon="2.7047739028931"><ele></ele><time>2022-6-23T11:28:44Z</time></trkpt>
<trkpt lat="49.143005371094" lon="2.704873085022"><ele></ele><time>2022-6-23T11:28:47Z</time></trkpt>
<trkpt lat="49.143085479736" lon="2.7049558162689"><ele></ele><time>2022-6-23T11:28:50Z</time></trkpt>
<trkpt lat="49.143154144287" lon="2.7050323486328"><ele></ele><time>2022-6-23T11:28:53Z</time></trkpt>
<trkpt lat="49.143154144287" lon="2.7050323486328"><ele></ele><time>2022-6-23T11:28:56Z</time></trkpt>
<trkpt lat="49.14323425293" lon="2.7051284313202"><ele></ele><time>2022-6-23T11:28:59Z</time></trkpt>
<trkpt lat="49.14323425293" lon="2.7051284313202"><ele></ele><time>2022-6-23T11:29:2Z</time></trkpt>
<trkpt lat="49.143321990967" lon="2.7052090167999"><ele></ele><time>2022-6-23T11:29:5Z</time></trkpt>
<trkpt lat="49.143379211426" lon="2.7052626609802"><ele></ele><time>2022-6-23T11:29:8Z</time></trkpt>
<trkpt lat="49.143444061279" lon="2.7053229808807"><ele></ele><time>2022-6-23T11:29:11Z</time></trkpt>
<trkpt lat="49.143505096436" lon="2.7053823471069"><ele></ele><time>2022-6-23T11:29:14Z</time></trkpt>
<trkpt lat="49.143569946289" lon="2.7054424285889"><ele></ele><time>2022-6-23T11:29:17Z</time></trkpt>
<trkpt lat="49.143634796143" lon="2.7055070400238"><ele></ele><time>2022-6-23T11:29:20Z</time></trkpt>
<trkpt lat="49.143699645996" lon="2.7055776119232"><ele></ele><time>2022-6-23T11:29:23Z</time></trkpt>
<trkpt lat="49.143760681152" lon="2.7056519985199"><ele></ele><time>2022-6-23T11:29:26Z</time></trkpt>
<trkpt lat="49.143810272217" lon="2.7057414054871"><ele></ele><time>2022-6-23T11:29:29Z</time></trkpt>
<trkpt lat="49.143867492676" lon="2.7058365345001"><ele></ele><time>2022-6-23T11:29:32Z</time></trkpt>
<trkpt lat="49.143913269043" lon="2.705908536911"><ele></ele><time>2022-6-23T11:29:35Z</time></trkpt>
<trkpt lat="49.143913269043" lon="2.705908536911"><ele></ele><time>2022-6-23T11:29:38Z</time></trkpt>
<trkpt lat="49.143981933594" lon="2.7060480117798"><ele></ele><time>2022-6-23T11:29:41Z</time></trkpt>
<trkpt lat="49.143981933594" lon="2.7060480117798"><ele></ele><time>2022-6-23T11:29:44Z</time></trkpt>
<trkpt lat="49.144050598145" lon="2.7062067985535"><ele></ele><time>2022-6-23T11:29:47Z</time></trkpt>
<trkpt lat="49.144092559814" lon="2.7063081264496"><ele></ele><time>2022-6-23T11:29:50Z</time></trkpt>
<trkpt lat="49.144130706787" lon="2.7063999176025"><ele></ele><time>2022-6-23T11:29:53Z</time></trkpt>
<trkpt lat="49.144172668457" lon="2.7064990997314"><ele></ele><time>2022-6-23T11:29:56Z</time></trkpt>
<trkpt lat="49.144222259521" lon="2.7066144943237"><ele></ele><time>2022-6-23T11:29:59Z</time></trkpt>
<trkpt lat="49.144275665283" lon="2.7067289352417"><ele></ele><time>2022-6-23T11:30:2Z</time></trkpt>
<trkpt lat="49.144317626953" lon="2.7068257331848"><ele></ele><time>2022-6-23T11:30:5Z</time></trkpt>
<trkpt lat="49.144359588623" lon="2.7069201469421"><ele></ele><time>2022-6-23T11:30:8Z</time></trkpt>
<trkpt lat="49.14440536499" lon="2.7070097923279"><ele></ele><time>2022-6-23T11:30:11Z</time></trkpt>
<trkpt lat="49.144451141357" lon="2.7071089744568"><ele></ele><time>2022-6-23T11:30:14Z</time></trkpt>
<trkpt lat="49.144496917725" lon="2.7072076797485"><ele></ele><time>2022-6-23T11:30:17Z</time></trkpt>
<trkpt lat="49.144542694092" lon="2.707309961319"><ele></ele><time>2022-6-23T11:30:20Z</time></trkpt>
<trkpt lat="49.144584655762" lon="2.7074043750763"><ele></ele><time>2022-6-23T11:30:23Z</time></trkpt>
<trkpt lat="49.14461517334" lon="2.7074892520905"><ele></ele><time>2022-6-23T11:30:26Z</time></trkpt>
<trkpt lat="49.14461517334" lon="2.7074892520905"><ele></ele><time>2022-6-23T11:30:29Z</time></trkpt>
<trkpt lat="49.144691467285" lon="2.7076370716095"><ele></ele><time>2022-6-23T11:30:32Z</time></trkpt>
<trkpt lat="49.144729614258" lon="2.707706451416"><ele></ele><time>2022-6-23T11:30:35Z</time></trkpt>
<trkpt lat="49.144729614258" lon="2.707706451416"><ele></ele><time>2022-6-23T11:30:38Z</time></trkpt>
<trkpt lat="49.144771575928" lon="2.7077739238739"><ele></ele><time>2022-6-23T11:30:41Z</time></trkpt>
<trkpt lat="49.144821166992" lon="2.7078351974487"><ele></ele><time>2022-6-23T11:30:44Z</time></trkpt>
<trkpt lat="49.144882202148" lon="2.7079770565033"><ele></ele><time>2022-6-23T11:30:47Z</time></trkpt>
<trkpt lat="49.144882202148" lon="2.7079770565033"><ele></ele><time>2022-6-23T11:30:50Z</time></trkpt>
<trkpt lat="49.144931793213" lon="2.7081434726715"><ele></ele><time>2022-6-23T11:30:53Z</time></trkpt>
<trkpt lat="49.144954681396" lon="2.7082397937775"><ele></ele><time>2022-6-23T11:30:56Z</time></trkpt>
<trkpt lat="49.144985198975" lon="2.7083320617676"><ele></ele><time>2022-6-23T11:30:59Z</time></trkpt>
<trkpt lat="49.145027160645" lon="2.7084009647369"><ele></ele><time>2022-6-23T11:31:2Z</time></trkpt>
<trkpt lat="49.145076751709" lon="2.7084708213806"><ele></ele><time>2022-6-23T11:31:5Z</time></trkpt>
<trkpt lat="49.145122528076" lon="2.708568572998"><ele></ele><time>2022-6-23T11:31:8Z</time></trkpt>
<trkpt lat="49.145160675049" lon="2.7086696624756"><ele></ele><time>2022-6-23T11:31:11Z</time></trkpt>
<trkpt lat="49.145191192627" lon="2.708756685257"><ele></ele><time>2022-6-23T11:31:14Z</time></trkpt>
<trkpt lat="49.145191192627" lon="2.708756685257"><ele></ele><time>2022-6-23T11:31:17Z</time></trkpt>
<trkpt lat="49.145221710205" lon="2.7088568210602"><ele></ele><time>2022-6-23T11:31:20Z</time></trkpt>
<trkpt lat="49.145305633545" lon="2.7090139389038"><ele></ele><time>2022-6-23T11:31:23Z</time></trkpt>
<trkpt lat="49.145305633545" lon="2.7090139389038"><ele></ele><time>2022-6-23T11:31:26Z</time></trkpt>
<trkpt lat="49.145347595215" lon="2.709098815918"><ele></ele><time>2022-6-23T11:31:29Z</time></trkpt>
<trkpt lat="49.145385742188" lon="2.7091765403748"><ele></ele><time>2022-6-23T11:31:32Z</time></trkpt>
<trkpt lat="49.145427703857" lon="2.7092688083649"><ele></ele><time>2022-6-23T11:31:35Z</time></trkpt>
<trkpt lat="49.145427703857" lon="2.7092688083649"><ele></ele><time>2022-6-23T11:31:38Z</time></trkpt>
<trkpt lat="49.145473480225" lon="2.7093546390533"><ele></ele><time>2022-6-23T11:31:41Z</time></trkpt>
<trkpt lat="49.145519256592" lon="2.7094483375549"><ele></ele><time>2022-6-23T11:31:44Z</time></trkpt>
<trkpt lat="49.145545959473" lon="2.7095274925232"><ele></ele><time>2022-6-23T11:31:47Z</time></trkpt>
<trkpt lat="49.145545959473" lon="2.7095274925232"><ele></ele><time>2022-6-23T11:31:50Z</time></trkpt>
<trkpt lat="49.145576477051" lon="2.7096328735352"><ele></ele><time>2022-6-23T11:31:53Z</time></trkpt>
<trkpt lat="49.145576477051" lon="2.7096328735352"><ele></ele><time>2022-6-23T11:31:56Z</time></trkpt>
<trkpt lat="49.145629882812" lon="2.7097833156586"><ele></ele><time>2022-6-23T11:31:59Z</time></trkpt>
<trkpt lat="49.145629882812" lon="2.7097833156586"><ele></ele><time>2022-6-23T11:32:2Z</time></trkpt>
<trkpt lat="49.145629882812" lon="2.7097833156586"><ele></ele><time>2022-6-23T11:32:5Z</time></trkpt>
<trkpt lat="49.145706176758" lon="2.7098987102509"><ele></ele><time>2022-6-23T11:32:8Z</time></trkpt>
<trkpt lat="49.145706176758" lon="2.7098987102509"><ele></ele><time>2022-6-23T11:32:11Z</time></trkpt>
<trkpt lat="49.145778656006" lon="2.7100036144257"><ele></ele><time>2022-6-23T11:32:14Z</time></trkpt>
<trkpt lat="49.145778656006" lon="2.7100036144257"><ele></ele><time>2022-6-23T11:32:17Z</time></trkpt>
<trkpt lat="49.145839691162" lon="2.7101442813873"><ele></ele><time>2022-6-23T11:32:20Z</time></trkpt>
<trkpt lat="49.145839691162" lon="2.7101442813873"><ele></ele><time>2022-6-23T11:32:23Z</time></trkpt>
<trkpt lat="49.145885467529" lon="2.7102262973785"><ele></ele><time>2022-6-23T11:32:26Z</time></trkpt>
<trkpt lat="49.145931243896" lon="2.7102882862091"><ele></ele><time>2022-6-23T11:32:29Z</time></trkpt>
<trkpt lat="49.145973205566" lon="2.7103538513184"><ele></ele><time>2022-6-23T11:32:32Z</time></trkpt>
<trkpt lat="49.145973205566" lon="2.7103538513184"><ele></ele><time>2022-6-23T11:32:35Z</time></trkpt>
<trkpt lat="49.146022796631" lon="2.7104206085205"><ele></ele><time>2022-6-23T11:32:38Z</time></trkpt>
<trkpt lat="49.146068572998" lon="2.7104852199554"><ele></ele><time>2022-6-23T11:32:41Z</time></trkpt>
<trkpt lat="49.146114349365" lon="2.7105450630188"><ele></ele><time>2022-6-23T11:32:44Z</time></trkpt>
<trkpt lat="49.146114349365" lon="2.7105450630188"><ele></ele><time>2022-6-23T11:32:47Z</time></trkpt>
<trkpt lat="49.146171569824" lon="2.7106158733368"><ele></ele><time>2022-6-23T11:32:50Z</time></trkpt>
<trkpt lat="49.146236419678" lon="2.7107045650482"><ele></ele><time>2022-6-23T11:32:53Z</time></trkpt>
<trkpt lat="49.146278381348" lon="2.7107927799225"><ele></ele><time>2022-6-23T11:32:56Z</time></trkpt>
<trkpt lat="49.146324157715" lon="2.7108509540558"><ele></ele><time>2022-6-23T11:32:59Z</time></trkpt>
<trkpt lat="49.146373748779" lon="2.7109088897705"><ele></ele><time>2022-6-23T11:33:2Z</time></trkpt>
<trkpt lat="49.146419525146" lon="2.7109787464142"><ele></ele><time>2022-6-23T11:33:5Z</time></trkpt>
<trkpt lat="49.146419525146" lon="2.7109787464142"><ele></ele><time>2022-6-23T11:33:8Z</time></trkpt>
<trkpt lat="49.146480560303" lon="2.7110576629639"><ele></ele><time>2022-6-23T11:33:11Z</time></trkpt>
<trkpt lat="49.146545410156" lon="2.7111358642578"><ele></ele><time>2022-6-23T11:33:14Z</time></trkpt>
<trkpt lat="49.146598815918" lon="2.7112290859222"><ele></ele><time>2022-6-23T11:33:17Z</time></trkpt>
<trkpt lat="49.146598815918" lon="2.7112290859222"><ele></ele><time>2022-6-23T11:33:20Z</time></trkpt>
<trkpt lat="49.146644592285" lon="2.7113003730774"><ele></ele><time>2022-6-23T11:33:23Z</time></trkpt>
<trkpt lat="49.146690368652" lon="2.7113735675812"><ele></ele><time>2022-6-23T11:33:26Z</time></trkpt>
<trkpt lat="49.146743774414" lon="2.7114686965942"><ele></ele><time>2022-6-23T11:33:29Z</time></trkpt>
<trkpt lat="49.146743774414" lon="2.7114686965942"><ele></ele><time>2022-6-23T11:33:32Z</time></trkpt>
<trkpt lat="49.146808624268" lon="2.7115919589996"><ele></ele><time>2022-6-23T11:33:35Z</time></trkpt>
<trkpt lat="49.146865844727" lon="2.711669921875"><ele></ele><time>2022-6-23T11:33:38Z</time></trkpt>
<trkpt lat="49.146938323975" lon="2.7117650508881"><ele></ele><time>2022-6-23T11:33:41Z</time></trkpt>
<trkpt lat="49.146938323975" lon="2.7117650508881"><ele></ele><time>2022-6-23T11:33:44Z</time></trkpt>
<trkpt lat="49.147010803223" lon="2.7118580341339"><ele></ele><time>2022-6-23T11:33:47Z</time></trkpt>
<trkpt lat="49.147068023682" lon="2.7119238376617"><ele></ele><time>2022-6-23T11:33:50Z</time></trkpt>
<trkpt lat="49.147117614746" lon="2.7119903564453"><ele></ele><time>2022-6-23T11:33:53Z</time></trkpt>
<trkpt lat="49.147117614746" lon="2.7119903564453"><ele></ele><time>2022-6-23T11:33:56Z</time></trkpt>
<trkpt lat="49.147167205811" lon="2.7120580673218"><ele></ele><time>2022-6-23T11:33:59Z</time></trkpt>
<trkpt lat="49.147228240967" lon="2.7121322154999"><ele></ele><time>2022-6-23T11:34:2Z</time></trkpt>
<trkpt lat="49.147289276123" lon="2.7122173309326"><ele></ele><time>2022-6-23T11:34:5Z</time></trkpt>
<trkpt lat="49.147346496582" lon="2.7122938632965"><ele></ele><time>2022-6-23T11:34:8Z</time></trkpt>
<trkpt lat="49.147407531738" lon="2.7123985290527"><ele></ele><time>2022-6-23T11:34:11Z</time></trkpt>
<trkpt lat="49.1474609375" lon="2.7125062942505"><ele></ele><time>2022-6-23T11:34:14Z</time></trkpt>
<trkpt lat="49.1474609375" lon="2.7125062942505"><ele></ele><time>2022-6-23T11:34:17Z</time></trkpt>
<trkpt lat="49.1474609375" lon="2.7125062942505"><ele></ele><time>2022-6-23T11:34:20Z</time></trkpt>
<trkpt lat="49.147548675537" lon="2.712637424469"><ele></ele><time>2022-6-23T11:34:23Z</time></trkpt>
<trkpt lat="49.147548675537" lon="2.712637424469"><ele></ele><time>2022-6-23T11:34:26Z</time></trkpt>
<trkpt lat="49.147548675537" lon="2.712637424469"><ele></ele><time>2022-6-23T11:34:29Z</time></trkpt>
<trkpt lat="49.147548675537" lon="2.712637424469"><ele></ele><time>2022-6-23T11:34:32Z</time></trkpt>
<trkpt lat="49.147762298584" lon="2.7125339508057"><ele></ele><time>2022-6-23T11:34:35Z</time></trkpt>
<trkpt lat="49.147762298584" lon="2.7125339508057"><ele></ele><time>2022-6-23T11:34:38Z</time></trkpt>
<trkpt lat="49.147827148438" lon="2.7124354839325"><ele></ele><time>2022-6-23T11:34:41Z</time></trkpt>
<trkpt lat="49.147827148438" lon="2.7124354839325"><ele></ele><time>2022-6-23T11:34:44Z</time></trkpt>
<trkpt lat="49.147884368896" lon="2.7123594284058"><ele></ele><time>2022-6-23T11:34:47Z</time></trkpt>
<trkpt lat="49.147930145264" lon="2.7122769355774"><ele></ele><time>2022-6-23T11:34:50Z</time></trkpt>
<trkpt lat="49.147987365723" lon="2.7121703624725"><ele></ele><time>2022-6-23T11:34:53Z</time></trkpt>
<trkpt lat="49.147987365723" lon="2.7121703624725"><ele></ele><time>2022-6-23T11:34:56Z</time></trkpt>
<trkpt lat="49.148025512695" lon="2.7120885848999"><ele></ele><time>2022-6-23T11:34:59Z</time></trkpt>
<trkpt lat="49.148071289062" lon="2.711993932724"><ele></ele><time>2022-6-23T11:35:2Z</time></trkpt>
<trkpt lat="49.148109436035" lon="2.7119190692902"><ele></ele><time>2022-6-23T11:35:5Z</time></trkpt>
<trkpt lat="49.148109436035" lon="2.7119190692902"><ele></ele><time>2022-6-23T11:35:8Z</time></trkpt>
<trkpt lat="49.148155212402" lon="2.7118389606476"><ele></ele><time>2022-6-23T11:35:11Z</time></trkpt>
<trkpt lat="49.148220062256" lon="2.7117533683777"><ele></ele><time>2022-6-23T11:35:14Z</time></trkpt>
<trkpt lat="49.148265838623" lon="2.7116768360138"><ele></ele><time>2022-6-23T11:35:17Z</time></trkpt>
<trkpt lat="49.148265838623" lon="2.7116768360138"><ele></ele><time>2022-6-23T11:35:20Z</time></trkpt>
<trkpt lat="49.148303985596" lon="2.7116074562073"><ele></ele><time>2022-6-23T11:35:23Z</time></trkpt>
<trkpt lat="49.148349761963" lon="2.7115278244019"><ele></ele><time>2022-6-23T11:35:26Z</time></trkpt>
<trkpt lat="49.148418426514" lon="2.7114388942719"><ele></ele><time>2022-6-23T11:35:29Z</time></trkpt>
<trkpt lat="49.148418426514" lon="2.7114388942719"><ele></ele><time>2022-6-23T11:35:32Z</time></trkpt>
<trkpt lat="49.148468017578" lon="2.7113711833954"><ele></ele><time>2022-6-23T11:35:35Z</time></trkpt>
<trkpt lat="49.148509979248" lon="2.7113094329834"><ele></ele><time>2022-6-23T11:35:38Z</time></trkpt>
<trkpt lat="49.148555755615" lon="2.7112228870392"><ele></ele><time>2022-6-23T11:35:41Z</time></trkpt>
<trkpt lat="49.148555755615" lon="2.7112228870392"><ele></ele><time>2022-6-23T11:35:44Z</time></trkpt>
<trkpt lat="49.14860534668" lon="2.7111463546753"><ele></ele><time>2022-6-23T11:35:47Z</time></trkpt>
<trkpt lat="49.148651123047" lon="2.7110719680786"><ele></ele><time>2022-6-23T11:35:50Z</time></trkpt>
<trkpt lat="49.148708343506" lon="2.7109811306"><ele></ele><time>2022-6-23T11:35:53Z</time></trkpt>
<trkpt lat="49.148708343506" lon="2.7109811306"><ele></ele><time>2022-6-23T11:35:56Z</time></trkpt>
<trkpt lat="49.148761749268" lon="2.710901260376"><ele></ele><time>2022-6-23T11:35:59Z</time></trkpt>
<trkpt lat="49.148815155029" lon="2.7108063697815"><ele></ele><time>2022-6-23T11:36:2Z</time></trkpt>
<trkpt lat="49.148872375488" lon="2.7107102870941"><ele></ele><time>2022-6-23T11:36:5Z</time></trkpt>
<trkpt lat="49.148872375488" lon="2.7107102870941"><ele></ele><time>2022-6-23T11:36:8Z</time></trkpt>
<trkpt lat="49.148937225342" lon="2.7106230258942"><ele></ele><time>2022-6-23T11:36:11Z</time></trkpt>
<trkpt lat="49.149002075195" lon="2.7105329036713"><ele></ele><time>2022-6-23T11:36:14Z</time></trkpt>
<trkpt lat="49.149070739746" lon="2.7104048728943"><ele></ele><time>2022-6-23T11:36:17Z</time></trkpt>
<trkpt lat="49.149070739746" lon="2.7104048728943"><ele></ele><time>2022-6-23T11:36:20Z</time></trkpt>
<trkpt lat="49.149120330811" lon="2.71031498909"><ele></ele><time>2022-6-23T11:36:23Z</time></trkpt>
<trkpt lat="49.149169921875" lon="2.7102127075195"><ele></ele><time>2022-6-23T11:36:26Z</time></trkpt>
<trkpt lat="49.149223327637" lon="2.7101302146912"><ele></ele><time>2022-6-23T11:36:29Z</time></trkpt>
<trkpt lat="49.149223327637" lon="2.7101302146912"><ele></ele><time>2022-6-23T11:36:32Z</time></trkpt>
<trkpt lat="49.149284362793" lon="2.7100555896759"><ele></ele><time>2022-6-23T11:36:35Z</time></trkpt>
<trkpt lat="49.149349212646" lon="2.7099626064301"><ele></ele><time>2022-6-23T11:36:38Z</time></trkpt>
<trkpt lat="49.149421691895" lon="2.7098677158356"><ele></ele><time>2022-6-23T11:36:41Z</time></trkpt>
<trkpt lat="49.149421691895" lon="2.7098677158356"><ele></ele><time>2022-6-23T11:36:44Z</time></trkpt>
<trkpt lat="49.149475097656" lon="2.7097821235657"><ele></ele><time>2022-6-23T11:36:47Z</time></trkpt>
<trkpt lat="49.14953994751" lon="2.7096893787384"><ele></ele><time>2022-6-23T11:36:50Z</time></trkpt>
<trkpt lat="49.149597167969" lon="2.7096078395844"><ele></ele><time>2022-6-23T11:36:53Z</time></trkpt>
<trkpt lat="49.149635314941" lon="2.7095365524292"><ele></ele><time>2022-6-23T11:36:56Z</time></trkpt>
<trkpt lat="49.149673461914" lon="2.7094633579254"><ele></ele><time>2022-6-23T11:36:59Z</time></trkpt>
<trkpt lat="49.149723052979" lon="2.7093725204468"><ele></ele><time>2022-6-23T11:37:2Z</time></trkpt>
<trkpt lat="49.149723052979" lon="2.7093725204468"><ele></ele><time>2022-6-23T11:37:5Z</time></trkpt>
<trkpt lat="49.149761199951" lon="2.7092940807343"><ele></ele><time>2022-6-23T11:37:8Z</time></trkpt>
<trkpt lat="49.149806976318" lon="2.7092325687408"><ele></ele><time>2022-6-23T11:37:11Z</time></trkpt>
<trkpt lat="49.14986038208" lon="2.7091574668884"><ele></ele><time>2022-6-23T11:37:14Z</time></trkpt>
<trkpt lat="49.14986038208" lon="2.7091574668884"><ele></ele><time>2022-6-23T11:37:17Z</time></trkpt>
<trkpt lat="49.149925231934" lon="2.709082365036"><ele></ele><time>2022-6-23T11:37:20Z</time></trkpt>
<trkpt lat="49.14998626709" lon="2.7090075016022"><ele></ele><time>2022-6-23T11:37:23Z</time></trkpt>
<trkpt lat="49.150051116943" lon="2.7089297771454"><ele></ele><time>2022-6-23T11:37:26Z</time></trkpt>
<trkpt lat="49.150051116943" lon="2.7089297771454"><ele></ele><time>2022-6-23T11:37:29Z</time></trkpt>
<trkpt lat="49.150115966797" lon="2.7088384628296"><ele></ele><time>2022-6-23T11:37:32Z</time></trkpt>
<trkpt lat="49.150157928467" lon="2.7087559700012"><ele></ele><time>2022-6-23T11:37:35Z</time></trkpt>
<trkpt lat="49.150157928467" lon="2.7087559700012"><ele></ele><time>2022-6-23T11:37:38Z</time></trkpt>
<trkpt lat="49.150157928467" lon="2.7087559700012"><ele></ele><time>2022-6-23T11:37:41Z</time></trkpt>
<trkpt lat="49.150218963623" lon="2.7086083889008"><ele></ele><time>2022-6-23T11:37:44Z</time></trkpt>
<trkpt lat="49.150253295898" lon="2.7085320949554"><ele></ele><time>2022-6-23T11:37:47Z</time></trkpt>
<trkpt lat="49.150253295898" lon="2.7085320949554"><ele></ele><time>2022-6-23T11:37:50Z</time></trkpt>
<trkpt lat="49.150253295898" lon="2.7085320949554"><ele></ele><time>2022-6-23T11:37:53Z</time></trkpt>
<trkpt lat="49.150329589844" lon="2.7083959579468"><ele></ele><time>2022-6-23T11:37:56Z</time></trkpt>
<trkpt lat="49.150394439697" lon="2.708313703537"><ele></ele><time>2022-6-23T11:37:59Z</time></trkpt>
<trkpt lat="49.150444030762" lon="2.7082343101501"><ele></ele><time>2022-6-23T11:38:2Z</time></trkpt>
<trkpt lat="49.150444030762" lon="2.7082343101501"><ele></ele><time>2022-6-23T11:38:5Z</time></trkpt>
<trkpt lat="49.150482177734" lon="2.7081651687622"><ele></ele><time>2022-6-23T11:38:8Z</time></trkpt>
<trkpt lat="49.150547027588" lon="2.7080373764038"><ele></ele><time>2022-6-23T11:38:11Z</time></trkpt>
<trkpt lat="49.150547027588" lon="2.7080373764038"><ele></ele><time>2022-6-23T11:38:14Z</time></trkpt>
<trkpt lat="49.150592803955" lon="2.707946062088"><ele></ele><time>2022-6-23T11:38:17Z</time></trkpt>
<trkpt lat="49.150646209717" lon="2.7078502178192"><ele></ele><time>2022-6-23T11:38:20Z</time></trkpt>
<trkpt lat="49.150699615479" lon="2.7077615261078"><ele></ele><time>2022-6-23T11:38:23Z</time></trkpt>
<trkpt lat="49.150699615479" lon="2.7077615261078"><ele></ele><time>2022-6-23T11:38:26Z</time></trkpt>
<trkpt lat="49.150737762451" lon="2.7076988220215"><ele></ele><time>2022-6-23T11:38:29Z</time></trkpt>
<trkpt lat="49.150791168213" lon="2.7076215744019"><ele></ele><time>2022-6-23T11:38:32Z</time></trkpt>
<trkpt lat="49.150859832764" lon="2.7075340747833"><ele></ele><time>2022-6-23T11:38:35Z</time></trkpt>
<trkpt lat="49.150859832764" lon="2.7075340747833"><ele></ele><time>2022-6-23T11:38:38Z</time></trkpt>
<trkpt lat="49.150913238525" lon="2.7074503898621"><ele></ele><time>2022-6-23T11:38:41Z</time></trkpt>
<trkpt lat="49.150955200195" lon="2.7073662281036"><ele></ele><time>2022-6-23T11:38:44Z</time></trkpt>
<trkpt lat="49.150989532471" lon="2.7072863578796"><ele></ele><time>2022-6-23T11:38:47Z</time></trkpt>
<trkpt lat="49.150989532471" lon="2.7072863578796"><ele></ele><time>2022-6-23T11:38:50Z</time></trkpt>
<trkpt lat="49.151023864746" lon="2.7072093486786"><ele></ele><time>2022-6-23T11:38:53Z</time></trkpt>
<trkpt lat="49.151069641113" lon="2.7071297168732"><ele></ele><time>2022-6-23T11:38:56Z</time></trkpt>
<trkpt lat="49.151123046875" lon="2.7070319652557"><ele></ele><time>2022-6-23T11:38:59Z</time></trkpt>
<trkpt lat="49.151123046875" lon="2.7070319652557"><ele></ele><time>2022-6-23T11:39:2Z</time></trkpt>
<trkpt lat="49.151180267334" lon="2.7069363594055"><ele></ele><time>2022-6-23T11:39:5Z</time></trkpt>
<trkpt lat="49.15124130249" lon="2.7068390846252"><ele></ele><time>2022-6-23T11:39:8Z</time></trkpt>
<trkpt lat="49.15128326416" lon="2.7067716121674"><ele></ele><time>2022-6-23T11:39:11Z</time></trkpt>
<trkpt lat="49.15128326416" lon="2.7067716121674"><ele></ele><time>2022-6-23T11:39:14Z</time></trkpt>
<trkpt lat="49.151321411133" lon="2.7067043781281"><ele></ele><time>2022-6-23T11:39:17Z</time></trkpt>
<trkpt lat="49.151371002197" lon="2.7066304683685"><ele></ele><time>2022-6-23T11:39:20Z</time></trkpt>
<trkpt lat="49.151424407959" lon="2.7065491676331"><ele></ele><time>2022-6-23T11:39:23Z</time></trkpt>
<trkpt lat="49.151424407959" lon="2.7065491676331"><ele></ele><time>2022-6-23T11:39:26Z</time></trkpt>
<trkpt lat="49.151473999023" lon="2.7064664363861"><ele></ele><time>2022-6-23T11:39:29Z</time></trkpt>
<trkpt lat="49.151531219482" lon="2.7063777446747"><ele></ele><time>2022-6-23T11:39:32Z</time></trkpt>
<trkpt lat="49.151584625244" lon="2.7062840461731"><ele></ele><time>2022-6-23T11:39:35Z</time></trkpt>
<trkpt lat="49.151584625244" lon="2.7062840461731"><ele></ele><time>2022-6-23T11:39:38Z</time></trkpt>
<trkpt lat="49.1516456604" lon="2.7061870098114"><ele></ele><time>2022-6-23T11:39:41Z</time></trkpt>
<trkpt lat="49.151699066162" lon="2.7061111927032"><ele></ele><time>2022-6-23T11:39:44Z</time></trkpt>
<trkpt lat="49.151733398438" lon="2.7060420513153"><ele></ele><time>2022-6-23T11:39:47Z</time></trkpt>
<trkpt lat="49.151733398438" lon="2.7060420513153"><ele></ele><time>2022-6-23T11:39:50Z</time></trkpt>
<trkpt lat="49.15177154541" lon="2.7059669494629"><ele></ele><time>2022-6-23T11:39:53Z</time></trkpt>
<trkpt lat="49.151817321777" lon="2.7058777809143"><ele></ele><time>2022-6-23T11:39:56Z</time></trkpt>
<trkpt lat="49.151870727539" lon="2.7057890892029"><ele></ele><time>2022-6-23T11:39:59Z</time></trkpt>
<trkpt lat="49.151870727539" lon="2.7057890892029"><ele></ele><time>2022-6-23T11:40:2Z</time></trkpt>
<trkpt lat="49.151931762695" lon="2.7056937217712"><ele></ele><time>2022-6-23T11:40:5Z</time></trkpt>
<trkpt lat="49.152000427246" lon="2.7055938243866"><ele></ele><time>2022-6-23T11:40:8Z</time></trkpt>
<trkpt lat="49.152061462402" lon="2.7054986953735"><ele></ele><time>2022-6-23T11:40:11Z</time></trkpt>
<trkpt lat="49.152061462402" lon="2.7054986953735"><ele></ele><time>2022-6-23T11:40:14Z</time></trkpt>
<trkpt lat="49.152061462402" lon="2.7054986953735"><ele></ele><time>2022-6-23T11:40:17Z</time></trkpt>
<trkpt lat="49.15210723877" lon="2.7053899765015"><ele></ele><time>2022-6-23T11:40:20Z</time></trkpt>
<trkpt lat="49.15210723877" lon="2.7053899765015"><ele></ele><time>2022-6-23T11:40:23Z</time></trkpt>
<trkpt lat="49.15210723877" lon="2.7053899765015"><ele></ele><time>2022-6-23T11:40:26Z</time></trkpt>
<trkpt lat="49.15210723877" lon="2.7053899765015"><ele></ele><time>2022-6-23T11:40:29Z</time></trkpt>
<trkpt lat="49.15210723877" lon="2.7053899765015"><ele></ele><time>2022-6-23T11:40:32Z</time></trkpt>
<trkpt lat="49.15210723877" lon="2.7053899765015"><ele></ele><time>2022-6-23T11:40:35Z</time></trkpt>
<trkpt lat="49.15210723877" lon="2.7053899765015"><ele></ele><time>2022-6-23T11:40:38Z</time></trkpt>
<trkpt lat="49.152244567871" lon="2.7054176330566"><ele></ele><time>2022-6-23T11:40:41Z</time></trkpt>
<trkpt lat="49.152244567871" lon="2.7054176330566"><ele></ele><time>2022-6-23T11:40:44Z</time></trkpt>
<trkpt lat="49.152244567871" lon="2.7054176330566"><ele></ele><time>2022-6-23T11:40:47Z</time></trkpt>
<trkpt lat="49.152244567871" lon="2.7054176330566"><ele></ele><time>2022-6-23T11:40:50Z</time></trkpt>
<trkpt lat="49.152191162109" lon="2.7054240703583"><ele></ele><time>2022-6-23T11:40:53Z</time></trkpt>
<trkpt lat="49.152191162109" lon="2.7054240703583"><ele></ele><time>2022-6-23T11:40:56Z</time></trkpt>
<trkpt lat="49.152046203613" lon="2.7052597999573"><ele></ele><time>2022-6-23T11:40:59Z</time></trkpt>
<trkpt lat="49.152046203613" lon="2.7052597999573"><ele></ele><time>2022-6-23T11:41:2Z</time></trkpt>
<trkpt lat="49.151977539062" lon="2.7051494121552"><ele></ele><time>2022-6-23T11:41:5Z</time></trkpt>
<trkpt lat="49.151935577393" lon="2.7050340175629"><ele></ele><time>2022-6-23T11:41:8Z</time></trkpt>
<trkpt lat="49.151908874512" lon="2.7049498558044"><ele></ele><time>2022-6-23T11:41:11Z</time></trkpt>
<trkpt lat="49.151966094971" lon="2.7048673629761"><ele></ele><time>2022-6-23T11:41:14Z</time></trkpt>
<trkpt lat="49.152072906494" lon="2.7048344612122"><ele></ele><time>2022-6-23T11:41:17Z</time></trkpt>
<trkpt lat="49.152072906494" lon="2.7048344612122"><ele></ele><time>2022-6-23T11:41:20Z</time></trkpt>
<trkpt lat="49.152156829834" lon="2.7047951221466"><ele></ele><time>2022-6-23T11:41:23Z</time></trkpt>
<trkpt lat="49.152156829834" lon="2.7047951221466"><ele></ele><time>2022-6-23T11:41:26Z</time></trkpt>
<trkpt lat="49.152248382568" lon="2.7047564983368"><ele></ele><time>2022-6-23T11:41:29Z</time></trkpt>
<trkpt lat="49.152248382568" lon="2.7047564983368"><ele></ele><time>2022-6-23T11:41:32Z</time></trkpt>
<trkpt lat="49.152320861816" lon="2.7047026157379"><ele></ele><time>2022-6-23T11:41:35Z</time></trkpt>
<trkpt lat="49.152320861816" lon="2.7047026157379"><ele></ele><time>2022-6-23T11:41:38Z</time></trkpt>
<trkpt lat="49.152381896973" lon="2.7046568393707"><ele></ele><time>2022-6-23T11:41:41Z</time></trkpt>
<trkpt lat="49.152381896973" lon="2.7046568393707"><ele></ele><time>2022-6-23T11:41:44Z</time></trkpt>
<trkpt lat="49.152381896973" lon="2.7046568393707"><ele></ele><time>2022-6-23T11:41:47Z</time></trkpt>
<trkpt lat="49.152431488037" lon="2.7045662403107"><ele></ele><time>2022-6-23T11:41:50Z</time></trkpt>
<trkpt lat="49.152481079102" lon="2.7045183181763"><ele></ele><time>2022-6-23T11:41:53Z</time></trkpt>
<trkpt lat="49.152557373047" lon="2.7044608592987"><ele></ele><time>2022-6-23T11:41:56Z</time></trkpt>
<trkpt lat="49.152557373047" lon="2.7044608592987"><ele></ele><time>2022-6-23T11:41:59Z</time></trkpt>
<trkpt lat="49.152557373047" lon="2.7044608592987"><ele></ele><time>2022-6-23T11:42:2Z</time></trkpt>
<trkpt lat="49.152633666992" lon="2.7043907642365"><ele></ele><time>2022-6-23T11:42:5Z</time></trkpt>
<trkpt lat="49.152709960938" lon="2.7043287754059"><ele></ele><time>2022-6-23T11:42:8Z</time></trkpt>
<trkpt lat="49.152709960938" lon="2.7043287754059"><ele></ele><time>2022-6-23T11:42:11Z</time></trkpt>
<trkpt lat="49.152770996094" lon="2.7042891979218"><ele></ele><time>2022-6-23T11:42:14Z</time></trkpt>
<trkpt lat="49.152843475342" lon="2.7042453289032"><ele></ele><time>2022-6-23T11:42:17Z</time></trkpt>
<trkpt lat="49.152904510498" lon="2.7042026519775"><ele></ele><time>2022-6-23T11:42:20Z</time></trkpt>
<trkpt lat="49.152904510498" lon="2.7042026519775"><ele></ele><time>2022-6-23T11:42:23Z</time></trkpt>
<trkpt lat="49.152980804443" lon="2.7041466236115"><ele></ele><time>2022-6-23T11:42:26Z</time></trkpt>
<trkpt lat="49.153053283691" lon="2.7040953636169"><ele></ele><time>2022-6-23T11:42:29Z</time></trkpt>
<trkpt lat="49.153141021729" lon="2.704035282135"><ele></ele><time>2022-6-23T11:42:32Z</time></trkpt>
<trkpt lat="49.153141021729" lon="2.704035282135"><ele></ele><time>2022-6-23T11:42:35Z</time></trkpt>
<trkpt lat="49.153209686279" lon="2.7039911746979"><ele></ele><time>2022-6-23T11:42:38Z</time></trkpt>
<trkpt lat="49.153293609619" lon="2.7039477825165"><ele></ele><time>2022-6-23T11:42:41Z</time></trkpt>
<trkpt lat="49.153377532959" lon="2.7038912773132"><ele></ele><time>2022-6-23T11:42:44Z</time></trkpt>
<trkpt lat="49.153377532959" lon="2.7038912773132"><ele></ele><time>2022-6-23T11:42:47Z</time></trkpt>
<trkpt lat="49.153450012207" lon="2.7038340568542"><ele></ele><time>2022-6-23T11:42:50Z</time></trkpt>
<trkpt lat="49.153522491455" lon="2.7037649154663"><ele></ele><time>2022-6-23T11:42:53Z</time></trkpt>
<trkpt lat="49.153602600098" lon="2.703709602356"><ele></ele><time>2022-6-23T11:42:56Z</time></trkpt>
<trkpt lat="49.153602600098" lon="2.703709602356"><ele></ele><time>2022-6-23T11:42:59Z</time></trkpt>
<trkpt lat="49.153678894043" lon="2.7036654949188"><ele></ele><time>2022-6-23T11:43:2Z</time></trkpt>
<trkpt lat="49.153743743896" lon="2.7036221027374"><ele></ele><time>2022-6-23T11:43:5Z</time></trkpt>
<trkpt lat="49.153804779053" lon="2.7035820484161"><ele></ele><time>2022-6-23T11:43:8Z</time></trkpt>
<trkpt lat="49.153804779053" lon="2.7035820484161"><ele></ele><time>2022-6-23T11:43:11Z</time></trkpt>
<trkpt lat="49.153911590576" lon="2.7035164833069"><ele></ele><time>2022-6-23T11:43:14Z</time></trkpt>
<trkpt lat="49.153911590576" lon="2.7035164833069"><ele></ele><time>2022-6-23T11:43:17Z</time></trkpt>
<trkpt lat="49.153911590576" lon="2.7035164833069"><ele></ele><time>2022-6-23T11:43:20Z</time></trkpt>
<trkpt lat="49.154006958008" lon="2.703444480896"><ele></ele><time>2022-6-23T11:43:23Z</time></trkpt>
<trkpt lat="49.154064178467" lon="2.7033967971802"><ele></ele><time>2022-6-23T11:43:26Z</time></trkpt>
<trkpt lat="49.154125213623" lon="2.7033522129059"><ele></ele><time>2022-6-23T11:43:29Z</time></trkpt>
<trkpt lat="49.154125213623" lon="2.7033522129059"><ele></ele><time>2022-6-23T11:43:32Z</time></trkpt>
<trkpt lat="49.154190063477" lon="2.7033019065857"><ele></ele><time>2022-6-23T11:43:35Z</time></trkpt>
<trkpt lat="49.154251098633" lon="2.7032492160797"><ele></ele><time>2022-6-23T11:43:38Z</time></trkpt>
<trkpt lat="49.154323577881" lon="2.7031946182251"><ele></ele><time>2022-6-23T11:43:41Z</time></trkpt>
<trkpt lat="49.154323577881" lon="2.7031946182251"><ele></ele><time>2022-6-23T11:43:44Z</time></trkpt>
<trkpt lat="49.154399871826" lon="2.7031412124634"><ele></ele><time>2022-6-23T11:43:47Z</time></trkpt>
<trkpt lat="49.15446472168" lon="2.7030985355377"><ele></ele><time>2022-6-23T11:43:50Z</time></trkpt>
<trkpt lat="49.15446472168" lon="2.7030985355377"><ele></ele><time>2022-6-23T11:43:53Z</time></trkpt>
<trkpt lat="49.15446472168" lon="2.7030985355377"><ele></ele><time>2022-6-23T11:43:56Z</time></trkpt>
<trkpt lat="49.154567718506" lon="2.7030358314514"><ele></ele><time>2022-6-23T11:43:59Z</time></trkpt>
<trkpt lat="49.154628753662" lon="2.7029886245728"><ele></ele><time>2022-6-23T11:44:2Z</time></trkpt>
<trkpt lat="49.154682159424" lon="2.702942609787"><ele></ele><time>2022-6-23T11:44:5Z</time></trkpt>
<trkpt lat="49.154682159424" lon="2.702942609787"><ele></ele><time>2022-6-23T11:44:8Z</time></trkpt>
<trkpt lat="49.154682159424" lon="2.702942609787"><ele></ele><time>2022-6-23T11:44:11Z</time></trkpt>
<trkpt lat="49.154800415039" lon="2.7028706073761"><ele></ele><time>2022-6-23T11:44:14Z</time></trkpt>
<trkpt lat="49.154872894287" lon="2.7028286457062"><ele></ele><time>2022-6-23T11:44:17Z</time></trkpt>
<trkpt lat="49.154872894287" lon="2.7028286457062"><ele></ele><time>2022-6-23T11:44:20Z</time></trkpt>
<trkpt lat="49.154930114746" lon="2.7027957439423"><ele></ele><time>2022-6-23T11:44:23Z</time></trkpt>
<trkpt lat="49.154987335205" lon="2.7027513980865"><ele></ele><time>2022-6-23T11:44:26Z</time></trkpt>
<trkpt lat="49.155048370361" lon="2.7026987075806"><ele></ele><time>2022-6-23T11:44:29Z</time></trkpt>
<trkpt lat="49.155048370361" lon="2.7026987075806"><ele></ele><time>2022-6-23T11:44:32Z</time></trkpt>
<trkpt lat="49.155117034912" lon="2.7026543617249"><ele></ele><time>2022-6-23T11:44:35Z</time></trkpt>
<trkpt lat="49.155174255371" lon="2.7026190757751"><ele></ele><time>2022-6-23T11:44:38Z</time></trkpt>
<trkpt lat="49.15523147583" lon="2.7025859355927"><ele></ele><time>2022-6-23T11:44:41Z</time></trkpt>
<trkpt lat="49.15523147583" lon="2.7025859355927"><ele></ele><time>2022-6-23T11:44:44Z</time></trkpt>
<trkpt lat="49.155296325684" lon="2.7025437355042"><ele></ele><time>2022-6-23T11:44:47Z</time></trkpt>
<trkpt lat="49.155368804932" lon="2.7024941444397"><ele></ele><time>2022-6-23T11:44:50Z</time></trkpt>
<trkpt lat="49.155429840088" lon="2.7024488449097"><ele></ele><time>2022-6-23T11:44:53Z</time></trkpt>
<trkpt lat="49.155429840088" lon="2.7024488449097"><ele></ele><time>2022-6-23T11:44:56Z</time></trkpt>
<trkpt lat="49.15548324585" lon="2.7024168968201"><ele></ele><time>2022-6-23T11:44:59Z</time></trkpt>
<trkpt lat="49.155544281006" lon="2.7023725509644"><ele></ele><time>2022-6-23T11:45:2Z</time></trkpt>
<trkpt lat="49.155597686768" lon="2.7023227214813"><ele></ele><time>2022-6-23T11:45:5Z</time></trkpt>
<trkpt lat="49.155597686768" lon="2.7023227214813"><ele></ele><time>2022-6-23T11:45:8Z</time></trkpt>
<trkpt lat="49.155651092529" lon="2.7022767066956"><ele></ele><time>2022-6-23T11:45:11Z</time></trkpt>
<trkpt lat="49.155708312988" lon="2.7022299766541"><ele></ele><time>2022-6-23T11:45:14Z</time></trkpt>
<trkpt lat="49.155708312988" lon="2.7022299766541"><ele></ele><time>2022-6-23T11:45:17Z</time></trkpt>
<trkpt lat="49.155708312988" lon="2.7022299766541"><ele></ele><time>2022-6-23T11:45:20Z</time></trkpt>
<trkpt lat="49.155815124512" lon="2.7021634578705"><ele></ele><time>2022-6-23T11:45:23Z</time></trkpt>
<trkpt lat="49.155868530273" lon="2.7021169662476"><ele></ele><time>2022-6-23T11:45:26Z</time></trkpt>
<trkpt lat="49.155925750732" lon="2.7020723819733"><ele></ele><time>2022-6-23T11:45:29Z</time></trkpt>
<trkpt lat="49.155925750732" lon="2.7020723819733"><ele></ele><time>2022-6-23T11:45:32Z</time></trkpt>
<trkpt lat="49.155990600586" lon="2.7020270824432"><ele></ele><time>2022-6-23T11:45:35Z</time></trkpt>
<trkpt lat="49.156074523926" lon="2.701966047287"><ele></ele><time>2022-6-23T11:45:38Z</time></trkpt>
<trkpt lat="49.156150817871" lon="2.7018980979919"><ele></ele><time>2022-6-23T11:45:41Z</time></trkpt>
<trkpt lat="49.156150817871" lon="2.7018980979919"><ele></ele><time>2022-6-23T11:45:44Z</time></trkpt>
<trkpt lat="49.156211853027" lon="2.7018427848816"><ele></ele><time>2022-6-23T11:45:47Z</time></trkpt>
<trkpt lat="49.156280517578" lon="2.7017815113068"><ele></ele><time>2022-6-23T11:45:50Z</time></trkpt>
<trkpt lat="49.156341552734" lon="2.7017159461975"><ele></ele><time>2022-6-23T11:45:53Z</time></trkpt>
<trkpt lat="49.156341552734" lon="2.7017159461975"><ele></ele><time>2022-6-23T11:45:56Z</time></trkpt>
<trkpt lat="49.156421661377" lon="2.7016522884369"><ele></ele><time>2022-6-23T11:45:59Z</time></trkpt>
<trkpt lat="49.156497955322" lon="2.7015941143036"><ele></ele><time>2022-6-23T11:46:2Z</time></trkpt>
<trkpt lat="49.156566619873" lon="2.7015526294708"><ele></ele><time>2022-6-23T11:46:5Z</time></trkpt>
<trkpt lat="49.156566619873" lon="2.7015526294708"><ele></ele><time>2022-6-23T11:46:8Z</time></trkpt>
<trkpt lat="49.156642913818" lon="2.701491355896"><ele></ele><time>2022-6-23T11:46:11Z</time></trkpt>
<trkpt lat="49.156715393066" lon="2.701423406601"><ele></ele><time>2022-6-23T11:46:14Z</time></trkpt>
<trkpt lat="49.156799316406" lon="2.7013573646545"><ele></ele><time>2022-6-23T11:46:17Z</time></trkpt>
<trkpt lat="49.156799316406" lon="2.7013573646545"><ele></ele><time>2022-6-23T11:46:20Z</time></trkpt>
<trkpt lat="49.156871795654" lon="2.7013022899628"><ele></ele><time>2022-6-23T11:46:23Z</time></trkpt>
<trkpt lat="49.1569480896" lon="2.7012403011322"><ele></ele><time>2022-6-23T11:46:26Z</time></trkpt>
<trkpt lat="49.157035827637" lon="2.7011814117432"><ele></ele><time>2022-6-23T11:46:29Z</time></trkpt>
<trkpt lat="49.157035827637" lon="2.7011814117432"><ele></ele><time>2022-6-23T11:46:32Z</time></trkpt>
<trkpt lat="49.157089233398" lon="2.7011458873749"><ele></ele><time>2022-6-23T11:46:35Z</time></trkpt>
<trkpt lat="49.157161712646" lon="2.7010936737061"><ele></ele><time>2022-6-23T11:46:38Z</time></trkpt>
<trkpt lat="49.157241821289" lon="2.7010312080383"><ele></ele><time>2022-6-23T11:46:41Z</time></trkpt>
<trkpt lat="49.157241821289" lon="2.7010312080383"><ele></ele><time>2022-6-23T11:46:44Z</time></trkpt>
<trkpt lat="49.157318115234" lon="2.7009739875793"><ele></ele><time>2022-6-23T11:46:47Z</time></trkpt>
<trkpt lat="49.15739440918" lon="2.7009189128876"><ele></ele><time>2022-6-23T11:46:50Z</time></trkpt>
<trkpt lat="49.15747833252" lon="2.7008490562439"><ele></ele><time>2022-6-23T11:46:53Z</time></trkpt>
<trkpt lat="49.15747833252" lon="2.7008490562439"><ele></ele><time>2022-6-23T11:46:56Z</time></trkpt>
<trkpt lat="49.157554626465" lon="2.7007834911346"><ele></ele><time>2022-6-23T11:46:59Z</time></trkpt>
<trkpt lat="49.157646179199" lon="2.7007060050964"><ele></ele><time>2022-6-23T11:47:2Z</time></trkpt>
<trkpt lat="49.157737731934" lon="2.700635433197"><ele></ele><time>2022-6-23T11:47:5Z</time></trkpt>
<trkpt lat="49.157737731934" lon="2.700635433197"><ele></ele><time>2022-6-23T11:47:8Z</time></trkpt>
<trkpt lat="49.157829284668" lon="2.7005701065063"><ele></ele><time>2022-6-23T11:47:11Z</time></trkpt>
<trkpt lat="49.157905578613" lon="2.7005155086517"><ele></ele><time>2022-6-23T11:47:14Z</time></trkpt>
<trkpt lat="49.157997131348" lon="2.7004551887512"><ele></ele><time>2022-6-23T11:47:17Z</time></trkpt>
<trkpt lat="49.157997131348" lon="2.7004551887512"><ele></ele><time>2022-6-23T11:47:20Z</time></trkpt>
<trkpt lat="49.158103942871" lon="2.7003827095032"><ele></ele><time>2022-6-23T11:47:23Z</time></trkpt>
<trkpt lat="49.158210754395" lon="2.7003090381622"><ele></ele><time>2022-6-23T11:47:26Z</time></trkpt>
<trkpt lat="49.158313751221" lon="2.7002358436584"><ele></ele><time>2022-6-23T11:47:29Z</time></trkpt>
<trkpt lat="49.158313751221" lon="2.7002358436584"><ele></ele><time>2022-6-23T11:47:32Z</time></trkpt>
<trkpt lat="49.158405303955" lon="2.7001671791077"><ele></ele><time>2022-6-23T11:47:35Z</time></trkpt>
<trkpt lat="49.1584815979" lon="2.7001075744629"><ele></ele><time>2022-6-23T11:47:38Z</time></trkpt>
<trkpt lat="49.158557891846" lon="2.7000522613525"><ele></ele><time>2022-6-23T11:47:41Z</time></trkpt>
<trkpt lat="49.158557891846" lon="2.7000522613525"><ele></ele><time>2022-6-23T11:47:44Z</time></trkpt>
<trkpt lat="49.158626556396" lon="2.699996471405"><ele></ele><time>2022-6-23T11:47:47Z</time></trkpt>
<trkpt lat="49.158699035645" lon="2.6999340057373"><ele></ele><time>2022-6-23T11:47:50Z</time></trkpt>
<trkpt lat="49.158779144287" lon="2.6998689174652"><ele></ele><time>2022-6-23T11:47:53Z</time></trkpt>
<trkpt lat="49.158779144287" lon="2.6998689174652"><ele></ele><time>2022-6-23T11:47:56Z</time></trkpt>
<trkpt lat="49.158866882324" lon="2.6998031139374"><ele></ele><time>2022-6-23T11:47:59Z</time></trkpt>
<trkpt lat="49.158946990967" lon="2.6997480392456"><ele></ele><time>2022-6-23T11:48:2Z</time></trkpt>
<trkpt lat="49.15901184082" lon="2.699697971344"><ele></ele><time>2022-6-23T11:48:5Z</time></trkpt>
<trkpt lat="49.15901184082" lon="2.699697971344"><ele></ele><time>2022-6-23T11:48:8Z</time></trkpt>
<trkpt lat="49.159076690674" lon="2.6996455192566"><ele></ele><time>2022-6-23T11:48:11Z</time></trkpt>
<trkpt lat="49.159145355225" lon="2.699592590332"><ele></ele><time>2022-6-23T11:48:14Z</time></trkpt>
<trkpt lat="49.159214019775" lon="2.6995387077332"><ele></ele><time>2022-6-23T11:48:17Z</time></trkpt>
<trkpt lat="49.159214019775" lon="2.6995387077332"><ele></ele><time>2022-6-23T11:48:20Z</time></trkpt>
<trkpt lat="49.159286499023" lon="2.6994786262512"><ele></ele><time>2022-6-23T11:48:23Z</time></trkpt>
<trkpt lat="49.15934753418" lon="2.6994156837463"><ele></ele><time>2022-6-23T11:48:26Z</time></trkpt>
<trkpt lat="49.15934753418" lon="2.6994156837463"><ele></ele><time>2022-6-23T11:48:29Z</time></trkpt>
<trkpt lat="49.15934753418" lon="2.6994156837463"><ele></ele><time>2022-6-23T11:48:32Z</time></trkpt>
<trkpt lat="49.159400939941" lon="2.6992735862732"><ele></ele><time>2022-6-23T11:48:35Z</time></trkpt>
<trkpt lat="49.15943145752" lon="2.6991901397705"><ele></ele><time>2022-6-23T11:48:38Z</time></trkpt>
<trkpt lat="49.159454345703" lon="2.6990864276886"><ele></ele><time>2022-6-23T11:48:41Z</time></trkpt>
<trkpt lat="49.159454345703" lon="2.6990864276886"><ele></ele><time>2022-6-23T11:48:44Z</time></trkpt>
<trkpt lat="49.159454345703" lon="2.6990864276886"><ele></ele><time>2022-6-23T11:48:47Z</time></trkpt>
<trkpt lat="49.15943145752" lon="2.6988925933838"><ele></ele><time>2022-6-23T11:48:50Z</time></trkpt>
<trkpt lat="49.159408569336" lon="2.6987748146057"><ele></ele><time>2022-6-23T11:48:53Z</time></trkpt>
<trkpt lat="49.159408569336" lon="2.6987748146057"><ele></ele><time>2022-6-23T11:48:56Z</time></trkpt>
<trkpt lat="49.15938949585" lon="2.6986589431763"><ele></ele><time>2022-6-23T11:48:59Z</time></trkpt>
<trkpt lat="49.159370422363" lon="2.6985266208649"><ele></ele><time>2022-6-23T11:49:2Z</time></trkpt>
<trkpt lat="49.159355163574" lon="2.6983847618103"><ele></ele><time>2022-6-23T11:49:5Z</time></trkpt>
<trkpt lat="49.159355163574" lon="2.6983847618103"><ele></ele><time>2022-6-23T11:49:8Z</time></trkpt>
<trkpt lat="49.159336090088" lon="2.6982600688934"><ele></ele><time>2022-6-23T11:49:11Z</time></trkpt>
<trkpt lat="49.159324645996" lon="2.6981377601624"><ele></ele><time>2022-6-23T11:49:14Z</time></trkpt>
<trkpt lat="49.159301757812" lon="2.6979818344116"><ele></ele><time>2022-6-23T11:49:17Z</time></trkpt>
<trkpt lat="49.159301757812" lon="2.6979818344116"><ele></ele><time>2022-6-23T11:49:20Z</time></trkpt>
<trkpt lat="49.159275054932" lon="2.6978323459625"><ele></ele><time>2022-6-23T11:49:23Z</time></trkpt>
<trkpt lat="49.159248352051" lon="2.6976630687714"><ele></ele><time>2022-6-23T11:49:26Z</time></trkpt>
<trkpt lat="49.159233093262" lon="2.6975288391113"><ele></ele><time>2022-6-23T11:49:29Z</time></trkpt>
<trkpt lat="49.159233093262" lon="2.6975288391113"><ele></ele><time>2022-6-23T11:49:32Z</time></trkpt>
<trkpt lat="49.159206390381" lon="2.6973767280579"><ele></ele><time>2022-6-23T11:49:35Z</time></trkpt>
<trkpt lat="49.159175872803" lon="2.6971969604492"><ele></ele><time>2022-6-23T11:49:38Z</time></trkpt>
<trkpt lat="49.159152984619" lon="2.6970450878143"><ele></ele><time>2022-6-23T11:49:41Z</time></trkpt>
<trkpt lat="49.159152984619" lon="2.6970450878143"><ele></ele><time>2022-6-23T11:49:44Z</time></trkpt>
<trkpt lat="49.159122467041" lon="2.6969096660614"><ele></ele><time>2022-6-23T11:49:47Z</time></trkpt>
<trkpt lat="49.159088134766" lon="2.6967732906342"><ele></ele><time>2022-6-23T11:49:50Z</time></trkpt>
<trkpt lat="49.159072875977" lon="2.6966495513916"><ele></ele><time>2022-6-23T11:49:53Z</time></trkpt>
<trkpt lat="49.159072875977" lon="2.6966495513916"><ele></ele><time>2022-6-23T11:49:56Z</time></trkpt>
<trkpt lat="49.159057617188" lon="2.6965038776398"><ele></ele><time>2022-6-23T11:49:59Z</time></trkpt>
<trkpt lat="49.159049987793" lon="2.6963858604431"><ele></ele><time>2022-6-23T11:50:2Z</time></trkpt>
<trkpt lat="49.159046173096" lon="2.6962523460388"><ele></ele><time>2022-6-23T11:50:5Z</time></trkpt>
<trkpt lat="49.159038543701" lon="2.696141242981"><ele></ele><time>2022-6-23T11:50:8Z</time></trkpt>
<trkpt lat="49.159038543701" lon="2.696141242981"><ele></ele><time>2022-6-23T11:50:11Z</time></trkpt>
<trkpt lat="49.15901184082" lon="2.6959960460663"><ele></ele><time>2022-6-23T11:50:14Z</time></trkpt>
<trkpt lat="49.15901184082" lon="2.6959960460663"><ele></ele><time>2022-6-23T11:50:17Z</time></trkpt>
<trkpt lat="49.15894317627" lon="2.6959543228149"><ele></ele><time>2022-6-23T11:50:20Z</time></trkpt>
<trkpt lat="49.15894317627" lon="2.6959543228149"><ele></ele><time>2022-6-23T11:50:23Z</time></trkpt>
<trkpt lat="49.15894317627" lon="2.6959543228149"><ele></ele><time>2022-6-23T11:50:26Z</time></trkpt>
<trkpt lat="49.15894317627" lon="2.6959543228149"><ele></ele><time>2022-6-23T11:50:29Z</time></trkpt>
<trkpt lat="49.158874511719" lon="2.696017742157"><ele></ele><time>2022-6-23T11:50:32Z</time></trkpt>
<trkpt lat="49.158794403076" lon="2.6960110664368"><ele></ele><time>2022-6-23T11:50:35Z</time></trkpt>
<trkpt lat="49.158794403076" lon="2.6960110664368"><ele></ele><time>2022-6-23T11:50:38Z</time></trkpt>
<trkpt lat="49.15869140625" lon="2.6960420608521"><ele></ele><time>2022-6-23T11:50:41Z</time></trkpt>
<trkpt lat="49.158576965332" lon="2.6960861682892"><ele></ele><time>2022-6-23T11:50:44Z</time></trkpt>
<trkpt lat="49.158576965332" lon="2.6960861682892"><ele></ele><time>2022-6-23T11:50:47Z</time></trkpt>
<trkpt lat="49.158473968506" lon="2.6961228847504"><ele></ele><time>2022-6-23T11:50:50Z</time></trkpt>
<trkpt lat="49.158473968506" lon="2.6961228847504"><ele></ele><time>2022-6-23T11:50:53Z</time></trkpt>
<trkpt lat="49.158374786377" lon="2.6961472034454"><ele></ele><time>2022-6-23T11:50:56Z</time></trkpt>
<trkpt lat="49.158313751221" lon="2.6961612701416"><ele></ele><time>2022-6-23T11:50:59Z</time></trkpt>
<trkpt lat="49.158252716064" lon="2.6961724758148"><ele></ele><time>2022-6-23T11:51:2Z</time></trkpt>
<trkpt lat="49.158252716064" lon="2.6961724758148"><ele></ele><time>2022-6-23T11:51:5Z</time></trkpt>
<trkpt lat="49.158149719238" lon="2.6962003707886"><ele></ele><time>2022-6-23T11:51:8Z</time></trkpt>
<trkpt lat="49.158073425293" lon="2.6962125301361"><ele></ele><time>2022-6-23T11:51:11Z</time></trkpt>
<trkpt lat="49.158073425293" lon="2.6962125301361"><ele></ele><time>2022-6-23T11:51:14Z</time></trkpt>
<trkpt lat="49.15799331665" lon="2.6962320804596"><ele></ele><time>2022-6-23T11:51:17Z</time></trkpt>
<trkpt lat="49.157920837402" lon="2.6962518692017"><ele></ele><time>2022-6-23T11:51:20Z</time></trkpt>
<trkpt lat="49.157855987549" lon="2.6962702274323"><ele></ele><time>2022-6-23T11:51:23Z</time></trkpt>
<trkpt lat="49.157855987549" lon="2.6962702274323"><ele></ele><time>2022-6-23T11:51:26Z</time></trkpt>
<trkpt lat="49.157779693604" lon="2.6962950229645"><ele></ele><time>2022-6-23T11:51:29Z</time></trkpt>
<trkpt lat="49.157688140869" lon="2.6963257789612"><ele></ele><time>2022-6-23T11:51:32Z</time></trkpt>
<trkpt lat="49.157592773438" lon="2.6963539123535"><ele></ele><time>2022-6-23T11:51:35Z</time></trkpt>
<trkpt lat="49.157592773438" lon="2.6963539123535"><ele></ele><time>2022-6-23T11:51:38Z</time></trkpt>
<trkpt lat="49.157520294189" lon="2.6963756084442"><ele></ele><time>2022-6-23T11:51:41Z</time></trkpt>
<trkpt lat="49.157440185547" lon="2.6963908672333"><ele></ele><time>2022-6-23T11:51:44Z</time></trkpt>
<trkpt lat="49.157356262207" lon="2.6964054107666"><ele></ele><time>2022-6-23T11:51:47Z</time></trkpt>
<trkpt lat="49.157356262207" lon="2.6964054107666"><ele></ele><time>2022-6-23T11:51:50Z</time></trkpt>
<trkpt lat="49.157249450684" lon="2.6964251995087"><ele></ele><time>2022-6-23T11:51:53Z</time></trkpt>
<trkpt lat="49.157157897949" lon="2.696444272995"><ele></ele><time>2022-6-23T11:51:56Z</time></trkpt>
<trkpt lat="49.157070159912" lon="2.6964716911316"><ele></ele><time>2022-6-23T11:51:59Z</time></trkpt>
<trkpt lat="49.157070159912" lon="2.6964716911316"><ele></ele><time>2022-6-23T11:52:2Z</time></trkpt>
<trkpt lat="49.15699005127" lon="2.6965024471283"><ele></ele><time>2022-6-23T11:52:5Z</time></trkpt>
<trkpt lat="49.156898498535" lon="2.6965270042419"><ele></ele><time>2022-6-23T11:52:8Z</time></trkpt>
<trkpt lat="49.156810760498" lon="2.6965491771698"><ele></ele><time>2022-6-23T11:52:11Z</time></trkpt>
<trkpt lat="49.156745910645" lon="2.6965630054474"><ele></ele><time>2022-6-23T11:52:14Z</time></trkpt>
<trkpt lat="49.156665802002" lon="2.6965918540955"><ele></ele><time>2022-6-23T11:52:17Z</time></trkpt>
<trkpt lat="49.156665802002" lon="2.6965918540955"><ele></ele><time>2022-6-23T11:52:20Z</time></trkpt>
<trkpt lat="49.156566619873" lon="2.6966197490692"><ele></ele><time>2022-6-23T11:52:23Z</time></trkpt>
<trkpt lat="49.156478881836" lon="2.6966381072998"><ele></ele><time>2022-6-23T11:52:26Z</time></trkpt>
<trkpt lat="49.156398773193" lon="2.696652173996"><ele></ele><time>2022-6-23T11:52:29Z</time></trkpt>
<trkpt lat="49.156398773193" lon="2.696652173996"><ele></ele><time>2022-6-23T11:52:32Z</time></trkpt>
<trkpt lat="49.156326293945" lon="2.6966590881348"><ele></ele><time>2022-6-23T11:52:35Z</time></trkpt>
<trkpt lat="49.156246185303" lon="2.6966686248779"><ele></ele><time>2022-6-23T11:52:38Z</time></trkpt>
<trkpt lat="49.15616607666" lon="2.6966741085052"><ele></ele><time>2022-6-23T11:52:41Z</time></trkpt>
<trkpt lat="49.15616607666" lon="2.6966741085052"><ele></ele><time>2022-6-23T11:52:44Z</time></trkpt>
<trkpt lat="49.156089782715" lon="2.6966831684113"><ele></ele><time>2022-6-23T11:52:47Z</time></trkpt>
<trkpt lat="49.156021118164" lon="2.6966989040375"><ele></ele><time>2022-6-23T11:52:50Z</time></trkpt>
<trkpt lat="49.155948638916" lon="2.6967101097107"><ele></ele><time>2022-6-23T11:52:53Z</time></trkpt>
<trkpt lat="49.155864715576" lon="2.6967389583588"><ele></ele><time>2022-6-23T11:52:56Z</time></trkpt>
<trkpt lat="49.155799865723" lon="2.6967675685883"><ele></ele><time>2022-6-23T11:52:59Z</time></trkpt>
<trkpt lat="49.155715942383" lon="2.6967978477478"><ele></ele><time>2022-6-23T11:53:2Z</time></trkpt>
<trkpt lat="49.155616760254" lon="2.6968297958374"><ele></ele><time>2022-6-23T11:53:5Z</time></trkpt>
<trkpt lat="49.155521392822" lon="2.6968739032745"><ele></ele><time>2022-6-23T11:53:8Z</time></trkpt>
<trkpt lat="49.155445098877" lon="2.696916103363"><ele></ele><time>2022-6-23T11:53:11Z</time></trkpt>
<trkpt lat="49.155384063721" lon="2.6969466209412"><ele></ele><time>2022-6-23T11:53:14Z</time></trkpt>
<trkpt lat="49.155307769775" lon="2.6969790458679"><ele></ele><time>2022-6-23T11:53:17Z</time></trkpt>
<trkpt lat="49.15523147583" lon="2.697026014328"><ele></ele><time>2022-6-23T11:53:20Z</time></trkpt>
<trkpt lat="49.155143737793" lon="2.6970703601837"><ele></ele><time>2022-6-23T11:53:23Z</time></trkpt>
<trkpt lat="49.155055999756" lon="2.6970794200897"><ele></ele><time>2022-6-23T11:53:26Z</time></trkpt>
<trkpt lat="49.154983520508" lon="2.6971008777618"><ele></ele><time>2022-6-23T11:53:29Z</time></trkpt>
<trkpt lat="49.154922485352" lon="2.6971368789673"><ele></ele><time>2022-6-23T11:53:32Z</time></trkpt>
<trkpt lat="49.154846191406" lon="2.6971690654755"><ele></ele><time>2022-6-23T11:53:35Z</time></trkpt>
<trkpt lat="49.154762268066" lon="2.697202205658"><ele></ele><time>2022-6-23T11:53:38Z</time></trkpt>
<trkpt lat="49.154693603516" lon="2.6972200870514"><ele></ele><time>2022-6-23T11:53:41Z</time></trkpt>
<trkpt lat="49.154628753662" lon="2.6972413063049"><ele></ele><time>2022-6-23T11:53:44Z</time></trkpt>
<trkpt lat="49.154628753662" lon="2.6972413063049"><ele></ele><time>2022-6-23T11:53:47Z</time></trkpt>
<trkpt lat="49.154529571533" lon="2.6972999572754"><ele></ele><time>2022-6-23T11:53:50Z</time></trkpt>
<trkpt lat="49.154476165771" lon="2.6973378658295"><ele></ele><time>2022-6-23T11:53:53Z</time></trkpt>
<trkpt lat="49.154476165771" lon="2.6973378658295"><ele></ele><time>2022-6-23T11:53:56Z</time></trkpt>
<trkpt lat="49.154369354248" lon="2.697384595871"><ele></ele><time>2022-6-23T11:53:59Z</time></trkpt>
<trkpt lat="49.154296875" lon="2.6974139213562"><ele></ele><time>2022-6-23T11:54:2Z</time></trkpt>
<trkpt lat="49.154228210449" lon="2.6974451541901"><ele></ele><time>2022-6-23T11:54:5Z</time></trkpt>
<trkpt lat="49.154159545898" lon="2.697466135025"><ele></ele><time>2022-6-23T11:54:8Z</time></trkpt>
<trkpt lat="49.154083251953" lon="2.6974945068359"><ele></ele><time>2022-6-23T11:54:11Z</time></trkpt>
<trkpt lat="49.154003143311" lon="2.6975274085999"><ele></ele><time>2022-6-23T11:54:14Z</time></trkpt>
<trkpt lat="49.153930664062" lon="2.6975688934326"><ele></ele><time>2022-6-23T11:54:17Z</time></trkpt>
<trkpt lat="49.153854370117" lon="2.6976153850555"><ele></ele><time>2022-6-23T11:54:20Z</time></trkpt>
<trkpt lat="49.153781890869" lon="2.6976606845856"><ele></ele><time>2022-6-23T11:54:23Z</time></trkpt>
<trkpt lat="49.153717041016" lon="2.6977016925812"><ele></ele><time>2022-6-23T11:54:26Z</time></trkpt>
<trkpt lat="49.153648376465" lon="2.697740316391"><ele></ele><time>2022-6-23T11:54:29Z</time></trkpt>
<trkpt lat="49.15357208252" lon="2.6977899074554"><ele></ele><time>2022-6-23T11:54:32Z</time></trkpt>
<trkpt lat="49.153465270996" lon="2.6978499889374"><ele></ele><time>2022-6-23T11:54:35Z</time></trkpt>
<trkpt lat="49.153373718262" lon="2.6978974342346"><ele></ele><time>2022-6-23T11:54:38Z</time></trkpt>
<trkpt lat="49.153297424316" lon="2.6979162693024"><ele></ele><time>2022-6-23T11:54:41Z</time></trkpt>
<trkpt lat="49.153221130371" lon="2.6979193687439"><ele></ele><time>2022-6-23T11:54:44Z</time></trkpt>
<trkpt lat="49.153118133545" lon="2.6979281902313"><ele></ele><time>2022-6-23T11:54:47Z</time></trkpt>
<trkpt lat="49.153011322021" lon="2.6979441642761"><ele></ele><time>2022-6-23T11:54:50Z</time></trkpt>
<trkpt lat="49.152908325195" lon="2.6979217529297"><ele></ele><time>2022-6-23T11:54:53Z</time></trkpt>
<trkpt lat="49.152801513672" lon="2.6979084014893"><ele></ele><time>2022-6-23T11:54:56Z</time></trkpt>
<trkpt lat="49.152694702148" lon="2.6978931427002"><ele></ele><time>2022-6-23T11:54:59Z</time></trkpt>
<trkpt lat="49.152603149414" lon="2.6978945732117"><ele></ele><time>2022-6-23T11:55:2Z</time></trkpt>
<trkpt lat="49.152481079102" lon="2.6979074478149"><ele></ele><time>2022-6-23T11:55:5Z</time></trkpt>
<trkpt lat="49.152370452881" lon="2.6979219913483"><ele></ele><time>2022-6-23T11:55:8Z</time></trkpt>
<trkpt lat="49.152252197266" lon="2.6979296207428"><ele></ele><time>2022-6-23T11:55:11Z</time></trkpt>
<trkpt lat="49.152145385742" lon="2.6979343891144"><ele></ele><time>2022-6-23T11:55:14Z</time></trkpt>
<trkpt lat="49.152046203613" lon="2.6979269981384"><ele></ele><time>2022-6-23T11:55:17Z</time></trkpt>
<trkpt lat="49.151950836182" lon="2.6979155540466"><ele></ele><time>2022-6-23T11:55:20Z</time></trkpt>
<trkpt lat="49.151859283447" lon="2.6979160308838"><ele></ele><time>2022-6-23T11:55:23Z</time></trkpt>
<trkpt lat="49.151859283447" lon="2.6979160308838"><ele></ele><time>2022-6-23T11:55:26Z</time></trkpt>
<trkpt lat="49.151760101318" lon="2.6979372501373"><ele></ele><time>2022-6-23T11:55:29Z</time></trkpt>
<trkpt lat="49.151649475098" lon="2.6979687213898"><ele></ele><time>2022-6-23T11:55:32Z</time></trkpt>
<trkpt lat="49.151557922363" lon="2.6979951858521"><ele></ele><time>2022-6-23T11:55:35Z</time></trkpt>
<trkpt lat="49.151481628418" lon="2.6979954242706"><ele></ele><time>2022-6-23T11:55:38Z</time></trkpt>
<trkpt lat="49.151405334473" lon="2.6979913711548"><ele></ele><time>2022-6-23T11:55:41Z</time></trkpt>
<trkpt lat="49.151309967041" lon="2.697990655899"><ele></ele><time>2022-6-23T11:55:44Z</time></trkpt>
<trkpt lat="49.151187896729" lon="2.6980121135712"><ele></ele><time>2022-6-23T11:55:47Z</time></trkpt>
<trkpt lat="49.151081085205" lon="2.6980249881744"><ele></ele><time>2022-6-23T11:55:50Z</time></trkpt>
<trkpt lat="49.150947570801" lon="2.6980457305908"><ele></ele><time>2022-6-23T11:55:53Z</time></trkpt>
<trkpt lat="49.150829315186" lon="2.6980786323547"><ele></ele><time>2022-6-23T11:55:56Z</time></trkpt>
<trkpt lat="49.150718688965" lon="2.6981010437012"><ele></ele><time>2022-6-23T11:55:59Z</time></trkpt>
<trkpt lat="49.150611877441" lon="2.698094367981"><ele></ele><time>2022-6-23T11:56:2Z</time></trkpt>
<trkpt lat="49.150497436523" lon="2.6980865001678"><ele></ele><time>2022-6-23T11:56:5Z</time></trkpt>
<trkpt lat="49.150382995605" lon="2.698094367981"><ele></ele><time>2022-6-23T11:56:8Z</time></trkpt>
<trkpt lat="49.150276184082" lon="2.6980950832367"><ele></ele><time>2022-6-23T11:56:11Z</time></trkpt>
<trkpt lat="49.150173187256" lon="2.6980669498444"><ele></ele><time>2022-6-23T11:56:14Z</time></trkpt>
<trkpt lat="49.150085449219" lon="2.6980311870575"><ele></ele><time>2022-6-23T11:56:17Z</time></trkpt>
<trkpt lat="49.150009155273" lon="2.6980164051056"><ele></ele><time>2022-6-23T11:56:20Z</time></trkpt>
<trkpt lat="49.150009155273" lon="2.6980164051056"><ele></ele><time>2022-6-23T11:56:23Z</time></trkpt>
<trkpt lat="49.150009155273" lon="2.6980164051056"><ele></ele><time>2022-6-23T11:56:26Z</time></trkpt>
<trkpt lat="49.150009155273" lon="2.6980164051056"><ele></ele><time>2022-6-23T11:56:29Z</time></trkpt>
<trkpt lat="49.149948120117" lon="2.6980187892914"><ele></ele><time>2022-6-23T11:56:32Z</time></trkpt>
<trkpt lat="49.149761199951" lon="2.6979022026062"><ele></ele><time>2022-6-23T11:56:35Z</time></trkpt>
<trkpt lat="49.149700164795" lon="2.6979281902313"><ele></ele><time>2022-6-23T11:56:38Z</time></trkpt>
<trkpt lat="49.149578094482" lon="2.6979253292084"><ele></ele><time>2022-6-23T11:56:41Z</time></trkpt>
<trkpt lat="49.149490356445" lon="2.6979117393494"><ele></ele><time>2022-6-23T11:56:44Z</time></trkpt>
<trkpt lat="49.1494140625" lon="2.6978948116302"><ele></ele><time>2022-6-23T11:56:47Z</time></trkpt>
<trkpt lat="49.14933013916" lon="2.6978793144226"><ele></ele><time>2022-6-23T11:56:50Z</time></trkpt>
<trkpt lat="49.149250030518" lon="2.6978645324707"><ele></ele><time>2022-6-23T11:56:53Z</time></trkpt>
<trkpt lat="49.149181365967" lon="2.697847366333"><ele></ele><time>2022-6-23T11:56:56Z</time></trkpt>
<trkpt lat="49.149101257324" lon="2.6978390216827"><ele></ele><time>2022-6-23T11:56:59Z</time></trkpt>
<trkpt lat="49.149024963379" lon="2.697829246521"><ele></ele><time>2022-6-23T11:57:2Z</time></trkpt>
<trkpt lat="49.148948669434" lon="2.6978178024292"><ele></ele><time>2022-6-23T11:57:5Z</time></trkpt>
<trkpt lat="49.148880004883" lon="2.6978044509888"><ele></ele><time>2022-6-23T11:57:8Z</time></trkpt>
<trkpt lat="49.148815155029" lon="2.6977903842926"><ele></ele><time>2022-6-23T11:57:11Z</time></trkpt>
<trkpt lat="49.148731231689" lon="2.6977727413177"><ele></ele><time>2022-6-23T11:57:14Z</time></trkpt>
<trkpt lat="49.148662567139" lon="2.6977543830872"><ele></ele><time>2022-6-23T11:57:17Z</time></trkpt>
<trkpt lat="49.148574829102" lon="2.6977379322052"><ele></ele><time>2022-6-23T11:57:20Z</time></trkpt>
<trkpt lat="49.148487091064" lon="2.6977162361145"><ele></ele><time>2022-6-23T11:57:23Z</time></trkpt>
<trkpt lat="49.148391723633" lon="2.6976902484894"><ele></ele><time>2022-6-23T11:57:26Z</time></trkpt>
<trkpt lat="49.148300170898" lon="2.6976714134216"><ele></ele><time>2022-6-23T11:57:29Z</time></trkpt>
<trkpt lat="49.148212432861" lon="2.6976668834686"><ele></ele><time>2022-6-23T11:57:32Z</time></trkpt>
<trkpt lat="49.14811706543" lon="2.697669506073"><ele></ele><time>2022-6-23T11:57:35Z</time></trkpt>
<trkpt lat="49.14803314209" lon="2.6976723670959"><ele></ele><time>2022-6-23T11:57:38Z</time></trkpt>
<trkpt lat="49.147933959961" lon="2.6976783275604"><ele></ele><time>2022-6-23T11:57:41Z</time></trkpt>
<trkpt lat="49.147853851318" lon="2.6976742744446"><ele></ele><time>2022-6-23T11:57:44Z</time></trkpt>
<trkpt lat="49.147777557373" lon="2.6976640224457"><ele></ele><time>2022-6-23T11:57:47Z</time></trkpt>
<trkpt lat="49.14769744873" lon="2.6976578235626"><ele></ele><time>2022-6-23T11:57:50Z</time></trkpt>
<trkpt lat="49.14769744873" lon="2.6976578235626"><ele></ele><time>2022-6-23T11:57:53Z</time></trkpt>
<trkpt lat="49.147624969482" lon="2.6976456642151"><ele></ele><time>2022-6-23T11:57:56Z</time></trkpt>
<trkpt lat="49.147624969482" lon="2.6976456642151"><ele></ele><time>2022-6-23T11:57:59Z</time></trkpt>
<trkpt lat="49.147541046143" lon="2.6976141929626"><ele></ele><time>2022-6-23T11:58:2Z</time></trkpt>
<trkpt lat="49.147541046143" lon="2.6976141929626"><ele></ele><time>2022-6-23T11:58:5Z</time></trkpt>
<trkpt lat="49.147415161133" lon="2.6975691318512"><ele></ele><time>2022-6-23T11:58:8Z</time></trkpt>
<trkpt lat="49.147354125977" lon="2.697544336319"><ele></ele><time>2022-6-23T11:58:11Z</time></trkpt>
<trkpt lat="49.147281646729" lon="2.6975154876709"><ele></ele><time>2022-6-23T11:58:14Z</time></trkpt>
<trkpt lat="49.147228240967" lon="2.6974782943726"><ele></ele><time>2022-6-23T11:58:17Z</time></trkpt>
<trkpt lat="49.147228240967" lon="2.6974782943726"><ele></ele><time>2022-6-23T11:58:20Z</time></trkpt>
<trkpt lat="49.147106170654" lon="2.6973888874054"><ele></ele><time>2022-6-23T11:58:23Z</time></trkpt>
<trkpt lat="49.147006988525" lon="2.6973102092743"><ele></ele><time>2022-6-23T11:58:26Z</time></trkpt>
<trkpt lat="49.146919250488" lon="2.6972455978394"><ele></ele><time>2022-6-23T11:58:29Z</time></trkpt>
<trkpt lat="49.146820068359" lon="2.6971867084503"><ele></ele><time>2022-6-23T11:58:32Z</time></trkpt>
<trkpt lat="49.14672088623" lon="2.6971583366394"><ele></ele><time>2022-6-23T11:58:35Z</time></trkpt>
<trkpt lat="49.146644592285" lon="2.6971478462219"><ele></ele><time>2022-6-23T11:58:38Z</time></trkpt>
<trkpt lat="49.146572113037" lon="2.697135925293"><ele></ele><time>2022-6-23T11:58:41Z</time></trkpt>
<trkpt lat="49.146511077881" lon="2.6971380710602"><ele></ele><time>2022-6-23T11:58:44Z</time></trkpt>
<trkpt lat="49.146446228027" lon="2.6971168518066"><ele></ele><time>2022-6-23T11:58:47Z</time></trkpt>
<trkpt lat="49.146392822266" lon="2.6970641613007"><ele></ele><time>2022-6-23T11:58:50Z</time></trkpt>
<trkpt lat="49.146335601807" lon="2.6970312595367"><ele></ele><time>2022-6-23T11:58:53Z</time></trkpt>
<trkpt lat="49.146335601807" lon="2.6970312595367"><ele></ele><time>2022-6-23T11:58:56Z</time></trkpt>
<trkpt lat="49.146259307861" lon="2.6970207691193"><ele></ele><time>2022-6-23T11:58:59Z</time></trkpt>
<trkpt lat="49.146183013916" lon="2.6970176696777"><ele></ele><time>2022-6-23T11:59:2Z</time></trkpt>
<trkpt lat="49.146102905273" lon="2.6970157623291"><ele></ele><time>2022-6-23T11:59:5Z</time></trkpt>
<trkpt lat="49.146102905273" lon="2.6970157623291"><ele></ele><time>2022-6-23T11:59:8Z</time></trkpt>
<trkpt lat="49.146034240723" lon="2.6970024108887"><ele></ele><time>2022-6-23T11:59:11Z</time></trkpt>
<trkpt lat="49.145977020264" lon="2.6969921588898"><ele></ele><time>2022-6-23T11:59:14Z</time></trkpt>
<trkpt lat="49.145908355713" lon="2.6969828605652"><ele></ele><time>2022-6-23T11:59:17Z</time></trkpt>
<trkpt lat="49.145908355713" lon="2.6969828605652"><ele></ele><time>2022-6-23T11:59:20Z</time></trkpt>
<trkpt lat="49.145816802979" lon="2.6969666481018"><ele></ele><time>2022-6-23T11:59:23Z</time></trkpt>
<trkpt lat="49.145736694336" lon="2.6969358921051"><ele></ele><time>2022-6-23T11:59:26Z</time></trkpt>
<trkpt lat="49.145652770996" lon="2.6968958377838"><ele></ele><time>2022-6-23T11:59:29Z</time></trkpt>
<trkpt lat="49.145652770996" lon="2.6968958377838"><ele></ele><time>2022-6-23T11:59:32Z</time></trkpt>
<trkpt lat="49.145568847656" lon="2.6968767642975"><ele></ele><time>2022-6-23T11:59:35Z</time></trkpt>
<trkpt lat="49.145500183105" lon="2.6968657970428"><ele></ele><time>2022-6-23T11:59:38Z</time></trkpt>
<trkpt lat="49.145439147949" lon="2.6968395709991"><ele></ele><time>2022-6-23T11:59:41Z</time></trkpt>
<trkpt lat="49.145439147949" lon="2.6968395709991"><ele></ele><time>2022-6-23T11:59:44Z</time></trkpt>
<trkpt lat="49.145370483398" lon="2.6967942714691"><ele></ele><time>2022-6-23T11:59:47Z</time></trkpt>
<trkpt lat="49.145275115967" lon="2.6967768669128"><ele></ele><time>2022-6-23T11:59:50Z</time></trkpt>
<trkpt lat="49.145202636719" lon="2.6967666149139"><ele></ele><time>2022-6-23T11:59:53Z</time></trkpt>
<trkpt lat="49.145202636719" lon="2.6967666149139"><ele></ele><time>2022-6-23T11:59:56Z</time></trkpt>
<trkpt lat="49.145141601562" lon="2.6967513561249"><ele></ele><time>2022-6-23T11:59:59Z</time></trkpt>
<trkpt lat="49.145057678223" lon="2.6967496871948"><ele></ele><time>2022-6-23T12:0:2Z</time></trkpt>
<trkpt lat="49.144969940186" lon="2.6967313289642"><ele></ele><time>2022-6-23T12:0:5Z</time></trkpt>
<trkpt lat="49.144969940186" lon="2.6967313289642"><ele></ele><time>2022-6-23T12:0:8Z</time></trkpt>
<trkpt lat="49.144878387451" lon="2.6967172622681"><ele></ele><time>2022-6-23T12:0:11Z</time></trkpt>
<trkpt lat="49.144786834717" lon="2.6967000961304"><ele></ele><time>2022-6-23T12:0:14Z</time></trkpt>
<trkpt lat="49.144714355469" lon="2.6966996192932"><ele></ele><time>2022-6-23T12:0:17Z</time></trkpt>
<trkpt lat="49.144714355469" lon="2.6966996192932"><ele></ele><time>2022-6-23T12:0:20Z</time></trkpt>
<trkpt lat="49.144638061523" lon="2.6967084407806"><ele></ele><time>2022-6-23T12:0:23Z</time></trkpt>
<trkpt lat="49.144557952881" lon="2.6967167854309"><ele></ele><time>2022-6-23T12:0:26Z</time></trkpt>
<trkpt lat="49.144477844238" lon="2.6967282295227"><ele></ele><time>2022-6-23T12:0:29Z</time></trkpt>
<trkpt lat="49.144477844238" lon="2.6967282295227"><ele></ele><time>2022-6-23T12:0:32Z</time></trkpt>
<trkpt lat="49.144378662109" lon="2.6967499256134"><ele></ele><time>2022-6-23T12:0:35Z</time></trkpt>
<trkpt lat="49.14429473877" lon="2.6967689990997"><ele></ele><time>2022-6-23T12:0:38Z</time></trkpt>
<trkpt lat="49.144226074219" lon="2.6967897415161"><ele></ele><time>2022-6-23T12:0:41Z</time></trkpt>
<trkpt lat="49.144226074219" lon="2.6967897415161"><ele></ele><time>2022-6-23T12:0:44Z</time></trkpt>
<trkpt lat="49.144153594971" lon="2.6968021392822"><ele></ele><time>2022-6-23T12:0:47Z</time></trkpt>
<trkpt lat="49.144088745117" lon="2.6968188285828"><ele></ele><time>2022-6-23T12:0:50Z</time></trkpt>
<trkpt lat="49.144020080566" lon="2.6968321800232"><ele></ele><time>2022-6-23T12:0:53Z</time></trkpt>
<trkpt lat="49.144020080566" lon="2.6968321800232"><ele></ele><time>2022-6-23T12:0:56Z</time></trkpt>
<trkpt lat="49.143920898438" lon="2.6968591213226"><ele></ele><time>2022-6-23T12:0:59Z</time></trkpt>
<trkpt lat="49.143821716309" lon="2.6968801021576"><ele></ele><time>2022-6-23T12:1:2Z</time></trkpt>
<trkpt lat="49.143733978271" lon="2.6969001293182"><ele></ele><time>2022-6-23T12:1:5Z</time></trkpt>
<trkpt lat="49.143642425537" lon="2.6969215869904"><ele></ele><time>2022-6-23T12:1:8Z</time></trkpt>
<trkpt lat="49.143543243408" lon="2.6969454288483"><ele></ele><time>2022-6-23T12:1:11Z</time></trkpt>
<trkpt lat="49.143451690674" lon="2.6969590187073"><ele></ele><time>2022-6-23T12:1:14Z</time></trkpt>
<trkpt lat="49.143451690674" lon="2.6969590187073"><ele></ele><time>2022-6-23T12:1:17Z</time></trkpt>
<trkpt lat="49.143360137939" lon="2.6969804763794"><ele></ele><time>2022-6-23T12:1:20Z</time></trkpt>
<trkpt lat="49.143264770508" lon="2.6970067024231"><ele></ele><time>2022-6-23T12:1:23Z</time></trkpt>
<trkpt lat="49.143177032471" lon="2.69704413414"><ele></ele><time>2022-6-23T12:1:26Z</time></trkpt>
<trkpt lat="49.143177032471" lon="2.69704413414"><ele></ele><time>2022-6-23T12:1:29Z</time></trkpt>
<trkpt lat="49.143085479736" lon="2.6970465183258"><ele></ele><time>2022-6-23T12:1:32Z</time></trkpt>
<trkpt lat="49.142986297607" lon="2.697060585022"><ele></ele><time>2022-6-23T12:1:35Z</time></trkpt>
<trkpt lat="49.142894744873" lon="2.6970698833466"><ele></ele><time>2022-6-23T12:1:38Z</time></trkpt>
<trkpt lat="49.142894744873" lon="2.6970698833466"><ele></ele><time>2022-6-23T12:1:41Z</time></trkpt>
<trkpt lat="49.142818450928" lon="2.6970801353455"><ele></ele><time>2022-6-23T12:1:44Z</time></trkpt>
<trkpt lat="49.142715454102" lon="2.6970891952515"><ele></ele><time>2022-6-23T12:1:47Z</time></trkpt>
<trkpt lat="49.142627716064" lon="2.6970825195312"><ele></ele><time>2022-6-23T12:1:50Z</time></trkpt>
<trkpt lat="49.142627716064" lon="2.6970825195312"><ele></ele><time>2022-6-23T12:1:53Z</time></trkpt>
<trkpt lat="49.142551422119" lon="2.6971020698547"><ele></ele><time>2022-6-23T12:1:56Z</time></trkpt>
<trkpt lat="49.142490386963" lon="2.6971228122711"><ele></ele><time>2022-6-23T12:1:59Z</time></trkpt>
<trkpt lat="49.142490386963" lon="2.6971228122711"><ele></ele><time>2022-6-23T12:2:2Z</time></trkpt>
<trkpt lat="49.142490386963" lon="2.6971228122711"><ele></ele><time>2022-6-23T12:2:5Z</time></trkpt>
<trkpt lat="49.142490386963" lon="2.6971228122711"><ele></ele><time>2022-6-23T12:2:8Z</time></trkpt>
<trkpt lat="49.142398834229" lon="2.6971127986908"><ele></ele><time>2022-6-23T12:2:11Z</time></trkpt>
<trkpt lat="49.142398834229" lon="2.6971127986908"><ele></ele><time>2022-6-23T12:2:14Z</time></trkpt>
<trkpt lat="49.142398834229" lon="2.6971127986908"><ele></ele><time>2022-6-23T12:2:17Z</time></trkpt>
<trkpt lat="49.142398834229" lon="2.6971127986908"><ele></ele><time>2022-6-23T12:2:20Z</time></trkpt>
<trkpt lat="49.142398834229" lon="2.6971127986908"><ele></ele><time>2022-6-23T12:2:23Z</time></trkpt>
<trkpt lat="49.142261505127" lon="2.6971771717072"><ele></ele><time>2022-6-23T12:2:26Z</time></trkpt>
<trkpt lat="49.142261505127" lon="2.6971771717072"><ele></ele><time>2022-6-23T12:2:29Z</time></trkpt>
<trkpt lat="49.142261505127" lon="2.6971771717072"><ele></ele><time>2022-6-23T12:2:32Z</time></trkpt>
<trkpt lat="49.142261505127" lon="2.6971771717072"><ele></ele><time>2022-6-23T12:2:35Z</time></trkpt>
<trkpt lat="49.142177581787" lon="2.6971757411957"><ele></ele><time>2022-6-23T12:2:38Z</time></trkpt>
<trkpt lat="49.142177581787" lon="2.6971757411957"><ele></ele><time>2022-6-23T12:2:41Z</time></trkpt>
<trkpt lat="49.142177581787" lon="2.6971757411957"><ele></ele><time>2022-6-23T12:2:44Z</time></trkpt>
<trkpt lat="49.142177581787" lon="2.6971757411957"><ele></ele><time>2022-6-23T12:2:47Z</time></trkpt>
<trkpt lat="49.142093658447" lon="2.6972095966339"><ele></ele><time>2022-6-23T12:2:50Z</time></trkpt>
<trkpt lat="49.142093658447" lon="2.6972095966339"><ele></ele><time>2022-6-23T12:2:53Z</time></trkpt>
<trkpt lat="49.142093658447" lon="2.6972095966339"><ele></ele><time>2022-6-23T12:2:56Z</time></trkpt>
<trkpt lat="49.142036437988" lon="2.6972415447235"><ele></ele><time>2022-6-23T12:2:59Z</time></trkpt>
<trkpt lat="49.142036437988" lon="2.6972415447235"><ele></ele><time>2022-6-23T12:3:2Z</time></trkpt>
<trkpt lat="49.142036437988" lon="2.6972415447235"><ele></ele><time>2022-6-23T12:3:5Z</time></trkpt>
<trkpt lat="49.14196395874" lon="2.697288274765"><ele></ele><time>2022-6-23T12:3:8Z</time></trkpt>
<trkpt lat="49.141914367676" lon="2.697329044342"><ele></ele><time>2022-6-23T12:3:11Z</time></trkpt>
<trkpt lat="49.141914367676" lon="2.697329044342"><ele></ele><time>2022-6-23T12:3:14Z</time></trkpt>
<trkpt lat="49.141914367676" lon="2.697329044342"><ele></ele><time>2022-6-23T12:3:17Z</time></trkpt>
<trkpt lat="49.141834259033" lon="2.6973764896393"><ele></ele><time>2022-6-23T12:3:20Z</time></trkpt>
<trkpt lat="49.141834259033" lon="2.6973764896393"><ele></ele><time>2022-6-23T12:3:23Z</time></trkpt>
<trkpt lat="49.141834259033" lon="2.6973764896393"><ele></ele><time>2022-6-23T12:3:26Z</time></trkpt>
<trkpt lat="49.141777038574" lon="2.6974129676819"><ele></ele><time>2022-6-23T12:3:29Z</time></trkpt>
<trkpt lat="49.141777038574" lon="2.6974129676819"><ele></ele><time>2022-6-23T12:3:32Z</time></trkpt>
<trkpt lat="49.141777038574" lon="2.6974129676819"><ele></ele><time>2022-6-23T12:3:35Z</time></trkpt>
<trkpt lat="49.141723632812" lon="2.6974177360535"><ele></ele><time>2022-6-23T12:3:38Z</time></trkpt>
<trkpt lat="49.141620635986" lon="2.6974413394928"><ele></ele><time>2022-6-23T12:3:41Z</time></trkpt>
<trkpt lat="49.141620635986" lon="2.6974413394928"><ele></ele><time>2022-6-23T12:3:44Z</time></trkpt>
<trkpt lat="49.141536712646" lon="2.6974680423737"><ele></ele><time>2022-6-23T12:3:47Z</time></trkpt>
<trkpt lat="49.141448974609" lon="2.6974806785583"><ele></ele><time>2022-6-23T12:3:50Z</time></trkpt>
<trkpt lat="49.141380310059" lon="2.6974844932556"><ele></ele><time>2022-6-23T12:3:53Z</time></trkpt>
<trkpt lat="49.141380310059" lon="2.6974844932556"><ele></ele><time>2022-6-23T12:3:56Z</time></trkpt>
<trkpt lat="49.141319274902" lon="2.6974995136261"><ele></ele><time>2022-6-23T12:3:59Z</time></trkpt>
<trkpt lat="49.141319274902" lon="2.6974995136261"><ele></ele><time>2022-6-23T12:4:2Z</time></trkpt>
<trkpt lat="49.141242980957" lon="2.6975226402283"><ele></ele><time>2022-6-23T12:4:5Z</time></trkpt>
<trkpt lat="49.141242980957" lon="2.6975226402283"><ele></ele><time>2022-6-23T12:4:8Z</time></trkpt>
<trkpt lat="49.141181945801" lon="2.6975300312042"><ele></ele><time>2022-6-23T12:4:11Z</time></trkpt>
<trkpt lat="49.141181945801" lon="2.6975300312042"><ele></ele><time>2022-6-23T12:4:14Z</time></trkpt>
<trkpt lat="49.141181945801" lon="2.6975300312042"><ele></ele><time>2022-6-23T12:4:17Z</time></trkpt>
<trkpt lat="49.141098022461" lon="2.6975240707397"><ele></ele><time>2022-6-23T12:4:20Z</time></trkpt>
<trkpt lat="49.141098022461" lon="2.6975240707397"><ele></ele><time>2022-6-23T12:4:23Z</time></trkpt>
<trkpt lat="49.141010284424" lon="2.6975185871124"><ele></ele><time>2022-6-23T12:4:26Z</time></trkpt>
<trkpt lat="49.140926361084" lon="2.697496175766"><ele></ele><time>2022-6-23T12:4:29Z</time></trkpt>
<trkpt lat="49.14083480835" lon="2.6974861621857"><ele></ele><time>2022-6-23T12:4:32Z</time></trkpt>
<trkpt lat="49.14083480835" lon="2.6974861621857"><ele></ele><time>2022-6-23T12:4:35Z</time></trkpt>
<trkpt lat="49.140727996826" lon="2.6974792480469"><ele></ele><time>2022-6-23T12:4:38Z</time></trkpt>
<trkpt lat="49.140636444092" lon="2.6974720954895"><ele></ele><time>2022-6-23T12:4:41Z</time></trkpt>
<trkpt lat="49.140506744385" lon="2.6974427700043"><ele></ele><time>2022-6-23T12:4:44Z</time></trkpt>
<trkpt lat="49.140422821045" lon="2.6974377632141"><ele></ele><time>2022-6-23T12:4:47Z</time></trkpt>
<trkpt lat="49.140354156494" lon="2.6974384784698"><ele></ele><time>2022-6-23T12:4:50Z</time></trkpt>
<trkpt lat="49.140281677246" lon="2.6974422931671"><ele></ele><time>2022-6-23T12:4:53Z</time></trkpt>
<trkpt lat="49.140205383301" lon="2.6974542140961"><ele></ele><time>2022-6-23T12:4:56Z</time></trkpt>
<trkpt lat="49.140117645264" lon="2.697464466095"><ele></ele><time>2022-6-23T12:4:59Z</time></trkpt>
<trkpt lat="49.140041351318" lon="2.6974840164185"><ele></ele><time>2022-6-23T12:5:2Z</time></trkpt>
<trkpt lat="49.139980316162" lon="2.6975078582764"><ele></ele><time>2022-6-23T12:5:5Z</time></trkpt>
<trkpt lat="49.139907836914" lon="2.6975347995758"><ele></ele><time>2022-6-23T12:5:8Z</time></trkpt>
<trkpt lat="49.139842987061" lon="2.697546005249"><ele></ele><time>2022-6-23T12:5:11Z</time></trkpt>
<trkpt lat="49.139766693115" lon="2.6975555419922"><ele></ele><time>2022-6-23T12:5:14Z</time></trkpt>
<trkpt lat="49.139671325684" lon="2.6975834369659"><ele></ele><time>2022-6-23T12:5:17Z</time></trkpt>
<trkpt lat="49.139583587646" lon="2.6976008415222"><ele></ele><time>2022-6-23T12:5:20Z</time></trkpt>
<trkpt lat="49.139518737793" lon="2.6975953578949"><ele></ele><time>2022-6-23T12:5:23Z</time></trkpt>
<trkpt lat="49.139518737793" lon="2.6975953578949"><ele></ele><time>2022-6-23T12:5:26Z</time></trkpt>
<trkpt lat="49.13943862915" lon="2.6975967884064"><ele></ele><time>2022-6-23T12:5:29Z</time></trkpt>
<trkpt lat="49.139362335205" lon="2.6976070404053"><ele></ele><time>2022-6-23T12:5:32Z</time></trkpt>
<trkpt lat="49.139282226562" lon="2.6976072788239"><ele></ele><time>2022-6-23T12:5:35Z</time></trkpt>
<trkpt lat="49.139198303223" lon="2.6976177692413"><ele></ele><time>2022-6-23T12:5:38Z</time></trkpt>
<trkpt lat="49.139129638672" lon="2.6976199150085"><ele></ele><time>2022-6-23T12:5:41Z</time></trkpt>
<trkpt lat="49.139045715332" lon="2.6976184844971"><ele></ele><time>2022-6-23T12:5:44Z</time></trkpt>
<trkpt lat="49.138954162598" lon="2.6976261138916"><ele></ele><time>2022-6-23T12:5:47Z</time></trkpt>
<trkpt lat="49.138862609863" lon="2.6976375579834"><ele></ele><time>2022-6-23T12:5:50Z</time></trkpt>
<trkpt lat="49.138771057129" lon="2.6976585388184"><ele></ele><time>2022-6-23T12:5:53Z</time></trkpt>
<trkpt lat="49.138694763184" lon="2.6976809501648"><ele></ele><time>2022-6-23T12:5:56Z</time></trkpt>
<trkpt lat="49.138633728027" lon="2.6977198123932"><ele></ele><time>2022-6-23T12:5:59Z</time></trkpt>
<trkpt lat="49.138576507568" lon="2.6977429389954"><ele></ele><time>2022-6-23T12:6:2Z</time></trkpt>
<trkpt lat="49.138576507568" lon="2.6977429389954"><ele></ele><time>2022-6-23T12:6:5Z</time></trkpt>
<trkpt lat="49.138473510742" lon="2.6977694034576"><ele></ele><time>2022-6-23T12:6:8Z</time></trkpt>
<trkpt lat="49.138404846191" lon="2.6977934837341"><ele></ele><time>2022-6-23T12:6:11Z</time></trkpt>
<trkpt lat="49.138404846191" lon="2.6977934837341"><ele></ele><time>2022-6-23T12:6:14Z</time></trkpt>
<trkpt lat="49.138317108154" lon="2.6978576183319"><ele></ele><time>2022-6-23T12:6:17Z</time></trkpt>
<trkpt lat="49.138259887695" lon="2.6978769302368"><ele></ele><time>2022-6-23T12:6:20Z</time></trkpt>
<trkpt lat="49.138259887695" lon="2.6978769302368"><ele></ele><time>2022-6-23T12:6:23Z</time></trkpt>
<trkpt lat="49.138149261475" lon="2.6978528499603"><ele></ele><time>2022-6-23T12:6:26Z</time></trkpt>
<trkpt lat="49.138149261475" lon="2.6978528499603"><ele></ele><time>2022-6-23T12:6:29Z</time></trkpt>
<trkpt lat="49.138065338135" lon="2.6978166103363"><ele></ele><time>2022-6-23T12:6:32Z</time></trkpt>
<trkpt lat="49.137992858887" lon="2.6977972984314"><ele></ele><time>2022-6-23T12:6:35Z</time></trkpt>
<trkpt lat="49.13790512085" lon="2.6977734565735"><ele></ele><time>2022-6-23T12:6:38Z</time></trkpt>
<trkpt lat="49.13782119751" lon="2.6977422237396"><ele></ele><time>2022-6-23T12:6:41Z</time></trkpt>
<trkpt lat="49.137741088867" lon="2.6977155208588"><ele></ele><time>2022-6-23T12:6:44Z</time></trkpt>
<trkpt lat="49.13765335083" lon="2.6976778507233"><ele></ele><time>2022-6-23T12:6:47Z</time></trkpt>
<trkpt lat="49.137557983398" lon="2.6976363658905"><ele></ele><time>2022-6-23T12:6:50Z</time></trkpt>
<trkpt lat="49.137466430664" lon="2.6975951194763"><ele></ele><time>2022-6-23T12:6:53Z</time></trkpt>
<trkpt lat="49.137466430664" lon="2.6975951194763"><ele></ele><time>2022-6-23T12:6:56Z</time></trkpt>
<trkpt lat="49.137401580811" lon="2.6975660324097"><ele></ele><time>2022-6-23T12:6:59Z</time></trkpt>
<trkpt lat="49.137271881104" lon="2.6975111961365"><ele></ele><time>2022-6-23T12:7:2Z</time></trkpt>
<trkpt lat="49.137214660645" lon="2.6974918842316"><ele></ele><time>2022-6-23T12:7:5Z</time></trkpt>
<trkpt lat="49.137157440186" lon="2.697466135025"><ele></ele><time>2022-6-23T12:7:8Z</time></trkpt>
<trkpt lat="49.137077331543" lon="2.6974315643311"><ele></ele><time>2022-6-23T12:7:11Z</time></trkpt>
<trkpt lat="49.137012481689" lon="2.6974039077759"><ele></ele><time>2022-6-23T12:7:14Z</time></trkpt>
<trkpt lat="49.136951446533" lon="2.6973807811737"><ele></ele><time>2022-6-23T12:7:17Z</time></trkpt>
<trkpt lat="49.136878967285" lon="2.69735455513"><ele></ele><time>2022-6-23T12:7:20Z</time></trkpt>
<trkpt lat="49.136878967285" lon="2.69735455513"><ele></ele><time>2022-6-23T12:7:23Z</time></trkpt>
<trkpt lat="49.13676071167" lon="2.6972894668579"><ele></ele><time>2022-6-23T12:7:26Z</time></trkpt>
<trkpt lat="49.136688232422" lon="2.6972525119781"><ele></ele><time>2022-6-23T12:7:29Z</time></trkpt>
<trkpt lat="49.136611938477" lon="2.6972160339355"><ele></ele><time>2022-6-23T12:7:32Z</time></trkpt>
<trkpt lat="49.136547088623" lon="2.6971843242645"><ele></ele><time>2022-6-23T12:7:35Z</time></trkpt>
<trkpt lat="49.13648223877" lon="2.6971719264984"><ele></ele><time>2022-6-23T12:7:38Z</time></trkpt>
<trkpt lat="49.136360168457" lon="2.6971452236176"><ele></ele><time>2022-6-23T12:7:41Z</time></trkpt>
<trkpt lat="49.136283874512" lon="2.6971094608307"><ele></ele><time>2022-6-23T12:7:44Z</time></trkpt>
<trkpt lat="49.136207580566" lon="2.6970901489258"><ele></ele><time>2022-6-23T12:7:47Z</time></trkpt>
<trkpt lat="49.136135101318" lon="2.6970586776733"><ele></ele><time>2022-6-23T12:7:50Z</time></trkpt>
<trkpt lat="49.136066436768" lon="2.6970255374908"><ele></ele><time>2022-6-23T12:7:53Z</time></trkpt>
<trkpt lat="49.136001586914" lon="2.6969966888428"><ele></ele><time>2022-6-23T12:7:56Z</time></trkpt>
<trkpt lat="49.135944366455" lon="2.6969845294952"><ele></ele><time>2022-6-23T12:7:59Z</time></trkpt>
<trkpt lat="49.135871887207" lon="2.6969618797302"><ele></ele><time>2022-6-23T12:8:2Z</time></trkpt>
<trkpt lat="49.135814666748" lon="2.6969413757324"><ele></ele><time>2022-6-23T12:8:5Z</time></trkpt>
<trkpt lat="49.1357421875" lon="2.6969153881073"><ele></ele><time>2022-6-23T12:8:8Z</time></trkpt>
<trkpt lat="49.13565826416" lon="2.6968801021576"><ele></ele><time>2022-6-23T12:8:11Z</time></trkpt>
<trkpt lat="49.135585784912" lon="2.6968376636505"><ele></ele><time>2022-6-23T12:8:14Z</time></trkpt>
<trkpt lat="49.135513305664" lon="2.696811914444"><ele></ele><time>2022-6-23T12:8:17Z</time></trkpt>
<trkpt lat="49.13542175293" lon="2.6967799663544"><ele></ele><time>2022-6-23T12:8:20Z</time></trkpt>
<trkpt lat="49.135334014893" lon="2.6967718601227"><ele></ele><time>2022-6-23T12:8:23Z</time></trkpt>
<trkpt lat="49.135261535645" lon="2.6967718601227"><ele></ele><time>2022-6-23T12:8:26Z</time></trkpt>
<trkpt lat="49.135196685791" lon="2.6967852115631"><ele></ele><time>2022-6-23T12:8:29Z</time></trkpt>
<trkpt lat="49.135196685791" lon="2.6967852115631"><ele></ele><time>2022-6-23T12:8:32Z</time></trkpt>
<trkpt lat="49.13512802124" lon="2.6967284679413"><ele></ele><time>2022-6-23T12:8:35Z</time></trkpt>
<trkpt lat="49.135074615479" lon="2.6966633796692"><ele></ele><time>2022-6-23T12:8:38Z</time></trkpt>
<trkpt lat="49.135074615479" lon="2.6966633796692"><ele></ele><time>2022-6-23T12:8:41Z</time></trkpt>
<trkpt lat="49.135074615479" lon="2.6966633796692"><ele></ele><time>2022-6-23T12:8:44Z</time></trkpt>
<trkpt lat="49.135074615479" lon="2.6966633796692"><ele></ele><time>2022-6-23T12:8:47Z</time></trkpt>
<trkpt lat="49.135021209717" lon="2.6967234611511"><ele></ele><time>2022-6-23T12:8:50Z</time></trkpt>
<trkpt lat="49.135021209717" lon="2.6967234611511"><ele></ele><time>2022-6-23T12:8:53Z</time></trkpt>
<trkpt lat="49.13500213623" lon="2.6968355178833"><ele></ele><time>2022-6-23T12:8:56Z</time></trkpt>
<trkpt lat="49.13500213623" lon="2.6968355178833"><ele></ele><time>2022-6-23T12:8:59Z</time></trkpt>
<trkpt lat="49.13500213623" lon="2.6968355178833"><ele></ele><time>2022-6-23T12:9:2Z</time></trkpt>
<trkpt lat="49.13500213623" lon="2.6968355178833"><ele></ele><time>2022-6-23T12:9:5Z</time></trkpt>
<trkpt lat="49.13500213623" lon="2.6968355178833"><ele></ele><time>2022-6-23T12:9:8Z</time></trkpt>
<trkpt lat="49.135028839111" lon="2.6967475414276"><ele></ele><time>2022-6-23T12:9:11Z</time></trkpt>
<trkpt lat="49.135074615479" lon="2.6966733932495"><ele></ele><time>2022-6-23T12:9:14Z</time></trkpt>
<trkpt lat="49.135074615479" lon="2.6966733932495"><ele></ele><time>2022-6-23T12:9:17Z</time></trkpt>
<trkpt lat="49.135124206543" lon="2.6966514587402"><ele></ele><time>2022-6-23T12:9:20Z</time></trkpt>
<trkpt lat="49.135150909424" lon="2.6966888904572"><ele></ele><time>2022-6-23T12:9:23Z</time></trkpt>
<trkpt lat="49.135166168213" lon="2.6967558860779"><ele></ele><time>2022-6-23T12:9:26Z</time></trkpt>
<trkpt lat="49.135166168213" lon="2.6967558860779"><ele></ele><time>2022-6-23T12:9:29Z</time></trkpt>
<trkpt lat="49.135189056396" lon="2.696925163269"><ele></ele><time>2022-6-23T12:9:32Z</time></trkpt>
<trkpt lat="49.135196685791" lon="2.6970419883728"><ele></ele><time>2022-6-23T12:9:35Z</time></trkpt>
<trkpt lat="49.135208129883" lon="2.6971428394318"><ele></ele><time>2022-6-23T12:9:38Z</time></trkpt>
<trkpt lat="49.135208129883" lon="2.6971428394318"><ele></ele><time>2022-6-23T12:9:41Z</time></trkpt>
<trkpt lat="49.135231018066" lon="2.697244644165"><ele></ele><time>2022-6-23T12:9:44Z</time></trkpt>
<trkpt lat="49.135261535645" lon="2.6974039077759"><ele></ele><time>2022-6-23T12:9:47Z</time></trkpt>
<trkpt lat="49.135261535645" lon="2.6974039077759"><ele></ele><time>2022-6-23T12:9:50Z</time></trkpt>
<trkpt lat="49.135288238525" lon="2.6975631713867"><ele></ele><time>2022-6-23T12:9:53Z</time></trkpt>
<trkpt lat="49.135288238525" lon="2.6975631713867"><ele></ele><time>2022-6-23T12:9:56Z</time></trkpt>
<trkpt lat="49.135288238525" lon="2.6975631713867"><ele></ele><time>2022-6-23T12:9:59Z</time></trkpt>
<trkpt lat="49.135314941406" lon="2.6976907253265"><ele></ele><time>2022-6-23T12:10:2Z</time></trkpt>
<trkpt lat="49.135314941406" lon="2.6976907253265"><ele></ele><time>2022-6-23T12:10:5Z</time></trkpt>
<trkpt lat="49.13533782959" lon="2.6978497505188"><ele></ele><time>2022-6-23T12:10:8Z</time></trkpt>
<trkpt lat="49.13533782959" lon="2.6978497505188"><ele></ele><time>2022-6-23T12:10:11Z</time></trkpt>
<trkpt lat="49.135368347168" lon="2.697966337204"><ele></ele><time>2022-6-23T12:10:14Z</time></trkpt>
<trkpt lat="49.135368347168" lon="2.697966337204"><ele></ele><time>2022-6-23T12:10:17Z</time></trkpt>
<trkpt lat="49.135368347168" lon="2.697966337204"><ele></ele><time>2022-6-23T12:10:20Z</time></trkpt>
<trkpt lat="49.135368347168" lon="2.6981246471405"><ele></ele><time>2022-6-23T12:10:23Z</time></trkpt>
<trkpt lat="49.135360717773" lon="2.6982259750366"><ele></ele><time>2022-6-23T12:10:26Z</time></trkpt>
<trkpt lat="49.135360717773" lon="2.6982259750366"><ele></ele><time>2022-6-23T12:10:29Z</time></trkpt>
<trkpt lat="49.135375976562" lon="2.6983158588409"><ele></ele><time>2022-6-23T12:10:32Z</time></trkpt>
<trkpt lat="49.135395050049" lon="2.6984007358551"><ele></ele><time>2022-6-23T12:10:35Z</time></trkpt>
<trkpt lat="49.135417938232" lon="2.6984832286835"><ele></ele><time>2022-6-23T12:10:38Z</time></trkpt>
<trkpt lat="49.135417938232" lon="2.6984832286835"><ele></ele><time>2022-6-23T12:10:41Z</time></trkpt>
<trkpt lat="49.135452270508" lon="2.6986441612244"><ele></ele><time>2022-6-23T12:10:44Z</time></trkpt>
<trkpt lat="49.1354637146" lon="2.6987426280975"><ele></ele><time>2022-6-23T12:10:47Z</time></trkpt>
<trkpt lat="49.1354637146" lon="2.6987426280975"><ele></ele><time>2022-6-23T12:10:50Z</time></trkpt>
<trkpt lat="49.135471343994" lon="2.6988506317139"><ele></ele><time>2022-6-23T12:10:53Z</time></trkpt>
<trkpt lat="49.135478973389" lon="2.6989510059357"><ele></ele><time>2022-6-23T12:10:56Z</time></trkpt>
<trkpt lat="49.13549041748" lon="2.6990611553192"><ele></ele><time>2022-6-23T12:10:59Z</time></trkpt>
<trkpt lat="49.13549041748" lon="2.6990611553192"><ele></ele><time>2022-6-23T12:11:2Z</time></trkpt>
<trkpt lat="49.135501861572" lon="2.6991667747498"><ele></ele><time>2022-6-23T12:11:5Z</time></trkpt>
<trkpt lat="49.135517120361" lon="2.6992838382721"><ele></ele><time>2022-6-23T12:11:8Z</time></trkpt>
<trkpt lat="49.135536193848" lon="2.6994121074677"><ele></ele><time>2022-6-23T12:11:11Z</time></trkpt>
<trkpt lat="49.135536193848" lon="2.6994121074677"><ele></ele><time>2022-6-23T12:11:14Z</time></trkpt>
<trkpt lat="49.135555267334" lon="2.6995306015015"><ele></ele><time>2022-6-23T12:11:17Z</time></trkpt>
<trkpt lat="49.135578155518" lon="2.6996335983276"><ele></ele><time>2022-6-23T12:11:20Z</time></trkpt>
<trkpt lat="49.135578155518" lon="2.6996335983276"><ele></ele><time>2022-6-23T12:11:23Z</time></trkpt>
<trkpt lat="49.135608673096" lon="2.6997809410095"><ele></ele><time>2022-6-23T12:11:26Z</time></trkpt>
<trkpt lat="49.135608673096" lon="2.6997809410095"><ele></ele><time>2022-6-23T12:11:29Z</time></trkpt>
<trkpt lat="49.135627746582" lon="2.6999037265778"><ele></ele><time>2022-6-23T12:11:32Z</time></trkpt>
<trkpt lat="49.135627746582" lon="2.6999037265778"><ele></ele><time>2022-6-23T12:11:35Z</time></trkpt>
<trkpt lat="49.135627746582" lon="2.6999037265778"><ele></ele><time>2022-6-23T12:11:38Z</time></trkpt>
<trkpt lat="49.135646820068" lon="2.7000334262848"><ele></ele><time>2022-6-23T12:11:41Z</time></trkpt>
<trkpt lat="49.135646820068" lon="2.7000334262848"><ele></ele><time>2022-6-23T12:11:44Z</time></trkpt>
<trkpt lat="49.135646820068" lon="2.7000334262848"><ele></ele><time>2022-6-23T12:11:47Z</time></trkpt>
<trkpt lat="49.135669708252" lon="2.7001476287842"><ele></ele><time>2022-6-23T12:11:50Z</time></trkpt>
<trkpt lat="49.135669708252" lon="2.7001476287842"><ele></ele><time>2022-6-23T12:11:53Z</time></trkpt>
<trkpt lat="49.135684967041" lon="2.7002499103546"><ele></ele><time>2022-6-23T12:11:56Z</time></trkpt>
<trkpt lat="49.135684967041" lon="2.7002499103546"><ele></ele><time>2022-6-23T12:11:59Z</time></trkpt>
<trkpt lat="49.135684967041" lon="2.7002499103546"><ele></ele><time>2022-6-23T12:12:2Z</time></trkpt>
<trkpt lat="49.135696411133" lon="2.7003636360168"><ele></ele><time>2022-6-23T12:12:5Z</time></trkpt>
<trkpt lat="49.135696411133" lon="2.7003636360168"><ele></ele><time>2022-6-23T12:12:8Z</time></trkpt>
<trkpt lat="49.135696411133" lon="2.7003636360168"><ele></ele><time>2022-6-23T12:12:11Z</time></trkpt>
<trkpt lat="49.135696411133" lon="2.7003636360168"><ele></ele><time>2022-6-23T12:12:14Z</time></trkpt>
<trkpt lat="49.135715484619" lon="2.7004930973053"><ele></ele><time>2022-6-23T12:12:17Z</time></trkpt>
<trkpt lat="49.135715484619" lon="2.7004930973053"><ele></ele><time>2022-6-23T12:12:20Z</time></trkpt>
<trkpt lat="49.135715484619" lon="2.7004930973053"><ele></ele><time>2022-6-23T12:12:23Z</time></trkpt>
<trkpt lat="49.135738372803" lon="2.7005734443665"><ele></ele><time>2022-6-23T12:12:26Z</time></trkpt>
<trkpt lat="49.135738372803" lon="2.7005734443665"><ele></ele><time>2022-6-23T12:12:29Z</time></trkpt>
<trkpt lat="49.135753631592" lon="2.700658082962"><ele></ele><time>2022-6-23T12:12:32Z</time></trkpt>
<trkpt lat="49.135753631592" lon="2.700658082962"><ele></ele><time>2022-6-23T12:12:35Z</time></trkpt>
<trkpt lat="49.135753631592" lon="2.700658082962"><ele></ele><time>2022-6-23T12:12:38Z</time></trkpt>
<trkpt lat="49.135780334473" lon="2.7007641792297"><ele></ele><time>2022-6-23T12:12:41Z</time></trkpt>
<trkpt lat="49.135780334473" lon="2.7007641792297"><ele></ele><time>2022-6-23T12:12:44Z</time></trkpt>
<trkpt lat="49.135810852051" lon="2.700886964798"><ele></ele><time>2022-6-23T12:12:47Z</time></trkpt>
<trkpt lat="49.135810852051" lon="2.700886964798"><ele></ele><time>2022-6-23T12:12:50Z</time></trkpt>
<trkpt lat="49.135833740234" lon="2.7009840011597"><ele></ele><time>2022-6-23T12:12:53Z</time></trkpt>
<trkpt lat="49.135852813721" lon="2.701094865799"><ele></ele><time>2022-6-23T12:12:56Z</time></trkpt>
<trkpt lat="49.135852813721" lon="2.701094865799"><ele></ele><time>2022-6-23T12:12:59Z</time></trkpt>
<trkpt lat="49.135860443115" lon="2.7011857032776"><ele></ele><time>2022-6-23T12:13:2Z</time></trkpt>
<trkpt lat="49.135871887207" lon="2.7013280391693"><ele></ele><time>2022-6-23T12:13:5Z</time></trkpt>
<trkpt lat="49.135871887207" lon="2.7013280391693"><ele></ele><time>2022-6-23T12:13:8Z</time></trkpt>
<trkpt lat="49.135890960693" lon="2.7014524936676"><ele></ele><time>2022-6-23T12:13:11Z</time></trkpt>
<trkpt lat="49.135890960693" lon="2.7014524936676"><ele></ele><time>2022-6-23T12:13:14Z</time></trkpt>
<trkpt lat="49.135913848877" lon="2.7015583515167"><ele></ele><time>2022-6-23T12:13:17Z</time></trkpt>
<trkpt lat="49.135913848877" lon="2.7015583515167"><ele></ele><time>2022-6-23T12:13:20Z</time></trkpt>
<trkpt lat="49.135936737061" lon="2.7016730308533"><ele></ele><time>2022-6-23T12:13:23Z</time></trkpt>
<trkpt lat="49.135936737061" lon="2.7016730308533"><ele></ele><time>2022-6-23T12:13:26Z</time></trkpt>
<trkpt lat="49.135963439941" lon="2.7017846107483"><ele></ele><time>2022-6-23T12:13:29Z</time></trkpt>
<trkpt lat="49.135963439941" lon="2.7017846107483"><ele></ele><time>2022-6-23T12:13:32Z</time></trkpt>
<trkpt lat="49.135963439941" lon="2.7017846107483"><ele></ele><time>2022-6-23T12:13:35Z</time></trkpt>
<trkpt lat="49.135982513428" lon="2.7019078731537"><ele></ele><time>2022-6-23T12:13:38Z</time></trkpt>
<trkpt lat="49.135982513428" lon="2.7019078731537"><ele></ele><time>2022-6-23T12:13:41Z</time></trkpt>
<trkpt lat="49.135982513428" lon="2.7019078731537"><ele></ele><time>2022-6-23T12:13:44Z</time></trkpt>
<trkpt lat="49.135997772217" lon="2.7019665241241"><ele></ele><time>2022-6-23T12:13:47Z</time></trkpt>
<trkpt lat="49.136009216309" lon="2.7020137310028"><ele></ele><time>2022-6-23T12:13:50Z</time></trkpt>
<trkpt lat="49.136024475098" lon="2.7020552158356"><ele></ele><time>2022-6-23T12:13:53Z</time></trkpt>
<trkpt lat="49.136024475098" lon="2.7020552158356"><ele></ele><time>2022-6-23T12:13:56Z</time></trkpt>
<trkpt lat="49.136032104492" lon="2.7021043300629"><ele></ele><time>2022-6-23T12:13:59Z</time></trkpt>
<trkpt lat="49.136039733887" lon="2.7021536827087"><ele></ele><time>2022-6-23T12:14:2Z</time></trkpt>
<trkpt lat="49.136039733887" lon="2.7021536827087"><ele></ele><time>2022-6-23T12:14:5Z</time></trkpt>
<trkpt lat="49.136043548584" lon="2.7022144794464"><ele></ele><time>2022-6-23T12:14:8Z</time></trkpt>
<trkpt lat="49.136047363281" lon="2.7022652626038"><ele></ele><time>2022-6-23T12:14:11Z</time></trkpt>
<trkpt lat="49.136051177979" lon="2.7023186683655"><ele></ele><time>2022-6-23T12:14:14Z</time></trkpt>
<trkpt lat="49.136058807373" lon="2.7023792266846"><ele></ele><time>2022-6-23T12:14:17Z</time></trkpt>
<trkpt lat="49.136070251465" lon="2.7024390697479"><ele></ele><time>2022-6-23T12:14:20Z</time></trkpt>
<trkpt lat="49.136093139648" lon="2.7025420665741"><ele></ele><time>2022-6-23T12:14:23Z</time></trkpt>
<trkpt lat="49.136093139648" lon="2.7025420665741"><ele></ele><time>2022-6-23T12:14:26Z</time></trkpt>
<trkpt lat="49.136108398438" lon="2.7026598453522"><ele></ele><time>2022-6-23T12:14:29Z</time></trkpt>
<trkpt lat="49.136108398438" lon="2.7026598453522"><ele></ele><time>2022-6-23T12:14:32Z</time></trkpt>
<trkpt lat="49.136108398438" lon="2.7026598453522"><ele></ele><time>2022-6-23T12:14:35Z</time></trkpt>
<trkpt lat="49.136131286621" lon="2.7027688026428"><ele></ele><time>2022-6-23T12:14:38Z</time></trkpt>
<trkpt lat="49.136131286621" lon="2.7027688026428"><ele></ele><time>2022-6-23T12:14:41Z</time></trkpt>
<trkpt lat="49.136131286621" lon="2.7027688026428"><ele></ele><time>2022-6-23T12:14:44Z</time></trkpt>
<trkpt lat="49.136131286621" lon="2.7027688026428"><ele></ele><time>2022-6-23T12:14:47Z</time></trkpt>
<trkpt lat="49.136131286621" lon="2.7027688026428"><ele></ele><time>2022-6-23T12:14:50Z</time></trkpt>
<trkpt lat="49.136165618896" lon="2.7028777599335"><ele></ele><time>2022-6-23T12:14:53Z</time></trkpt>
<trkpt lat="49.136165618896" lon="2.7028777599335"><ele></ele><time>2022-6-23T12:14:56Z</time></trkpt>
<trkpt lat="49.136165618896" lon="2.7028777599335"><ele></ele><time>2022-6-23T12:14:59Z</time></trkpt>
<trkpt lat="49.136165618896" lon="2.7028777599335"><ele></ele><time>2022-6-23T12:15:2Z</time></trkpt>
<trkpt lat="49.136165618896" lon="2.7028777599335"><ele></ele><time>2022-6-23T12:15:5Z</time></trkpt>
<trkpt lat="49.136165618896" lon="2.7028777599335"><ele></ele><time>2022-6-23T12:15:8Z</time></trkpt>
<trkpt lat="49.136165618896" lon="2.7028777599335"><ele></ele><time>2022-6-23T12:15:11Z</time></trkpt>
<trkpt lat="49.136165618896" lon="2.7028777599335"><ele></ele><time>2022-6-23T12:15:14Z</time></trkpt>
<trkpt lat="49.13618850708" lon="2.7030851840973"><ele></ele><time>2022-6-23T12:15:17Z</time></trkpt>
<trkpt lat="49.13618850708" lon="2.7030851840973"><ele></ele><time>2022-6-23T12:15:20Z</time></trkpt>
<trkpt lat="49.13618850708" lon="2.7030851840973"><ele></ele><time>2022-6-23T12:15:23Z</time></trkpt>
<trkpt lat="49.13618850708" lon="2.7030851840973"><ele></ele><time>2022-6-23T12:15:26Z</time></trkpt>
<trkpt lat="49.13618850708" lon="2.7030851840973"><ele></ele><time>2022-6-23T12:15:29Z</time></trkpt>
<trkpt lat="49.13618850708" lon="2.7030851840973"><ele></ele><time>2022-6-23T12:15:32Z</time></trkpt>
<trkpt lat="49.13618850708" lon="2.7030851840973"><ele></ele><time>2022-6-23T12:15:35Z</time></trkpt>
<trkpt lat="49.13618850708" lon="2.7030851840973"><ele></ele><time>2022-6-23T12:15:38Z</time></trkpt>
<trkpt lat="49.13618850708" lon="2.7030851840973"><ele></ele><time>2022-6-23T12:15:41Z</time></trkpt>
<trkpt lat="49.136226654053" lon="2.7034151554108"><ele></ele><time>2022-6-23T12:15:44Z</time></trkpt>
<trkpt lat="49.136226654053" lon="2.7034151554108"><ele></ele><time>2022-6-23T12:15:47Z</time></trkpt>
<trkpt lat="49.136268615723" lon="2.703485250473"><ele></ele><time>2022-6-23T12:15:50Z</time></trkpt>
<trkpt lat="49.136268615723" lon="2.703485250473"><ele></ele><time>2022-6-23T12:15:53Z</time></trkpt>
<trkpt lat="49.136268615723" lon="2.703485250473"><ele></ele><time>2022-6-23T12:15:56Z</time></trkpt>
<trkpt lat="49.13627243042" lon="2.7035880088806"><ele></ele><time>2022-6-23T12:15:59Z</time></trkpt>
<trkpt lat="49.13627243042" lon="2.7035880088806"><ele></ele><time>2022-6-23T12:16:2Z</time></trkpt>
<trkpt lat="49.13627243042" lon="2.7035880088806"><ele></ele><time>2022-6-23T12:16:5Z</time></trkpt>
<trkpt lat="49.13627243042" lon="2.7035880088806"><ele></ele><time>2022-6-23T12:16:8Z</time></trkpt>
<trkpt lat="49.13627243042" lon="2.7035880088806"><ele></ele><time>2022-6-23T12:16:11Z</time></trkpt>
<trkpt lat="49.13627243042" lon="2.7035880088806"><ele></ele><time>2022-6-23T12:16:14Z</time></trkpt>
<trkpt lat="49.13627243042" lon="2.7035880088806"><ele></ele><time>2022-6-23T12:16:17Z</time></trkpt>
<trkpt lat="49.13627243042" lon="2.7035880088806"><ele></ele><time>2022-6-23T12:16:20Z</time></trkpt>
<trkpt lat="49.13627243042" lon="2.7035880088806"><ele></ele><time>2022-6-23T12:16:23Z</time></trkpt>
<trkpt lat="49.13627243042" lon="2.7035880088806"><ele></ele><time>2022-6-23T12:16:26Z</time></trkpt>
<trkpt lat="49.13627243042" lon="2.7035880088806"><ele></ele><time>2022-6-23T12:16:29Z</time></trkpt>
<trkpt lat="49.13627243042" lon="2.7035880088806"><ele></ele><time>2022-6-23T12:16:32Z</time></trkpt>
<trkpt lat="49.13627243042" lon="2.7035880088806"><ele></ele><time>2022-6-23T12:16:35Z</time></trkpt>
<trkpt lat="49.13627243042" lon="2.7035880088806"><ele></ele><time>2022-6-23T12:16:38Z</time></trkpt>
<trkpt lat="49.136287689209" lon="2.7038595676422"><ele></ele><time>2022-6-23T12:16:41Z</time></trkpt>
<trkpt lat="49.136291503906" lon="2.7040076255798"><ele></ele><time>2022-6-23T12:16:44Z</time></trkpt>
<trkpt lat="49.136287689209" lon="2.704094171524"><ele></ele><time>2022-6-23T12:16:47Z</time></trkpt>
<trkpt lat="49.136287689209" lon="2.704094171524"><ele></ele><time>2022-6-23T12:16:50Z</time></trkpt>
<trkpt lat="49.136287689209" lon="2.704094171524"><ele></ele><time>2022-6-23T12:16:53Z</time></trkpt>
<trkpt lat="49.136287689209" lon="2.704094171524"><ele></ele><time>2022-6-23T12:16:56Z</time></trkpt>
<trkpt lat="49.136287689209" lon="2.704094171524"><ele></ele><time>2022-6-23T12:16:59Z</time></trkpt>
<trkpt lat="49.136302947998" lon="2.704211473465"><ele></ele><time>2022-6-23T12:17:2Z</time></trkpt>
<trkpt lat="49.13631439209" lon="2.7042872905731"><ele></ele><time>2022-6-23T12:17:5Z</time></trkpt>
<trkpt lat="49.13631439209" lon="2.7042872905731"><ele></ele><time>2022-6-23T12:17:8Z</time></trkpt>
<trkpt lat="49.136322021484" lon="2.7043359279633"><ele></ele><time>2022-6-23T12:17:11Z</time></trkpt>
<trkpt lat="49.136325836182" lon="2.704391002655"><ele></ele><time>2022-6-23T12:17:14Z</time></trkpt>
<trkpt lat="49.136325836182" lon="2.704391002655"><ele></ele><time>2022-6-23T12:17:17Z</time></trkpt>
<trkpt lat="49.136333465576" lon="2.7044341564178"><ele></ele><time>2022-6-23T12:17:20Z</time></trkpt>
<trkpt lat="49.136333465576" lon="2.7044341564178"><ele></ele><time>2022-6-23T12:17:23Z</time></trkpt>
<trkpt lat="49.136333465576" lon="2.7044341564178"><ele></ele><time>2022-6-23T12:17:26Z</time></trkpt>
<trkpt lat="49.136333465576" lon="2.7044341564178"><ele></ele><time>2022-6-23T12:17:29Z</time></trkpt>
<trkpt lat="49.136348724365" lon="2.704639673233"><ele></ele><time>2022-6-23T12:17:32Z</time></trkpt>
<trkpt lat="49.136348724365" lon="2.704639673233"><ele></ele><time>2022-6-23T12:17:35Z</time></trkpt>
<trkpt lat="49.136348724365" lon="2.704639673233"><ele></ele><time>2022-6-23T12:17:38Z</time></trkpt>
<trkpt lat="49.136348724365" lon="2.704639673233"><ele></ele><time>2022-6-23T12:17:41Z</time></trkpt>
<trkpt lat="49.136402130127" lon="2.7047510147095"><ele></ele><time>2022-6-23T12:17:44Z</time></trkpt>
<trkpt lat="49.136402130127" lon="2.7047510147095"><ele></ele><time>2022-6-23T12:17:47Z</time></trkpt>
<trkpt lat="49.136444091797" lon="2.7048435211182"><ele></ele><time>2022-6-23T12:17:50Z</time></trkpt>
<trkpt lat="49.136444091797" lon="2.7048435211182"><ele></ele><time>2022-6-23T12:17:53Z</time></trkpt>
<trkpt lat="49.13646697998" lon="2.7049298286438"><ele></ele><time>2022-6-23T12:17:56Z</time></trkpt>
<trkpt lat="49.136497497559" lon="2.7050330638885"><ele></ele><time>2022-6-23T12:17:59Z</time></trkpt>
<trkpt lat="49.136535644531" lon="2.7051486968994"><ele></ele><time>2022-6-23T12:18:2Z</time></trkpt>
<trkpt lat="49.136535644531" lon="2.7051486968994"><ele></ele><time>2022-6-23T12:18:5Z</time></trkpt>
<trkpt lat="49.136562347412" lon="2.705235004425"><ele></ele><time>2022-6-23T12:18:8Z</time></trkpt>
<trkpt lat="49.13659286499" lon="2.705363035202"><ele></ele><time>2022-6-23T12:18:11Z</time></trkpt>
<trkpt lat="49.136619567871" lon="2.7054810523987"><ele></ele><time>2022-6-23T12:18:14Z</time></trkpt>
<trkpt lat="49.136619567871" lon="2.7054810523987"><ele></ele><time>2022-6-23T12:18:17Z</time></trkpt>
<trkpt lat="49.136650085449" lon="2.7055804729462"><ele></ele><time>2022-6-23T12:18:20Z</time></trkpt>
<trkpt lat="49.136680603027" lon="2.7057056427002"><ele></ele><time>2022-6-23T12:18:23Z</time></trkpt>
<trkpt lat="49.136714935303" lon="2.7058501243591"><ele></ele><time>2022-6-23T12:18:26Z</time></trkpt>
<trkpt lat="49.136714935303" lon="2.7058501243591"><ele></ele><time>2022-6-23T12:18:29Z</time></trkpt>
<trkpt lat="49.136741638184" lon="2.7059967517853"><ele></ele><time>2022-6-23T12:18:32Z</time></trkpt>
<trkpt lat="49.136779785156" lon="2.7061376571655"><ele></ele><time>2022-6-23T12:18:35Z</time></trkpt>
<trkpt lat="49.136814117432" lon="2.7062916755676"><ele></ele><time>2022-6-23T12:18:38Z</time></trkpt>
<trkpt lat="49.136814117432" lon="2.7062916755676"><ele></ele><time>2022-6-23T12:18:41Z</time></trkpt>
<trkpt lat="49.136852264404" lon="2.7064454555511"><ele></ele><time>2022-6-23T12:18:44Z</time></trkpt>
<trkpt lat="49.136882781982" lon="2.7066113948822"><ele></ele><time>2022-6-23T12:18:47Z</time></trkpt>
<trkpt lat="49.136901855469" lon="2.7066969871521"><ele></ele><time>2022-6-23T12:18:50Z</time></trkpt>
<trkpt lat="49.136924743652" lon="2.7067873477936"><ele></ele><time>2022-6-23T12:18:53Z</time></trkpt>
<trkpt lat="49.136943817139" lon="2.7068772315979"><ele></ele><time>2022-6-23T12:18:56Z</time></trkpt>
<trkpt lat="49.136966705322" lon="2.706972360611"><ele></ele><time>2022-6-23T12:18:59Z</time></trkpt>
<trkpt lat="49.136993408203" lon="2.7070727348328"><ele></ele><time>2022-6-23T12:19:2Z</time></trkpt>
<trkpt lat="49.137016296387" lon="2.7071602344513"><ele></ele><time>2022-6-23T12:19:5Z</time></trkpt>
<trkpt lat="49.137042999268" lon="2.7072529792786"><ele></ele><time>2022-6-23T12:19:8Z</time></trkpt>
<trkpt lat="49.137073516846" lon="2.7073440551758"><ele></ele><time>2022-6-23T12:19:11Z</time></trkpt>
<trkpt lat="49.137092590332" lon="2.7074384689331"><ele></ele><time>2022-6-23T12:19:14Z</time></trkpt>
<trkpt lat="49.137115478516" lon="2.7075438499451"><ele></ele><time>2022-6-23T12:19:17Z</time></trkpt>
<trkpt lat="49.137142181396" lon="2.7076425552368"><ele></ele><time>2022-6-23T12:19:20Z</time></trkpt>
<trkpt lat="49.137168884277" lon="2.7077398300171"><ele></ele><time>2022-6-23T12:19:23Z</time></trkpt>
<trkpt lat="49.137191772461" lon="2.7078425884247"><ele></ele><time>2022-6-23T12:19:26Z</time></trkpt>
<trkpt lat="49.137210845947" lon="2.7079479694366"><ele></ele><time>2022-6-23T12:19:29Z</time></trkpt>
<trkpt lat="49.137233734131" lon="2.7080509662628"><ele></ele><time>2022-6-23T12:19:32Z</time></trkpt>
<trkpt lat="49.137268066406" lon="2.7081537246704"><ele></ele><time>2022-6-23T12:19:35Z</time></trkpt>
<trkpt lat="49.137294769287" lon="2.7082624435425"><ele></ele><time>2022-6-23T12:19:38Z</time></trkpt>
<trkpt lat="49.137317657471" lon="2.7083749771118"><ele></ele><time>2022-6-23T12:19:41Z</time></trkpt>
<trkpt lat="49.137344360352" lon="2.7084884643555"><ele></ele><time>2022-6-23T12:19:44Z</time></trkpt>
<trkpt lat="49.137367248535" lon="2.7085983753204"><ele></ele><time>2022-6-23T12:19:47Z</time></trkpt>
<trkpt lat="49.137393951416" lon="2.7087042331696"><ele></ele><time>2022-6-23T12:19:50Z</time></trkpt>
<trkpt lat="49.137420654297" lon="2.7088024616241"><ele></ele><time>2022-6-23T12:19:53Z</time></trkpt>
<trkpt lat="49.137451171875" lon="2.7089071273804"><ele></ele><time>2022-6-23T12:19:56Z</time></trkpt>
<trkpt lat="49.137481689453" lon="2.7090179920197"><ele></ele><time>2022-6-23T12:19:59Z</time></trkpt>
<trkpt lat="49.137504577637" lon="2.7091319561005"><ele></ele><time>2022-6-23T12:20:2Z</time></trkpt>
<trkpt lat="49.137531280518" lon="2.7092487812042"><ele></ele><time>2022-6-23T12:20:5Z</time></trkpt>
<trkpt lat="49.137561798096" lon="2.7093648910522"><ele></ele><time>2022-6-23T12:20:8Z</time></trkpt>
<trkpt lat="49.137592315674" lon="2.7094717025757"><ele></ele><time>2022-6-23T12:20:11Z</time></trkpt>
<trkpt lat="49.137619018555" lon="2.7095849514008"><ele></ele><time>2022-6-23T12:20:14Z</time></trkpt>
<trkpt lat="49.137619018555" lon="2.7095849514008"><ele></ele><time>2022-6-23T12:20:17Z</time></trkpt>
<trkpt lat="49.137645721436" lon="2.7096960544586"><ele></ele><time>2022-6-23T12:20:20Z</time></trkpt>
<trkpt lat="49.137672424316" lon="2.7098021507263"><ele></ele><time>2022-6-23T12:20:23Z</time></trkpt>
<trkpt lat="49.137702941895" lon="2.7099251747131"><ele></ele><time>2022-6-23T12:20:26Z</time></trkpt>
<trkpt lat="49.13773727417" lon="2.7100355625153"><ele></ele><time>2022-6-23T12:20:29Z</time></trkpt>
<trkpt lat="49.137767791748" lon="2.7101418972015"><ele></ele><time>2022-6-23T12:20:32Z</time></trkpt>
<trkpt lat="49.137767791748" lon="2.7101418972015"><ele></ele><time>2022-6-23T12:20:35Z</time></trkpt>
<trkpt lat="49.137809753418" lon="2.7103283405304"><ele></ele><time>2022-6-23T12:20:38Z</time></trkpt>
<trkpt lat="49.137828826904" lon="2.7104613780975"><ele></ele><time>2022-6-23T12:20:41Z</time></trkpt>
<trkpt lat="49.137836456299" lon="2.7105689048767"><ele></ele><time>2022-6-23T12:20:44Z</time></trkpt>
<trkpt lat="49.137832641602" lon="2.7106809616089"><ele></ele><time>2022-6-23T12:20:47Z</time></trkpt>
<trkpt lat="49.137817382812" lon="2.7107837200165"><ele></ele><time>2022-6-23T12:20:50Z</time></trkpt>
<trkpt lat="49.137798309326" lon="2.7108743190765"><ele></ele><time>2022-6-23T12:20:53Z</time></trkpt>
<trkpt lat="49.137798309326" lon="2.7108743190765"><ele></ele><time>2022-6-23T12:20:56Z</time></trkpt>
<trkpt lat="49.137798309326" lon="2.7108743190765"><ele></ele><time>2022-6-23T12:20:59Z</time></trkpt>
<trkpt lat="49.137744903564" lon="2.7110388278961"><ele></ele><time>2022-6-23T12:21:2Z</time></trkpt>
<trkpt lat="49.137687683105" lon="2.7111628055573"><ele></ele><time>2022-6-23T12:21:5Z</time></trkpt>
<trkpt lat="49.137645721436" lon="2.7112617492676"><ele></ele><time>2022-6-23T12:21:8Z</time></trkpt>
<trkpt lat="49.137599945068" lon="2.7113614082336"><ele></ele><time>2022-6-23T12:21:11Z</time></trkpt>
<trkpt lat="49.137561798096" lon="2.7114634513855"><ele></ele><time>2022-6-23T12:21:14Z</time></trkpt>
<trkpt lat="49.13752746582" lon="2.7115817070007"><ele></ele><time>2022-6-23T12:21:17Z</time></trkpt>
<trkpt lat="49.137504577637" lon="2.7116904258728"><ele></ele><time>2022-6-23T12:21:20Z</time></trkpt>
<trkpt lat="49.137504577637" lon="2.7116904258728"><ele></ele><time>2022-6-23T12:21:23Z</time></trkpt>
<trkpt lat="49.137454986572" lon="2.7118368148804"><ele></ele><time>2022-6-23T12:21:26Z</time></trkpt>
<trkpt lat="49.137405395508" lon="2.7119877338409"><ele></ele><time>2022-6-23T12:21:29Z</time></trkpt>
<trkpt lat="49.137405395508" lon="2.7119877338409"><ele></ele><time>2022-6-23T12:21:32Z</time></trkpt>
<trkpt lat="49.137355804443" lon="2.7121348381042"><ele></ele><time>2022-6-23T12:21:35Z</time></trkpt>
<trkpt lat="49.137298583984" lon="2.7122707366943"><ele></ele><time>2022-6-23T12:21:38Z</time></trkpt>
<trkpt lat="49.137252807617" lon="2.7124061584473"><ele></ele><time>2022-6-23T12:21:41Z</time></trkpt>
<trkpt lat="49.137252807617" lon="2.7124061584473"><ele></ele><time>2022-6-23T12:21:44Z</time></trkpt>
<trkpt lat="49.137203216553" lon="2.7125337123871"><ele></ele><time>2022-6-23T12:21:47Z</time></trkpt>
<trkpt lat="49.137157440186" lon="2.7126529216766"><ele></ele><time>2022-6-23T12:21:50Z</time></trkpt>
<trkpt lat="49.137130737305" lon="2.7127838134766"><ele></ele><time>2022-6-23T12:21:53Z</time></trkpt>
<trkpt lat="49.137130737305" lon="2.7127838134766"><ele></ele><time>2022-6-23T12:21:56Z</time></trkpt>
<trkpt lat="49.137092590332" lon="2.7129278182983"><ele></ele><time>2022-6-23T12:21:59Z</time></trkpt>
<trkpt lat="49.137054443359" lon="2.7130696773529"><ele></ele><time>2022-6-23T12:22:2Z</time></trkpt>
<trkpt lat="49.137016296387" lon="2.713175535202"><ele></ele><time>2022-6-23T12:22:5Z</time></trkpt>
<trkpt lat="49.137016296387" lon="2.713175535202"><ele></ele><time>2022-6-23T12:22:8Z</time></trkpt>
<trkpt lat="49.136978149414" lon="2.7132954597473"><ele></ele><time>2022-6-23T12:22:11Z</time></trkpt>
<trkpt lat="49.136940002441" lon="2.7134394645691"><ele></ele><time>2022-6-23T12:22:14Z</time></trkpt>
<trkpt lat="49.136909484863" lon="2.7135782241821"><ele></ele><time>2022-6-23T12:22:17Z</time></trkpt>
<trkpt lat="49.136909484863" lon="2.7135782241821"><ele></ele><time>2022-6-23T12:22:20Z</time></trkpt>
<trkpt lat="49.136859893799" lon="2.7137470245361"><ele></ele><time>2022-6-23T12:22:23Z</time></trkpt>
<trkpt lat="49.136817932129" lon="2.7139070034027"><ele></ele><time>2022-6-23T12:22:26Z</time></trkpt>
<trkpt lat="49.136783599854" lon="2.7140467166901"><ele></ele><time>2022-6-23T12:22:29Z</time></trkpt>
<trkpt lat="49.136783599854" lon="2.7140467166901"><ele></ele><time>2022-6-23T12:22:32Z</time></trkpt>
<trkpt lat="49.136749267578" lon="2.7141766548157"><ele></ele><time>2022-6-23T12:22:35Z</time></trkpt>
<trkpt lat="49.136703491211" lon="2.7143006324768"><ele></ele><time>2022-6-23T12:22:38Z</time></trkpt>
<trkpt lat="49.136650085449" lon="2.7144591808319"><ele></ele><time>2022-6-23T12:22:41Z</time></trkpt>
<trkpt lat="49.136650085449" lon="2.7144591808319"><ele></ele><time>2022-6-23T12:22:44Z</time></trkpt>
<trkpt lat="49.136608123779" lon="2.7146034240723"><ele></ele><time>2022-6-23T12:22:47Z</time></trkpt>
<trkpt lat="49.136566162109" lon="2.7147476673126"><ele></ele><time>2022-6-23T12:22:50Z</time></trkpt>
<trkpt lat="49.136528015137" lon="2.7148861885071"><ele></ele><time>2022-6-23T12:22:53Z</time></trkpt>
<trkpt lat="49.136528015137" lon="2.7148861885071"><ele></ele><time>2022-6-23T12:22:56Z</time></trkpt>
<trkpt lat="49.13648223877" lon="2.7150189876556"><ele></ele><time>2022-6-23T12:22:59Z</time></trkpt>
<trkpt lat="49.136436462402" lon="2.7151472568512"><ele></ele><time>2022-6-23T12:23:2Z</time></trkpt>
<trkpt lat="49.13639831543" lon="2.7152717113495"><ele></ele><time>2022-6-23T12:23:5Z</time></trkpt>
<trkpt lat="49.13639831543" lon="2.7152717113495"><ele></ele><time>2022-6-23T12:23:8Z</time></trkpt>
<trkpt lat="49.136360168457" lon="2.7153871059418"><ele></ele><time>2022-6-23T12:23:11Z</time></trkpt>
<trkpt lat="49.136318206787" lon="2.7155072689056"><ele></ele><time>2022-6-23T12:23:14Z</time></trkpt>
<trkpt lat="49.136276245117" lon="2.71564412117"><ele></ele><time>2022-6-23T12:23:17Z</time></trkpt>
<trkpt lat="49.136276245117" lon="2.71564412117"><ele></ele><time>2022-6-23T12:23:20Z</time></trkpt>
<trkpt lat="49.136234283447" lon="2.7157909870148"><ele></ele><time>2022-6-23T12:23:23Z</time></trkpt>
<trkpt lat="49.13618850708" lon="2.7159368991852"><ele></ele><time>2022-6-23T12:23:26Z</time></trkpt>
<trkpt lat="49.136135101318" lon="2.7160923480988"><ele></ele><time>2022-6-23T12:23:29Z</time></trkpt>
<trkpt lat="49.136135101318" lon="2.7160923480988"><ele></ele><time>2022-6-23T12:23:32Z</time></trkpt>
<trkpt lat="49.136085510254" lon="2.7162251472473"><ele></ele><time>2022-6-23T12:23:35Z</time></trkpt>
<trkpt lat="49.136016845703" lon="2.7163219451904"><ele></ele><time>2022-6-23T12:23:38Z</time></trkpt>
<trkpt lat="49.135967254639" lon="2.7164525985718"><ele></ele><time>2022-6-23T12:23:41Z</time></trkpt>
<trkpt lat="49.135967254639" lon="2.7164525985718"><ele></ele><time>2022-6-23T12:23:44Z</time></trkpt>
<trkpt lat="49.135917663574" lon="2.7165770530701"><ele></ele><time>2022-6-23T12:23:47Z</time></trkpt>
<trkpt lat="49.13586807251" lon="2.7167203426361"><ele></ele><time>2022-6-23T12:23:50Z</time></trkpt>
<trkpt lat="49.135818481445" lon="2.7168869972229"><ele></ele><time>2022-6-23T12:23:53Z</time></trkpt>
<trkpt lat="49.135818481445" lon="2.7168869972229"><ele></ele><time>2022-6-23T12:23:56Z</time></trkpt>
<trkpt lat="49.135768890381" lon="2.7170517444611"><ele></ele><time>2022-6-23T12:23:59Z</time></trkpt>
<trkpt lat="49.135715484619" lon="2.7172026634216"><ele></ele><time>2022-6-23T12:24:2Z</time></trkpt>
<trkpt lat="49.13565826416" lon="2.7173590660095"><ele></ele><time>2022-6-23T12:24:5Z</time></trkpt>
<trkpt lat="49.13565826416" lon="2.7173590660095"><ele></ele><time>2022-6-23T12:24:8Z</time></trkpt>
<trkpt lat="49.135604858398" lon="2.7175230979919"><ele></ele><time>2022-6-23T12:24:11Z</time></trkpt>
<trkpt lat="49.135555267334" lon="2.7176723480225"><ele></ele><time>2022-6-23T12:24:14Z</time></trkpt>
<trkpt lat="49.135494232178" lon="2.7178292274475"><ele></ele><time>2022-6-23T12:24:17Z</time></trkpt>
<trkpt lat="49.135494232178" lon="2.7178292274475"><ele></ele><time>2022-6-23T12:24:20Z</time></trkpt>
<trkpt lat="49.135433197021" lon="2.7180073261261"><ele></ele><time>2022-6-23T12:24:23Z</time></trkpt>
<trkpt lat="49.135383605957" lon="2.7181622982025"><ele></ele><time>2022-6-23T12:24:26Z</time></trkpt>
<trkpt lat="49.135322570801" lon="2.7183451652527"><ele></ele><time>2022-6-23T12:24:29Z</time></trkpt>
<trkpt lat="49.135322570801" lon="2.7183451652527"><ele></ele><time>2022-6-23T12:24:32Z</time></trkpt>
<trkpt lat="49.135250091553" lon="2.7185294628143"><ele></ele><time>2022-6-23T12:24:35Z</time></trkpt>
<trkpt lat="49.135189056396" lon="2.7187056541443"><ele></ele><time>2022-6-23T12:24:38Z</time></trkpt>
<trkpt lat="49.135131835938" lon="2.7188618183136"><ele></ele><time>2022-6-23T12:24:41Z</time></trkpt>
<trkpt lat="49.135131835938" lon="2.7188618183136"><ele></ele><time>2022-6-23T12:24:44Z</time></trkpt>
<trkpt lat="49.135063171387" lon="2.7190194129944"><ele></ele><time>2022-6-23T12:24:47Z</time></trkpt>
<trkpt lat="49.134998321533" lon="2.7191920280457"><ele></ele><time>2022-6-23T12:24:50Z</time></trkpt>
<trkpt lat="49.13493347168" lon="2.7193779945374"><ele></ele><time>2022-6-23T12:24:53Z</time></trkpt>
<trkpt lat="49.13493347168" lon="2.7193779945374"><ele></ele><time>2022-6-23T12:24:56Z</time></trkpt>
<trkpt lat="49.134868621826" lon="2.7195618152618"><ele></ele><time>2022-6-23T12:24:59Z</time></trkpt>
<trkpt lat="49.134803771973" lon="2.7197413444519"><ele></ele><time>2022-6-23T12:25:2Z</time></trkpt>
<trkpt lat="49.134735107422" lon="2.7199347019196"><ele></ele><time>2022-6-23T12:25:5Z</time></trkpt>
<trkpt lat="49.134735107422" lon="2.7199347019196"><ele></ele><time>2022-6-23T12:25:8Z</time></trkpt>
<trkpt lat="49.134654998779" lon="2.7201449871063"><ele></ele><time>2022-6-23T12:25:11Z</time></trkpt>
<trkpt lat="49.134590148926" lon="2.7203381061554"><ele></ele><time>2022-6-23T12:25:14Z</time></trkpt>
<trkpt lat="49.13452911377" lon="2.7205126285553"><ele></ele><time>2022-6-23T12:25:17Z</time></trkpt>
<trkpt lat="49.13452911377" lon="2.7205126285553"><ele></ele><time>2022-6-23T12:25:20Z</time></trkpt>
<trkpt lat="49.134471893311" lon="2.7206754684448"><ele></ele><time>2022-6-23T12:25:23Z</time></trkpt>
<trkpt lat="49.134418487549" lon="2.7208433151245"><ele></ele><time>2022-6-23T12:25:26Z</time></trkpt>
<trkpt lat="49.134357452393" lon="2.7210311889648"><ele></ele><time>2022-6-23T12:25:29Z</time></trkpt>
<trkpt lat="49.134357452393" lon="2.7210311889648"><ele></ele><time>2022-6-23T12:25:32Z</time></trkpt>
<trkpt lat="49.134300231934" lon="2.7211990356445"><ele></ele><time>2022-6-23T12:25:35Z</time></trkpt>
<trkpt lat="49.13423538208" lon="2.7213802337646"><ele></ele><time>2022-6-23T12:25:38Z</time></trkpt>
<trkpt lat="49.134174346924" lon="2.7215676307678"><ele></ele><time>2022-6-23T12:25:41Z</time></trkpt>
<trkpt lat="49.134174346924" lon="2.7215676307678"><ele></ele><time>2022-6-23T12:25:44Z</time></trkpt>
<trkpt lat="49.134105682373" lon="2.721759557724"><ele></ele><time>2022-6-23T12:25:47Z</time></trkpt>
<trkpt lat="49.134048461914" lon="2.7219362258911"><ele></ele><time>2022-6-23T12:25:50Z</time></trkpt>
<trkpt lat="49.133987426758" lon="2.7221119403839"><ele></ele><time>2022-6-23T12:25:53Z</time></trkpt>
<trkpt lat="49.133987426758" lon="2.7221119403839"><ele></ele><time>2022-6-23T12:25:56Z</time></trkpt>
<trkpt lat="49.133918762207" lon="2.7222990989685"><ele></ele><time>2022-6-23T12:25:59Z</time></trkpt>
<trkpt lat="49.133850097656" lon="2.7224996089935"><ele></ele><time>2022-6-23T12:26:2Z</time></trkpt>
<trkpt lat="49.133785247803" lon="2.7226977348328"><ele></ele><time>2022-6-23T12:26:5Z</time></trkpt>
<trkpt lat="49.133785247803" lon="2.7226977348328"><ele></ele><time>2022-6-23T12:26:8Z</time></trkpt>
<trkpt lat="49.133720397949" lon="2.7228949069977"><ele></ele><time>2022-6-23T12:26:11Z</time></trkpt>
<trkpt lat="49.133647918701" lon="2.7231070995331"><ele></ele><time>2022-6-23T12:26:14Z</time></trkpt>
<trkpt lat="49.13357925415" lon="2.7233071327209"><ele></ele><time>2022-6-23T12:26:17Z</time></trkpt>
<trkpt lat="49.13357925415" lon="2.7233071327209"><ele></ele><time>2022-6-23T12:26:20Z</time></trkpt>
<trkpt lat="49.133518218994" lon="2.7234880924225"><ele></ele><time>2022-6-23T12:26:23Z</time></trkpt>
<trkpt lat="49.133453369141" lon="2.723691701889"><ele></ele><time>2022-6-23T12:26:26Z</time></trkpt>
<trkpt lat="49.133388519287" lon="2.7239017486572"><ele></ele><time>2022-6-23T12:26:29Z</time></trkpt>
<trkpt lat="49.133388519287" lon="2.7239017486572"><ele></ele><time>2022-6-23T12:26:32Z</time></trkpt>
<trkpt lat="49.133327484131" lon="2.7240948677063"><ele></ele><time>2022-6-23T12:26:35Z</time></trkpt>
<trkpt lat="49.133247375488" lon="2.7242066860199"><ele></ele><time>2022-6-23T12:26:38Z</time></trkpt>
<trkpt lat="49.133113861084" lon="2.7241740226746"><ele></ele><time>2022-6-23T12:26:41Z</time></trkpt>
<trkpt lat="49.133113861084" lon="2.7241740226746"><ele></ele><time>2022-6-23T12:26:44Z</time></trkpt>
<trkpt lat="49.133007049561" lon="2.7241179943085"><ele></ele><time>2022-6-23T12:26:47Z</time></trkpt>
<trkpt lat="49.132915496826" lon="2.7241561412811"><ele></ele><time>2022-6-23T12:26:50Z</time></trkpt>
<trkpt lat="49.132858276367" lon="2.724219083786"><ele></ele><time>2022-6-23T12:26:53Z</time></trkpt>
<trkpt lat="49.132858276367" lon="2.724219083786"><ele></ele><time>2022-6-23T12:26:56Z</time></trkpt>
<trkpt lat="49.132858276367" lon="2.724219083786"><ele></ele><time>2022-6-23T12:26:59Z</time></trkpt>
<trkpt lat="49.132858276367" lon="2.724219083786"><ele></ele><time>2022-6-23T12:27:2Z</time></trkpt>
<trkpt lat="49.132789611816" lon="2.7241930961609"><ele></ele><time>2022-6-23T12:27:5Z</time></trkpt>
<trkpt lat="49.132789611816" lon="2.7241930961609"><ele></ele><time>2022-6-23T12:27:8Z</time></trkpt>
<trkpt lat="49.132705688477" lon="2.7241377830505"><ele></ele><time>2022-6-23T12:27:11Z</time></trkpt>
<trkpt lat="49.132633209229" lon="2.7240853309631"><ele></ele><time>2022-6-23T12:27:14Z</time></trkpt>
<trkpt lat="49.132572174072" lon="2.7240328788757"><ele></ele><time>2022-6-23T12:27:17Z</time></trkpt>
<trkpt lat="49.132572174072" lon="2.7240328788757"><ele></ele><time>2022-6-23T12:27:20Z</time></trkpt>
<trkpt lat="49.132488250732" lon="2.7239527702332"><ele></ele><time>2022-6-23T12:27:23Z</time></trkpt>
<trkpt lat="49.132415771484" lon="2.723865032196"><ele></ele><time>2022-6-23T12:27:26Z</time></trkpt>
<trkpt lat="49.132343292236" lon="2.7237594127655"><ele></ele><time>2022-6-23T12:27:29Z</time></trkpt>
<trkpt lat="49.132343292236" lon="2.7237594127655"><ele></ele><time>2022-6-23T12:27:32Z</time></trkpt>
<trkpt lat="49.132286071777" lon="2.7236440181732"><ele></ele><time>2022-6-23T12:27:35Z</time></trkpt>
<trkpt lat="49.132205963135" lon="2.7235124111176"><ele></ele><time>2022-6-23T12:27:38Z</time></trkpt>
<trkpt lat="49.132133483887" lon="2.72336602211"><ele></ele><time>2022-6-23T12:27:41Z</time></trkpt>
<trkpt lat="49.132133483887" lon="2.72336602211"><ele></ele><time>2022-6-23T12:27:44Z</time></trkpt>
<trkpt lat="49.132076263428" lon="2.723210811615"><ele></ele><time>2022-6-23T12:27:47Z</time></trkpt>
<trkpt lat="49.132019042969" lon="2.723067522049"><ele></ele><time>2022-6-23T12:27:50Z</time></trkpt>
<trkpt lat="49.131954193115" lon="2.722916841507"><ele></ele><time>2022-6-23T12:27:53Z</time></trkpt>
<trkpt lat="49.131954193115" lon="2.722916841507"><ele></ele><time>2022-6-23T12:27:56Z</time></trkpt>
<trkpt lat="49.131885528564" lon="2.7227592468262"><ele></ele><time>2022-6-23T12:27:59Z</time></trkpt>
<trkpt lat="49.131805419922" lon="2.722592830658"><ele></ele><time>2022-6-23T12:28:2Z</time></trkpt>
<trkpt lat="49.131725311279" lon="2.722451210022"><ele></ele><time>2022-6-23T12:28:5Z</time></trkpt>
<trkpt lat="49.131637573242" lon="2.7223877906799"><ele></ele><time>2022-6-23T12:28:8Z</time></trkpt>
<trkpt lat="49.131538391113" lon="2.7223320007324"><ele></ele><time>2022-6-23T12:28:11Z</time></trkpt>
<trkpt lat="49.131538391113" lon="2.7223320007324"><ele></ele><time>2022-6-23T12:28:14Z</time></trkpt>
<trkpt lat="49.13143157959" lon="2.7222831249237"><ele></ele><time>2022-6-23T12:28:17Z</time></trkpt>
<trkpt lat="49.131324768066" lon="2.7222182750702"><ele></ele><time>2022-6-23T12:28:20Z</time></trkpt>
<trkpt lat="49.13122177124" lon="2.7221369743347"><ele></ele><time>2022-6-23T12:28:23Z</time></trkpt>
<trkpt lat="49.13122177124" lon="2.7221369743347"><ele></ele><time>2022-6-23T12:28:26Z</time></trkpt>
<trkpt lat="49.131126403809" lon="2.7220611572266"><ele></ele><time>2022-6-23T12:28:29Z</time></trkpt>
<trkpt lat="49.131031036377" lon="2.7219865322113"><ele></ele><time>2022-6-23T12:28:32Z</time></trkpt>
<trkpt lat="49.130931854248" lon="2.7219095230103"><ele></ele><time>2022-6-23T12:28:35Z</time></trkpt>
<trkpt lat="49.130931854248" lon="2.7219095230103"><ele></ele><time>2022-6-23T12:28:38Z</time></trkpt>
<trkpt lat="49.130821228027" lon="2.721827507019"><ele></ele><time>2022-6-23T12:28:41Z</time></trkpt>
<trkpt lat="49.130706787109" lon="2.7217268943787"><ele></ele><time>2022-6-23T12:28:44Z</time></trkpt>
<trkpt lat="49.13060760498" lon="2.7216455936432"><ele></ele><time>2022-6-23T12:28:47Z</time></trkpt>
<trkpt lat="49.13060760498" lon="2.7216455936432"><ele></ele><time>2022-6-23T12:28:50Z</time></trkpt>
<trkpt lat="49.130519866943" lon="2.721578836441"><ele></ele><time>2022-6-23T12:28:53Z</time></trkpt>
<trkpt lat="49.130409240723" lon="2.7214770317078"><ele></ele><time>2022-6-23T12:28:56Z</time></trkpt>
<trkpt lat="49.130302429199" lon="2.7212986946106"><ele></ele><time>2022-6-23T12:28:59Z</time></trkpt>
<trkpt lat="49.130302429199" lon="2.7212986946106"><ele></ele><time>2022-6-23T12:29:2Z</time></trkpt>
<trkpt lat="49.130229949951" lon="2.7211220264435"><ele></ele><time>2022-6-23T12:29:5Z</time></trkpt>
<trkpt lat="49.130187988281" lon="2.7209599018097"><ele></ele><time>2022-6-23T12:29:8Z</time></trkpt>
<trkpt lat="49.130157470703" lon="2.7208080291748"><ele></ele><time>2022-6-23T12:29:11Z</time></trkpt>
<trkpt lat="49.130157470703" lon="2.7208080291748"><ele></ele><time>2022-6-23T12:29:14Z</time></trkpt>
<trkpt lat="49.130126953125" lon="2.7206633090973"><ele></ele><time>2022-6-23T12:29:17Z</time></trkpt>
<trkpt lat="49.13009262085" lon="2.7205574512482"><ele></ele><time>2022-6-23T12:29:20Z</time></trkpt>
<trkpt lat="49.13009262085" lon="2.7205574512482"><ele></ele><time>2022-6-23T12:29:23Z</time></trkpt>
<trkpt lat="49.13009262085" lon="2.7205574512482"><ele></ele><time>2022-6-23T12:29:26Z</time></trkpt>
<trkpt lat="49.130054473877" lon="2.7204668521881"><ele></ele><time>2022-6-23T12:29:29Z</time></trkpt>
<trkpt lat="49.130054473877" lon="2.7204668521881"><ele></ele><time>2022-6-23T12:29:32Z</time></trkpt>
<trkpt lat="49.130084991455" lon="2.7203068733215"><ele></ele><time>2022-6-23T12:29:35Z</time></trkpt>
<trkpt lat="49.130100250244" lon="2.7202124595642"><ele></ele><time>2022-6-23T12:29:38Z</time></trkpt>
<trkpt lat="49.130123138428" lon="2.7201137542725"><ele></ele><time>2022-6-23T12:29:41Z</time></trkpt>
<trkpt lat="49.130123138428" lon="2.7201137542725"><ele></ele><time>2022-6-23T12:29:44Z</time></trkpt>
<trkpt lat="49.130146026611" lon="2.7200105190277"><ele></ele><time>2022-6-23T12:29:47Z</time></trkpt>
<trkpt lat="49.130168914795" lon="2.7198877334595"><ele></ele><time>2022-6-23T12:29:50Z</time></trkpt>
<trkpt lat="49.130187988281" lon="2.719767332077"><ele></ele><time>2022-6-23T12:29:53Z</time></trkpt>
<trkpt lat="49.130199432373" lon="2.7196519374847"><ele></ele><time>2022-6-23T12:29:56Z</time></trkpt>
<trkpt lat="49.130214691162" lon="2.7195355892181"><ele></ele><time>2022-6-23T12:29:59Z</time></trkpt>
<trkpt lat="49.130226135254" lon="2.7194094657898"><ele></ele><time>2022-6-23T12:30:2Z</time></trkpt>
<trkpt lat="49.130241394043" lon="2.7192687988281"><ele></ele><time>2022-6-23T12:30:5Z</time></trkpt>
<trkpt lat="49.130252838135" lon="2.7191500663757"><ele></ele><time>2022-6-23T12:30:8Z</time></trkpt>
<trkpt lat="49.130271911621" lon="2.7190442085266"><ele></ele><time>2022-6-23T12:30:11Z</time></trkpt>
<trkpt lat="49.130298614502" lon="2.7189304828644"><ele></ele><time>2022-6-23T12:30:14Z</time></trkpt>
<trkpt lat="49.130325317383" lon="2.7188246250153"><ele></ele><time>2022-6-23T12:30:17Z</time></trkpt>
<trkpt lat="49.130352020264" lon="2.7186999320984"><ele></ele><time>2022-6-23T12:30:20Z</time></trkpt>
<trkpt lat="49.13037109375" lon="2.7185733318329"><ele></ele><time>2022-6-23T12:30:23Z</time></trkpt>
<trkpt lat="49.130390167236" lon="2.7184541225433"><ele></ele><time>2022-6-23T12:30:26Z</time></trkpt>
<trkpt lat="49.13041305542" lon="2.7183225154877"><ele></ele><time>2022-6-23T12:30:29Z</time></trkpt>
<trkpt lat="49.130432128906" lon="2.7182173728943"><ele></ele><time>2022-6-23T12:30:32Z</time></trkpt>
<trkpt lat="49.130451202393" lon="2.7181131839752"><ele></ele><time>2022-6-23T12:30:35Z</time></trkpt>
<trkpt lat="49.130470275879" lon="2.7179801464081"><ele></ele><time>2022-6-23T12:30:38Z</time></trkpt>
<trkpt lat="49.130485534668" lon="2.7178552150726"><ele></ele><time>2022-6-23T12:30:41Z</time></trkpt>
<trkpt lat="49.130493164062" lon="2.7177360057831"><ele></ele><time>2022-6-23T12:30:44Z</time></trkpt>
<trkpt lat="49.13049697876" lon="2.7176158428192"><ele></ele><time>2022-6-23T12:30:47Z</time></trkpt>
<trkpt lat="49.130493164062" lon="2.7175085544586"><ele></ele><time>2022-6-23T12:30:50Z</time></trkpt>
<trkpt lat="49.130489349365" lon="2.7173874378204"><ele></ele><time>2022-6-23T12:30:53Z</time></trkpt>
<trkpt lat="49.130489349365" lon="2.7172830104828"><ele></ele><time>2022-6-23T12:30:56Z</time></trkpt>
<trkpt lat="49.130485534668" lon="2.7171821594238"><ele></ele><time>2022-6-23T12:30:59Z</time></trkpt>
<trkpt lat="49.13049697876" lon="2.7170865535736"><ele></ele><time>2022-6-23T12:31:2Z</time></trkpt>
<trkpt lat="49.130504608154" lon="2.7169766426086"><ele></ele><time>2022-6-23T12:31:5Z</time></trkpt>
<trkpt lat="49.13049697876" lon="2.7168829441071"><ele></ele><time>2022-6-23T12:31:8Z</time></trkpt>
<trkpt lat="49.130493164062" lon="2.7167949676514"><ele></ele><time>2022-6-23T12:31:11Z</time></trkpt>
<trkpt lat="49.130493164062" lon="2.7167949676514"><ele></ele><time>2022-6-23T12:31:14Z</time></trkpt>
<trkpt lat="49.130493164062" lon="2.7166335582733"><ele></ele><time>2022-6-23T12:31:17Z</time></trkpt>
<trkpt lat="49.130493164062" lon="2.7166335582733"><ele></ele><time>2022-6-23T12:31:20Z</time></trkpt>
<trkpt lat="49.13049697876" lon="2.7164447307587"><ele></ele><time>2022-6-23T12:31:23Z</time></trkpt>
<trkpt lat="49.130500793457" lon="2.7163412570953"><ele></ele><time>2022-6-23T12:31:26Z</time></trkpt>
<trkpt lat="49.130500793457" lon="2.7163412570953"><ele></ele><time>2022-6-23T12:31:29Z</time></trkpt>
<trkpt lat="49.130500793457" lon="2.7161796092987"><ele></ele><time>2022-6-23T12:31:32Z</time></trkpt>
<trkpt lat="49.130500793457" lon="2.7161796092987"><ele></ele><time>2022-6-23T12:31:35Z</time></trkpt>
<trkpt lat="49.130451202393" lon="2.716046333313"><ele></ele><time>2022-6-23T12:31:38Z</time></trkpt>
<trkpt lat="49.130451202393" lon="2.716046333313"><ele></ele><time>2022-6-23T12:31:41Z</time></trkpt>
<trkpt lat="49.130386352539" lon="2.715980052948"><ele></ele><time>2022-6-23T12:31:44Z</time></trkpt>
<trkpt lat="49.130313873291" lon="2.7158970832825"><ele></ele><time>2022-6-23T12:31:47Z</time></trkpt>
<trkpt lat="49.130271911621" lon="2.7158570289612"><ele></ele><time>2022-6-23T12:31:50Z</time></trkpt>
<trkpt lat="49.130222320557" lon="2.7158019542694"><ele></ele><time>2022-6-23T12:31:53Z</time></trkpt>
<trkpt lat="49.130176544189" lon="2.7157442569733"><ele></ele><time>2022-6-23T12:31:56Z</time></trkpt>
<trkpt lat="49.130130767822" lon="2.7156887054443"><ele></ele><time>2022-6-23T12:31:59Z</time></trkpt>
<trkpt lat="49.130107879639" lon="2.7156205177307"><ele></ele><time>2022-6-23T12:32:2Z</time></trkpt>
<trkpt lat="49.130084991455" lon="2.7154977321625"><ele></ele><time>2022-6-23T12:32:5Z</time></trkpt>
<trkpt lat="49.130084991455" lon="2.7154977321625"><ele></ele><time>2022-6-23T12:32:8Z</time></trkpt>
<trkpt lat="49.130084991455" lon="2.7154977321625"><ele></ele><time>2022-6-23T12:32:11Z</time></trkpt>
<trkpt lat="49.130027770996" lon="2.7153644561768"><ele></ele><time>2022-6-23T12:32:14Z</time></trkpt>
<trkpt lat="49.129974365234" lon="2.7152361869812"><ele></ele><time>2022-6-23T12:32:17Z</time></trkpt>
<trkpt lat="49.129936218262" lon="2.7150864601135"><ele></ele><time>2022-6-23T12:32:20Z</time></trkpt>
<trkpt lat="49.129936218262" lon="2.7150864601135"><ele></ele><time>2022-6-23T12:32:23Z</time></trkpt>
<trkpt lat="49.129932403564" lon="2.7149455547333"><ele></ele><time>2022-6-23T12:32:26Z</time></trkpt>
<trkpt lat="49.12992477417" lon="2.7148554325104"><ele></ele><time>2022-6-23T12:32:29Z</time></trkpt>
<trkpt lat="49.129920959473" lon="2.7147679328918"><ele></ele><time>2022-6-23T12:32:32Z</time></trkpt>
<trkpt lat="49.129886627197" lon="2.7146265506744"><ele></ele><time>2022-6-23T12:32:35Z</time></trkpt>
<trkpt lat="49.129875183105" lon="2.7145366668701"><ele></ele><time>2022-6-23T12:32:38Z</time></trkpt>
<trkpt lat="49.129886627197" lon="2.7144358158112"><ele></ele><time>2022-6-23T12:32:41Z</time></trkpt>
<trkpt lat="49.129951477051" lon="2.7143042087555"><ele></ele><time>2022-6-23T12:32:44Z</time></trkpt>
<trkpt lat="49.129951477051" lon="2.7143042087555"><ele></ele><time>2022-6-23T12:32:47Z</time></trkpt>
<trkpt lat="49.130001068115" lon="2.7142331600189"><ele></ele><time>2022-6-23T12:32:50Z</time></trkpt>
<trkpt lat="49.130001068115" lon="2.7142331600189"><ele></ele><time>2022-6-23T12:32:53Z</time></trkpt>
<trkpt lat="49.130001068115" lon="2.7142331600189"><ele></ele><time>2022-6-23T12:32:56Z</time></trkpt>
<trkpt lat="49.130001068115" lon="2.7142331600189"><ele></ele><time>2022-6-23T12:32:59Z</time></trkpt>
<trkpt lat="49.130001068115" lon="2.7142331600189"><ele></ele><time>2022-6-23T12:33:2Z</time></trkpt>
<trkpt lat="49.130096435547" lon="2.714031457901"><ele></ele><time>2022-6-23T12:33:5Z</time></trkpt>
<trkpt lat="49.130153656006" lon="2.713901758194"><ele></ele><time>2022-6-23T12:33:8Z</time></trkpt>
<trkpt lat="49.130153656006" lon="2.713901758194"><ele></ele><time>2022-6-23T12:33:11Z</time></trkpt>
<trkpt lat="49.130218505859" lon="2.7137706279755"><ele></ele><time>2022-6-23T12:33:14Z</time></trkpt>
<trkpt lat="49.130218505859" lon="2.7137706279755"><ele></ele><time>2022-6-23T12:33:17Z</time></trkpt>
<trkpt lat="49.130218505859" lon="2.7137706279755"><ele></ele><time>2022-6-23T12:33:20Z</time></trkpt>
<trkpt lat="49.13028717041" lon="2.713666677475"><ele></ele><time>2022-6-23T12:33:23Z</time></trkpt>
<trkpt lat="49.130332946777" lon="2.7136187553406"><ele></ele><time>2022-6-23T12:33:26Z</time></trkpt>
<trkpt lat="49.130332946777" lon="2.7136187553406"><ele></ele><time>2022-6-23T12:33:29Z</time></trkpt>
<trkpt lat="49.130332946777" lon="2.7136187553406"><ele></ele><time>2022-6-23T12:33:32Z</time></trkpt>
<trkpt lat="49.130420684814" lon="2.7135698795319"><ele></ele><time>2022-6-23T12:33:35Z</time></trkpt>
<trkpt lat="49.130420684814" lon="2.7135698795319"><ele></ele><time>2022-6-23T12:33:38Z</time></trkpt>
<trkpt lat="49.130500793457" lon="2.7135455608368"><ele></ele><time>2022-6-23T12:33:41Z</time></trkpt>
<trkpt lat="49.130500793457" lon="2.7135455608368"><ele></ele><time>2022-6-23T12:33:44Z</time></trkpt>
<trkpt lat="49.130500793457" lon="2.7135455608368"><ele></ele><time>2022-6-23T12:33:47Z</time></trkpt>
<trkpt lat="49.130569458008" lon="2.7135035991669"><ele></ele><time>2022-6-23T12:33:50Z</time></trkpt>
<trkpt lat="49.130569458008" lon="2.7135035991669"><ele></ele><time>2022-6-23T12:33:53Z</time></trkpt>
<trkpt lat="49.130569458008" lon="2.7135035991669"><ele></ele><time>2022-6-23T12:33:56Z</time></trkpt>
<trkpt lat="49.130676269531" lon="2.7134444713593"><ele></ele><time>2022-6-23T12:33:59Z</time></trkpt>
<trkpt lat="49.130756378174" lon="2.7134087085724"><ele></ele><time>2022-6-23T12:34:2Z</time></trkpt>
<trkpt lat="49.130756378174" lon="2.7134087085724"><ele></ele><time>2022-6-23T12:34:5Z</time></trkpt>
<trkpt lat="49.130828857422" lon="2.7133610248566"><ele></ele><time>2022-6-23T12:34:8Z</time></trkpt>
<trkpt lat="49.130828857422" lon="2.7133610248566"><ele></ele><time>2022-6-23T12:34:11Z</time></trkpt>
<trkpt lat="49.13090133667" lon="2.7133076190948"><ele></ele><time>2022-6-23T12:34:14Z</time></trkpt>
<trkpt lat="49.13090133667" lon="2.7133076190948"><ele></ele><time>2022-6-23T12:34:17Z</time></trkpt>
<trkpt lat="49.130973815918" lon="2.7132840156555"><ele></ele><time>2022-6-23T12:34:20Z</time></trkpt>
<trkpt lat="49.130973815918" lon="2.7132840156555"><ele></ele><time>2022-6-23T12:34:23Z</time></trkpt>
<trkpt lat="49.131050109863" lon="2.7132604122162"><ele></ele><time>2022-6-23T12:34:26Z</time></trkpt>
<trkpt lat="49.131050109863" lon="2.7132604122162"><ele></ele><time>2022-6-23T12:34:29Z</time></trkpt>
<trkpt lat="49.131118774414" lon="2.7132229804993"><ele></ele><time>2022-6-23T12:34:32Z</time></trkpt>
<trkpt lat="49.131118774414" lon="2.7132229804993"><ele></ele><time>2022-6-23T12:34:35Z</time></trkpt>
<trkpt lat="49.131118774414" lon="2.7132229804993"><ele></ele><time>2022-6-23T12:34:38Z</time></trkpt>
<trkpt lat="49.131118774414" lon="2.7132229804993"><ele></ele><time>2022-6-23T12:34:41Z</time></trkpt>
<trkpt lat="49.131187438965" lon="2.7131559848785"><ele></ele><time>2022-6-23T12:34:44Z</time></trkpt>
<trkpt lat="49.131187438965" lon="2.7131559848785"><ele></ele><time>2022-6-23T12:34:47Z</time></trkpt>
<trkpt lat="49.131187438965" lon="2.7131559848785"><ele></ele><time>2022-6-23T12:34:50Z</time></trkpt>
<trkpt lat="49.131278991699" lon="2.7130753993988"><ele></ele><time>2022-6-23T12:34:53Z</time></trkpt>
<trkpt lat="49.131355285645" lon="2.7130279541016"><ele></ele><time>2022-6-23T12:34:56Z</time></trkpt>
<trkpt lat="49.131355285645" lon="2.7130279541016"><ele></ele><time>2022-6-23T12:34:59Z</time></trkpt>
<trkpt lat="49.13143157959" lon="2.7129805088043"><ele></ele><time>2022-6-23T12:35:2Z</time></trkpt>
<trkpt lat="49.13143157959" lon="2.7129805088043"><ele></ele><time>2022-6-23T12:35:5Z</time></trkpt>
<trkpt lat="49.13143157959" lon="2.7129805088043"><ele></ele><time>2022-6-23T12:35:8Z</time></trkpt>
<trkpt lat="49.13143157959" lon="2.7129805088043"><ele></ele><time>2022-6-23T12:35:11Z</time></trkpt>
<trkpt lat="49.131526947021" lon="2.7129986286163"><ele></ele><time>2022-6-23T12:35:14Z</time></trkpt>
<trkpt lat="49.131526947021" lon="2.7129986286163"><ele></ele><time>2022-6-23T12:35:17Z</time></trkpt>
<trkpt lat="49.131526947021" lon="2.7129986286163"><ele></ele><time>2022-6-23T12:35:20Z</time></trkpt>
<trkpt lat="49.131603240967" lon="2.7130193710327"><ele></ele><time>2022-6-23T12:35:23Z</time></trkpt>
<trkpt lat="49.131679534912" lon="2.7130260467529"><ele></ele><time>2022-6-23T12:35:26Z</time></trkpt>
<trkpt lat="49.131679534912" lon="2.7130260467529"><ele></ele><time>2022-6-23T12:35:29Z</time></trkpt>
<trkpt lat="49.131763458252" lon="2.713063955307"><ele></ele><time>2022-6-23T12:35:32Z</time></trkpt>
<trkpt lat="49.131763458252" lon="2.713063955307"><ele></ele><time>2022-6-23T12:35:35Z</time></trkpt>
<trkpt lat="49.131763458252" lon="2.713063955307"><ele></ele><time>2022-6-23T12:35:38Z</time></trkpt>
<trkpt lat="49.131828308105" lon="2.7130649089813"><ele></ele><time>2022-6-23T12:35:41Z</time></trkpt>
<trkpt lat="49.131900787354" lon="2.7130661010742"><ele></ele><time>2022-6-23T12:35:44Z</time></trkpt>
<trkpt lat="49.131900787354" lon="2.7130661010742"><ele></ele><time>2022-6-23T12:35:47Z</time></trkpt>
<trkpt lat="49.131984710693" lon="2.7130737304688"><ele></ele><time>2022-6-23T12:35:50Z</time></trkpt>
<trkpt lat="49.131984710693" lon="2.7130737304688"><ele></ele><time>2022-6-23T12:35:53Z</time></trkpt>
<trkpt lat="49.132076263428" lon="2.7130672931671"><ele></ele><time>2022-6-23T12:35:56Z</time></trkpt>
<trkpt lat="49.132167816162" lon="2.7130637168884"><ele></ele><time>2022-6-23T12:35:59Z</time></trkpt>
<trkpt lat="49.132167816162" lon="2.7130637168884"><ele></ele><time>2022-6-23T12:36:2Z</time></trkpt>
<trkpt lat="49.132225036621" lon="2.7130677700043"><ele></ele><time>2022-6-23T12:36:5Z</time></trkpt>
<trkpt lat="49.132278442383" lon="2.7130651473999"><ele></ele><time>2022-6-23T12:36:8Z</time></trkpt>
<trkpt lat="49.132278442383" lon="2.7130651473999"><ele></ele><time>2022-6-23T12:36:11Z</time></trkpt>
<trkpt lat="49.132328033447" lon="2.713042974472"><ele></ele><time>2022-6-23T12:36:14Z</time></trkpt>
<trkpt lat="49.132369995117" lon="2.7130069732666"><ele></ele><time>2022-6-23T12:36:17Z</time></trkpt>
<trkpt lat="49.132404327393" lon="2.7129645347595"><ele></ele><time>2022-6-23T12:36:20Z</time></trkpt>
<trkpt lat="49.132404327393" lon="2.7129645347595"><ele></ele><time>2022-6-23T12:36:23Z</time></trkpt>
<trkpt lat="49.132465362549" lon="2.7128727436066"><ele></ele><time>2022-6-23T12:36:26Z</time></trkpt>
<trkpt lat="49.132465362549" lon="2.7128727436066"><ele></ele><time>2022-6-23T12:36:29Z</time></trkpt>
<trkpt lat="49.132511138916" lon="2.7127938270569"><ele></ele><time>2022-6-23T12:36:32Z</time></trkpt>
<trkpt lat="49.132511138916" lon="2.7127938270569"><ele></ele><time>2022-6-23T12:36:35Z</time></trkpt>
<trkpt lat="49.132511138916" lon="2.7127938270569"><ele></ele><time>2022-6-23T12:36:38Z</time></trkpt>
<trkpt lat="49.132537841797" lon="2.7127084732056"><ele></ele><time>2022-6-23T12:36:41Z</time></trkpt>
<trkpt lat="49.132537841797" lon="2.7127084732056"><ele></ele><time>2022-6-23T12:36:44Z</time></trkpt>
<trkpt lat="49.132537841797" lon="2.7127084732056"><ele></ele><time>2022-6-23T12:36:47Z</time></trkpt>
<trkpt lat="49.132537841797" lon="2.7127084732056"><ele></ele><time>2022-6-23T12:36:50Z</time></trkpt>
<trkpt lat="49.132572174072" lon="2.7126009464264"><ele></ele><time>2022-6-23T12:36:53Z</time></trkpt>
<trkpt lat="49.132572174072" lon="2.7126009464264"><ele></ele><time>2022-6-23T12:36:56Z</time></trkpt>
<trkpt lat="49.132572174072" lon="2.7126009464264"><ele></ele><time>2022-6-23T12:36:59Z</time></trkpt>
<trkpt lat="49.132591247559" lon="2.7125008106232"><ele></ele><time>2022-6-23T12:37:2Z</time></trkpt>
<trkpt lat="49.132591247559" lon="2.7125008106232"><ele></ele><time>2022-6-23T12:37:5Z</time></trkpt>
<trkpt lat="49.132625579834" lon="2.7124125957489"><ele></ele><time>2022-6-23T12:37:8Z</time></trkpt>
<trkpt lat="49.132625579834" lon="2.7124125957489"><ele></ele><time>2022-6-23T12:37:11Z</time></trkpt>
<trkpt lat="49.132625579834" lon="2.7124125957489"><ele></ele><time>2022-6-23T12:37:14Z</time></trkpt>
<trkpt lat="49.132678985596" lon="2.7123274803162"><ele></ele><time>2022-6-23T12:37:17Z</time></trkpt>
<trkpt lat="49.132678985596" lon="2.7123274803162"><ele></ele><time>2022-6-23T12:37:20Z</time></trkpt>
<trkpt lat="49.132678985596" lon="2.7123274803162"><ele></ele><time>2022-6-23T12:37:23Z</time></trkpt>
<trkpt lat="49.132736206055" lon="2.7122657299042"><ele></ele><time>2022-6-23T12:37:26Z</time></trkpt>
<trkpt lat="49.132736206055" lon="2.7122657299042"><ele></ele><time>2022-6-23T12:37:29Z</time></trkpt>
<trkpt lat="49.132736206055" lon="2.7122657299042"><ele></ele><time>2022-6-23T12:37:32Z</time></trkpt>
<trkpt lat="49.132736206055" lon="2.7122657299042"><ele></ele><time>2022-6-23T12:37:35Z</time></trkpt>
<trkpt lat="49.132823944092" lon="2.7122116088867"><ele></ele><time>2022-6-23T12:37:38Z</time></trkpt>
<trkpt lat="49.132823944092" lon="2.7122116088867"><ele></ele><time>2022-6-23T12:37:41Z</time></trkpt>
<trkpt lat="49.132884979248" lon="2.7121810913086"><ele></ele><time>2022-6-23T12:37:44Z</time></trkpt>
<trkpt lat="49.132884979248" lon="2.7121810913086"><ele></ele><time>2022-6-23T12:37:47Z</time></trkpt>
<trkpt lat="49.132884979248" lon="2.7121810913086"><ele></ele><time>2022-6-23T12:37:50Z</time></trkpt>
<trkpt lat="49.132884979248" lon="2.7121810913086"><ele></ele><time>2022-6-23T12:37:53Z</time></trkpt>
<trkpt lat="49.132953643799" lon="2.7121279239655"><ele></ele><time>2022-6-23T12:37:56Z</time></trkpt>
<trkpt lat="49.132953643799" lon="2.7121279239655"><ele></ele><time>2022-6-23T12:37:59Z</time></trkpt>
<trkpt lat="49.132953643799" lon="2.7121279239655"><ele></ele><time>2022-6-23T12:38:2Z</time></trkpt>
<trkpt lat="49.132953643799" lon="2.7121279239655"><ele></ele><time>2022-6-23T12:38:5Z</time></trkpt>
<trkpt lat="49.133014678955" lon="2.7120633125305"><ele></ele><time>2022-6-23T12:38:8Z</time></trkpt>
<trkpt lat="49.133014678955" lon="2.7120633125305"><ele></ele><time>2022-6-23T12:38:11Z</time></trkpt>
<trkpt lat="49.133014678955" lon="2.7120633125305"><ele></ele><time>2022-6-23T12:38:14Z</time></trkpt>
<trkpt lat="49.133014678955" lon="2.7120633125305"><ele></ele><time>2022-6-23T12:38:17Z</time></trkpt>
<trkpt lat="49.133014678955" lon="2.7120633125305"><ele></ele><time>2022-6-23T12:38:20Z</time></trkpt>
<trkpt lat="49.1330909729" lon="2.712051153183"><ele></ele><time>2022-6-23T12:38:23Z</time></trkpt>
<trkpt lat="49.1330909729" lon="2.712051153183"><ele></ele><time>2022-6-23T12:38:26Z</time></trkpt>
<trkpt lat="49.1330909729" lon="2.712051153183"><ele></ele><time>2022-6-23T12:38:29Z</time></trkpt>
<trkpt lat="49.1330909729" lon="2.712051153183"><ele></ele><time>2022-6-23T12:38:32Z</time></trkpt>
<trkpt lat="49.13317489624" lon="2.7120268344879"><ele></ele><time>2022-6-23T12:38:35Z</time></trkpt>
<trkpt lat="49.13317489624" lon="2.7120268344879"><ele></ele><time>2022-6-23T12:38:38Z</time></trkpt>
<trkpt lat="49.133281707764" lon="2.7120468616486"><ele></ele><time>2022-6-23T12:38:41Z</time></trkpt>
<trkpt lat="49.133350372314" lon="2.7120814323425"><ele></ele><time>2022-6-23T12:38:44Z</time></trkpt>
<trkpt lat="49.133350372314" lon="2.7120814323425"><ele></ele><time>2022-6-23T12:38:47Z</time></trkpt>
<trkpt lat="49.133407592773" lon="2.7120895385742"><ele></ele><time>2022-6-23T12:38:50Z</time></trkpt>
<trkpt lat="49.133407592773" lon="2.7120895385742"><ele></ele><time>2022-6-23T12:38:53Z</time></trkpt>
<trkpt lat="49.133495330811" lon="2.7121171951294"><ele></ele><time>2022-6-23T12:38:56Z</time></trkpt>
<trkpt lat="49.133495330811" lon="2.7121171951294"><ele></ele><time>2022-6-23T12:38:59Z</time></trkpt>
<trkpt lat="49.133560180664" lon="2.7121305465698"><ele></ele><time>2022-6-23T12:39:2Z</time></trkpt>
<trkpt lat="49.133560180664" lon="2.7121305465698"><ele></ele><time>2022-6-23T12:39:5Z</time></trkpt>
<trkpt lat="49.13362121582" lon="2.7120985984802"><ele></ele><time>2022-6-23T12:39:8Z</time></trkpt>
<trkpt lat="49.133678436279" lon="2.7120580673218"><ele></ele><time>2022-6-23T12:39:11Z</time></trkpt>
<trkpt lat="49.133678436279" lon="2.7120580673218"><ele></ele><time>2022-6-23T12:39:14Z</time></trkpt>
<trkpt lat="49.133728027344" lon="2.7120079994202"><ele></ele><time>2022-6-23T12:39:17Z</time></trkpt>
<trkpt lat="49.133766174316" lon="2.7119693756104"><ele></ele><time>2022-6-23T12:39:20Z</time></trkpt>
<trkpt lat="49.133766174316" lon="2.7119693756104"><ele></ele><time>2022-6-23T12:39:23Z</time></trkpt>
<trkpt lat="49.133792877197" lon="2.7119398117065"><ele></ele><time>2022-6-23T12:39:26Z</time></trkpt>
<trkpt lat="49.133823394775" lon="2.7119081020355"><ele></ele><time>2022-6-23T12:39:29Z</time></trkpt>
<trkpt lat="49.133850097656" lon="2.7118718624115"><ele></ele><time>2022-6-23T12:39:32Z</time></trkpt>
<trkpt lat="49.133850097656" lon="2.7118718624115"><ele></ele><time>2022-6-23T12:39:35Z</time></trkpt>
<trkpt lat="49.133880615234" lon="2.7118351459503"><ele></ele><time>2022-6-23T12:39:38Z</time></trkpt>
<trkpt lat="49.133937835693" lon="2.7117717266083"><ele></ele><time>2022-6-23T12:39:41Z</time></trkpt>
<trkpt lat="49.133937835693" lon="2.7117717266083"><ele></ele><time>2022-6-23T12:39:44Z</time></trkpt>
<trkpt lat="49.133937835693" lon="2.7117717266083"><ele></ele><time>2022-6-23T12:39:47Z</time></trkpt>
<trkpt lat="49.133987426758" lon="2.7117254734039"><ele></ele><time>2022-6-23T12:39:50Z</time></trkpt>
<trkpt lat="49.133987426758" lon="2.7117254734039"><ele></ele><time>2022-6-23T12:39:53Z</time></trkpt>
<trkpt lat="49.133987426758" lon="2.7117254734039"><ele></ele><time>2022-6-23T12:39:56Z</time></trkpt>
<trkpt lat="49.133987426758" lon="2.7117254734039"><ele></ele><time>2022-6-23T12:39:59Z</time></trkpt>
<trkpt lat="49.1340675354" lon="2.7116725444794"><ele></ele><time>2022-6-23T12:40:2Z</time></trkpt>
<trkpt lat="49.1340675354" lon="2.7116725444794"><ele></ele><time>2022-6-23T12:40:5Z</time></trkpt>
<trkpt lat="49.1340675354" lon="2.7116725444794"><ele></ele><time>2022-6-23T12:40:8Z</time></trkpt>
<trkpt lat="49.1340675354" lon="2.7116725444794"><ele></ele><time>2022-6-23T12:40:11Z</time></trkpt>
<trkpt lat="49.134147644043" lon="2.7116391658783"><ele></ele><time>2022-6-23T12:40:14Z</time></trkpt>
<trkpt lat="49.134147644043" lon="2.7116391658783"><ele></ele><time>2022-6-23T12:40:17Z</time></trkpt>
<trkpt lat="49.134147644043" lon="2.7116391658783"><ele></ele><time>2022-6-23T12:40:20Z</time></trkpt>
<trkpt lat="49.134189605713" lon="2.7115683555603"><ele></ele><time>2022-6-23T12:40:23Z</time></trkpt>
<trkpt lat="49.134189605713" lon="2.7115683555603"><ele></ele><time>2022-6-23T12:40:26Z</time></trkpt>
<trkpt lat="49.134189605713" lon="2.7115683555603"><ele></ele><time>2022-6-23T12:40:29Z</time></trkpt>
<trkpt lat="49.134189605713" lon="2.7115683555603"><ele></ele><time>2022-6-23T12:40:32Z</time></trkpt>
<trkpt lat="49.134181976318" lon="2.7113897800446"><ele></ele><time>2022-6-23T12:40:35Z</time></trkpt>
<trkpt lat="49.134181976318" lon="2.7113897800446"><ele></ele><time>2022-6-23T12:40:38Z</time></trkpt>
<trkpt lat="49.134181976318" lon="2.7113897800446"><ele></ele><time>2022-6-23T12:40:41Z</time></trkpt>
<trkpt lat="49.134159088135" lon="2.7112739086151"><ele></ele><time>2022-6-23T12:40:44Z</time></trkpt>
<trkpt lat="49.134159088135" lon="2.7112739086151"><ele></ele><time>2022-6-23T12:40:47Z</time></trkpt>
<trkpt lat="49.134159088135" lon="2.7112739086151"><ele></ele><time>2022-6-23T12:40:50Z</time></trkpt>
<trkpt lat="49.134162902832" lon="2.7111668586731"><ele></ele><time>2022-6-23T12:40:53Z</time></trkpt>
<trkpt lat="49.134162902832" lon="2.7111668586731"><ele></ele><time>2022-6-23T12:40:56Z</time></trkpt>
<trkpt lat="49.13415145874" lon="2.7110557556152"><ele></ele><time>2022-6-23T12:40:59Z</time></trkpt>
<trkpt lat="49.13415145874" lon="2.7110557556152"><ele></ele><time>2022-6-23T12:41:2Z</time></trkpt>
<trkpt lat="49.134128570557" lon="2.7109689712524"><ele></ele><time>2022-6-23T12:41:5Z</time></trkpt>
<trkpt lat="49.134128570557" lon="2.7109689712524"><ele></ele><time>2022-6-23T12:41:8Z</time></trkpt>
<trkpt lat="49.134128570557" lon="2.7109689712524"><ele></ele><time>2022-6-23T12:41:11Z</time></trkpt>
<trkpt lat="49.13410949707" lon="2.7108581066132"><ele></ele><time>2022-6-23T12:41:14Z</time></trkpt>
<trkpt lat="49.134078979492" lon="2.7107303142548"><ele></ele><time>2022-6-23T12:41:17Z</time></trkpt>
<trkpt lat="49.134078979492" lon="2.7107303142548"><ele></ele><time>2022-6-23T12:41:20Z</time></trkpt>
<trkpt lat="49.134059906006" lon="2.7105846405029"><ele></ele><time>2022-6-23T12:41:23Z</time></trkpt>
<trkpt lat="49.134059906006" lon="2.7105846405029"><ele></ele><time>2022-6-23T12:41:26Z</time></trkpt>
<trkpt lat="49.134052276611" lon="2.7104516029358"><ele></ele><time>2022-6-23T12:41:29Z</time></trkpt>
<trkpt lat="49.134048461914" lon="2.710348367691"><ele></ele><time>2022-6-23T12:41:32Z</time></trkpt>
<trkpt lat="49.134048461914" lon="2.710348367691"><ele></ele><time>2022-6-23T12:41:35Z</time></trkpt>
<trkpt lat="49.134048461914" lon="2.710348367691"><ele></ele><time>2022-6-23T12:41:38Z</time></trkpt>
<trkpt lat="49.134048461914" lon="2.710348367691"><ele></ele><time>2022-6-23T12:41:41Z</time></trkpt>
<trkpt lat="49.134048461914" lon="2.71018409729"><ele></ele><time>2022-6-23T12:41:44Z</time></trkpt>
<trkpt lat="49.134048461914" lon="2.71018409729"><ele></ele><time>2022-6-23T12:41:47Z</time></trkpt>
<trkpt lat="49.13404083252" lon="2.7100079059601"><ele></ele><time>2022-6-23T12:41:50Z</time></trkpt>
<trkpt lat="49.13404083252" lon="2.7100079059601"><ele></ele><time>2022-6-23T12:41:53Z</time></trkpt>
<trkpt lat="49.13404083252" lon="2.7098603248596"><ele></ele><time>2022-6-23T12:41:56Z</time></trkpt>
<trkpt lat="49.13404083252" lon="2.7098603248596"><ele></ele><time>2022-6-23T12:41:59Z</time></trkpt>
<trkpt lat="49.134029388428" lon="2.7096626758575"><ele></ele><time>2022-6-23T12:42:2Z</time></trkpt>
<trkpt lat="49.134029388428" lon="2.7096626758575"><ele></ele><time>2022-6-23T12:42:5Z</time></trkpt>
<trkpt lat="49.134029388428" lon="2.7096626758575"><ele></ele><time>2022-6-23T12:42:8Z</time></trkpt>
<trkpt lat="49.134006500244" lon="2.7095062732697"><ele></ele><time>2022-6-23T12:42:11Z</time></trkpt>
<trkpt lat="49.134010314941" lon="2.7093417644501"><ele></ele><time>2022-6-23T12:42:14Z</time></trkpt>
<trkpt lat="49.134010314941" lon="2.7093417644501"><ele></ele><time>2022-6-23T12:42:17Z</time></trkpt>
<trkpt lat="49.134006500244" lon="2.7092001438141"><ele></ele><time>2022-6-23T12:42:20Z</time></trkpt>
<trkpt lat="49.134006500244" lon="2.7092001438141"><ele></ele><time>2022-6-23T12:42:23Z</time></trkpt>
<trkpt lat="49.133983612061" lon="2.7090556621552"><ele></ele><time>2022-6-23T12:42:26Z</time></trkpt>
<trkpt lat="49.133983612061" lon="2.7090556621552"><ele></ele><time>2022-6-23T12:42:29Z</time></trkpt>
<trkpt lat="49.133907318115" lon="2.7089080810547"><ele></ele><time>2022-6-23T12:42:32Z</time></trkpt>
<trkpt lat="49.133907318115" lon="2.7089080810547"><ele></ele><time>2022-6-23T12:42:35Z</time></trkpt>
<trkpt lat="49.133853912354" lon="2.7087695598602"><ele></ele><time>2022-6-23T12:42:38Z</time></trkpt>
<trkpt lat="49.133853912354" lon="2.7087695598602"><ele></ele><time>2022-6-23T12:42:41Z</time></trkpt>
<trkpt lat="49.133853912354" lon="2.7087695598602"><ele></ele><time>2022-6-23T12:42:44Z</time></trkpt>
<trkpt lat="49.133800506592" lon="2.7086305618286"><ele></ele><time>2022-6-23T12:42:47Z</time></trkpt>
<trkpt lat="49.133762359619" lon="2.7084872722626"><ele></ele><time>2022-6-23T12:42:50Z</time></trkpt>
<trkpt lat="49.133762359619" lon="2.7084872722626"><ele></ele><time>2022-6-23T12:42:53Z</time></trkpt>
<trkpt lat="49.133743286133" lon="2.7084064483643"><ele></ele><time>2022-6-23T12:42:56Z</time></trkpt>
<trkpt lat="49.133724212646" lon="2.7083237171173"><ele></ele><time>2022-6-23T12:42:59Z</time></trkpt>
<trkpt lat="49.133724212646" lon="2.7083237171173"><ele></ele><time>2022-6-23T12:43:2Z</time></trkpt>
<trkpt lat="49.13370513916" lon="2.7082467079163"><ele></ele><time>2022-6-23T12:43:5Z</time></trkpt>
<trkpt lat="49.133686065674" lon="2.7081732749939"><ele></ele><time>2022-6-23T12:43:8Z</time></trkpt>
<trkpt lat="49.133670806885" lon="2.7081019878387"><ele></ele><time>2022-6-23T12:43:11Z</time></trkpt>
<trkpt lat="49.133670806885" lon="2.7081019878387"><ele></ele><time>2022-6-23T12:43:14Z</time></trkpt>
<trkpt lat="49.133632659912" lon="2.7079327106476"><ele></ele><time>2022-6-23T12:43:17Z</time></trkpt>
<trkpt lat="49.133609771729" lon="2.7078266143799"><ele></ele><time>2022-6-23T12:43:20Z</time></trkpt>
<trkpt lat="49.133583068848" lon="2.707710981369"><ele></ele><time>2022-6-23T12:43:23Z</time></trkpt>
<trkpt lat="49.133583068848" lon="2.707710981369"><ele></ele><time>2022-6-23T12:43:26Z</time></trkpt>
<trkpt lat="49.133560180664" lon="2.7075963020325"><ele></ele><time>2022-6-23T12:43:29Z</time></trkpt>
<trkpt lat="49.133518218994" lon="2.7074120044708"><ele></ele><time>2022-6-23T12:43:32Z</time></trkpt>
<trkpt lat="49.133518218994" lon="2.7074120044708"><ele></ele><time>2022-6-23T12:43:35Z</time></trkpt>
<trkpt lat="49.133491516113" lon="2.7073240280151"><ele></ele><time>2022-6-23T12:43:38Z</time></trkpt>
<trkpt lat="49.13346862793" lon="2.7072405815125"><ele></ele><time>2022-6-23T12:43:41Z</time></trkpt>
<trkpt lat="49.133449554443" lon="2.7071497440338"><ele></ele><time>2022-6-23T12:43:44Z</time></trkpt>
<trkpt lat="49.133449554443" lon="2.7071497440338"><ele></ele><time>2022-6-23T12:43:47Z</time></trkpt>
<trkpt lat="49.133449554443" lon="2.7071497440338"><ele></ele><time>2022-6-23T12:43:50Z</time></trkpt>
<trkpt lat="49.133422851562" lon="2.7069704532623"><ele></ele><time>2022-6-23T12:43:53Z</time></trkpt>
<trkpt lat="49.133407592773" lon="2.7068655490875"><ele></ele><time>2022-6-23T12:43:56Z</time></trkpt>
<trkpt lat="49.133407592773" lon="2.7068655490875"><ele></ele><time>2022-6-23T12:43:59Z</time></trkpt>
<trkpt lat="49.133388519287" lon="2.7067677974701"><ele></ele><time>2022-6-23T12:44:2Z</time></trkpt>
<trkpt lat="49.133369445801" lon="2.7066733837128"><ele></ele><time>2022-6-23T12:44:5Z</time></trkpt>
<trkpt lat="49.133346557617" lon="2.7065629959106"><ele></ele><time>2022-6-23T12:44:8Z</time></trkpt>
<trkpt lat="49.133346557617" lon="2.7065629959106"><ele></ele><time>2022-6-23T12:44:11Z</time></trkpt>
<trkpt lat="49.133331298828" lon="2.7064352035522"><ele></ele><time>2022-6-23T12:44:14Z</time></trkpt>
<trkpt lat="49.133308410645" lon="2.7062063217163"><ele></ele><time>2022-6-23T12:44:17Z</time></trkpt>
<trkpt lat="49.133308410645" lon="2.7062063217163"><ele></ele><time>2022-6-23T12:44:20Z</time></trkpt>
<trkpt lat="49.13330078125" lon="2.7061049938202"><ele></ele><time>2022-6-23T12:44:23Z</time></trkpt>
<trkpt lat="49.133289337158" lon="2.7060079574585"><ele></ele><time>2022-6-23T12:44:26Z</time></trkpt>
<trkpt lat="49.133274078369" lon="2.7058954238892"><ele></ele><time>2022-6-23T12:44:29Z</time></trkpt>
<trkpt lat="49.13325881958" lon="2.7057874202728"><ele></ele><time>2022-6-23T12:44:32Z</time></trkpt>
<trkpt lat="49.133255004883" lon="2.7056841850281"><ele></ele><time>2022-6-23T12:44:35Z</time></trkpt>
<trkpt lat="49.133255004883" lon="2.7056841850281"><ele></ele><time>2022-6-23T12:44:38Z</time></trkpt>
<trkpt lat="49.133255004883" lon="2.7056841850281"><ele></ele><time>2022-6-23T12:44:41Z</time></trkpt>
<trkpt lat="49.13321685791" lon="2.7055370807648"><ele></ele><time>2022-6-23T12:44:44Z</time></trkpt>
<trkpt lat="49.13321685791" lon="2.7055370807648"><ele></ele><time>2022-6-23T12:44:47Z</time></trkpt>
<trkpt lat="49.13321685791" lon="2.7055370807648"><ele></ele><time>2022-6-23T12:44:50Z</time></trkpt>
<trkpt lat="49.13313293457" lon="2.7054240703583"><ele></ele><time>2022-6-23T12:44:53Z</time></trkpt>
<trkpt lat="49.13313293457" lon="2.7054240703583"><ele></ele><time>2022-6-23T12:44:56Z</time></trkpt>
<trkpt lat="49.133026123047" lon="2.7053256034851"><ele></ele><time>2022-6-23T12:44:59Z</time></trkpt>
<trkpt lat="49.133026123047" lon="2.7053256034851"><ele></ele><time>2022-6-23T12:45:2Z</time></trkpt>
<trkpt lat="49.132976531982" lon="2.7052822113037"><ele></ele><time>2022-6-23T12:45:5Z</time></trkpt>
<trkpt lat="49.132930755615" lon="2.7052125930786"><ele></ele><time>2022-6-23T12:45:8Z</time></trkpt>
<trkpt lat="49.132877349854" lon="2.7051200866699"><ele></ele><time>2022-6-23T12:45:11Z</time></trkpt>
<trkpt lat="49.132877349854" lon="2.7051200866699"><ele></ele><time>2022-6-23T12:45:14Z</time></trkpt>
<trkpt lat="49.132823944092" lon="2.705048084259"><ele></ele><time>2022-6-23T12:45:17Z</time></trkpt>
<trkpt lat="49.132743835449" lon="2.7049691677094"><ele></ele><time>2022-6-23T12:45:20Z</time></trkpt>
<trkpt lat="49.132667541504" lon="2.7048916816711"><ele></ele><time>2022-6-23T12:45:23Z</time></trkpt>
<trkpt lat="49.132667541504" lon="2.7048916816711"><ele></ele><time>2022-6-23T12:45:26Z</time></trkpt>
<trkpt lat="49.132591247559" lon="2.7048201560974"><ele></ele><time>2022-6-23T12:45:29Z</time></trkpt>
<trkpt lat="49.132514953613" lon="2.7047438621521"><ele></ele><time>2022-6-23T12:45:32Z</time></trkpt>
<trkpt lat="49.132442474365" lon="2.7046499252319"><ele></ele><time>2022-6-23T12:45:35Z</time></trkpt>
<trkpt lat="49.132442474365" lon="2.7046499252319"><ele></ele><time>2022-6-23T12:45:38Z</time></trkpt>
<trkpt lat="49.132373809814" lon="2.704562664032"><ele></ele><time>2022-6-23T12:45:41Z</time></trkpt>
<trkpt lat="49.132305145264" lon="2.7044751644135"><ele></ele><time>2022-6-23T12:45:44Z</time></trkpt>
<trkpt lat="49.132236480713" lon="2.7043890953064"><ele></ele><time>2022-6-23T12:45:47Z</time></trkpt>
<trkpt lat="49.132236480713" lon="2.7043890953064"><ele></ele><time>2022-6-23T12:45:50Z</time></trkpt>
<trkpt lat="49.132160186768" lon="2.7043099403381"><ele></ele><time>2022-6-23T12:45:53Z</time></trkpt>
<trkpt lat="49.132076263428" lon="2.7042198181152"><ele></ele><time>2022-6-23T12:45:56Z</time></trkpt>
<trkpt lat="49.131973266602" lon="2.7041866779327"><ele></ele><time>2022-6-23T12:45:59Z</time></trkpt>
<trkpt lat="49.131973266602" lon="2.7041866779327"><ele></ele><time>2022-6-23T12:46:2Z</time></trkpt>
<trkpt lat="49.131893157959" lon="2.7042152881622"><ele></ele><time>2022-6-23T12:46:5Z</time></trkpt>
<trkpt lat="49.131820678711" lon="2.7042405605316"><ele></ele><time>2022-6-23T12:46:8Z</time></trkpt>
<trkpt lat="49.131755828857" lon="2.7042770385742"><ele></ele><time>2022-6-23T12:46:11Z</time></trkpt>
<trkpt lat="49.131755828857" lon="2.7042770385742"><ele></ele><time>2022-6-23T12:46:14Z</time></trkpt>
<trkpt lat="49.131698608398" lon="2.7043037414551"><ele></ele><time>2022-6-23T12:46:17Z</time></trkpt>
<trkpt lat="49.131614685059" lon="2.704318523407"><ele></ele><time>2022-6-23T12:46:20Z</time></trkpt>
<trkpt lat="49.131511688232" lon="2.7043197154999"><ele></ele><time>2022-6-23T12:46:23Z</time></trkpt>
<trkpt lat="49.131397247314" lon="2.7043619155884"><ele></ele><time>2022-6-23T12:46:26Z</time></trkpt>
<trkpt lat="49.131278991699" lon="2.7044548988342"><ele></ele><time>2022-6-23T12:46:29Z</time></trkpt>
<trkpt lat="49.131183624268" lon="2.7044765949249"><ele></ele><time>2022-6-23T12:46:32Z</time></trkpt>
<trkpt lat="49.131114959717" lon="2.7044515609741"><ele></ele><time>2022-6-23T12:46:35Z</time></trkpt>
<trkpt lat="49.131023406982" lon="2.7044389247894"><ele></ele><time>2022-6-23T12:46:38Z</time></trkpt>
<trkpt lat="49.13090133667" lon="2.7043898105621"><ele></ele><time>2022-6-23T12:46:41Z</time></trkpt>
<trkpt lat="49.130764007568" lon="2.7043416500092"><ele></ele><time>2022-6-23T12:46:44Z</time></trkpt>
<trkpt lat="49.13064956665" lon="2.7042727470398"><ele></ele><time>2022-6-23T12:46:47Z</time></trkpt>
<trkpt lat="49.130546569824" lon="2.7041780948639"><ele></ele><time>2022-6-23T12:46:50Z</time></trkpt>
<trkpt lat="49.130432128906" lon="2.7040982246399"><ele></ele><time>2022-6-23T12:46:53Z</time></trkpt>
<trkpt lat="49.130306243896" lon="2.7040495872498"><ele></ele><time>2022-6-23T12:46:56Z</time></trkpt>
<trkpt lat="49.130187988281" lon="2.7039999961853"><ele></ele><time>2022-6-23T12:46:59Z</time></trkpt>
<trkpt lat="49.130088806152" lon="2.7039461135864"><ele></ele><time>2022-6-23T12:47:2Z</time></trkpt>
<trkpt lat="49.129981994629" lon="2.7038900852203"><ele></ele><time>2022-6-23T12:47:5Z</time></trkpt>
<trkpt lat="49.129875183105" lon="2.7038145065308"><ele></ele><time>2022-6-23T12:47:8Z</time></trkpt>
<trkpt lat="49.129768371582" lon="2.7037746906281"><ele></ele><time>2022-6-23T12:47:11Z</time></trkpt>
<trkpt lat="49.129692077637" lon="2.7037892341614"><ele></ele><time>2022-6-23T12:47:14Z</time></trkpt>
<trkpt lat="49.12963104248" lon="2.7038352489471"><ele></ele><time>2022-6-23T12:47:17Z</time></trkpt>
<trkpt lat="49.12963104248" lon="2.7038352489471"><ele></ele><time>2022-6-23T12:47:20Z</time></trkpt>
<trkpt lat="49.129543304443" lon="2.70383477211"><ele></ele><time>2022-6-23T12:47:23Z</time></trkpt>
<trkpt lat="49.129543304443" lon="2.70383477211"><ele></ele><time>2022-6-23T12:47:26Z</time></trkpt>
<trkpt lat="49.129425048828" lon="2.7038037776947"><ele></ele><time>2022-6-23T12:47:29Z</time></trkpt>
<trkpt lat="49.129348754883" lon="2.703816652298"><ele></ele><time>2022-6-23T12:47:32Z</time></trkpt>
<trkpt lat="49.12926864624" lon="2.7038588523865"><ele></ele><time>2022-6-23T12:47:35Z</time></trkpt>
<trkpt lat="49.129222869873" lon="2.703919172287"><ele></ele><time>2022-6-23T12:47:38Z</time></trkpt>
<trkpt lat="49.129222869873" lon="2.703919172287"><ele></ele><time>2022-6-23T12:47:41Z</time></trkpt>
<trkpt lat="49.129180908203" lon="2.7040619850159"><ele></ele><time>2022-6-23T12:47:44Z</time></trkpt>
<trkpt lat="49.129180908203" lon="2.7040619850159"><ele></ele><time>2022-6-23T12:47:47Z</time></trkpt>
<trkpt lat="49.129180908203" lon="2.7040619850159"><ele></ele><time>2022-6-23T12:47:50Z</time></trkpt>
<trkpt lat="49.129131317139" lon="2.7041492462158"><ele></ele><time>2022-6-23T12:47:53Z</time></trkpt>
<trkpt lat="49.129131317139" lon="2.7041492462158"><ele></ele><time>2022-6-23T12:47:56Z</time></trkpt>
<trkpt lat="49.129131317139" lon="2.7041492462158"><ele></ele><time>2022-6-23T12:47:59Z</time></trkpt>
<trkpt lat="49.129112243652" lon="2.7042806148529"><ele></ele><time>2022-6-23T12:48:2Z</time></trkpt>
<trkpt lat="49.12907409668" lon="2.7043488025665"><ele></ele><time>2022-6-23T12:48:5Z</time></trkpt>
<trkpt lat="49.12907409668" lon="2.7043488025665"><ele></ele><time>2022-6-23T12:48:8Z</time></trkpt>
<trkpt lat="49.129005432129" lon="2.7043280601501"><ele></ele><time>2022-6-23T12:48:11Z</time></trkpt>
<trkpt lat="49.129005432129" lon="2.7043280601501"><ele></ele><time>2022-6-23T12:48:14Z</time></trkpt>
<trkpt lat="49.128910064697" lon="2.704306602478"><ele></ele><time>2022-6-23T12:48:17Z</time></trkpt>
<trkpt lat="49.128833770752" lon="2.7042834758759"><ele></ele><time>2022-6-23T12:48:20Z</time></trkpt>
<trkpt lat="49.128753662109" lon="2.7041687965393"><ele></ele><time>2022-6-23T12:48:23Z</time></trkpt>
<trkpt lat="49.128711700439" lon="2.7040593624115"><ele></ele><time>2022-6-23T12:48:26Z</time></trkpt>
<trkpt lat="49.128711700439" lon="2.7040593624115"><ele></ele><time>2022-6-23T12:48:29Z</time></trkpt>
<trkpt lat="49.128711700439" lon="2.7040593624115"><ele></ele><time>2022-6-23T12:48:32Z</time></trkpt>
<trkpt lat="49.128684997559" lon="2.7039635181427"><ele></ele><time>2022-6-23T12:48:35Z</time></trkpt>
<trkpt lat="49.128684997559" lon="2.7039635181427"><ele></ele><time>2022-6-23T12:48:38Z</time></trkpt>
<trkpt lat="49.12866973877" lon="2.7037916183472"><ele></ele><time>2022-6-23T12:48:41Z</time></trkpt>
<trkpt lat="49.12865447998" lon="2.7036509513855"><ele></ele><time>2022-6-23T12:48:44Z</time></trkpt>
<trkpt lat="49.12865447998" lon="2.7036509513855"><ele></ele><time>2022-6-23T12:48:47Z</time></trkpt>
<trkpt lat="49.12865447998" lon="2.7036509513855"><ele></ele><time>2022-6-23T12:48:50Z</time></trkpt>
<trkpt lat="49.12865447998" lon="2.7036509513855"><ele></ele><time>2022-6-23T12:48:53Z</time></trkpt>
<trkpt lat="49.128639221191" lon="2.7035405635834"><ele></ele><time>2022-6-23T12:48:56Z</time></trkpt>
<trkpt lat="49.128623962402" lon="2.7034225463867"><ele></ele><time>2022-6-23T12:48:59Z</time></trkpt>
<trkpt lat="49.128601074219" lon="2.7032535076141"><ele></ele><time>2022-6-23T12:49:2Z</time></trkpt>
<trkpt lat="49.128601074219" lon="2.7031531333923"><ele></ele><time>2022-6-23T12:49:5Z</time></trkpt>
<trkpt lat="49.128608703613" lon="2.7030477523804"><ele></ele><time>2022-6-23T12:49:8Z</time></trkpt>
<trkpt lat="49.128612518311" lon="2.7029483318329"><ele></ele><time>2022-6-23T12:49:11Z</time></trkpt>
<trkpt lat="49.128608703613" lon="2.7028546333313"><ele></ele><time>2022-6-23T12:49:14Z</time></trkpt>
<trkpt lat="49.128566741943" lon="2.702686548233"><ele></ele><time>2022-6-23T12:49:17Z</time></trkpt>
<trkpt lat="49.128513336182" lon="2.7026047706604"><ele></ele><time>2022-6-23T12:49:20Z</time></trkpt>
<trkpt lat="49.128452301025" lon="2.7025656700134"><ele></ele><time>2022-6-23T12:49:23Z</time></trkpt>
<trkpt lat="49.128398895264" lon="2.7025883197784"><ele></ele><time>2022-6-23T12:49:26Z</time></trkpt>
<trkpt lat="49.128398895264" lon="2.7025883197784"><ele></ele><time>2022-6-23T12:49:29Z</time></trkpt>
<trkpt lat="49.128326416016" lon="2.7026124000549"><ele></ele><time>2022-6-23T12:49:32Z</time></trkpt>
<trkpt lat="49.128253936768" lon="2.7026014328003"><ele></ele><time>2022-6-23T12:49:35Z</time></trkpt>
<trkpt lat="49.128173828125" lon="2.7025654315948"><ele></ele><time>2022-6-23T12:49:38Z</time></trkpt>
<trkpt lat="49.128173828125" lon="2.7025654315948"><ele></ele><time>2022-6-23T12:49:41Z</time></trkpt>
<trkpt lat="49.128116607666" lon="2.7025156021118"><ele></ele><time>2022-6-23T12:49:44Z</time></trkpt>
<trkpt lat="49.128067016602" lon="2.702454328537"><ele></ele><time>2022-6-23T12:49:47Z</time></trkpt>
<trkpt lat="49.128017425537" lon="2.7024011611938"><ele></ele><time>2022-6-23T12:49:50Z</time></trkpt>
<trkpt lat="49.128017425537" lon="2.7024011611938"><ele></ele><time>2022-6-23T12:49:53Z</time></trkpt>
<trkpt lat="49.127967834473" lon="2.7023463249207"><ele></ele><time>2022-6-23T12:49:56Z</time></trkpt>
<trkpt lat="49.127914428711" lon="2.7022850513458"><ele></ele><time>2022-6-23T12:49:59Z</time></trkpt>
<trkpt lat="49.127914428711" lon="2.7022850513458"><ele></ele><time>2022-6-23T12:50:2Z</time></trkpt>
<trkpt lat="49.127914428711" lon="2.7022850513458"><ele></ele><time>2022-6-23T12:50:5Z</time></trkpt>
<trkpt lat="49.127822875977" lon="2.7021913528442"><ele></ele><time>2022-6-23T12:50:8Z</time></trkpt>
<trkpt lat="49.127769470215" lon="2.7021286487579"><ele></ele><time>2022-6-23T12:50:11Z</time></trkpt>
<trkpt lat="49.127769470215" lon="2.7021286487579"><ele></ele><time>2022-6-23T12:50:14Z</time></trkpt>
<trkpt lat="49.127769470215" lon="2.7021286487579"><ele></ele><time>2022-6-23T12:50:17Z</time></trkpt>
<trkpt lat="49.127727508545" lon="2.7020695209503"><ele></ele><time>2022-6-23T12:50:20Z</time></trkpt>
<trkpt lat="49.127689361572" lon="2.7020144462585"><ele></ele><time>2022-6-23T12:50:23Z</time></trkpt>
<trkpt lat="49.1276512146" lon="2.7019588947296"><ele></ele><time>2022-6-23T12:50:26Z</time></trkpt>
<trkpt lat="49.1276512146" lon="2.7019588947296"><ele></ele><time>2022-6-23T12:50:29Z</time></trkpt>
<trkpt lat="49.12760925293" lon="2.7019014358521"><ele></ele><time>2022-6-23T12:50:32Z</time></trkpt>
<trkpt lat="49.127559661865" lon="2.7018401622772"><ele></ele><time>2022-6-23T12:50:35Z</time></trkpt>
<trkpt lat="49.127460479736" lon="2.7017116546631"><ele></ele><time>2022-6-23T12:50:38Z</time></trkpt>
<trkpt lat="49.127460479736" lon="2.7017116546631"><ele></ele><time>2022-6-23T12:50:41Z</time></trkpt>
<trkpt lat="49.127460479736" lon="2.7017116546631"><ele></ele><time>2022-6-23T12:50:44Z</time></trkpt>
<trkpt lat="49.127407073975" lon="2.7015557289124"><ele></ele><time>2022-6-23T12:50:47Z</time></trkpt>
<trkpt lat="49.12739944458" lon="2.7014582157135"><ele></ele><time>2022-6-23T12:50:50Z</time></trkpt>
<trkpt lat="49.12739944458" lon="2.7014582157135"><ele></ele><time>2022-6-23T12:50:53Z</time></trkpt>
<trkpt lat="49.127407073975" lon="2.7013714313507"><ele></ele><time>2022-6-23T12:50:56Z</time></trkpt>
<trkpt lat="49.127429962158" lon="2.701192855835"><ele></ele><time>2022-6-23T12:50:59Z</time></trkpt>
<trkpt lat="49.127429962158" lon="2.701192855835"><ele></ele><time>2022-6-23T12:51:2Z</time></trkpt>
<trkpt lat="49.127449035645" lon="2.7010717391968"><ele></ele><time>2022-6-23T12:51:5Z</time></trkpt>
<trkpt lat="49.127471923828" lon="2.7009658813477"><ele></ele><time>2022-6-23T12:51:8Z</time></trkpt>
<trkpt lat="49.127498626709" lon="2.7008497714996"><ele></ele><time>2022-6-23T12:51:11Z</time></trkpt>
<trkpt lat="49.127517700195" lon="2.7007415294647"><ele></ele><time>2022-6-23T12:51:14Z</time></trkpt>
<trkpt lat="49.127540588379" lon="2.700615644455"><ele></ele><time>2022-6-23T12:51:17Z</time></trkpt>
<trkpt lat="49.127540588379" lon="2.700615644455"><ele></ele><time>2022-6-23T12:51:20Z</time></trkpt>
<trkpt lat="49.127559661865" lon="2.7004761695862"><ele></ele><time>2022-6-23T12:51:23Z</time></trkpt>
<trkpt lat="49.127586364746" lon="2.700347661972"><ele></ele><time>2022-6-23T12:51:26Z</time></trkpt>
<trkpt lat="49.127643585205" lon="2.7002739906311"><ele></ele><time>2022-6-23T12:51:29Z</time></trkpt>
<trkpt lat="49.127643585205" lon="2.7002739906311"><ele></ele><time>2022-6-23T12:51:32Z</time></trkpt>
<trkpt lat="49.127769470215" lon="2.7003180980682"><ele></ele><time>2022-6-23T12:51:35Z</time></trkpt>
<trkpt lat="49.127864837646" lon="2.7003383636475"><ele></ele><time>2022-6-23T12:51:38Z</time></trkpt>
<trkpt lat="49.127864837646" lon="2.7003383636475"><ele></ele><time>2022-6-23T12:51:41Z</time></trkpt>
<trkpt lat="49.1279296875" lon="2.7002413272858"><ele></ele><time>2022-6-23T12:51:44Z</time></trkpt>
<trkpt lat="49.127960205078" lon="2.7000842094421"><ele></ele><time>2022-6-23T12:51:47Z</time></trkpt>
<trkpt lat="49.127983093262" lon="2.6998829841614"><ele></ele><time>2022-6-23T12:51:50Z</time></trkpt>
<trkpt lat="49.127983093262" lon="2.6998829841614"><ele></ele><time>2022-6-23T12:51:53Z</time></trkpt>
<trkpt lat="49.127986907959" lon="2.6996972560883"><ele></ele><time>2022-6-23T12:51:56Z</time></trkpt>
<trkpt lat="49.127979278564" lon="2.6995313167572"><ele></ele><time>2022-6-23T12:51:59Z</time></trkpt>
<trkpt lat="49.12797164917" lon="2.6993889808655"><ele></ele><time>2022-6-23T12:52:2Z</time></trkpt>
<trkpt lat="49.12797164917" lon="2.6993889808655"><ele></ele><time>2022-6-23T12:52:5Z</time></trkpt>
<trkpt lat="49.127952575684" lon="2.6992447376251"><ele></ele><time>2022-6-23T12:52:8Z</time></trkpt>
<trkpt lat="49.127941131592" lon="2.6990921497345"><ele></ele><time>2022-6-23T12:52:11Z</time></trkpt>
<trkpt lat="49.127918243408" lon="2.6989498138428"><ele></ele><time>2022-6-23T12:52:14Z</time></trkpt>
<trkpt lat="49.127918243408" lon="2.6989498138428"><ele></ele><time>2022-6-23T12:52:17Z</time></trkpt>
<trkpt lat="49.127883911133" lon="2.6987915039062"><ele></ele><time>2022-6-23T12:52:20Z</time></trkpt>
<trkpt lat="49.127864837646" lon="2.6986470222473"><ele></ele><time>2022-6-23T12:52:23Z</time></trkpt>
<trkpt lat="49.127841949463" lon="2.6984860897064"><ele></ele><time>2022-6-23T12:52:26Z</time></trkpt>
<trkpt lat="49.127841949463" lon="2.6984860897064"><ele></ele><time>2022-6-23T12:52:29Z</time></trkpt>
<trkpt lat="49.127826690674" lon="2.6983449459076"><ele></ele><time>2022-6-23T12:52:32Z</time></trkpt>
<trkpt lat="49.127811431885" lon="2.6981954574585"><ele></ele><time>2022-6-23T12:52:35Z</time></trkpt>
<trkpt lat="49.127799987793" lon="2.6980454921722"><ele></ele><time>2022-6-23T12:52:38Z</time></trkpt>
<trkpt lat="49.127799987793" lon="2.6980454921722"><ele></ele><time>2022-6-23T12:52:41Z</time></trkpt>
<trkpt lat="49.127796173096" lon="2.6979117393494"><ele></ele><time>2022-6-23T12:52:44Z</time></trkpt>
<trkpt lat="49.127784729004" lon="2.6977739334106"><ele></ele><time>2022-6-23T12:52:47Z</time></trkpt>
<trkpt lat="49.127769470215" lon="2.6976373195648"><ele></ele><time>2022-6-23T12:52:50Z</time></trkpt>
<trkpt lat="49.127769470215" lon="2.6976373195648"><ele></ele><time>2022-6-23T12:52:53Z</time></trkpt>
<trkpt lat="49.12776184082" lon="2.6974952220917"><ele></ele><time>2022-6-23T12:52:56Z</time></trkpt>
<trkpt lat="49.127758026123" lon="2.6973628997803"><ele></ele><time>2022-6-23T12:52:59Z</time></trkpt>
<trkpt lat="49.127758026123" lon="2.6972188949585"><ele></ele><time>2022-6-23T12:53:2Z</time></trkpt>
<trkpt lat="49.127758026123" lon="2.6972188949585"><ele></ele><time>2022-6-23T12:53:5Z</time></trkpt>
<trkpt lat="49.127758026123" lon="2.6970770359039"><ele></ele><time>2022-6-23T12:53:8Z</time></trkpt>
<trkpt lat="49.127758026123" lon="2.6969110965729"><ele></ele><time>2022-6-23T12:53:11Z</time></trkpt>
<trkpt lat="49.127758026123" lon="2.6967628002167"><ele></ele><time>2022-6-23T12:53:14Z</time></trkpt>
<trkpt lat="49.127758026123" lon="2.6967628002167"><ele></ele><time>2022-6-23T12:53:17Z</time></trkpt>
<trkpt lat="49.127746582031" lon="2.696610212326"><ele></ele><time>2022-6-23T12:53:20Z</time></trkpt>
<trkpt lat="49.127731323242" lon="2.6964747905731"><ele></ele><time>2022-6-23T12:53:23Z</time></trkpt>
<trkpt lat="49.127700805664" lon="2.6963591575623"><ele></ele><time>2022-6-23T12:53:26Z</time></trkpt>
<trkpt lat="49.127700805664" lon="2.6963591575623"><ele></ele><time>2022-6-23T12:53:29Z</time></trkpt>
<trkpt lat="49.1276512146" lon="2.6962361335754"><ele></ele><time>2022-6-23T12:53:32Z</time></trkpt>
<trkpt lat="49.12760925293" lon="2.6961302757263"><ele></ele><time>2022-6-23T12:53:35Z</time></trkpt>
<trkpt lat="49.12756729126" lon="2.6960413455963"><ele></ele><time>2022-6-23T12:53:38Z</time></trkpt>
<trkpt lat="49.12756729126" lon="2.6960413455963"><ele></ele><time>2022-6-23T12:53:41Z</time></trkpt>
<trkpt lat="49.127529144287" lon="2.6959564685822"><ele></ele><time>2022-6-23T12:53:44Z</time></trkpt>
<trkpt lat="49.127487182617" lon="2.6958827972412"><ele></ele><time>2022-6-23T12:53:47Z</time></trkpt>
<trkpt lat="49.12744140625" lon="2.6957967281342"><ele></ele><time>2022-6-23T12:53:50Z</time></trkpt>
<trkpt lat="49.12744140625" lon="2.6957967281342"><ele></ele><time>2022-6-23T12:53:53Z</time></trkpt>
<trkpt lat="49.12739944458" lon="2.6957206726074"><ele></ele><time>2022-6-23T12:53:56Z</time></trkpt>
<trkpt lat="49.127361297607" lon="2.6956481933594"><ele></ele><time>2022-6-23T12:53:59Z</time></trkpt>
<trkpt lat="49.127361297607" lon="2.6956481933594"><ele></ele><time>2022-6-23T12:54:2Z</time></trkpt>
<trkpt lat="49.127277374268" lon="2.6955163478851"><ele></ele><time>2022-6-23T12:54:5Z</time></trkpt>
<trkpt lat="49.127239227295" lon="2.6954438686371"><ele></ele><time>2022-6-23T12:54:8Z</time></trkpt>
<trkpt lat="49.127239227295" lon="2.6954438686371"><ele></ele><time>2022-6-23T12:54:11Z</time></trkpt>
<trkpt lat="49.127197265625" lon="2.6953632831573"><ele></ele><time>2022-6-23T12:54:14Z</time></trkpt>
<trkpt lat="49.127151489258" lon="2.6952557563782"><ele></ele><time>2022-6-23T12:54:17Z</time></trkpt>
<trkpt lat="49.127109527588" lon="2.6951673030853"><ele></ele><time>2022-6-23T12:54:20Z</time></trkpt>
<trkpt lat="49.127109527588" lon="2.6951673030853"><ele></ele><time>2022-6-23T12:54:23Z</time></trkpt>
<trkpt lat="49.127063751221" lon="2.6950771808624"><ele></ele><time>2022-6-23T12:54:26Z</time></trkpt>
<trkpt lat="49.127014160156" lon="2.6949894428253"><ele></ele><time>2022-6-23T12:54:29Z</time></trkpt>
<trkpt lat="49.126953125" lon="2.6948797702789"><ele></ele><time>2022-6-23T12:54:32Z</time></trkpt>
<trkpt lat="49.126953125" lon="2.6948797702789"><ele></ele><time>2022-6-23T12:54:35Z</time></trkpt>
<trkpt lat="49.126903533936" lon="2.6947948932648"><ele></ele><time>2022-6-23T12:54:38Z</time></trkpt>
<trkpt lat="49.126850128174" lon="2.6947169303894"><ele></ele><time>2022-6-23T12:54:41Z</time></trkpt>
<trkpt lat="49.126792907715" lon="2.6946241855621"><ele></ele><time>2022-6-23T12:54:44Z</time></trkpt>
<trkpt lat="49.126792907715" lon="2.6946241855621"><ele></ele><time>2022-6-23T12:54:47Z</time></trkpt>
<trkpt lat="49.126739501953" lon="2.6945118904114"><ele></ele><time>2022-6-23T12:54:50Z</time></trkpt>
<trkpt lat="49.126686096191" lon="2.6943986415863"><ele></ele><time>2022-6-23T12:54:53Z</time></trkpt>
<trkpt lat="49.126628875732" lon="2.6943016052246"><ele></ele><time>2022-6-23T12:54:56Z</time></trkpt>
<trkpt lat="49.126628875732" lon="2.6943016052246"><ele></ele><time>2022-6-23T12:54:59Z</time></trkpt>
<trkpt lat="49.126567840576" lon="2.6942319869995"><ele></ele><time>2022-6-23T12:55:2Z</time></trkpt>
<trkpt lat="49.126491546631" lon="2.6941590309143"><ele></ele><time>2022-6-23T12:55:5Z</time></trkpt>
<trkpt lat="49.126407623291" lon="2.6940848827362"><ele></ele><time>2022-6-23T12:55:8Z</time></trkpt>
<trkpt lat="49.126407623291" lon="2.6940848827362"><ele></ele><time>2022-6-23T12:55:11Z</time></trkpt>
<trkpt lat="49.126327514648" lon="2.6940157413483"><ele></ele><time>2022-6-23T12:55:14Z</time></trkpt>
<trkpt lat="49.126235961914" lon="2.6939370632172"><ele></ele><time>2022-6-23T12:55:17Z</time></trkpt>
<trkpt lat="49.12614440918" lon="2.6938602924347"><ele></ele><time>2022-6-23T12:55:20Z</time></trkpt>
<trkpt lat="49.12614440918" lon="2.6938602924347"><ele></ele><time>2022-6-23T12:55:23Z</time></trkpt>
<trkpt lat="49.126052856445" lon="2.6937835216522"><ele></ele><time>2022-6-23T12:55:26Z</time></trkpt>
<trkpt lat="49.125965118408" lon="2.6937141418457"><ele></ele><time>2022-6-23T12:55:29Z</time></trkpt>
<trkpt lat="49.12589263916" lon="2.6936514377594"><ele></ele><time>2022-6-23T12:55:32Z</time></trkpt>
<trkpt lat="49.12589263916" lon="2.6936514377594"><ele></ele><time>2022-6-23T12:55:35Z</time></trkpt>
<trkpt lat="49.12580871582" lon="2.6935923099518"><ele></ele><time>2022-6-23T12:55:38Z</time></trkpt>
<trkpt lat="49.125736236572" lon="2.6935513019562"><ele></ele><time>2022-6-23T12:55:41Z</time></trkpt>
<trkpt lat="49.125667572021" lon="2.6935093402863"><ele></ele><time>2022-6-23T12:55:44Z</time></trkpt>
<trkpt lat="49.125667572021" lon="2.6935093402863"><ele></ele><time>2022-6-23T12:55:47Z</time></trkpt>
<trkpt lat="49.125667572021" lon="2.6935093402863"><ele></ele><time>2022-6-23T12:55:50Z</time></trkpt>
<trkpt lat="49.125648498535" lon="2.6933526992798"><ele></ele><time>2022-6-23T12:55:53Z</time></trkpt>
<trkpt lat="49.125652313232" lon="2.693216085434"><ele></ele><time>2022-6-23T12:55:56Z</time></trkpt>
<trkpt lat="49.125652313232" lon="2.693216085434"><ele></ele><time>2022-6-23T12:55:59Z</time></trkpt>
<trkpt lat="49.125640869141" lon="2.6930818557739"><ele></ele><time>2022-6-23T12:56:2Z</time></trkpt>
<trkpt lat="49.125640869141" lon="2.6929631233215"><ele></ele><time>2022-6-23T12:56:5Z</time></trkpt>
<trkpt lat="49.125640869141" lon="2.6928610801697"><ele></ele><time>2022-6-23T12:56:8Z</time></trkpt>
<trkpt lat="49.125640869141" lon="2.6928610801697"><ele></ele><time>2022-6-23T12:56:11Z</time></trkpt>
<trkpt lat="49.125633239746" lon="2.6927466392517"><ele></ele><time>2022-6-23T12:56:14Z</time></trkpt>
<trkpt lat="49.125629425049" lon="2.6926186084747"><ele></ele><time>2022-6-23T12:56:17Z</time></trkpt>
<trkpt lat="49.125633239746" lon="2.6924705505371"><ele></ele><time>2022-6-23T12:56:20Z</time></trkpt>
<trkpt lat="49.125633239746" lon="2.6924705505371"><ele></ele><time>2022-6-23T12:56:23Z</time></trkpt>
<trkpt lat="49.125675201416" lon="2.6923208236694"><ele></ele><time>2022-6-23T12:56:26Z</time></trkpt>
<trkpt lat="49.125736236572" lon="2.6921949386597"><ele></ele><time>2022-6-23T12:56:29Z</time></trkpt>
<trkpt lat="49.12580871582" lon="2.6920778751373"><ele></ele><time>2022-6-23T12:56:32Z</time></trkpt>
<trkpt lat="49.12580871582" lon="2.6920778751373"><ele></ele><time>2022-6-23T12:56:35Z</time></trkpt>
<trkpt lat="49.125873565674" lon="2.6919887065887"><ele></ele><time>2022-6-23T12:56:38Z</time></trkpt>
<trkpt lat="49.125938415527" lon="2.6919143199921"><ele></ele><time>2022-6-23T12:56:41Z</time></trkpt>
<trkpt lat="49.126010894775" lon="2.6918215751648"><ele></ele><time>2022-6-23T12:56:44Z</time></trkpt>
<trkpt lat="49.126010894775" lon="2.6918215751648"><ele></ele><time>2022-6-23T12:56:47Z</time></trkpt>
<trkpt lat="49.126087188721" lon="2.6917195320129"><ele></ele><time>2022-6-23T12:56:50Z</time></trkpt>
<trkpt lat="49.126167297363" lon="2.6915981769562"><ele></ele><time>2022-6-23T12:56:53Z</time></trkpt>
<trkpt lat="49.1262550354" lon="2.6914901733398"><ele></ele><time>2022-6-23T12:56:56Z</time></trkpt>
<trkpt lat="49.1262550354" lon="2.6914901733398"><ele></ele><time>2022-6-23T12:56:59Z</time></trkpt>
<trkpt lat="49.126342773438" lon="2.691394329071"><ele></ele><time>2022-6-23T12:57:2Z</time></trkpt>
<trkpt lat="49.126419067383" lon="2.6913025379181"><ele></ele><time>2022-6-23T12:57:5Z</time></trkpt>
<trkpt lat="49.126487731934" lon="2.6912021636963"><ele></ele><time>2022-6-23T12:57:8Z</time></trkpt>
<trkpt lat="49.126487731934" lon="2.6912021636963"><ele></ele><time>2022-6-23T12:57:11Z</time></trkpt>
<trkpt lat="49.126525878906" lon="2.69109416008"><ele></ele><time>2022-6-23T12:57:14Z</time></trkpt>
<trkpt lat="49.126575469971" lon="2.6909584999084"><ele></ele><time>2022-6-23T12:57:17Z</time></trkpt>
<trkpt lat="49.126628875732" lon="2.6908173561096"><ele></ele><time>2022-6-23T12:57:20Z</time></trkpt>
<trkpt lat="49.126628875732" lon="2.6908173561096"><ele></ele><time>2022-6-23T12:57:23Z</time></trkpt>
<trkpt lat="49.126720428467" lon="2.6907079219818"><ele></ele><time>2022-6-23T12:57:26Z</time></trkpt>
<trkpt lat="49.126800537109" lon="2.6906311511993"><ele></ele><time>2022-6-23T12:57:29Z</time></trkpt>
<trkpt lat="49.126873016357" lon="2.690582036972"><ele></ele><time>2022-6-23T12:57:32Z</time></trkpt>
<trkpt lat="49.126873016357" lon="2.690582036972"><ele></ele><time>2022-6-23T12:57:35Z</time></trkpt>
<trkpt lat="49.126937866211" lon="2.6905379295349"><ele></ele><time>2022-6-23T12:57:38Z</time></trkpt>
<trkpt lat="49.126998901367" lon="2.6904997825623"><ele></ele><time>2022-6-23T12:57:41Z</time></trkpt>
<trkpt lat="49.127063751221" lon="2.690459728241"><ele></ele><time>2022-6-23T12:57:44Z</time></trkpt>
<trkpt lat="49.127063751221" lon="2.690459728241"><ele></ele><time>2022-6-23T12:57:47Z</time></trkpt>
<trkpt lat="49.127117156982" lon="2.6904270648956"><ele></ele><time>2022-6-23T12:57:50Z</time></trkpt>
<trkpt lat="49.127178192139" lon="2.6903903484344"><ele></ele><time>2022-6-23T12:57:53Z</time></trkpt>
<trkpt lat="49.127243041992" lon="2.6903457641602"><ele></ele><time>2022-6-23T12:57:56Z</time></trkpt>
<trkpt lat="49.127243041992" lon="2.6903457641602"><ele></ele><time>2022-6-23T12:57:59Z</time></trkpt>
<trkpt lat="49.127304077148" lon="2.6903040409088"><ele></ele><time>2022-6-23T12:58:2Z</time></trkpt>
<trkpt lat="49.127384185791" lon="2.6902458667755"><ele></ele><time>2022-6-23T12:58:5Z</time></trkpt>
<trkpt lat="49.12744140625" lon="2.6902093887329"><ele></ele><time>2022-6-23T12:58:8Z</time></trkpt>
<trkpt lat="49.12744140625" lon="2.6902093887329"><ele></ele><time>2022-6-23T12:58:11Z</time></trkpt>
<trkpt lat="49.127506256104" lon="2.6901681423187"><ele></ele><time>2022-6-23T12:58:14Z</time></trkpt>
<trkpt lat="49.127571105957" lon="2.6901195049286"><ele></ele><time>2022-6-23T12:58:17Z</time></trkpt>
<trkpt lat="49.127635955811" lon="2.690071105957"><ele></ele><time>2022-6-23T12:58:20Z</time></trkpt>
<trkpt lat="49.127716064453" lon="2.6900107860565"><ele></ele><time>2022-6-23T12:58:23Z</time></trkpt>
<trkpt lat="49.127799987793" lon="2.6899571418762"><ele></ele><time>2022-6-23T12:58:26Z</time></trkpt>
<trkpt lat="49.12788772583" lon="2.6899220943451"><ele></ele><time>2022-6-23T12:58:29Z</time></trkpt>
<trkpt lat="49.127975463867" lon="2.6899027824402"><ele></ele><time>2022-6-23T12:58:32Z</time></trkpt>
<trkpt lat="49.128067016602" lon="2.6899070739746"><ele></ele><time>2022-6-23T12:58:35Z</time></trkpt>
<trkpt lat="49.128154754639" lon="2.6899411678314"><ele></ele><time>2022-6-23T12:58:38Z</time></trkpt>
<trkpt lat="49.128234863281" lon="2.6899755001068"><ele></ele><time>2022-6-23T12:58:41Z</time></trkpt>
<trkpt lat="49.128322601318" lon="2.6900091171265"><ele></ele><time>2022-6-23T12:58:44Z</time></trkpt>
<trkpt lat="49.128391265869" lon="2.6900479793549"><ele></ele><time>2022-6-23T12:58:47Z</time></trkpt>
<trkpt lat="49.128467559814" lon="2.6900794506073"><ele></ele><time>2022-6-23T12:58:50Z</time></trkpt>
<trkpt lat="49.128551483154" lon="2.6901149749756"><ele></ele><time>2022-6-23T12:58:53Z</time></trkpt>
<trkpt lat="49.128620147705" lon="2.6901421546936"><ele></ele><time>2022-6-23T12:58:56Z</time></trkpt>
<trkpt lat="49.128688812256" lon="2.6901621818542"><ele></ele><time>2022-6-23T12:58:59Z</time></trkpt>
<trkpt lat="49.128749847412" lon="2.6901741027832"><ele></ele><time>2022-6-23T12:59:2Z</time></trkpt>
<trkpt lat="49.128749847412" lon="2.6901741027832"><ele></ele><time>2022-6-23T12:59:5Z</time></trkpt>
<trkpt lat="49.128803253174" lon="2.6902084350586"><ele></ele><time>2022-6-23T12:59:8Z</time></trkpt>
<trkpt lat="49.128803253174" lon="2.6902084350586"><ele></ele><time>2022-6-23T12:59:11Z</time></trkpt>
</trkseg></trk></gpx>